<?xml version='1.0' encoding='UTF-8'?><gpx version="1.1" creator="JPX - https://github.com/jenetics/jpx" xmlns="http://www.topografix.com/GPX/1/1"><trk><trkseg><trkpt lat="43.707216904050696" lon="10.618233841196972"><ele>11.0</ele><time>2026-04-25T06:50:27.999Z</time></trkpt><trkpt lat="43.707251746383" lon="10.618049563183522"><ele>11.0</ele><time>2026-04-25T06:50:30.999Z</time></trkpt><trkpt lat="43.70726174297079" lon="10.617957722817804"><ele>11.0</ele><time>2026-04-25T06:50:32.999Z</time></trkpt><trkpt lat="43.70725973811432" lon="10.617850778755106"><ele>11.0</ele><time>2026-04-25T06:50:35.999Z</time></trkpt><trkpt lat="43.707263415754795" lon="10.617732594511326"><ele>11.0</ele><time>2026-04-25T06:50:38.999Z</time></trkpt><trkpt lat="43.70728016305135" lon="10.617637470121444"><ele>11.0</ele><time>2026-04-25T06:50:39.999Z</time></trkpt><trkpt lat="43.707319068454126" lon="10.617527208939721"><ele>11.25</ele><time>2026-04-25T06:50:40.999Z</time></trkpt><trkpt lat="43.70734816067346" lon="10.617395307223996"><ele>11.5</ele><time>2026-04-25T06:50:41.999Z</time></trkpt><trkpt lat="43.70739318674486" lon="10.617259918249124"><ele>11.75</ele><time>2026-04-25T06:50:42.999Z</time></trkpt><trkpt lat="43.70745443148137" lon="10.617121799361497"><ele>12.0</ele><time>2026-04-25T06:50:43.999Z</time></trkpt><trkpt lat="43.70748698014181" lon="10.616953098002963"><ele>12.25</ele><time>2026-04-25T06:50:44.999Z</time></trkpt><trkpt lat="43.70754125543403" lon="10.616784117876898"><ele>12.5</ele><time>2026-04-25T06:50:45.999Z</time></trkpt><trkpt lat="43.707591642377515" lon="10.616606738380254"><ele>12.75</ele><time>2026-04-25T06:50:46.999Z</time></trkpt><trkpt lat="43.707644620545786" lon="10.616420987134077"><ele>13.0</ele><time>2026-04-25T06:50:47.999Z</time></trkpt><trkpt lat="43.707694517946535" lon="10.616229116723712"><ele>12.5</ele><time>2026-04-25T06:50:48.999Z</time></trkpt><trkpt lat="43.70774724224431" lon="10.61605944722795"><ele>12.0</ele><time>2026-04-25T06:50:49.999Z</time></trkpt><trkpt lat="43.70779295218737" lon="10.615903637455858"><ele>11.5</ele><time>2026-04-25T06:50:50.999Z</time></trkpt><trkpt lat="43.7078356125628" lon="10.615754002935619"><ele>11.0</ele><time>2026-04-25T06:50:51.999Z</time></trkpt><trkpt lat="43.707872844059104" lon="10.615613468446474"><ele>11.0</ele><time>2026-04-25T06:50:52.999Z</time></trkpt><trkpt lat="43.70791801047039" lon="10.615477692925623"><ele>11.0</ele><time>2026-04-25T06:50:53.999Z</time></trkpt><trkpt lat="43.70796608589887" lon="10.615354105609912"><ele>11.0</ele><time>2026-04-25T06:50:54.999Z</time></trkpt><trkpt lat="43.70802156907711" lon="10.61522827094038"><ele>11.0</ele><time>2026-04-25T06:50:55.999Z</time></trkpt><trkpt lat="43.70810789074246" lon="10.615128577332793"><ele>11.0</ele><time>2026-04-25T06:50:56.999Z</time></trkpt><trkpt lat="43.708211826953594" lon="10.615057122595978"><ele>11.0</ele><time>2026-04-25T06:50:57.999Z</time></trkpt><trkpt lat="43.70832328891412" lon="10.61499380100374"><ele>11.0</ele><time>2026-04-25T06:50:58.999Z</time></trkpt><trkpt lat="43.70844193734173" lon="10.614941486554512"><ele>11.0</ele><time>2026-04-25T06:50:59.999Z</time></trkpt><trkpt lat="43.70856927241609" lon="10.61491108058297"><ele>11.0</ele><time>2026-04-25T06:51:00.999Z</time></trkpt><trkpt lat="43.708717566273585" lon="10.614937668215816"><ele>11.0</ele><time>2026-04-25T06:51:01.999Z</time></trkpt><trkpt lat="43.708857459075766" lon="10.614909103602134"><ele>11.0</ele><time>2026-04-25T06:51:02.999Z</time></trkpt><trkpt lat="43.70900674777576" lon="10.614901728555678"><ele>11.0</ele><time>2026-04-25T06:51:03.998Z</time></trkpt><trkpt lat="43.709159442412954" lon="10.614884803655208"><ele>11.0</ele><time>2026-04-25T06:51:04.998Z</time></trkpt><trkpt lat="43.70931947844505" lon="10.614860691668303"><ele>11.0</ele><time>2026-04-25T06:51:05.998Z</time></trkpt><trkpt lat="43.70948557226423" lon="10.614837248227785"><ele>11.0</ele><time>2026-04-25T06:51:06.998Z</time></trkpt><trkpt lat="43.70965775922064" lon="10.614816165866502"><ele>11.0</ele><time>2026-04-25T06:51:08Z</time></trkpt><trkpt lat="43.709834824473745" lon="10.614795477395381"><ele>11.0</ele><time>2026-04-25T06:51:09Z</time></trkpt><trkpt lat="43.7100169393488" lon="10.614776536121159"><ele>11.0</ele><time>2026-04-25T06:51:10Z</time></trkpt><trkpt lat="43.710199839053864" lon="10.614754420128959"><ele>11.0</ele><time>2026-04-25T06:51:11Z</time></trkpt><trkpt lat="43.71038787035852" lon="10.614730169836413"><ele>11.0</ele><time>2026-04-25T06:51:12Z</time></trkpt><trkpt lat="43.71057497300141" lon="10.614706467582627"><ele>11.0</ele><time>2026-04-25T06:51:13Z</time></trkpt><trkpt lat="43.710765770239675" lon="10.614683849420162"><ele>11.0</ele><time>2026-04-25T06:51:14Z</time></trkpt><trkpt lat="43.71095902663106" lon="10.614661534090507"><ele>10.666666666666666</ele><time>2026-04-25T06:51:15Z</time></trkpt><trkpt lat="43.711149483187114" lon="10.614638538668178"><ele>10.333333333333334</ele><time>2026-04-25T06:51:16Z</time></trkpt><trkpt lat="43.711343694930974" lon="10.614616029455437"><ele>10.0</ele><time>2026-04-25T06:51:17Z</time></trkpt><trkpt lat="43.71153667994924" lon="10.614590446406783"><ele>10.0</ele><time>2026-04-25T06:51:18Z</time></trkpt><trkpt lat="43.71173170059686" lon="10.614566240387722"><ele>10.0</ele><time>2026-04-25T06:51:19Z</time></trkpt><trkpt lat="43.71192830920043" lon="10.61454361639784"><ele>10.0</ele><time>2026-04-25T06:51:20Z</time></trkpt><trkpt lat="43.71212422546723" lon="10.6145232740815"><ele>10.0</ele><time>2026-04-25T06:51:21Z</time></trkpt><trkpt lat="43.71232236074383" lon="10.614504279621826"><ele>10.0</ele><time>2026-04-25T06:51:22Z</time></trkpt><trkpt lat="43.712519912062774" lon="10.614481574687643"><ele>10.0</ele><time>2026-04-25T06:51:23Z</time></trkpt><trkpt lat="43.712720827319394" lon="10.614455652434641"><ele>9.666666666666668</ele><time>2026-04-25T06:51:24Z</time></trkpt><trkpt lat="43.712919414936465" lon="10.614430655294104"><ele>9.333333333333334</ele><time>2026-04-25T06:51:25Z</time></trkpt><trkpt lat="43.71312108541185" lon="10.614404196469938"><ele>9.0</ele><time>2026-04-25T06:51:26Z</time></trkpt><trkpt lat="43.71332106959779" lon="10.614373980824313"><ele>9.0</ele><time>2026-04-25T06:51:27Z</time></trkpt><trkpt lat="43.71352039616855" lon="10.61434294130609"><ele>9.0</ele><time>2026-04-25T06:51:28Z</time></trkpt><trkpt lat="43.713715320569435" lon="10.614316141832836"><ele>9.0</ele><time>2026-04-25T06:51:29Z</time></trkpt><trkpt lat="43.71389475864395" lon="10.614294242794442"><ele>9.333333333333334</ele><time>2026-04-25T06:51:30Z</time></trkpt><trkpt lat="43.714063719960144" lon="10.614276346934465"><ele>9.666666666666668</ele><time>2026-04-25T06:51:31Z</time></trkpt><trkpt lat="43.71422151462198" lon="10.614260994234888"><ele>10.0</ele><time>2026-04-25T06:51:32Z</time></trkpt><trkpt lat="43.714371242816625" lon="10.614240572487105"><ele>10.0</ele><time>2026-04-25T06:51:33Z</time></trkpt><trkpt lat="43.714516628007644" lon="10.61422499227394"><ele>10.0</ele><time>2026-04-25T06:51:34Z</time></trkpt><trkpt lat="43.714667506604584" lon="10.614210520534028"><ele>10.0</ele><time>2026-04-25T06:51:35Z</time></trkpt><trkpt lat="43.71481488746926" lon="10.614187649055143"><ele>10.0</ele><time>2026-04-25T06:51:36Z</time></trkpt><trkpt lat="43.71495753979883" lon="10.614163501475126"><ele>10.0</ele><time>2026-04-25T06:51:37Z</time></trkpt><trkpt lat="43.71509226411456" lon="10.614147725300942"><ele>10.0</ele><time>2026-04-25T06:51:38Z</time></trkpt><trkpt lat="43.715224966678804" lon="10.614139358722671"><ele>10.0</ele><time>2026-04-25T06:51:39Z</time></trkpt><trkpt lat="43.715357758983544" lon="10.614140541571626"><ele>10.0</ele><time>2026-04-25T06:51:40Z</time></trkpt><trkpt lat="43.71549618703751" lon="10.614155685367267"><ele>10.0</ele><time>2026-04-25T06:51:41Z</time></trkpt><trkpt lat="43.7156381824926" lon="10.614187730289444"><ele>10.0</ele><time>2026-04-25T06:51:42Z</time></trkpt><trkpt lat="43.71578318690787" lon="10.614223357368312"><ele>10.0</ele><time>2026-04-25T06:51:43Z</time></trkpt><trkpt lat="43.71592503628186" lon="10.614273658268324"><ele>10.0</ele><time>2026-04-25T06:51:44Z</time></trkpt><trkpt lat="43.71606829814369" lon="10.61433288060766"><ele>9.75</ele><time>2026-04-25T06:51:45Z</time></trkpt><trkpt lat="43.7162090371893" lon="10.61439854802397"><ele>9.5</ele><time>2026-04-25T06:51:46Z</time></trkpt><trkpt lat="43.716346540090235" lon="10.614476138704582"><ele>9.25</ele><time>2026-04-25T06:51:47Z</time></trkpt><trkpt lat="43.71647884182056" lon="10.614563290678698"><ele>9.0</ele><time>2026-04-25T06:51:48Z</time></trkpt><trkpt lat="43.7166050709796" lon="10.614654470529677"><ele>9.0</ele><time>2026-04-25T06:51:49Z</time></trkpt><trkpt lat="43.71672026789992" lon="10.614748944709325"><ele>9.0</ele><time>2026-04-25T06:51:50Z</time></trkpt><trkpt lat="43.71683130700928" lon="10.61485132734592"><ele>9.0</ele><time>2026-04-25T06:51:51Z</time></trkpt><trkpt lat="43.71694123170799" lon="10.614963045177582"><ele>9.0</ele><time>2026-04-25T06:51:52Z</time></trkpt><trkpt lat="43.717043998580564" lon="10.615086138418269"><ele>8.75</ele><time>2026-04-25T06:51:53Z</time></trkpt><trkpt lat="43.717147377470994" lon="10.615216987851577"><ele>8.5</ele><time>2026-04-25T06:51:54Z</time></trkpt><trkpt lat="43.717249258014846" lon="10.615354041168427"><ele>8.25</ele><time>2026-04-25T06:51:55Z</time></trkpt><trkpt lat="43.71735320755354" lon="10.615505789084153"><ele>8.0</ele><time>2026-04-25T06:51:56Z</time></trkpt><trkpt lat="43.717456227906524" lon="10.615655243577457"><ele>8.0</ele><time>2026-04-25T06:51:57Z</time></trkpt><trkpt lat="43.71755083460961" lon="10.6158036536132"><ele>8.0</ele><time>2026-04-25T06:51:58Z</time></trkpt><trkpt lat="43.7176522010639" lon="10.615952547552473"><ele>8.0</ele><time>2026-04-25T06:51:59Z</time></trkpt><trkpt lat="43.717763320037214" lon="10.616102037074612"><ele>8.0</ele><time>2026-04-25T06:52:00Z</time></trkpt><trkpt lat="43.717876095753695" lon="10.616288196428693"><ele>8.0</ele><time>2026-04-25T06:52:01Z</time></trkpt><trkpt lat="43.71800216165451" lon="10.616474629061734"><ele>8.0</ele><time>2026-04-25T06:52:02Z</time></trkpt><trkpt lat="43.71813941449248" lon="10.616646077012847"><ele>8.0</ele><time>2026-04-25T06:52:03Z</time></trkpt><trkpt lat="43.71825472462108" lon="10.616838504498332"><ele>8.0</ele><time>2026-04-25T06:52:04Z</time></trkpt><trkpt lat="43.7183650497783" lon="10.617011829629021"><ele>8.0</ele><time>2026-04-25T06:52:05Z</time></trkpt><trkpt lat="43.71847146123185" lon="10.617168199342212"><ele>8.0</ele><time>2026-04-25T06:52:06Z</time></trkpt><trkpt lat="43.71856790006351" lon="10.617316641659754"><ele>7.75</ele><time>2026-04-25T06:52:07Z</time></trkpt><trkpt lat="43.718657558909456" lon="10.61746484599543"><ele>7.5</ele><time>2026-04-25T06:52:07.999Z</time></trkpt><trkpt lat="43.71872900849051" lon="10.617605491524138"><ele>7.25</ele><time>2026-04-25T06:52:08.999Z</time></trkpt><trkpt lat="43.718783624774645" lon="10.617741693044177"><ele>7.0</ele><time>2026-04-25T06:52:09.999Z</time></trkpt><trkpt lat="43.7188239671429" lon="10.617854138813804"><ele>7.3999999999999995</ele><time>2026-04-25T06:52:10.999Z</time></trkpt><trkpt lat="43.718869768888275" lon="10.617962822961651"><ele>7.799999999999999</ele><time>2026-04-25T06:52:12.999Z</time></trkpt><trkpt lat="43.71893569905254" lon="10.61802326693731"><ele>8.2</ele><time>2026-04-25T06:52:28.999Z</time></trkpt><trkpt lat="43.71905995572202" lon="10.61797811144345"><ele>8.6</ele><time>2026-04-25T06:52:29.999Z</time></trkpt><trkpt lat="43.71915986812223" lon="10.617958205916484"><ele>9.0</ele><time>2026-04-25T06:52:31.999Z</time></trkpt><trkpt lat="43.71925574557076" lon="10.617907787817092"><ele>9.0</ele><time>2026-04-25T06:52:33.999Z</time></trkpt><trkpt lat="43.71938365660034" lon="10.61785365766328"><ele>9.0</ele><time>2026-04-25T06:52:35.999Z</time></trkpt><trkpt lat="43.71948877417728" lon="10.617835050504073"><ele>9.0</ele><time>2026-04-25T06:52:36.999Z</time></trkpt><trkpt lat="43.71961215859086" lon="10.617787024152232"><ele>9.0</ele><time>2026-04-25T06:52:37.999Z</time></trkpt><trkpt lat="43.7197548443303" lon="10.617733029581183"><ele>9.666666666666666</ele><time>2026-04-25T06:52:38.999Z</time></trkpt><trkpt lat="43.71990122835634" lon="10.617675908670165"><ele>10.333333333333332</ele><time>2026-04-25T06:52:39.999Z</time></trkpt><trkpt lat="43.7200503382679" lon="10.61761737448238"><ele>11.0</ele><time>2026-04-25T06:52:40.999Z</time></trkpt><trkpt lat="43.72020683795582" lon="10.617535498181743"><ele>10.666666666666666</ele><time>2026-04-25T06:52:41.999Z</time></trkpt><trkpt lat="43.72038001851761" lon="10.617489285329071"><ele>10.333333333333334</ele><time>2026-04-25T06:52:42.999Z</time></trkpt><trkpt lat="43.720564755460394" lon="10.617417814642593"><ele>10.0</ele><time>2026-04-25T06:52:43.999Z</time></trkpt><trkpt lat="43.720763581726786" lon="10.617339642692894"><ele>10.0</ele><time>2026-04-25T06:52:44.999Z</time></trkpt><trkpt lat="43.720969941995634" lon="10.617261188330927"><ele>10.0</ele><time>2026-04-25T06:52:45.999Z</time></trkpt><trkpt lat="43.72118121041083" lon="10.617171467842525"><ele>10.0</ele><time>2026-04-25T06:52:46.999Z</time></trkpt><trkpt lat="43.72139278153785" lon="10.617099657733764"><ele>10.0</ele><time>2026-04-25T06:52:47.999Z</time></trkpt><trkpt lat="43.72160204368054" lon="10.617019861658315"><ele>10.0</ele><time>2026-04-25T06:52:48.999Z</time></trkpt><trkpt lat="43.72179840278646" lon="10.616943469811117"><ele>10.0</ele><time>2026-04-25T06:52:49.999Z</time></trkpt><trkpt lat="43.721977091781575" lon="10.616873867542472"><ele>10.75</ele><time>2026-04-25T06:52:50.999Z</time></trkpt><trkpt lat="43.72214327180718" lon="10.616810521581503"><ele>11.5</ele><time>2026-04-25T06:52:51.999Z</time></trkpt><trkpt lat="43.72228134510154" lon="10.616754035428006"><ele>12.25</ele><time>2026-04-25T06:52:52.999Z</time></trkpt><trkpt lat="43.722396150365604" lon="10.616703623490963"><ele>13.0</ele><time>2026-04-25T06:52:53.999Z</time></trkpt><trkpt lat="43.72249747150255" lon="10.616670676249491"><ele>13.0</ele><time>2026-04-25T06:52:54.999Z</time></trkpt><trkpt lat="43.72258198513576" lon="10.616691766006394"><ele>13.0</ele><time>2026-04-25T06:52:55.999Z</time></trkpt><trkpt lat="43.7226526866983" lon="10.61677313793154"><ele>13.0</ele><time>2026-04-25T06:52:56.999Z</time></trkpt><trkpt lat="43.722717408166176" lon="10.616899894383703"><ele>13.0</ele><time>2026-04-25T06:52:57.999Z</time></trkpt><trkpt lat="43.72278736834931" lon="10.61704609064329"><ele>13.0</ele><time>2026-04-25T06:52:58.999Z</time></trkpt><trkpt lat="43.72286894932793" lon="10.617186219473878"><ele>13.75</ele><time>2026-04-25T06:52:59.998Z</time></trkpt><trkpt lat="43.72295713559348" lon="10.617325557148757"><ele>14.5</ele><time>2026-04-25T06:53:00.998Z</time></trkpt><trkpt lat="43.72306130221007" lon="10.617443504036983"><ele>15.25</ele><time>2026-04-25T06:53:01.998Z</time></trkpt><trkpt lat="43.723185837631675" lon="10.617517047832742"><ele>16.0</ele><time>2026-04-25T06:53:02.998Z</time></trkpt><trkpt lat="43.72331683745842" lon="10.617546311172775"><ele>16.0</ele><time>2026-04-25T06:53:03.998Z</time></trkpt><trkpt lat="43.72344793534049" lon="10.617539779615202"><ele>16.0</ele><time>2026-04-25T06:53:04.998Z</time></trkpt><trkpt lat="43.72357584627873" lon="10.617512399697336"><ele>16.0</ele><time>2026-04-25T06:53:05.998Z</time></trkpt><trkpt lat="43.72370709254386" lon="10.61746560764628"><ele>16.0</ele><time>2026-04-25T06:53:06.998Z</time></trkpt><trkpt lat="43.723839698793455" lon="10.617426985772976"><ele>18.0</ele><time>2026-04-25T06:53:07.998Z</time></trkpt><trkpt lat="43.72397152761402" lon="10.617376893233835"><ele>20.0</ele><time>2026-04-25T06:53:08.998Z</time></trkpt><trkpt lat="43.724235457079985" lon="10.61726221131282"><ele>22.0</ele><time>2026-04-25T06:53:10.998Z</time></trkpt><trkpt lat="43.724371774208706" lon="10.617204700894769"><ele>22.0</ele><time>2026-04-25T06:53:11.998Z</time></trkpt><trkpt lat="43.72450731160882" lon="10.617154533621466"><ele>22.0</ele><time>2026-04-25T06:53:12.998Z</time></trkpt><trkpt lat="43.724644965285364" lon="10.617113403074859"><ele>22.0</ele><time>2026-04-25T06:53:14Z</time></trkpt><trkpt lat="43.72479053360573" lon="10.617088424582512"><ele>22.0</ele><time>2026-04-25T06:53:15Z</time></trkpt><trkpt lat="43.72493603186946" lon="10.617080351227834"><ele>22.0</ele><time>2026-04-25T06:53:16Z</time></trkpt><trkpt lat="43.72508533513411" lon="10.61708032512213"><ele>22.0</ele><time>2026-04-25T06:53:17Z</time></trkpt><trkpt lat="43.72523436622548" lon="10.617084379967363"><ele>22.0</ele><time>2026-04-25T06:53:18Z</time></trkpt><trkpt lat="43.725387118865065" lon="10.617098326260185"><ele>20.333333333333332</ele><time>2026-04-25T06:53:19Z</time></trkpt><trkpt lat="43.72553975687749" lon="10.617105840240637"><ele>18.666666666666668</ele><time>2026-04-25T06:53:20Z</time></trkpt><trkpt lat="43.72568928410604" lon="10.617109820032121"><ele>17.0</ele><time>2026-04-25T06:53:21Z</time></trkpt><trkpt lat="43.725836865298206" lon="10.617128079820898"><ele>17.0</ele><time>2026-04-25T06:53:22Z</time></trkpt><trkpt lat="43.725988375420194" lon="10.617113517168738"><ele>17.0</ele><time>2026-04-25T06:53:23Z</time></trkpt><trkpt lat="43.72613364750577" lon="10.617126795248623"><ele>17.0</ele><time>2026-04-25T06:53:24Z</time></trkpt><trkpt lat="43.72628032298759" lon="10.617135582265774"><ele>17.0</ele><time>2026-04-25T06:53:25Z</time></trkpt><trkpt lat="43.7264132822868" lon="10.617139716344669"><ele>17.0</ele><time>2026-04-25T06:53:26Z</time></trkpt><trkpt lat="43.726541698438915" lon="10.617150236220054"><ele>17.0</ele><time>2026-04-25T06:53:27Z</time></trkpt><trkpt lat="43.72666364369962" lon="10.61715526078471"><ele>17.0</ele><time>2026-04-25T06:53:28Z</time></trkpt><trkpt lat="43.7267767217431" lon="10.617157341260475"><ele>17.0</ele><time>2026-04-25T06:53:29Z</time></trkpt><trkpt lat="43.726880556788124" lon="10.617152837699683"><ele>17.4</ele><time>2026-04-25T06:53:30Z</time></trkpt><trkpt lat="43.72697661338354" lon="10.617153640398595"><ele>17.799999999999997</ele><time>2026-04-25T06:53:31Z</time></trkpt><trkpt lat="43.727041872182625" lon="10.617154234189474"><ele>18.2</ele><time>2026-04-25T06:53:32Z</time></trkpt><trkpt lat="43.72713940305501" lon="10.617179450871147"><ele>18.599999999999998</ele><time>2026-04-25T06:53:34Z</time></trkpt><trkpt lat="43.72716110479518" lon="10.616950005007507"><ele>19.0</ele><time>2026-04-25T06:53:35Z</time></trkpt><trkpt lat="43.727160143723346" lon="10.616836646986028"><ele>19.2</ele><time>2026-04-25T06:53:36Z</time></trkpt><trkpt lat="43.727164074809124" lon="10.616711905525772"><ele>19.4</ele><time>2026-04-25T06:53:37Z</time></trkpt><trkpt lat="43.72716853177316" lon="10.616574508340133"><ele>19.6</ele><time>2026-04-25T06:53:38Z</time></trkpt><trkpt lat="43.727172810414956" lon="10.616424844842584"><ele>19.8</ele><time>2026-04-25T06:53:39Z</time></trkpt><trkpt lat="43.72717601495319" lon="10.616275249344348"><ele>20.0</ele><time>2026-04-25T06:53:40Z</time></trkpt><trkpt lat="43.727181790402135" lon="10.616116696472872"><ele>20.5</ele><time>2026-04-25T06:53:41Z</time></trkpt><trkpt lat="43.72718747770064" lon="10.615953303568274"><ele>21.0</ele><time>2026-04-25T06:53:42Z</time></trkpt><trkpt lat="43.72719129884682" lon="10.615782977627987"><ele>21.5</ele><time>2026-04-25T06:53:43Z</time></trkpt><trkpt lat="43.72719433734002" lon="10.615610616323146"><ele>22.0</ele><time>2026-04-25T06:53:44Z</time></trkpt><trkpt lat="43.72719513018562" lon="10.615430718095157"><ele>22.75</ele><time>2026-04-25T06:53:45Z</time></trkpt><trkpt lat="43.72719485256631" lon="10.615242807047267"><ele>23.5</ele><time>2026-04-25T06:53:46Z</time></trkpt><trkpt lat="43.72719485063792" lon="10.615052547945474"><ele>24.25</ele><time>2026-04-25T06:53:47Z</time></trkpt><trkpt lat="43.72719936231528" lon="10.614860159001962"><ele>25.0</ele><time>2026-04-25T06:53:48Z</time></trkpt><trkpt lat="43.72720499548565" lon="10.614663904311314"><ele>25.25</ele><time>2026-04-25T06:53:49Z</time></trkpt><trkpt lat="43.72721050173767" lon="10.614461544531569"><ele>25.5</ele><time>2026-04-25T06:53:50Z</time></trkpt><trkpt lat="43.72721623961978" lon="10.614257605284319"><ele>25.75</ele><time>2026-04-25T06:53:51Z</time></trkpt><trkpt lat="43.72721953566939" lon="10.614052834512293"><ele>26.0</ele><time>2026-04-25T06:53:52Z</time></trkpt><trkpt lat="43.72722245834606" lon="10.613845922722067"><ele>25.666666666666664</ele><time>2026-04-25T06:53:53Z</time></trkpt><trkpt lat="43.72722588703891" lon="10.613636005542894"><ele>25.333333333333336</ele><time>2026-04-25T06:53:54Z</time></trkpt><trkpt lat="43.72723508510699" lon="10.613424699271997"><ele>25.0</ele><time>2026-04-25T06:53:55Z</time></trkpt><trkpt lat="43.727255468776534" lon="10.613215743035463"><ele>25.0</ele><time>2026-04-25T06:53:56Z</time></trkpt><trkpt lat="43.727287228867866" lon="10.61300682082989"><ele>25.0</ele><time>2026-04-25T06:53:57Z</time></trkpt><trkpt lat="43.72733421858772" lon="10.612795106131742"><ele>25.0</ele><time>2026-04-25T06:53:58Z</time></trkpt><trkpt lat="43.7273962474069" lon="10.61257771753854"><ele>25.0</ele><time>2026-04-25T06:53:59Z</time></trkpt><trkpt lat="43.727465663033044" lon="10.612363653303136"><ele>25.0</ele><time>2026-04-25T06:54:00Z</time></trkpt><trkpt lat="43.72753689040464" lon="10.612141094472495"><ele>25.0</ele><time>2026-04-25T06:54:01Z</time></trkpt><trkpt lat="43.72760973244522" lon="10.611918290888607"><ele>25.0</ele><time>2026-04-25T06:54:02Z</time></trkpt><trkpt lat="43.72769023035724" lon="10.611685571758693"><ele>25.0</ele><time>2026-04-25T06:54:03Z</time></trkpt><trkpt lat="43.727769997980836" lon="10.611450609045166"><ele>25.0</ele><time>2026-04-25T06:54:04Z</time></trkpt><trkpt lat="43.72784579766949" lon="10.611209740710366"><ele>27.0</ele><time>2026-04-25T06:54:05Z</time></trkpt><trkpt lat="43.72792375622036" lon="10.61096464475748"><ele>29.0</ele><time>2026-04-25T06:54:06Z</time></trkpt><trkpt lat="43.72800358264765" lon="10.610718894108734"><ele>31.0</ele><time>2026-04-25T06:54:07Z</time></trkpt><trkpt lat="43.72808122538135" lon="10.610472886459506"><ele>31.666666666666668</ele><time>2026-04-25T06:54:08Z</time></trkpt><trkpt lat="43.728162809840235" lon="10.610221511726017"><ele>32.333333333333336</ele><time>2026-04-25T06:54:09Z</time></trkpt><trkpt lat="43.72824407060754" lon="10.609973496701581"><ele>33.0</ele><time>2026-04-25T06:54:10Z</time></trkpt><trkpt lat="43.72832275608619" lon="10.609723217009986"><ele>33.333333333333336</ele><time>2026-04-25T06:54:11Z</time></trkpt><trkpt lat="43.72839178463579" lon="10.609466316337468"><ele>33.66666666666667</ele><time>2026-04-25T06:54:12Z</time></trkpt><trkpt lat="43.728453699263866" lon="10.609204813791713"><ele>34.0</ele><time>2026-04-25T06:54:12.999Z</time></trkpt><trkpt lat="43.72850497367473" lon="10.608938567096466"><ele>34.333333333333336</ele><time>2026-04-25T06:54:13.999Z</time></trkpt><trkpt lat="43.72854269589291" lon="10.60865046515387"><ele>34.666666666666664</ele><time>2026-04-25T06:54:14.999Z</time></trkpt><trkpt lat="43.728574701461724" lon="10.608360572966125"><ele>35.0</ele><time>2026-04-25T06:54:15.999Z</time></trkpt><trkpt lat="43.72860875269711" lon="10.608081242607648"><ele>36.0</ele><time>2026-04-25T06:54:16.999Z</time></trkpt><trkpt lat="43.72864942180794" lon="10.607809043737392"><ele>37.0</ele><time>2026-04-25T06:54:17.999Z</time></trkpt><trkpt lat="43.72868711184797" lon="10.607540822166776"><ele>38.0</ele><time>2026-04-25T06:54:18.999Z</time></trkpt><trkpt lat="43.72871375042142" lon="10.607275052239176"><ele>38.0</ele><time>2026-04-25T06:54:19.999Z</time></trkpt><trkpt lat="43.728742558500485" lon="10.607007566750195"><ele>38.0</ele><time>2026-04-25T06:54:20.999Z</time></trkpt><trkpt lat="43.72877513171866" lon="10.60673556328367"><ele>38.0</ele><time>2026-04-25T06:54:21.999Z</time></trkpt><trkpt lat="43.72880165648863" lon="10.606470871406092"><ele>39.0</ele><time>2026-04-25T06:54:22.999Z</time></trkpt><trkpt lat="43.728822008241316" lon="10.606206539092854"><ele>40.0</ele><time>2026-04-25T06:54:23.999Z</time></trkpt><trkpt lat="43.72882928745556" lon="10.605947103369324"><ele>41.0</ele><time>2026-04-25T06:54:24.999Z</time></trkpt><trkpt lat="43.728828569396214" lon="10.605694726667231"><ele>41.33333333333333</ele><time>2026-04-25T06:54:25.999Z</time></trkpt><trkpt lat="43.728822892795755" lon="10.605447360198422"><ele>41.666666666666664</ele><time>2026-04-25T06:54:26.999Z</time></trkpt><trkpt lat="43.728819679499374" lon="10.60520572660884"><ele>42.0</ele><time>2026-04-25T06:54:27.999Z</time></trkpt><trkpt lat="43.72882150766219" lon="10.604968416411308"><ele>42.333333333333336</ele><time>2026-04-25T06:54:28.999Z</time></trkpt><trkpt lat="43.728821967892806" lon="10.604733103361454"><ele>42.66666666666667</ele><time>2026-04-25T06:54:29.999Z</time></trkpt><trkpt lat="43.728814167487315" lon="10.604504654582938"><ele>43.0</ele><time>2026-04-25T06:54:30.999Z</time></trkpt><trkpt lat="43.72880884907458" lon="10.60429498528046"><ele>43.75</ele><time>2026-04-25T06:54:31.999Z</time></trkpt><trkpt lat="43.72880489432835" lon="10.604097212244648"><ele>44.5</ele><time>2026-04-25T06:54:32.999Z</time></trkpt><trkpt lat="43.72880271408019" lon="10.6039126491075"><ele>45.25</ele><time>2026-04-25T06:54:33.999Z</time></trkpt><trkpt lat="43.728799771370674" lon="10.603753460780498"><ele>46.0</ele><time>2026-04-25T06:54:34.999Z</time></trkpt><trkpt lat="43.72879947091982" lon="10.603628423337808"><ele>46.4</ele><time>2026-04-25T06:54:35.999Z</time></trkpt><trkpt lat="43.7288012019458" lon="10.603533487280362"><ele>46.8</ele><time>2026-04-25T06:54:36.999Z</time></trkpt><trkpt lat="43.72879946096767" lon="10.60333428447162"><ele>47.199999999999996</ele><time>2026-04-25T06:54:38.999Z</time></trkpt><trkpt lat="43.72880048413299" lon="10.603178657461294"><ele>47.599999999999994</ele><time>2026-04-25T06:54:39.999Z</time></trkpt><trkpt lat="43.72879825424855" lon="10.60301008120755"><ele>48.0</ele><time>2026-04-25T06:54:40.999Z</time></trkpt><trkpt lat="43.728792119829414" lon="10.602828678294154"><ele>48.75</ele><time>2026-04-25T06:54:41.999Z</time></trkpt><trkpt lat="43.72878923718506" lon="10.602634212596781"><ele>49.5</ele><time>2026-04-25T06:54:42.999Z</time></trkpt><trkpt lat="43.728786589639675" lon="10.602426684396589"><ele>50.25</ele><time>2026-04-25T06:54:43.999Z</time></trkpt><trkpt lat="43.72878311770224" lon="10.602211123235694"><ele>51.0</ele><time>2026-04-25T06:54:44.999Z</time></trkpt><trkpt lat="43.72878023470861" lon="10.601984505240985"><ele>52.0</ele><time>2026-04-25T06:54:45.999Z</time></trkpt><trkpt lat="43.7287763099673" lon="10.60174102932549"><ele>53.0</ele><time>2026-04-25T06:54:46.999Z</time></trkpt><trkpt lat="43.728763210965326" lon="10.601508421180993"><ele>54.0</ele><time>2026-04-25T06:54:47.999Z</time></trkpt><trkpt lat="43.728726570164035" lon="10.601268962719795"><ele>52.66666666666667</ele><time>2026-04-25T06:54:48.999Z</time></trkpt><trkpt lat="43.72867266860681" lon="10.601021238663117"><ele>51.333333333333336</ele><time>2026-04-25T06:54:49.999Z</time></trkpt><trkpt lat="43.72860255935009" lon="10.600773762885407"><ele>50.0</ele><time>2026-04-25T06:54:50.999Z</time></trkpt><trkpt lat="43.72854875315987" lon="10.60051616733945"><ele>50.66666666666667</ele><time>2026-04-25T06:54:51.999Z</time></trkpt><trkpt lat="43.72846943454602" lon="10.600244712590655"><ele>51.33333333333333</ele><time>2026-04-25T06:54:52.999Z</time></trkpt><trkpt lat="43.728402734189366" lon="10.59994460650983"><ele>52.0</ele><time>2026-04-25T06:54:53.999Z</time></trkpt><trkpt lat="43.7283287871713" lon="10.59962127715025"><ele>54.0</ele><time>2026-04-25T06:54:54.999Z</time></trkpt><trkpt lat="43.72825153117692" lon="10.599283020682646"><ele>56.0</ele><time>2026-04-25T06:54:55.999Z</time></trkpt><trkpt lat="43.72816960546895" lon="10.598933156894374"><ele>56.5</ele><time>2026-04-25T06:54:56.999Z</time></trkpt><trkpt lat="43.72809029481025" lon="10.598596908776674"><ele>57.0</ele><time>2026-04-25T06:54:57.999Z</time></trkpt><trkpt lat="43.72801831799403" lon="10.59827578928907"><ele>57.0</ele><time>2026-04-25T06:54:58.999Z</time></trkpt><trkpt lat="43.727948539902854" lon="10.597964666205515"><ele>57.0</ele><time>2026-04-25T06:54:59.999Z</time></trkpt><trkpt lat="43.727879343835845" lon="10.597658065750151"><ele>57.33333333333333</ele><time>2026-04-25T06:55:00.999Z</time></trkpt><trkpt lat="43.72781122571588" lon="10.59737266670293"><ele>57.666666666666664</ele><time>2026-04-25T06:55:01.999Z</time></trkpt><trkpt lat="43.72774470693632" lon="10.597102872753942"><ele>58.0</ele><time>2026-04-25T06:55:02.999Z</time></trkpt><trkpt lat="43.727716632172246" lon="10.596846497621746"><ele>58.0</ele><time>2026-04-25T06:55:03.999Z</time></trkpt><trkpt lat="43.7276920557654" lon="10.596588504416252"><ele>58.0</ele><time>2026-04-25T06:55:04.999Z</time></trkpt><trkpt lat="43.72768273640694" lon="10.596335780506498"><ele>58.0</ele><time>2026-04-25T06:55:05.998Z</time></trkpt><trkpt lat="43.72770697547214" lon="10.596077382557944"><ele>61.33333333333333</ele><time>2026-04-25T06:55:06.998Z</time></trkpt><trkpt lat="43.72775851667776" lon="10.595831582214487"><ele>64.66666666666667</ele><time>2026-04-25T06:55:07.998Z</time></trkpt><trkpt lat="43.727803515680144" lon="10.5955835610296"><ele>68.0</ele><time>2026-04-25T06:55:08.998Z</time></trkpt><trkpt lat="43.727886259145386" lon="10.595358398659046"><ele>68.0</ele><time>2026-04-25T06:55:09.998Z</time></trkpt><trkpt lat="43.72796845154623" lon="10.595125412227544"><ele>68.0</ele><time>2026-04-25T06:55:10.998Z</time></trkpt><trkpt lat="43.72803359055749" lon="10.594887883285699"><ele>68.0</ele><time>2026-04-25T06:55:11.998Z</time></trkpt><trkpt lat="43.72806789340496" lon="10.594639448905571"><ele>68.33333333333334</ele><time>2026-04-25T06:55:12.998Z</time></trkpt><trkpt lat="43.72805360477728" lon="10.594382616747046"><ele>68.66666666666667</ele><time>2026-04-25T06:55:13.998Z</time></trkpt><trkpt lat="43.72801842482323" lon="10.594121133190807"><ele>69.0</ele><time>2026-04-25T06:55:14.998Z</time></trkpt><trkpt lat="43.727994397708606" lon="10.593868675658632"><ele>70.0</ele><time>2026-04-25T06:55:15.998Z</time></trkpt><trkpt lat="43.72797051201569" lon="10.593631326088671"><ele>71.0</ele><time>2026-04-25T06:55:16.998Z</time></trkpt><trkpt lat="43.72796857162595" lon="10.5934080363625"><ele>72.0</ele><time>2026-04-25T06:55:17.998Z</time></trkpt><trkpt lat="43.727941152654296" lon="10.593209572982966"><ele>72.0</ele><time>2026-04-25T06:55:18.998Z</time></trkpt><trkpt lat="43.7279317234012" lon="10.593032021967199"><ele>72.0</ele><time>2026-04-25T06:55:20Z</time></trkpt><trkpt lat="43.72789186662942" lon="10.592901852496523"><ele>72.0</ele><time>2026-04-25T06:55:21Z</time></trkpt><trkpt lat="43.727834072643816" lon="10.592810368921418"><ele>72.0</ele><time>2026-04-25T06:55:22Z</time></trkpt><trkpt lat="43.727770584393326" lon="10.592705089770206"><ele>72.0</ele><time>2026-04-25T06:55:23Z</time></trkpt><trkpt lat="43.727684088438515" lon="10.592585168084494"><ele>72.0</ele><time>2026-04-25T06:55:24Z</time></trkpt><trkpt lat="43.72757734612463" lon="10.592458649320806"><ele>72.0</ele><time>2026-04-25T06:55:25Z</time></trkpt><trkpt lat="43.727477076781874" lon="10.592310411707809"><ele>72.0</ele><time>2026-04-25T06:55:26Z</time></trkpt><trkpt lat="43.72736112691689" lon="10.592159156359452"><ele>72.0</ele><time>2026-04-25T06:55:27Z</time></trkpt><trkpt lat="43.72724654263275" lon="10.592006154923208"><ele>72.0</ele><time>2026-04-25T06:55:28Z</time></trkpt><trkpt lat="43.72713302689448" lon="10.59184622170206"><ele>72.0</ele><time>2026-04-25T06:55:29Z</time></trkpt><trkpt lat="43.727013384765556" lon="10.591686129289277"><ele>72.0</ele><time>2026-04-25T06:55:30Z</time></trkpt><trkpt lat="43.72688662936316" lon="10.591521985938323"><ele>71.33333333333333</ele><time>2026-04-25T06:55:31Z</time></trkpt><trkpt lat="43.7267635289489" lon="10.591358903634076"><ele>70.66666666666666</ele><time>2026-04-25T06:55:32Z</time></trkpt><trkpt lat="43.726637884909195" lon="10.591195809634032"><ele>70.0</ele><time>2026-04-25T06:55:33Z</time></trkpt><trkpt lat="43.726522723069266" lon="10.591042098936134"><ele>71.25</ele><time>2026-04-25T06:55:34Z</time></trkpt><trkpt lat="43.726433951161276" lon="10.590896515963163"><ele>72.5</ele><time>2026-04-25T06:55:35Z</time></trkpt><trkpt lat="43.72637550443742" lon="10.590743904873294"><ele>73.75</ele><time>2026-04-25T06:55:36Z</time></trkpt><trkpt lat="43.72636075964428" lon="10.590574920250916"><ele>75.0</ele><time>2026-04-25T06:55:37Z</time></trkpt><trkpt lat="43.7264006981644" lon="10.59041323434223"><ele>75.75</ele><time>2026-04-25T06:55:38Z</time></trkpt><trkpt lat="43.726455448386595" lon="10.590244030472315"><ele>76.5</ele><time>2026-04-25T06:55:39Z</time></trkpt><trkpt lat="43.726536810142036" lon="10.590084221393246"><ele>77.25</ele><time>2026-04-25T06:55:40Z</time></trkpt><trkpt lat="43.72662516027389" lon="10.589925303313793"><ele>78.0</ele><time>2026-04-25T06:55:41Z</time></trkpt><trkpt lat="43.7267104462385" lon="10.589739199963388"><ele>78.0</ele><time>2026-04-25T06:55:42Z</time></trkpt><trkpt lat="43.72679827458158" lon="10.589583755229295"><ele>78.0</ele><time>2026-04-25T06:55:43Z</time></trkpt><trkpt lat="43.72685977954089" lon="10.58944169064211"><ele>78.0</ele><time>2026-04-25T06:55:44Z</time></trkpt><trkpt lat="43.72689228445216" lon="10.58932355994362"><ele>78.0</ele><time>2026-04-25T06:55:45Z</time></trkpt><trkpt lat="43.7269246974084" lon="10.589235416866444"><ele>78.0</ele><time>2026-04-25T06:55:46Z</time></trkpt><trkpt lat="43.72701516244434" lon="10.589134857825568"><ele>79.16666666666667</ele><time>2026-04-25T06:55:48Z</time></trkpt><trkpt lat="43.72709226621968" lon="10.589088686618629"><ele>80.33333333333333</ele><time>2026-04-25T06:55:49Z</time></trkpt><trkpt lat="43.727168551190346" lon="10.589073253204312"><ele>81.5</ele><time>2026-04-25T06:55:50Z</time></trkpt><trkpt lat="43.72723885349581" lon="10.58905699360081"><ele>82.66666666666666</ele><time>2026-04-25T06:55:51Z</time></trkpt><trkpt lat="43.727301564980074" lon="10.58902118451588"><ele>83.83333333333333</ele><time>2026-04-25T06:55:52Z</time></trkpt><trkpt lat="43.72737339733075" lon="10.588991833955799"><ele>85.0</ele><time>2026-04-25T06:55:53Z</time></trkpt><trkpt lat="43.727449934721456" lon="10.588959213806767"><ele>85.0</ele><time>2026-04-25T06:55:54Z</time></trkpt><trkpt lat="43.727531233775714" lon="10.588926090386586"><ele>85.0</ele><time>2026-04-25T06:55:55Z</time></trkpt><trkpt lat="43.72763154781937" lon="10.588884282140526"><ele>85.0</ele><time>2026-04-25T06:55:56Z</time></trkpt><trkpt lat="43.72772704391279" lon="10.588844772585974"><ele>85.0</ele><time>2026-04-25T06:55:57Z</time></trkpt><trkpt lat="43.72782936021552" lon="10.58881238151828"><ele>85.0</ele><time>2026-04-25T06:55:58Z</time></trkpt><trkpt lat="43.72794147573553" lon="10.588780436867214"><ele>87.75</ele><time>2026-04-25T06:55:59Z</time></trkpt><trkpt lat="43.72806617728249" lon="10.588775008389597"><ele>90.5</ele><time>2026-04-25T06:56:00Z</time></trkpt><trkpt lat="43.72818959452984" lon="10.588772578543946"><ele>93.25</ele><time>2026-04-25T06:56:01Z</time></trkpt><trkpt lat="43.72830586210332" lon="10.588772219001243"><ele>96.0</ele><time>2026-04-25T06:56:02Z</time></trkpt><trkpt lat="43.72840542603221" lon="10.588755817641621"><ele>96.0</ele><time>2026-04-25T06:56:03Z</time></trkpt><trkpt lat="43.728480175403995" lon="10.588707534633476"><ele>96.0</ele><time>2026-04-25T06:56:04Z</time></trkpt><trkpt lat="43.72853304124178" lon="10.58861004863918"><ele>96.0</ele><time>2026-04-25T06:56:05Z</time></trkpt><trkpt lat="43.72857579806273" lon="10.588491075274494"><ele>96.0</ele><time>2026-04-25T06:56:06Z</time></trkpt><trkpt lat="43.728607870226924" lon="10.58834844173526"><ele>96.0</ele><time>2026-04-25T06:56:07Z</time></trkpt><trkpt lat="43.72864103833318" lon="10.588219734582125"><ele>99.6</ele><time>2026-04-25T06:56:08Z</time></trkpt><trkpt lat="43.72867850010002" lon="10.588091893799369"><ele>103.19999999999999</ele><time>2026-04-25T06:56:09Z</time></trkpt><trkpt lat="43.728712164873166" lon="10.58795636518557"><ele>106.80000000000001</ele><time>2026-04-25T06:56:10Z</time></trkpt><trkpt lat="43.72873778571597" lon="10.587817342053535"><ele>110.4</ele><time>2026-04-25T06:56:11Z</time></trkpt><trkpt lat="43.728761839719766" lon="10.587666950081504"><ele>114.0</ele><time>2026-04-25T06:56:12Z</time></trkpt><trkpt lat="43.72877531087757" lon="10.587515647630951"><ele>114.6</ele><time>2026-04-25T06:56:13Z</time></trkpt><trkpt lat="43.72878829478786" lon="10.587364651390176"><ele>115.2</ele><time>2026-04-25T06:56:14Z</time></trkpt><trkpt lat="43.728794698702735" lon="10.587222780985597"><ele>115.79999999999998</ele><time>2026-04-25T06:56:15Z</time></trkpt><trkpt lat="43.72878835607777" lon="10.587090558553543"><ele>116.39999999999999</ele><time>2026-04-25T06:56:16Z</time></trkpt><trkpt lat="43.72875884620858" lon="10.586958982036249"><ele>117.0</ele><time>2026-04-25T06:56:16.999Z</time></trkpt><trkpt lat="43.728711761650835" lon="10.586825743684107"><ele>117.19999999999999</ele><time>2026-04-25T06:56:17.999Z</time></trkpt><trkpt lat="43.72866278985348" lon="10.586689441433922"><ele>117.39999999999999</ele><time>2026-04-25T06:56:18.999Z</time></trkpt><trkpt lat="43.728619163321696" lon="10.586552157297293"><ele>117.60000000000001</ele><time>2026-04-25T06:56:19.999Z</time></trkpt><trkpt lat="43.728584520320716" lon="10.58640856649464"><ele>117.80000000000001</ele><time>2026-04-25T06:56:20.999Z</time></trkpt><trkpt lat="43.7285650258273" lon="10.586258384270865"><ele>118.0</ele><time>2026-04-25T06:56:21.999Z</time></trkpt><trkpt lat="43.72856436094056" lon="10.58611038927477"><ele>118.0</ele><time>2026-04-25T06:56:22.999Z</time></trkpt><trkpt lat="43.72858091579247" lon="10.585959557219798"><ele>118.0</ele><time>2026-04-25T06:56:23.999Z</time></trkpt><trkpt lat="43.72860411571893" lon="10.585812053217547"><ele>118.0</ele><time>2026-04-25T06:56:24.999Z</time></trkpt><trkpt lat="43.72862489164149" lon="10.585653124327974"><ele>118.0</ele><time>2026-04-25T06:56:25.999Z</time></trkpt><trkpt lat="43.728647944410255" lon="10.585480923309959"><ele>118.25</ele><time>2026-04-25T06:56:26.999Z</time></trkpt><trkpt lat="43.72867040076554" lon="10.585294983408632"><ele>118.5</ele><time>2026-04-25T06:56:27.999Z</time></trkpt><trkpt lat="43.72869433842394" lon="10.585105010670521"><ele>118.75</ele><time>2026-04-25T06:56:28.999Z</time></trkpt><trkpt lat="43.72871550004081" lon="10.58491555527209"><ele>119.0</ele><time>2026-04-25T06:56:29.999Z</time></trkpt><trkpt lat="43.72873747891403" lon="10.584743490202989"><ele>119.0</ele><time>2026-04-25T06:56:30.999Z</time></trkpt><trkpt lat="43.72876012395446" lon="10.584577435890084"><ele>119.0</ele><time>2026-04-25T06:56:31.999Z</time></trkpt><trkpt lat="43.72878943218611" lon="10.584416875628577"><ele>119.0</ele><time>2026-04-25T06:56:32.999Z</time></trkpt><trkpt lat="43.72882732220623" lon="10.584255654653518"><ele>119.0</ele><time>2026-04-25T06:56:33.999Z</time></trkpt><trkpt lat="43.72887389651713" lon="10.584101798100066"><ele>118.80000000000001</ele><time>2026-04-25T06:56:34.999Z</time></trkpt><trkpt lat="43.728924332373765" lon="10.583958593275025"><ele>118.60000000000001</ele><time>2026-04-25T06:56:35.999Z</time></trkpt><trkpt lat="43.72897000727711" lon="10.583827530122813"><ele>118.4</ele><time>2026-04-25T06:56:36.999Z</time></trkpt><trkpt lat="43.72900603616787" lon="10.583700522482147"><ele>118.2</ele><time>2026-04-25T06:56:37.999Z</time></trkpt><trkpt lat="43.72902146714122" lon="10.583576358681436"><ele>118.0</ele><time>2026-04-25T06:56:38.999Z</time></trkpt><trkpt lat="43.72901426209615" lon="10.583460175308206"><ele>117.33333333333334</ele><time>2026-04-25T06:56:39.999Z</time></trkpt><trkpt lat="43.72898178528994" lon="10.583356605285887"><ele>116.66666666666667</ele><time>2026-04-25T06:56:40.999Z</time></trkpt><trkpt lat="43.72892559568572" lon="10.583287707161272"><ele>116.0</ele><time>2026-04-25T06:56:41.999Z</time></trkpt><trkpt lat="43.72885253583395" lon="10.583256298683477"><ele>115.33333333333334</ele><time>2026-04-25T06:56:42.999Z</time></trkpt><trkpt lat="43.72876190919696" lon="10.583253032955026"><ele>114.66666666666667</ele><time>2026-04-25T06:56:43.999Z</time></trkpt><trkpt lat="43.72866783294356" lon="10.583276770024993"><ele>114.0</ele><time>2026-04-25T06:56:44.999Z</time></trkpt><trkpt lat="43.72857253225859" lon="10.583292546133707"><ele>113.0</ele><time>2026-04-25T06:56:45.999Z</time></trkpt><trkpt lat="43.728474859420515" lon="10.583285964386068"><ele>112.0</ele><time>2026-04-25T06:56:46.999Z</time></trkpt><trkpt lat="43.72837177508339" lon="10.583246352867773"><ele>111.0</ele><time>2026-04-25T06:56:47.999Z</time></trkpt><trkpt lat="43.728278182218524" lon="10.583174272421"><ele>110.0</ele><time>2026-04-25T06:56:48.999Z</time></trkpt><trkpt lat="43.72820498980027" lon="10.583074513562309"><ele>109.0</ele><time>2026-04-25T06:56:49.999Z</time></trkpt><trkpt lat="43.72817161375393" lon="10.582941241950394"><ele>111.2</ele><time>2026-04-25T06:56:50.999Z</time></trkpt><trkpt lat="43.72816921801596" lon="10.582805544763819"><ele>113.4</ele><time>2026-04-25T06:56:51.999Z</time></trkpt><trkpt lat="43.728225767005036" lon="10.582692700109034"><ele>115.6</ele><time>2026-04-25T06:56:52.999Z</time></trkpt><trkpt lat="43.72829656088878" lon="10.582628442532043"><ele>117.8</ele><time>2026-04-25T06:56:53.999Z</time></trkpt><trkpt lat="43.72835850626907" lon="10.582544093565089"><ele>120.0</ele><time>2026-04-25T06:56:54.999Z</time></trkpt><trkpt lat="43.728432273202756" lon="10.582483452212674"><ele>120.0</ele><time>2026-04-25T06:56:55.999Z</time></trkpt><trkpt lat="43.728500298351875" lon="10.58240797377339"><ele>120.0</ele><time>2026-04-25T06:56:56.999Z</time></trkpt><trkpt lat="43.72856678624623" lon="10.582319183226819"><ele>120.0</ele><time>2026-04-25T06:56:57.999Z</time></trkpt><trkpt lat="43.7286362045554" lon="10.582220293325953"><ele>120.0</ele><time>2026-04-25T06:56:58.999Z</time></trkpt><trkpt lat="43.72870216054817" lon="10.582117133491177"><ele>120.0</ele><time>2026-04-25T06:56:59.999Z</time></trkpt><trkpt lat="43.728760272884124" lon="10.58200685697508"><ele>121.83333333333333</ele><time>2026-04-25T06:57:00.999Z</time></trkpt><trkpt lat="43.728807263075716" lon="10.581894878447338"><ele>123.66666666666666</ele><time>2026-04-25T06:57:01.999Z</time></trkpt><trkpt lat="43.728843855273354" lon="10.58180427316165"><ele>125.5</ele><time>2026-04-25T06:57:02.999Z</time></trkpt><trkpt lat="43.72889812043284" lon="10.581676701160506"><ele>127.33333333333333</ele><time>2026-04-25T06:57:04.999Z</time></trkpt><trkpt lat="43.72894531238634" lon="10.581561482885986"><ele>129.16666666666666</ele><time>2026-04-25T06:57:06.999Z</time></trkpt><trkpt lat="43.72897869062269" lon="10.581480849635525"><ele>131.0</ele><time>2026-04-25T06:57:07.999Z</time></trkpt><trkpt lat="43.72901905115632" lon="10.581379014217967"><ele>131.0</ele><time>2026-04-25T06:57:08.999Z</time></trkpt><trkpt lat="43.72904725879097" lon="10.581258973957283"><ele>131.0</ele><time>2026-04-25T06:57:09.998Z</time></trkpt><trkpt lat="43.729071514410734" lon="10.581135757896645"><ele>131.0</ele><time>2026-04-25T06:57:10.998Z</time></trkpt><trkpt lat="43.7290912773187" lon="10.58101181893892"><ele>131.0</ele><time>2026-04-25T06:57:11.998Z</time></trkpt><trkpt lat="43.729119354811765" lon="10.580875287417362"><ele>131.0</ele><time>2026-04-25T06:57:12.998Z</time></trkpt><trkpt lat="43.729147664042685" lon="10.580731371673718"><ele>132.25</ele><time>2026-04-25T06:57:13.998Z</time></trkpt><trkpt lat="43.72918984885043" lon="10.580583115557554"><ele>133.5</ele><time>2026-04-25T06:57:14.998Z</time></trkpt><trkpt lat="43.7292137889014" lon="10.580416493775575"><ele>134.75</ele><time>2026-04-25T06:57:15.998Z</time></trkpt><trkpt lat="43.729251175699275" lon="10.580254055907135"><ele>136.0</ele><time>2026-04-25T06:57:16.998Z</time></trkpt><trkpt lat="43.72928945805742" lon="10.580082225228038"><ele>136.5</ele><time>2026-04-25T06:57:17.998Z</time></trkpt><trkpt lat="43.72932359464767" lon="10.579912344913211"><ele>137.0</ele><time>2026-04-25T06:57:18.998Z</time></trkpt><trkpt lat="43.72937873371269" lon="10.579746217102432"><ele>137.5</ele><time>2026-04-25T06:57:19.998Z</time></trkpt><trkpt lat="43.729449972603256" lon="10.57958395439039"><ele>138.0</ele><time>2026-04-25T06:57:20.998Z</time></trkpt><trkpt lat="43.72952115760411" lon="10.579421098917464"><ele>140.0</ele><time>2026-04-25T06:57:21.998Z</time></trkpt><trkpt lat="43.7296014444531" lon="10.579270834510712"><ele>142.0</ele><time>2026-04-25T06:57:22.998Z</time></trkpt><trkpt lat="43.7296992727608" lon="10.579144362695606"><ele>144.0</ele><time>2026-04-25T06:57:23.998Z</time></trkpt><trkpt lat="43.72979963837649" lon="10.579034164555827"><ele>146.0</ele><time>2026-04-25T06:57:25Z</time></trkpt><trkpt lat="43.729897257361515" lon="10.578918303291124"><ele>146.0</ele><time>2026-04-25T06:57:26Z</time></trkpt><trkpt lat="43.72998995765162" lon="10.578794221669598"><ele>146.0</ele><time>2026-04-25T06:57:27Z</time></trkpt><trkpt lat="43.73008437829405" lon="10.57866569455448"><ele>146.0</ele><time>2026-04-25T06:57:28Z</time></trkpt><trkpt lat="43.73017654139204" lon="10.578534934691914"><ele>146.0</ele><time>2026-04-25T06:57:29Z</time></trkpt><trkpt lat="43.73026733629395" lon="10.57840256408499"><ele>149.75</ele><time>2026-04-25T06:57:30Z</time></trkpt><trkpt lat="43.730351332300046" lon="10.578258959789881"><ele>153.5</ele><time>2026-04-25T06:57:31Z</time></trkpt><trkpt lat="43.73042863966455" lon="10.578098893832223"><ele>157.25</ele><time>2026-04-25T06:57:32Z</time></trkpt><trkpt lat="43.73049521369333" lon="10.577928575170324"><ele>161.0</ele><time>2026-04-25T06:57:33Z</time></trkpt><trkpt lat="43.7305444634667" lon="10.577744313291774"><ele>161.5</ele><time>2026-04-25T06:57:34Z</time></trkpt><trkpt lat="43.73058347659345" lon="10.577554359405685"><ele>162.0</ele><time>2026-04-25T06:57:35Z</time></trkpt><trkpt lat="43.73062799723111" lon="10.577368099486977"><ele>162.5</ele><time>2026-04-25T06:57:36Z</time></trkpt><trkpt lat="43.73068190994315" lon="10.577192099502472"><ele>163.0</ele><time>2026-04-25T06:57:37Z</time></trkpt><trkpt lat="43.730744843896574" lon="10.577021736591817"><ele>163.25</ele><time>2026-04-25T06:57:38Z</time></trkpt><trkpt lat="43.730807594570074" lon="10.576856232915414"><ele>163.5</ele><time>2026-04-25T06:57:39Z</time></trkpt><trkpt lat="43.730872100183326" lon="10.576693717769333"><ele>163.75</ele><time>2026-04-25T06:57:40Z</time></trkpt><trkpt lat="43.73093774458345" lon="10.57653923909399"><ele>164.0</ele><time>2026-04-25T06:57:41Z</time></trkpt><trkpt lat="43.73100571621099" lon="10.576382991722564"><ele>166.0</ele><time>2026-04-25T06:57:42Z</time></trkpt><trkpt lat="43.73107397681669" lon="10.576233592299928"><ele>168.0</ele><time>2026-04-25T06:57:43Z</time></trkpt><trkpt lat="43.73114608605275" lon="10.57608301034938"><ele>170.0</ele><time>2026-04-25T06:57:44Z</time></trkpt><trkpt lat="43.73119403841081" lon="10.575973662011311"><ele>172.0</ele><time>2026-04-25T06:57:45Z</time></trkpt><trkpt lat="43.731216367443565" lon="10.575841209683405"><ele>174.0</ele><time>2026-04-25T06:57:46Z</time></trkpt><trkpt lat="43.731206973450426" lon="10.575696933310644"><ele>175.0</ele><time>2026-04-25T06:57:47Z</time></trkpt><trkpt lat="43.73117257228439" lon="10.575550696149776"><ele>176.0</ele><time>2026-04-25T06:57:48Z</time></trkpt><trkpt lat="43.73112722072862" lon="10.575406357589692"><ele>177.0</ele><time>2026-04-25T06:57:49Z</time></trkpt><trkpt lat="43.73109600157366" lon="10.575259584551459"><ele>178.0</ele><time>2026-04-25T06:57:50Z</time></trkpt><trkpt lat="43.73107877001381" lon="10.575102658946602"><ele>179.60000000000002</ele><time>2026-04-25T06:57:51Z</time></trkpt><trkpt lat="43.73107777939578" lon="10.574953937548287"><ele>181.20000000000002</ele><time>2026-04-25T06:57:52Z</time></trkpt><trkpt lat="43.73109962340174" lon="10.57479924930348"><ele>182.8</ele><time>2026-04-25T06:57:53Z</time></trkpt><trkpt lat="43.73111645414474" lon="10.574645506863765"><ele>184.4</ele><time>2026-04-25T06:57:54Z</time></trkpt><trkpt lat="43.731135337951144" lon="10.574488703982357"><ele>186.0</ele><time>2026-04-25T06:57:55Z</time></trkpt><trkpt lat="43.73117296650196" lon="10.574334944539716"><ele>188.25</ele><time>2026-04-25T06:57:56Z</time></trkpt><trkpt lat="43.731211794106336" lon="10.574182633965776"><ele>190.5</ele><time>2026-04-25T06:57:57Z</time></trkpt><trkpt lat="43.73126844963592" lon="10.574039539079244"><ele>192.75</ele><time>2026-04-25T06:57:58Z</time></trkpt><trkpt lat="43.731329061657455" lon="10.573900029088412"><ele>195.0</ele><time>2026-04-25T06:57:59Z</time></trkpt><trkpt lat="43.73138869176147" lon="10.573761708538052"><ele>196.4</ele><time>2026-04-25T06:58:00Z</time></trkpt><trkpt lat="43.7314402603156" lon="10.573617531008775"><ele>197.8</ele><time>2026-04-25T06:58:01Z</time></trkpt><trkpt lat="43.731460913606355" lon="10.573484306180667"><ele>199.2</ele><time>2026-04-25T06:58:02Z</time></trkpt><trkpt lat="43.73146255744876" lon="10.573369422284399"><ele>200.6</ele><time>2026-04-25T06:58:03Z</time></trkpt><trkpt lat="43.73146752148169" lon="10.573267749452139"><ele>202.0</ele><time>2026-04-25T06:58:04Z</time></trkpt><trkpt lat="43.73150180168716" lon="10.57310688237937"><ele>201.99999999999997</ele><time>2026-04-25T06:58:06Z</time></trkpt><trkpt lat="43.73156535012215" lon="10.572998227881849"><ele>202.0</ele><time>2026-04-25T06:58:08Z</time></trkpt><trkpt lat="43.73163891321998" lon="10.573098899094886"><ele>202.0</ele><time>2026-04-25T06:58:10Z</time></trkpt><trkpt lat="43.73163754508263" lon="10.57319771326338"><ele>202.0</ele><time>2026-04-25T06:58:11Z</time></trkpt><trkpt lat="43.73161863275362" lon="10.573305265250761"><ele>201.99999999999997</ele><time>2026-04-25T06:58:12Z</time></trkpt><trkpt lat="43.731607393219164" lon="10.573419846862672"><ele>202.0</ele><time>2026-04-25T06:58:13Z</time></trkpt><trkpt lat="43.73161205042049" lon="10.573545264543709"><ele>202.0</ele><time>2026-04-25T06:58:14Z</time></trkpt><trkpt lat="43.731631037185416" lon="10.573681022712984"><ele>202.0</ele><time>2026-04-25T06:58:15Z</time></trkpt><trkpt lat="43.731658994344144" lon="10.573817102955026"><ele>202.0</ele><time>2026-04-25T06:58:16Z</time></trkpt><trkpt lat="43.73170092981196" lon="10.573947447671426"><ele>202.0</ele><time>2026-04-25T06:58:17Z</time></trkpt><trkpt lat="43.73176246612617" lon="10.574056420094244"><ele>202.0</ele><time>2026-04-25T06:58:18Z</time></trkpt><trkpt lat="43.73182587080131" lon="10.574135141077921"><ele>200.83333333333331</ele><time>2026-04-25T06:58:19Z</time></trkpt><trkpt lat="43.73188065696521" lon="10.574194128738178"><ele>199.66666666666666</ele><time>2026-04-25T06:58:20Z</time></trkpt><trkpt lat="43.73194359115158" lon="10.574252065828968"><ele>198.5</ele><time>2026-04-25T06:58:21Z</time></trkpt><trkpt lat="43.73201861363945" lon="10.574318338124218"><ele>197.33333333333331</ele><time>2026-04-25T06:58:22Z</time></trkpt><trkpt lat="43.73209632289319" lon="10.574377951311481"><ele>196.16666666666666</ele><time>2026-04-25T06:58:23Z</time></trkpt><trkpt lat="43.73217361299246" lon="10.574435082363493"><ele>195.0</ele><time>2026-04-25T06:58:23.999Z</time></trkpt><trkpt lat="43.73225183265565" lon="10.574504348556792"><ele>196.8</ele><time>2026-04-25T06:58:24.999Z</time></trkpt><trkpt lat="43.73233076663388" lon="10.574575528709277"><ele>198.6</ele><time>2026-04-25T06:58:25.999Z</time></trkpt><trkpt lat="43.73241324169032" lon="10.574653651591031"><ele>200.39999999999998</ele><time>2026-04-25T06:58:26.999Z</time></trkpt><trkpt lat="43.73249011886827" lon="10.574748525548017"><ele>202.2</ele><time>2026-04-25T06:58:27.999Z</time></trkpt><trkpt lat="43.732560737100805" lon="10.574859709436767"><ele>204.0</ele><time>2026-04-25T06:58:28.999Z</time></trkpt><trkpt lat="43.73263600609636" lon="10.574967728137308"><ele>210.0</ele><time>2026-04-25T06:58:29.999Z</time></trkpt><trkpt lat="43.73272730044229" lon="10.575070365966686"><ele>216.0</ele><time>2026-04-25T06:58:30.999Z</time></trkpt><trkpt lat="43.73283165669379" lon="10.575158332455734"><ele>222.0</ele><time>2026-04-25T06:58:31.999Z</time></trkpt><trkpt lat="43.732949375126864" lon="10.575240123322077"><ele>228.0</ele><time>2026-04-25T06:58:32.999Z</time></trkpt><trkpt lat="43.733069950328826" lon="10.575313248712687"><ele>223.0</ele><time>2026-04-25T06:58:33.999Z</time></trkpt><trkpt lat="43.73319429664408" lon="10.575385809428703"><ele>218.0</ele><time>2026-04-25T06:58:34.999Z</time></trkpt><trkpt lat="43.73331226943765" lon="10.575457118092444"><ele>213.0</ele><time>2026-04-25T06:58:35.999Z</time></trkpt><trkpt lat="43.73343690284398" lon="10.575508534947677"><ele>208.0</ele><time>2026-04-25T06:58:36.999Z</time></trkpt><trkpt lat="43.733565235288346" lon="10.575534629101089"><ele>208.0</ele><time>2026-04-25T06:58:37.999Z</time></trkpt><trkpt lat="43.733689513732024" lon="10.575533988564128"><ele>208.0</ele><time>2026-04-25T06:58:38.999Z</time></trkpt><trkpt lat="43.733798368714865" lon="10.5755059220325"><ele>208.0</ele><time>2026-04-25T06:58:39.999Z</time></trkpt><trkpt lat="43.73390556220414" lon="10.575427374857151"><ele>208.0</ele><time>2026-04-25T06:58:40.999Z</time></trkpt><trkpt lat="43.734008264305615" lon="10.575321969190878"><ele>214.0</ele><time>2026-04-25T06:58:41.999Z</time></trkpt><trkpt lat="43.73411341803475" lon="10.575220527125497"><ele>220.0</ele><time>2026-04-25T06:58:42.999Z</time></trkpt><trkpt lat="43.734217976948216" lon="10.575133648839731"><ele>226.0</ele><time>2026-04-25T06:58:43.999Z</time></trkpt><trkpt lat="43.73431589384042" lon="10.57504840728771"><ele>232.0</ele><time>2026-04-25T06:58:44.999Z</time></trkpt><trkpt lat="43.73440997989478" lon="10.574958596277174"><ele>232.0</ele><time>2026-04-25T06:58:45.999Z</time></trkpt><trkpt lat="43.73451051474366" lon="10.574890879463394"><ele>232.0</ele><time>2026-04-25T06:58:46.999Z</time></trkpt><trkpt lat="43.73460146218336" lon="10.57481308282706"><ele>232.0</ele><time>2026-04-25T06:58:47.999Z</time></trkpt><trkpt lat="43.73469264767329" lon="10.57474403248601"><ele>232.0</ele><time>2026-04-25T06:58:48.999Z</time></trkpt><trkpt lat="43.73478598601624" lon="10.574674173403965"><ele>232.0</ele><time>2026-04-25T06:58:49.999Z</time></trkpt><trkpt lat="43.7348701613046" lon="10.574591312921292"><ele>232.0</ele><time>2026-04-25T06:58:50.999Z</time></trkpt><trkpt lat="43.73496072074925" lon="10.574534189877543"><ele>232.0</ele><time>2026-04-25T06:58:51.999Z</time></trkpt><trkpt lat="43.73503814329064" lon="10.574489765936926"><ele>232.0</ele><time>2026-04-25T06:58:52.999Z</time></trkpt><trkpt lat="43.73510027208682" lon="10.574384864791023"><ele>232.0</ele><time>2026-04-25T06:58:54.999Z</time></trkpt><trkpt lat="43.73502477763505" lon="10.574267179979431"><ele>232.0</ele><time>2026-04-25T06:58:56.999Z</time></trkpt><trkpt lat="43.73495822891863" lon="10.57425985249048"><ele>232.0</ele><time>2026-04-25T06:58:57.999Z</time></trkpt><trkpt lat="43.73488235609854" lon="10.574315547901985"><ele>232.0</ele><time>2026-04-25T06:58:58.999Z</time></trkpt><trkpt lat="43.734800094208005" lon="10.574399730213784"><ele>232.0</ele><time>2026-04-25T06:58:59.999Z</time></trkpt><trkpt lat="43.73470279934319" lon="10.5744731630844"><ele>232.0</ele><time>2026-04-25T06:59:00.999Z</time></trkpt><trkpt lat="43.734576754270314" lon="10.57451531198663"><ele>232.0</ele><time>2026-04-25T06:59:01.999Z</time></trkpt><trkpt lat="43.734458979090626" lon="10.574592354055449"><ele>232.75</ele><time>2026-04-25T06:59:02.999Z</time></trkpt><trkpt lat="43.734336106935224" lon="10.574623587665064"><ele>233.5</ele><time>2026-04-25T06:59:03.999Z</time></trkpt><trkpt lat="43.734222185628234" lon="10.574660610835492"><ele>234.25</ele><time>2026-04-25T06:59:04.999Z</time></trkpt><trkpt lat="43.7341145099212" lon="10.57469598820856"><ele>235.0</ele><time>2026-04-25T06:59:05.999Z</time></trkpt><trkpt lat="43.73401444804765" lon="10.574751474973265"><ele>235.0</ele><time>2026-04-25T06:59:06.999Z</time></trkpt><trkpt lat="43.73391892891173" lon="10.574774513301634"><ele>235.0</ele><time>2026-04-25T06:59:07.999Z</time></trkpt><trkpt lat="43.73384227904704" lon="10.574793691687907"><ele>235.0</ele><time>2026-04-25T06:59:08.999Z</time></trkpt><trkpt lat="43.73374101933222" lon="10.574802274887134"><ele>235.0</ele><time>2026-04-25T06:59:10.999Z</time></trkpt><trkpt lat="43.73366256331819" lon="10.574778213426525"><ele>235.0</ele><time>2026-04-25T06:59:12.999Z</time></trkpt><trkpt lat="43.73357873817404" lon="10.574644503250909"><ele>233.6</ele><time>2026-04-25T06:59:14.999Z</time></trkpt><trkpt lat="43.733548322214205" lon="10.574528366934404"><ele>232.2</ele><time>2026-04-25T06:59:15.999Z</time></trkpt><trkpt lat="43.73352064678084" lon="10.574405296704324"><ele>230.8</ele><time>2026-04-25T06:59:16.999Z</time></trkpt><trkpt lat="43.73349614321959" lon="10.574278609721306"><ele>229.4</ele><time>2026-04-25T06:59:17.998Z</time></trkpt><trkpt lat="43.73347018022842" lon="10.574135496661608"><ele>228.0</ele><time>2026-04-25T06:59:18.998Z</time></trkpt><trkpt lat="43.73344467239766" lon="10.573987440552953"><ele>233.25</ele><time>2026-04-25T06:59:19.998Z</time></trkpt><trkpt lat="43.73341827233587" lon="10.573825562091194"><ele>238.5</ele><time>2026-04-25T06:59:20.998Z</time></trkpt><trkpt lat="43.73337984686281" lon="10.573663512617925"><ele>243.75</ele><time>2026-04-25T06:59:21.998Z</time></trkpt><trkpt lat="43.733358229984816" lon="10.573493074739366"><ele>249.0</ele><time>2026-04-25T06:59:22.998Z</time></trkpt><trkpt lat="43.73336345046848" lon="10.573312160444646"><ele>252.0</ele><time>2026-04-25T06:59:23.998Z</time></trkpt><trkpt lat="43.733338417983745" lon="10.573129121087396"><ele>255.0</ele><time>2026-04-25T06:59:24.998Z</time></trkpt><trkpt lat="43.73333213935057" lon="10.572939225414144"><ele>258.0</ele><time>2026-04-25T06:59:25.998Z</time></trkpt><trkpt lat="43.73332057557553" lon="10.572751306788314"><ele>261.0</ele><time>2026-04-25T06:59:26.998Z</time></trkpt><trkpt lat="43.733336640630924" lon="10.572556833275428"><ele>262.5</ele><time>2026-04-25T06:59:27.998Z</time></trkpt><trkpt lat="43.733343116819796" lon="10.572358349359094"><ele>264.0</ele><time>2026-04-25T06:59:28.998Z</time></trkpt><trkpt lat="43.733341037477004" lon="10.572149648404208"><ele>265.5</ele><time>2026-04-25T06:59:29.998Z</time></trkpt><trkpt lat="43.733378836570296" lon="10.571948831952676"><ele>267.0</ele><time>2026-04-25T06:59:31Z</time></trkpt><trkpt lat="43.73338809507453" lon="10.571753645994399"><ele>268.5</ele><time>2026-04-25T06:59:32Z</time></trkpt><trkpt lat="43.733414548313476" lon="10.571577777488914"><ele>270.0</ele><time>2026-04-25T06:59:33Z</time></trkpt><trkpt lat="43.73344261760156" lon="10.571415249090629"><ele>271.5</ele><time>2026-04-25T06:59:34Z</time></trkpt><trkpt lat="43.733466770191434" lon="10.571267772811025"><ele>273.0</ele><time>2026-04-25T06:59:35Z</time></trkpt><trkpt lat="43.733485037131956" lon="10.571133765930547"><ele>275.0</ele><time>2026-04-25T06:59:36Z</time></trkpt><trkpt lat="43.73349708308887" lon="10.571002235444762"><ele>277.0</ele><time>2026-04-25T06:59:37Z</time></trkpt><trkpt lat="43.73349991357535" lon="10.570854219276438"><ele>279.0</ele><time>2026-04-25T06:59:38Z</time></trkpt><trkpt lat="43.733520057873726" lon="10.570702029349246"><ele>281.0</ele><time>2026-04-25T06:59:39Z</time></trkpt><trkpt lat="43.733523095839566" lon="10.570546741111782"><ele>283.0</ele><time>2026-04-25T06:59:40Z</time></trkpt><trkpt lat="43.733506747307125" lon="10.570387772134485"><ele>283.75</ele><time>2026-04-25T06:59:41Z</time></trkpt><trkpt lat="43.73350388862607" lon="10.570225665402102"><ele>284.5</ele><time>2026-04-25T06:59:42Z</time></trkpt><trkpt lat="43.73349460038173" lon="10.570062707765674"><ele>285.25</ele><time>2026-04-25T06:59:43Z</time></trkpt><trkpt lat="43.73347913432624" lon="10.569888368395443"><ele>286.0</ele><time>2026-04-25T06:59:44Z</time></trkpt><trkpt lat="43.73346374266077" lon="10.569712344231789"><ele>286.0</ele><time>2026-04-25T06:59:45Z</time></trkpt><trkpt lat="43.733447594844954" lon="10.56953751824269"><ele>286.0</ele><time>2026-04-25T06:59:46Z</time></trkpt><trkpt lat="43.73343445158781" lon="10.569377258762687"><ele>286.0</ele><time>2026-04-25T06:59:47Z</time></trkpt><trkpt lat="43.73343692521357" lon="10.56923726000886"><ele>286.0</ele><time>2026-04-25T06:59:48Z</time></trkpt><trkpt lat="43.733439924171655" lon="10.56912149680642"><ele>286.0</ele><time>2026-04-25T06:59:49Z</time></trkpt><trkpt lat="43.73340397234645" lon="10.569018703566748"><ele>289.25</ele><time>2026-04-25T06:59:50Z</time></trkpt><trkpt lat="43.733323238554874" lon="10.56892921195516"><ele>292.5</ele><time>2026-04-25T06:59:51Z</time></trkpt><trkpt lat="43.73324327780557" lon="10.56882071338527"><ele>295.75</ele><time>2026-04-25T06:59:52Z</time></trkpt><trkpt lat="43.733166426436185" lon="10.568694900937714"><ele>299.0</ele><time>2026-04-25T06:59:53Z</time></trkpt><trkpt lat="43.73309362168664" lon="10.56854937898721"><ele>302.75</ele><time>2026-04-25T06:59:54Z</time></trkpt><trkpt lat="43.733012878745704" lon="10.568399307876712"><ele>306.5</ele><time>2026-04-25T06:59:55Z</time></trkpt><trkpt lat="43.73297370510391" lon="10.568216473302721"><ele>310.25</ele><time>2026-04-25T06:59:56Z</time></trkpt><trkpt lat="43.732908299505915" lon="10.568047740643891"><ele>314.0</ele><time>2026-04-25T06:59:57Z</time></trkpt><trkpt lat="43.73284732653614" lon="10.567879471168524"><ele>310.0</ele><time>2026-04-25T06:59:58Z</time></trkpt><trkpt lat="43.73276421776207" lon="10.5677280078733"><ele>306.0</ele><time>2026-04-25T06:59:59Z</time></trkpt><trkpt lat="43.73269055446828" lon="10.567569026908393"><ele>302.0</ele><time>2026-04-25T07:00:00Z</time></trkpt><trkpt lat="43.73263812149936" lon="10.567386761956474"><ele>298.0</ele><time>2026-04-25T07:00:01Z</time></trkpt><trkpt lat="43.73259477094862" lon="10.56720537986562"><ele>300.75</ele><time>2026-04-25T07:00:02Z</time></trkpt><trkpt lat="43.7325486708027" lon="10.567021507260959"><ele>303.5</ele><time>2026-04-25T07:00:03Z</time></trkpt><trkpt lat="43.73250581082573" lon="10.566838662815716"><ele>306.25</ele><time>2026-04-25T07:00:04Z</time></trkpt><trkpt lat="43.73247614977845" lon="10.56664762519748"><ele>309.0</ele><time>2026-04-25T07:00:05Z</time></trkpt><trkpt lat="43.73246568954514" lon="10.566445689453667"><ele>309.0</ele><time>2026-04-25T07:00:06Z</time></trkpt><trkpt lat="43.73245703058442" lon="10.566238626588085"><ele>309.0</ele><time>2026-04-25T07:00:07Z</time></trkpt><trkpt lat="43.73244830317715" lon="10.566031000786415"><ele>309.0</ele><time>2026-04-25T07:00:08Z</time></trkpt><trkpt lat="43.732435829236316" lon="10.565828526965287"><ele>309.0</ele><time>2026-04-25T07:00:09Z</time></trkpt><trkpt lat="43.73242993507902" lon="10.565629131593097"><ele>310.5</ele><time>2026-04-25T07:00:10Z</time></trkpt><trkpt lat="43.73240023618321" lon="10.565436649741308"><ele>312.0</ele><time>2026-04-25T07:00:11Z</time></trkpt><trkpt lat="43.732403084712814" lon="10.565243307259733"><ele>313.5</ele><time>2026-04-25T07:00:12Z</time></trkpt><trkpt lat="43.73240883266876" lon="10.565055049684942"><ele>315.0</ele><time>2026-04-25T07:00:13Z</time></trkpt><trkpt lat="43.73240906446681" lon="10.564867815006759"><ele>317.5</ele><time>2026-04-25T07:00:14Z</time></trkpt><trkpt lat="43.73239061806015" lon="10.564685847470464"><ele>320.0</ele><time>2026-04-25T07:00:15Z</time></trkpt><trkpt lat="43.73235230703264" lon="10.564512752880407"><ele>322.5</ele><time>2026-04-25T07:00:16Z</time></trkpt><trkpt lat="43.73230792439047" lon="10.564344219782635"><ele>325.0</ele><time>2026-04-25T07:00:17Z</time></trkpt><trkpt lat="43.732279951011705" lon="10.564183309448822"><ele>326.3333333333333</ele><time>2026-04-25T07:00:18Z</time></trkpt><trkpt lat="43.73226871888376" lon="10.564037478988006"><ele>327.66666666666663</ele><time>2026-04-25T07:00:19Z</time></trkpt><trkpt lat="43.7322623631949" lon="10.563922997723582"><ele>329.0</ele><time>2026-04-25T07:00:20Z</time></trkpt><trkpt lat="43.732251902529605" lon="10.563834387204446"><ele>330.3333333333333</ele><time>2026-04-25T07:00:21Z</time></trkpt><trkpt lat="43.73227476833007" lon="10.563710222442937"><ele>331.6666666666667</ele><time>2026-04-25T07:00:23Z</time></trkpt><trkpt lat="43.73235870690181" lon="10.563697380592393"><ele>333.0</ele><time>2026-04-25T07:00:25Z</time></trkpt><trkpt lat="43.73240917308946" lon="10.563833060834986"><ele>333.0</ele><time>2026-04-25T07:00:26.999Z</time></trkpt><trkpt lat="43.73239541931194" lon="10.56394076496093"><ele>333.0</ele><time>2026-04-25T07:00:27.999Z</time></trkpt><trkpt lat="43.73238806712627" lon="10.56405324185001"><ele>333.0</ele><time>2026-04-25T07:00:28.999Z</time></trkpt><trkpt lat="43.73239863321692" lon="10.564180682106459"><ele>333.0</ele><time>2026-04-25T07:00:29.999Z</time></trkpt><trkpt lat="43.732424091251936" lon="10.564311587294277"><ele>333.0</ele><time>2026-04-25T07:00:30.999Z</time></trkpt><trkpt lat="43.73246689370538" lon="10.56443612974171"><ele>331.4</ele><time>2026-04-25T07:00:31.999Z</time></trkpt><trkpt lat="43.73252709060069" lon="10.564556046524293"><ele>329.79999999999995</ele><time>2026-04-25T07:00:32.999Z</time></trkpt><trkpt lat="43.73258062686224" lon="10.5646758237772"><ele>328.2</ele><time>2026-04-25T07:00:33.999Z</time></trkpt><trkpt lat="43.73265788790627" lon="10.564775335727782"><ele>326.6</ele><time>2026-04-25T07:00:34.999Z</time></trkpt><trkpt lat="43.73267927211143" lon="10.564926900034694"><ele>325.0</ele><time>2026-04-25T07:00:35.999Z</time></trkpt><trkpt lat="43.73270622056018" lon="10.565093010783249"><ele>332.5</ele><time>2026-04-25T07:00:36.999Z</time></trkpt><trkpt lat="43.73274861772759" lon="10.565255788081693"><ele>340.0</ele><time>2026-04-25T07:00:37.999Z</time></trkpt><trkpt lat="43.7327692248958" lon="10.565421054061101"><ele>347.5</ele><time>2026-04-25T07:00:38.999Z</time></trkpt><trkpt lat="43.73280941301926" lon="10.56558397482623"><ele>355.0</ele><time>2026-04-25T07:00:39.999Z</time></trkpt><trkpt lat="43.732853134828844" lon="10.565740892099253"><ele>355.0</ele><time>2026-04-25T07:00:40.999Z</time></trkpt><trkpt lat="43.7328863698663" lon="10.565910868043739"><ele>355.0</ele><time>2026-04-25T07:00:41.999Z</time></trkpt><trkpt lat="43.73292109920362" lon="10.566084433005049"><ele>355.0</ele><time>2026-04-25T07:00:42.999Z</time></trkpt><trkpt lat="43.732975360770176" lon="10.566252247354944"><ele>355.0</ele><time>2026-04-25T07:00:43.999Z</time></trkpt><trkpt lat="43.73306368313578" lon="10.566402153954161"><ele>352.25</ele><time>2026-04-25T07:00:44.999Z</time></trkpt><trkpt lat="43.73317532121901" lon="10.566515932005371"><ele>349.5</ele><time>2026-04-25T07:00:45.999Z</time></trkpt><trkpt lat="43.733277925150574" lon="10.566607098219448"><ele>346.75</ele><time>2026-04-25T07:00:46.999Z</time></trkpt><trkpt lat="43.733373831811505" lon="10.566715977893377"><ele>344.0</ele><time>2026-04-25T07:00:47.999Z</time></trkpt><trkpt lat="43.73345455861264" lon="10.566889398893075"><ele>351.6666666666667</ele><time>2026-04-25T07:00:48.999Z</time></trkpt><trkpt lat="43.733564283443464" lon="10.567088225611904"><ele>359.3333333333333</ele><time>2026-04-25T07:00:49.999Z</time></trkpt><trkpt lat="43.73369919972107" lon="10.567325645051264"><ele>367.0</ele><time>2026-04-25T07:00:50.999Z</time></trkpt><trkpt lat="43.73384565013347" lon="10.567578854203148"><ele>367.0</ele><time>2026-04-25T07:00:51.999Z</time></trkpt><trkpt lat="43.734007168705254" lon="10.567847182573127"><ele>367.0</ele><time>2026-04-25T07:00:52.999Z</time></trkpt><trkpt lat="43.73414098502215" lon="10.568089158080808"><ele>362.66666666666663</ele><time>2026-04-25T07:00:53.999Z</time></trkpt><trkpt lat="43.73425530962859" lon="10.568292627329935"><ele>358.3333333333333</ele><time>2026-04-25T07:00:54.999Z</time></trkpt><trkpt lat="43.734310419245695" lon="10.568502878797855"><ele>354.0</ele><time>2026-04-25T07:00:55.999Z</time></trkpt><trkpt lat="43.734366415169056" lon="10.568706511883764"><ele>360.2</ele><time>2026-04-25T07:00:56.999Z</time></trkpt><trkpt lat="43.73441034879897" lon="10.568907632188784"><ele>366.4</ele><time>2026-04-25T07:00:57.999Z</time></trkpt><trkpt lat="43.73446009050396" lon="10.569072249712196"><ele>372.6</ele><time>2026-04-25T07:00:58.999Z</time></trkpt><trkpt lat="43.73448128901934" lon="10.569203132533863"><ele>378.8</ele><time>2026-04-25T07:00:59.999Z</time></trkpt><trkpt lat="43.73452453959468" lon="10.56926754572254"><ele>385.0</ele><time>2026-04-25T07:01:00.999Z</time></trkpt><trkpt lat="43.734645960575996" lon="10.569192152381712"><ele>385.0</ele><time>2026-04-25T07:01:02.999Z</time></trkpt><trkpt lat="43.73461828047918" lon="10.568907077382772"><ele>385.0</ele><time>2026-04-25T07:01:04.999Z</time></trkpt><trkpt lat="43.73455282935839" lon="10.568714380083838"><ele>385.0</ele><time>2026-04-25T07:01:05.999Z</time></trkpt><trkpt lat="43.73451822043319" lon="10.568457543019193"><ele>389.6666666666667</ele><time>2026-04-25T07:01:06.999Z</time></trkpt><trkpt lat="43.734498174258164" lon="10.568185992186471"><ele>394.33333333333337</ele><time>2026-04-25T07:01:07.999Z</time></trkpt><trkpt lat="43.73448901911445" lon="10.5678986167376"><ele>399.0</ele><time>2026-04-25T07:01:08.999Z</time></trkpt><trkpt lat="43.73447676643582" lon="10.567642989949388"><ele>400.33333333333337</ele><time>2026-04-25T07:01:09.999Z</time></trkpt><trkpt lat="43.73446829621014" lon="10.56742025648242"><ele>401.6666666666667</ele><time>2026-04-25T07:01:10.999Z</time></trkpt><trkpt lat="43.734421645649206" lon="10.56721510919323"><ele>403.0</ele><time>2026-04-25T07:01:11.999Z</time></trkpt><trkpt lat="43.73434135882595" lon="10.567010712804668"><ele>394.33333333333337</ele><time>2026-04-25T07:01:12.999Z</time></trkpt><trkpt lat="43.73428129814694" lon="10.566801537651921"><ele>385.6666666666667</ele><time>2026-04-25T07:01:13.999Z</time></trkpt><trkpt lat="43.734248097251815" lon="10.566581360461221"><ele>377.0</ele><time>2026-04-25T07:01:14.999Z</time></trkpt><trkpt lat="43.734204989580846" lon="10.566367488978447"><ele>384.33333333333337</ele><time>2026-04-25T07:01:15.999Z</time></trkpt><trkpt lat="43.73415876809274" lon="10.566146997411183"><ele>391.6666666666667</ele><time>2026-04-25T07:01:16.999Z</time></trkpt><trkpt lat="43.73406792982791" lon="10.565967852921144"><ele>399.0</ele><time>2026-04-25T07:01:17.999Z</time></trkpt><trkpt lat="43.73398840258734" lon="10.565791823093614"><ele>399.0</ele><time>2026-04-25T07:01:18.999Z</time></trkpt><trkpt lat="43.73395400054223" lon="10.565576267636734"><ele>399.0</ele><time>2026-04-25T07:01:19.998Z</time></trkpt><trkpt lat="43.73392406946201" lon="10.565345205132978"><ele>399.0</ele><time>2026-04-25T07:01:20.998Z</time></trkpt><trkpt lat="43.7338819720796" lon="10.565117232324164"><ele>403.33333333333337</ele><time>2026-04-25T07:01:21.998Z</time></trkpt><trkpt lat="43.73385362567857" lon="10.564897957788293"><ele>407.6666666666667</ele><time>2026-04-25T07:01:22.998Z</time></trkpt><trkpt lat="43.73382545313083" lon="10.564683392262456"><ele>412.0</ele><time>2026-04-25T07:01:23.998Z</time></trkpt><trkpt lat="43.733793364989296" lon="10.564475863214074"><ele>414.5</ele><time>2026-04-25T07:01:24.998Z</time></trkpt><trkpt lat="43.73375981812492" lon="10.56427136642208"><ele>417.0</ele><time>2026-04-25T07:01:25.998Z</time></trkpt><trkpt lat="43.73372116128535" lon="10.564073514398387"><ele>419.5</ele><time>2026-04-25T07:01:26.998Z</time></trkpt><trkpt lat="43.73368048068607" lon="10.563889826330287"><ele>422.0</ele><time>2026-04-25T07:01:27.998Z</time></trkpt><trkpt lat="43.73364531802015" lon="10.56371905075874"><ele>425.5</ele><time>2026-04-25T07:01:28.998Z</time></trkpt><trkpt lat="43.73363013414652" lon="10.563559676099953"><ele>429.0</ele><time>2026-04-25T07:01:29.998Z</time></trkpt><trkpt lat="43.73363630284248" lon="10.563394812779562"><ele>432.5</ele><time>2026-04-25T07:01:30.998Z</time></trkpt><trkpt lat="43.73365735638806" lon="10.56322000183802"><ele>436.0</ele><time>2026-04-25T07:01:31.998Z</time></trkpt><trkpt lat="43.73368114218683" lon="10.563036994254421"><ele>438.0</ele><time>2026-04-25T07:01:32.998Z</time></trkpt><trkpt lat="43.73369613588986" lon="10.56284817623992"><ele>440.0</ele><time>2026-04-25T07:01:33.998Z</time></trkpt><trkpt lat="43.733693205739506" lon="10.562654868071256"><ele>442.0</ele><time>2026-04-25T07:01:34.998Z</time></trkpt><trkpt lat="43.73367416011886" lon="10.562455237314113"><ele>444.0</ele><time>2026-04-25T07:01:35.998Z</time></trkpt><trkpt lat="43.733638815834155" lon="10.562256717814162"><ele>444.0</ele><time>2026-04-25T07:01:37Z</time></trkpt><trkpt lat="43.73360366968584" lon="10.56205655192023"><ele>444.0</ele><time>2026-04-25T07:01:38Z</time></trkpt><trkpt lat="43.73356954968657" lon="10.561846079921946"><ele>444.0</ele><time>2026-04-25T07:01:39Z</time></trkpt><trkpt lat="43.733540838061444" lon="10.561635464364679"><ele>437.75</ele><time>2026-04-25T07:01:40Z</time></trkpt><trkpt lat="43.73352954748888" lon="10.561434334222897"><ele>431.5</ele><time>2026-04-25T07:01:41Z</time></trkpt><trkpt lat="43.73351206499869" lon="10.56123239078561"><ele>425.25</ele><time>2026-04-25T07:01:42Z</time></trkpt><trkpt lat="43.73348924114075" lon="10.561026657049284"><ele>419.0</ele><time>2026-04-25T07:01:43Z</time></trkpt><trkpt lat="43.73346862374577" lon="10.56081158324202"><ele>419.0</ele><time>2026-04-25T07:01:44Z</time></trkpt><trkpt lat="43.73346258284579" lon="10.560603780683106"><ele>419.0</ele><time>2026-04-25T07:01:45Z</time></trkpt><trkpt lat="43.73347710664209" lon="10.560402827389868"><ele>419.0</ele><time>2026-04-25T07:01:46Z</time></trkpt><trkpt lat="43.73350984126089" lon="10.560207293987151"><ele>419.0</ele><time>2026-04-25T07:01:47Z</time></trkpt><trkpt lat="43.73352967975052" lon="10.560011158809987"><ele>419.75</ele><time>2026-04-25T07:01:48Z</time></trkpt><trkpt lat="43.73353840849241" lon="10.559815678234568"><ele>420.5</ele><time>2026-04-25T07:01:49Z</time></trkpt><trkpt lat="43.73356706478475" lon="10.55961909464635"><ele>421.25</ele><time>2026-04-25T07:01:50Z</time></trkpt><trkpt lat="43.73359830322201" lon="10.559436490445883"><ele>422.0</ele><time>2026-04-25T07:01:51Z</time></trkpt><trkpt lat="43.73363423765095" lon="10.559261300781685"><ele>424.40000000000003</ele><time>2026-04-25T07:01:52Z</time></trkpt><trkpt lat="43.73365617474299" lon="10.55909758919925"><ele>426.8</ele><time>2026-04-25T07:01:53Z</time></trkpt><trkpt lat="43.73365769974616" lon="10.55897433470858"><ele>429.2</ele><time>2026-04-25T07:01:54Z</time></trkpt><trkpt lat="43.7336194531565" lon="10.558871086754033"><ele>431.6</ele><time>2026-04-25T07:01:55Z</time></trkpt><trkpt lat="43.73354698309508" lon="10.55880826271937"><ele>434.0</ele><time>2026-04-25T07:01:56Z</time></trkpt><trkpt lat="43.73345032122023" lon="10.558794034557549"><ele>434.0</ele><time>2026-04-25T07:01:57Z</time></trkpt><trkpt lat="43.73334744246465" lon="10.558823862095734"><ele>434.0</ele><time>2026-04-25T07:01:58Z</time></trkpt><trkpt lat="43.73324185791449" lon="10.558876007273106"><ele>434.0</ele><time>2026-04-25T07:01:59Z</time></trkpt><trkpt lat="43.733131536604674" lon="10.558926775225373"><ele>434.0</ele><time>2026-04-25T07:02:00Z</time></trkpt><trkpt lat="43.733017877824004" lon="10.558980520727799"><ele>434.0</ele><time>2026-04-25T07:02:01Z</time></trkpt><trkpt lat="43.73290343317747" lon="10.559059868328221"><ele>434.0</ele><time>2026-04-25T07:02:02Z</time></trkpt><trkpt lat="43.73279505229575" lon="10.559161897537537"><ele>434.0</ele><time>2026-04-25T07:02:03Z</time></trkpt><trkpt lat="43.73268812139516" lon="10.559279004066232"><ele>434.0</ele><time>2026-04-25T07:02:04Z</time></trkpt><trkpt lat="43.732578063458554" lon="10.55940536448244"><ele>434.0</ele><time>2026-04-25T07:02:05Z</time></trkpt><trkpt lat="43.732474397972894" lon="10.559537131316093"><ele>434.0</ele><time>2026-04-25T07:02:06Z</time></trkpt><trkpt lat="43.73237989199979" lon="10.559679541742279"><ele>434.0</ele><time>2026-04-25T07:02:07Z</time></trkpt><trkpt lat="43.732302021752815" lon="10.559844203511695"><ele>434.0</ele><time>2026-04-25T07:02:08Z</time></trkpt><trkpt lat="43.73223265380167" lon="10.560015760849263"><ele>434.0</ele><time>2026-04-25T07:02:09Z</time></trkpt><trkpt lat="43.732159470743866" lon="10.560183598333984"><ele>434.0</ele><time>2026-04-25T07:02:10Z</time></trkpt><trkpt lat="43.73205565361841" lon="10.560321038566402"><ele>434.0</ele><time>2026-04-25T07:02:11Z</time></trkpt><trkpt lat="43.731967506186166" lon="10.560480244485518"><ele>434.0</ele><time>2026-04-25T07:02:12Z</time></trkpt><trkpt lat="43.731856685919766" lon="10.560610978421975"><ele>439.0</ele><time>2026-04-25T07:02:13Z</time></trkpt><trkpt lat="43.73175681231657" lon="10.560759280747993"><ele>444.0</ele><time>2026-04-25T07:02:14Z</time></trkpt><trkpt lat="43.7316600027335" lon="10.560880508770671"><ele>449.0</ele><time>2026-04-25T07:02:15Z</time></trkpt><trkpt lat="43.73158744696982" lon="10.560995968962928"><ele>454.0</ele><time>2026-04-25T07:02:16Z</time></trkpt><trkpt lat="43.73152184163027" lon="10.561060737311333"><ele>454.00000000000006</ele><time>2026-04-25T07:02:17Z</time></trkpt><trkpt lat="43.73145062189382" lon="10.561056600244065"><ele>454.0</ele><time>2026-04-25T07:02:18Z</time></trkpt><trkpt lat="43.73140031193646" lon="10.560994077730172"><ele>454.0</ele><time>2026-04-25T07:02:19Z</time></trkpt><trkpt lat="43.73138975548601" lon="10.560890615668272"><ele>454.0</ele><time>2026-04-25T07:02:20Z</time></trkpt><trkpt lat="43.731430595886394" lon="10.56078800922771"><ele>454.00000000000006</ele><time>2026-04-25T07:02:21Z</time></trkpt><trkpt lat="43.73149901454205" lon="10.56072322320023"><ele>454.0</ele><time>2026-04-25T07:02:22Z</time></trkpt><trkpt lat="43.7315783171072" lon="10.560695581613372"><ele>454.00000000000006</ele><time>2026-04-25T07:02:23Z</time></trkpt><trkpt lat="43.73164419258555" lon="10.560602044440756"><ele>454.0</ele><time>2026-04-25T07:02:25Z</time></trkpt><trkpt lat="43.731697519888264" lon="10.56049620938154"><ele>454.0</ele><time>2026-04-25T07:02:28Z</time></trkpt><trkpt lat="43.73173281430484" lon="10.560421291594968"><ele>454.0</ele><time>2026-04-25T07:02:29Z</time></trkpt><trkpt lat="43.73179084683934" lon="10.560333043137922"><ele>454.00000000000006</ele><time>2026-04-25T07:02:30Z</time></trkpt><trkpt lat="43.73185546968779" lon="10.560246820981959"><ele>454.0</ele><time>2026-04-25T07:02:31Z</time></trkpt><trkpt lat="43.731909646249754" lon="10.560137587258147"><ele>454.79999999999995</ele><time>2026-04-25T07:02:31.999Z</time></trkpt><trkpt lat="43.73195624535772" lon="10.560018527557542"><ele>455.59999999999997</ele><time>2026-04-25T07:02:32.999Z</time></trkpt><trkpt lat="43.73198300690863" lon="10.559885094520448"><ele>456.4</ele><time>2026-04-25T07:02:33.999Z</time></trkpt><trkpt lat="43.73200559800526" lon="10.55975114514949"><ele>457.2</ele><time>2026-04-25T07:02:34.999Z</time></trkpt><trkpt lat="43.7320327514908" lon="10.559627323149808"><ele>458.0</ele><time>2026-04-25T07:02:35.999Z</time></trkpt><trkpt lat="43.73206363645209" lon="10.559509953326348"><ele>458.0</ele><time>2026-04-25T07:02:36.999Z</time></trkpt><trkpt lat="43.73209200154057" lon="10.559381181372386"><ele>457.99999999999994</ele><time>2026-04-25T07:02:37.999Z</time></trkpt><trkpt lat="43.73214755776535" lon="10.559269884444396"><ele>457.99999999999994</ele><time>2026-04-25T07:02:38.999Z</time></trkpt><trkpt lat="43.73220568457905" lon="10.559150346181603"><ele>458.0</ele><time>2026-04-25T07:02:39.999Z</time></trkpt><trkpt lat="43.73226531336582" lon="10.559008872273493"><ele>458.0</ele><time>2026-04-25T07:02:40.999Z</time></trkpt><trkpt lat="43.73235549957937" lon="10.558874620048119"><ele>458.0</ele><time>2026-04-25T07:02:41.999Z</time></trkpt><trkpt lat="43.732445944417684" lon="10.55873368695824"><ele>458.0</ele><time>2026-04-25T07:02:42.999Z</time></trkpt><trkpt lat="43.73252867539231" lon="10.558571145515426"><ele>458.0</ele><time>2026-04-25T07:02:43.999Z</time></trkpt><trkpt lat="43.732607097785596" lon="10.558399733363512"><ele>458.0</ele><time>2026-04-25T07:02:44.999Z</time></trkpt><trkpt lat="43.732688247754815" lon="10.558219185471808"><ele>456.0</ele><time>2026-04-25T07:02:45.999Z</time></trkpt><trkpt lat="43.7327743942853" lon="10.55803796034375"><ele>454.0</ele><time>2026-04-25T07:02:46.999Z</time></trkpt><trkpt lat="43.73286377249263" lon="10.557853939518258"><ele>452.0</ele><time>2026-04-25T07:02:47.999Z</time></trkpt><trkpt lat="43.732962192677114" lon="10.557665316816546"><ele>460.0</ele><time>2026-04-25T07:02:48.999Z</time></trkpt><trkpt lat="43.73310067492958" lon="10.557502896855143"><ele>468.0</ele><time>2026-04-25T07:02:49.999Z</time></trkpt><trkpt lat="43.73324236269242" lon="10.55731445748877"><ele>476.0</ele><time>2026-04-25T07:02:50.999Z</time></trkpt><trkpt lat="43.73340557694555" lon="10.557115004423464"><ele>479.0</ele><time>2026-04-25T07:02:51.999Z</time></trkpt><trkpt lat="43.733539888529926" lon="10.556954346326025"><ele>482.0</ele><time>2026-04-25T07:02:52.999Z</time></trkpt><trkpt lat="43.73365289801298" lon="10.556829786531544"><ele>485.0</ele><time>2026-04-25T07:02:53.999Z</time></trkpt><trkpt lat="43.733768456784496" lon="10.556730098453283"><ele>485.0</ele><time>2026-04-25T07:02:54.999Z</time></trkpt><trkpt lat="43.7338948607762" lon="10.556634527181886"><ele>485.0</ele><time>2026-04-25T07:02:55.999Z</time></trkpt><trkpt lat="43.734036823109584" lon="10.55653183275591"><ele>485.0</ele><time>2026-04-25T07:02:56.999Z</time></trkpt><trkpt lat="43.734181293395146" lon="10.556439550614156"><ele>485.0</ele><time>2026-04-25T07:02:57.999Z</time></trkpt><trkpt lat="43.73430942888447" lon="10.556317876845602"><ele>485.0</ele><time>2026-04-25T07:02:58.999Z</time></trkpt><trkpt lat="43.734426511813226" lon="10.556172167525496"><ele>485.0</ele><time>2026-04-25T07:02:59.999Z</time></trkpt><trkpt lat="43.7345347715156" lon="10.556016136198684"><ele>487.66666666666663</ele><time>2026-04-25T07:03:00.999Z</time></trkpt><trkpt lat="43.73465497806231" lon="10.555885777057837"><ele>490.33333333333337</ele><time>2026-04-25T07:03:01.999Z</time></trkpt><trkpt lat="43.734765143883784" lon="10.555742065851126"><ele>493.0</ele><time>2026-04-25T07:03:02.999Z</time></trkpt><trkpt lat="43.73486801520664" lon="10.555581969095666"><ele>493.0</ele><time>2026-04-25T07:03:03.999Z</time></trkpt><trkpt lat="43.734984208841965" lon="10.555454475209055"><ele>493.0</ele><time>2026-04-25T07:03:04.999Z</time></trkpt><trkpt lat="43.735093479533596" lon="10.555329189953014"><ele>493.0</ele><time>2026-04-25T07:03:05.999Z</time></trkpt><trkpt lat="43.73520100097275" lon="10.55520933321789"><ele>493.0</ele><time>2026-04-25T07:03:06.999Z</time></trkpt><trkpt lat="43.73529135400898" lon="10.555095512293718"><ele>496.79999999999995</ele><time>2026-04-25T07:03:07.999Z</time></trkpt><trkpt lat="43.735390014131006" lon="10.555007450653951"><ele>500.59999999999997</ele><time>2026-04-25T07:03:08.999Z</time></trkpt><trkpt lat="43.735470136413625" lon="10.554926148864274"><ele>504.40000000000003</ele><time>2026-04-25T07:03:09.999Z</time></trkpt><trkpt lat="43.73555450043401" lon="10.554862777510756"><ele>508.20000000000005</ele><time>2026-04-25T07:03:10.999Z</time></trkpt><trkpt lat="43.73565198016283" lon="10.554852447726823"><ele>512.0</ele><time>2026-04-25T07:03:11.999Z</time></trkpt><trkpt lat="43.73575662689264" lon="10.5548731213038"><ele>512.0</ele><time>2026-04-25T07:03:12.999Z</time></trkpt><trkpt lat="43.73585698801463" lon="10.554918196007375"><ele>512.0</ele><time>2026-04-25T07:03:13.999Z</time></trkpt><trkpt lat="43.73592011084994" lon="10.555074561800025"><ele>512.0</ele><time>2026-04-25T07:03:14.999Z</time></trkpt><trkpt lat="43.73599613932726" lon="10.555245025669784"><ele>512.0</ele><time>2026-04-25T07:03:15.999Z</time></trkpt><trkpt lat="43.736058559452346" lon="10.555428055421174"><ele>518.0</ele><time>2026-04-25T07:03:16.999Z</time></trkpt><trkpt lat="43.736133529107434" lon="10.555636731712395"><ele>524.0</ele><time>2026-04-25T07:03:17.999Z</time></trkpt><trkpt lat="43.736176617106175" lon="10.555880732643761"><ele>530.0</ele><time>2026-04-25T07:03:18.999Z</time></trkpt><trkpt lat="43.73619935062846" lon="10.556164294358778"><ele>530.6666666666666</ele><time>2026-04-25T07:03:19.999Z</time></trkpt><trkpt lat="43.736223678729125" lon="10.556475341700935"><ele>531.3333333333334</ele><time>2026-04-25T07:03:20.999Z</time></trkpt><trkpt lat="43.73626426272902" lon="10.556774864522856"><ele>532.0</ele><time>2026-04-25T07:03:21.999Z</time></trkpt><trkpt lat="43.736269262667435" lon="10.557017783887906"><ele>536.3333333333334</ele><time>2026-04-25T07:03:22.999Z</time></trkpt><trkpt lat="43.736265709984366" lon="10.557236600591535"><ele>540.6666666666666</ele><time>2026-04-25T07:03:23.999Z</time></trkpt><trkpt lat="43.736203795338916" lon="10.557443038799075"><ele>545.0</ele><time>2026-04-25T07:03:24.999Z</time></trkpt><trkpt lat="43.73613845714553" lon="10.557673519445672"><ele>538.3333333333333</ele><time>2026-04-25T07:03:25.999Z</time></trkpt><trkpt lat="43.73609713886379" lon="10.557932899389254"><ele>531.6666666666666</ele><time>2026-04-25T07:03:26.998Z</time></trkpt><trkpt lat="43.73607097595007" lon="10.55820623082063"><ele>525.0</ele><time>2026-04-25T07:03:27.998Z</time></trkpt><trkpt lat="43.73602890256035" lon="10.558434936823016"><ele>525.0</ele><time>2026-04-25T07:03:28.998Z</time></trkpt><trkpt lat="43.73595553257393" lon="10.558608196189928"><ele>525.0</ele><time>2026-04-25T07:03:29.998Z</time></trkpt><trkpt lat="43.73588767265721" lon="10.558758098460387"><ele>525.0</ele><time>2026-04-25T07:03:30.998Z</time></trkpt><trkpt lat="43.73581260490438" lon="10.558905876756944"><ele>525.0</ele><time>2026-04-25T07:03:31.998Z</time></trkpt><trkpt lat="43.735741367762216" lon="10.559069026230093"><ele>530.25</ele><time>2026-04-25T07:03:32.998Z</time></trkpt><trkpt lat="43.7356540742377" lon="10.559212284599646"><ele>535.5</ele><time>2026-04-25T07:03:33.998Z</time></trkpt><trkpt lat="43.735566046952364" lon="10.55935541177951"><ele>540.75</ele><time>2026-04-25T07:03:34.998Z</time></trkpt><trkpt lat="43.73546756745734" lon="10.559488680504607"><ele>546.0</ele><time>2026-04-25T07:03:35.998Z</time></trkpt><trkpt lat="43.73535747314022" lon="10.559594076289725"><ele>542.0</ele><time>2026-04-25T07:03:36.998Z</time></trkpt><trkpt lat="43.73524942213627" lon="10.559700565850973"><ele>538.0</ele><time>2026-04-25T07:03:37.998Z</time></trkpt><trkpt lat="43.73514109281947" lon="10.559800908805062"><ele>534.0</ele><time>2026-04-25T07:03:38.998Z</time></trkpt><trkpt lat="43.735051775976956" lon="10.55991282457106"><ele>530.0</ele><time>2026-04-25T07:03:39.998Z</time></trkpt><trkpt lat="43.73497629912553" lon="10.5599806218786"><ele>530.0</ele><time>2026-04-25T07:03:40.998Z</time></trkpt><trkpt lat="43.73493452218221" lon="10.560070486148186"><ele>530.0</ele><time>2026-04-25T07:03:41.998Z</time></trkpt><trkpt lat="43.73493139647986" lon="10.560194194667348"><ele>530.0</ele><time>2026-04-25T07:03:43Z</time></trkpt><trkpt lat="43.7349638899417" lon="10.56031994273618"><ele>530.0</ele><time>2026-04-25T07:03:44Z</time></trkpt><trkpt lat="43.73503483104903" lon="10.560437484270178"><ele>530.0</ele><time>2026-04-25T07:03:45Z</time></trkpt><trkpt lat="43.73512358030522" lon="10.560530391172055"><ele>528.5</ele><time>2026-04-25T07:03:46Z</time></trkpt><trkpt lat="43.7352053437098" lon="10.560643954039815"><ele>527.0</ele><time>2026-04-25T07:03:47Z</time></trkpt><trkpt lat="43.735285348725185" lon="10.56076551108641"><ele>525.5</ele><time>2026-04-25T07:03:48Z</time></trkpt><trkpt lat="43.73536346487839" lon="10.560905542301974"><ele>524.0</ele><time>2026-04-25T07:03:49Z</time></trkpt><trkpt lat="43.73544910865283" lon="10.561036881545146"><ele>531.0</ele><time>2026-04-25T07:03:50Z</time></trkpt><trkpt lat="43.735534785171" lon="10.561172406409087"><ele>538.0</ele><time>2026-04-25T07:03:51Z</time></trkpt><trkpt lat="43.735618893726596" lon="10.561311579114687"><ele>545.0</ele><time>2026-04-25T07:03:52Z</time></trkpt><trkpt lat="43.735713568114214" lon="10.561433853115364"><ele>552.0</ele><time>2026-04-25T07:03:53Z</time></trkpt><trkpt lat="43.73579465801849" lon="10.561578780408706"><ele>552.0</ele><time>2026-04-25T07:03:54Z</time></trkpt><trkpt lat="43.73588343027464" lon="10.561707710408788"><ele>552.0</ele><time>2026-04-25T07:03:55Z</time></trkpt><trkpt lat="43.73595261765978" lon="10.561843729021652"><ele>552.0</ele><time>2026-04-25T07:03:56Z</time></trkpt><trkpt lat="43.73602701706696" lon="10.561976841968592"><ele>552.0</ele><time>2026-04-25T07:03:57Z</time></trkpt><trkpt lat="43.7360942235991" lon="10.562115466565599"><ele>559.0</ele><time>2026-04-25T07:03:58Z</time></trkpt><trkpt lat="43.73615633916942" lon="10.562255799844946"><ele>566.0</ele><time>2026-04-25T07:03:59Z</time></trkpt><trkpt lat="43.736229229629046" lon="10.562393808395914"><ele>573.0</ele><time>2026-04-25T07:04:00Z</time></trkpt><trkpt lat="43.73627867300553" lon="10.562544627755935"><ele>580.0</ele><time>2026-04-25T07:04:01Z</time></trkpt><trkpt lat="43.736339699429124" lon="10.562690806797821"><ele>580.0</ele><time>2026-04-25T07:04:02Z</time></trkpt><trkpt lat="43.736405453511054" lon="10.562835870882616"><ele>580.0</ele><time>2026-04-25T07:04:03Z</time></trkpt><trkpt lat="43.736452532980735" lon="10.562990219677316"><ele>580.0</ele><time>2026-04-25T07:04:04Z</time></trkpt><trkpt lat="43.73652414020583" lon="10.563129957196354"><ele>580.0</ele><time>2026-04-25T07:04:05Z</time></trkpt><trkpt lat="43.73658091895986" lon="10.563281596202232"><ele>577.25</ele><time>2026-04-25T07:04:06Z</time></trkpt><trkpt lat="43.73663786337463" lon="10.563431038541239"><ele>574.5</ele><time>2026-04-25T07:04:07Z</time></trkpt><trkpt lat="43.73669800004933" lon="10.563573359323723"><ele>571.75</ele><time>2026-04-25T07:04:08Z</time></trkpt><trkpt lat="43.736756003195694" lon="10.563716784619883"><ele>569.0</ele><time>2026-04-25T07:04:09Z</time></trkpt><trkpt lat="43.73681308219469" lon="10.563857846715722"><ele>572.25</ele><time>2026-04-25T07:04:10Z</time></trkpt><trkpt lat="43.73688104721075" lon="10.563981729573708"><ele>575.5</ele><time>2026-04-25T07:04:11Z</time></trkpt><trkpt lat="43.736965512082776" lon="10.564083423898513"><ele>578.75</ele><time>2026-04-25T07:04:12Z</time></trkpt><trkpt lat="43.737066071784184" lon="10.564170534404246"><ele>582.0</ele><time>2026-04-25T07:04:13Z</time></trkpt><trkpt lat="43.73717773268648" lon="10.564249613820209"><ele>582.0</ele><time>2026-04-25T07:04:14Z</time></trkpt><trkpt lat="43.73730351358563" lon="10.564308571408095"><ele>582.0</ele><time>2026-04-25T07:04:15Z</time></trkpt><trkpt lat="43.73744000047835" lon="10.56433556775155"><ele>582.0</ele><time>2026-04-25T07:04:16Z</time></trkpt><trkpt lat="43.73758561390092" lon="10.56433819460701"><ele>582.0</ele><time>2026-04-25T07:04:17Z</time></trkpt><trkpt lat="43.737714966481256" lon="10.56437380123005"><ele>584.75</ele><time>2026-04-25T07:04:18Z</time></trkpt><trkpt lat="43.737858834800356" lon="10.564440564430845"><ele>587.5</ele><time>2026-04-25T07:04:19Z</time></trkpt><trkpt lat="43.73799503938456" lon="10.56451996719261"><ele>590.25</ele><time>2026-04-25T07:04:20Z</time></trkpt><trkpt lat="43.73811493904776" lon="10.564622099588107"><ele>593.0</ele><time>2026-04-25T07:04:21Z</time></trkpt><trkpt lat="43.73823248368653" lon="10.564670814212684"><ele>593.0</ele><time>2026-04-25T07:04:22Z</time></trkpt><trkpt lat="43.73833926004806" lon="10.564680670604503"><ele>593.0</ele><time>2026-04-25T07:04:23Z</time></trkpt><trkpt lat="43.738411737661075" lon="10.564661762749788"><ele>593.0</ele><time>2026-04-25T07:04:24Z</time></trkpt><trkpt lat="43.738467133306585" lon="10.564615965816998"><ele>593.0</ele><time>2026-04-25T07:04:26Z</time></trkpt><trkpt lat="43.73843756648729" lon="10.564408759175691"><ele>593.0</ele><time>2026-04-25T07:04:27Z</time></trkpt><trkpt lat="43.73837490569607" lon="10.56432427911091"><ele>593.0</ele><time>2026-04-25T07:04:28Z</time></trkpt><trkpt lat="43.73826720323276" lon="10.56430626062526"><ele>593.0</ele><time>2026-04-25T07:04:29Z</time></trkpt><trkpt lat="43.73816044744864" lon="10.564235299638865"><ele>593.0</ele><time>2026-04-25T07:04:30Z</time></trkpt><trkpt lat="43.73803377834823" lon="10.564145736199304"><ele>593.0</ele><time>2026-04-25T07:04:31Z</time></trkpt><trkpt lat="43.73789450115303" lon="10.56404043716853"><ele>593.0</ele><time>2026-04-25T07:04:32Z</time></trkpt><trkpt lat="43.73775846325694" lon="10.563937587147327"><ele>593.0</ele><time>2026-04-25T07:04:33Z</time></trkpt><trkpt lat="43.737614098132994" lon="10.563818658729556"><ele>593.0</ele><time>2026-04-25T07:04:34Z</time></trkpt><trkpt lat="43.7374915580532" lon="10.563700546021172"><ele>594.3333333333333</ele><time>2026-04-25T07:04:35Z</time></trkpt><trkpt lat="43.737376149726956" lon="10.563574170222308"><ele>595.6666666666666</ele><time>2026-04-25T07:04:36Z</time></trkpt><trkpt lat="43.73724793843306" lon="10.563404889125025"><ele>597.0</ele><time>2026-04-25T07:04:36.999Z</time></trkpt><trkpt lat="43.73715997692248" lon="10.563251784020066"><ele>597.0</ele><time>2026-04-25T07:04:37.999Z</time></trkpt><trkpt lat="43.73709107685176" lon="10.563063230828444"><ele>597.0</ele><time>2026-04-25T07:04:38.999Z</time></trkpt><trkpt lat="43.73704330454881" lon="10.56285704575292"><ele>597.0</ele><time>2026-04-25T07:04:39.999Z</time></trkpt><trkpt lat="43.737005718035014" lon="10.562628143942108"><ele>599.6666666666666</ele><time>2026-04-25T07:04:40.999Z</time></trkpt><trkpt lat="43.73697319798175" lon="10.562404610903211"><ele>602.3333333333333</ele><time>2026-04-25T07:04:41.999Z</time></trkpt><trkpt lat="43.736930819771956" lon="10.562135128432583"><ele>605.0</ele><time>2026-04-25T07:04:42.999Z</time></trkpt><trkpt lat="43.73689820364306" lon="10.561868825580998"><ele>603.3333333333333</ele><time>2026-04-25T07:04:43.999Z</time></trkpt><trkpt lat="43.73684818170206" lon="10.561578668954395"><ele>601.6666666666666</ele><time>2026-04-25T07:04:44.999Z</time></trkpt><trkpt lat="43.73680794998208" lon="10.561279052417294"><ele>600.0</ele><time>2026-04-25T07:04:45.999Z</time></trkpt><trkpt lat="43.73678860001138" lon="10.56099260850715"><ele>600.0</ele><time>2026-04-25T07:04:46.999Z</time></trkpt><trkpt lat="43.73682390901964" lon="10.56070988105259"><ele>600.0</ele><time>2026-04-25T07:04:47.999Z</time></trkpt><trkpt lat="43.73683701702189" lon="10.560424068622373"><ele>600.0</ele><time>2026-04-25T07:04:48.999Z</time></trkpt><trkpt lat="43.736881358705006" lon="10.560153334661733"><ele>605.6666666666666</ele><time>2026-04-25T07:04:49.999Z</time></trkpt><trkpt lat="43.73693550030899" lon="10.559893116837"><ele>611.3333333333333</ele><time>2026-04-25T07:04:50.999Z</time></trkpt><trkpt lat="43.737029379446305" lon="10.559667196315017"><ele>617.0</ele><time>2026-04-25T07:04:51.999Z</time></trkpt><trkpt lat="43.73712828112755" lon="10.559443677369318"><ele>617.0</ele><time>2026-04-25T07:04:52.999Z</time></trkpt><trkpt lat="43.73722630865401" lon="10.559228271303954"><ele>617.0</ele><time>2026-04-25T07:04:53.999Z</time></trkpt><trkpt lat="43.73732510453938" lon="10.559011176859435"><ele>617.0</ele><time>2026-04-25T07:04:54.999Z</time></trkpt><trkpt lat="43.737413243782605" lon="10.5587906343048"><ele>612.0</ele><time>2026-04-25T07:04:55.999Z</time></trkpt><trkpt lat="43.73751909069896" lon="10.558580546609488"><ele>607.0</ele><time>2026-04-25T07:04:56.999Z</time></trkpt><trkpt lat="43.73762499929934" lon="10.55834849286184"><ele>602.0</ele><time>2026-04-25T07:04:57.999Z</time></trkpt><trkpt lat="43.737703047214325" lon="10.558134218664183"><ele>613.3333333333333</ele><time>2026-04-25T07:04:58.999Z</time></trkpt><trkpt lat="43.73780932804348" lon="10.557920804451362"><ele>624.6666666666666</ele><time>2026-04-25T07:04:59.999Z</time></trkpt><trkpt lat="43.73787259131413" lon="10.557677787636468"><ele>636.0</ele><time>2026-04-25T07:05:00.999Z</time></trkpt><trkpt lat="43.737943139296" lon="10.557438560154093"><ele>636.0</ele><time>2026-04-25T07:05:01.999Z</time></trkpt><trkpt lat="43.73801177349927" lon="10.557205371086871"><ele>636.0</ele><time>2026-04-25T07:05:02.999Z</time></trkpt><trkpt lat="43.73809106064579" lon="10.556970317882595"><ele>636.0</ele><time>2026-04-25T07:05:03.999Z</time></trkpt><trkpt lat="43.738172942641896" lon="10.55674744927357"><ele>633.0</ele><time>2026-04-25T07:05:04.999Z</time></trkpt><trkpt lat="43.73825476476254" lon="10.55652051784249"><ele>630.0</ele><time>2026-04-25T07:05:05.999Z</time></trkpt><trkpt lat="43.73833530939865" lon="10.556294746787913"><ele>627.0</ele><time>2026-04-25T07:05:06.999Z</time></trkpt><trkpt lat="43.738413887203045" lon="10.556066782539137"><ele>623.6666666666666</ele><time>2026-04-25T07:05:07.999Z</time></trkpt><trkpt lat="43.73849425344272" lon="10.555845063752322"><ele>620.3333333333333</ele><time>2026-04-25T07:05:08.999Z</time></trkpt><trkpt lat="43.738560976767374" lon="10.55561614002028"><ele>617.0</ele><time>2026-04-25T07:05:09.999Z</time></trkpt><trkpt lat="43.738611326617814" lon="10.555381917849832"><ele>628.3333333333333</ele><time>2026-04-25T07:05:10.999Z</time></trkpt><trkpt lat="43.73864715852402" lon="10.555154280682041"><ele>639.6666666666666</ele><time>2026-04-25T07:05:11.999Z</time></trkpt><trkpt lat="43.73867663708344" lon="10.554948824442945"><ele>651.0</ele><time>2026-04-25T07:05:12.999Z</time></trkpt><trkpt lat="43.73870265113519" lon="10.554761931941934"><ele>651.0</ele><time>2026-04-25T07:05:13.999Z</time></trkpt><trkpt lat="43.738701557562166" lon="10.55458216690431"><ele>651.0</ele><time>2026-04-25T07:05:14.999Z</time></trkpt><trkpt lat="43.73867139772327" lon="10.554395920313123"><ele>651.0</ele><time>2026-04-25T07:05:15.999Z</time></trkpt><trkpt lat="43.738616345656034" lon="10.554220338545989"><ele>651.0</ele><time>2026-04-25T07:05:16.999Z</time></trkpt><trkpt lat="43.73857324661835" lon="10.5540921080661"><ele>644.5</ele><time>2026-04-25T07:05:17.999Z</time></trkpt><trkpt lat="43.73848975688077" lon="10.55401113752353"><ele>638.0</ele><time>2026-04-25T07:05:18.999Z</time></trkpt><trkpt lat="43.73836807276015" lon="10.553975096739041"><ele>631.5</ele><time>2026-04-25T07:05:19.999Z</time></trkpt><trkpt lat="43.73822361188313" lon="10.55395584032187"><ele>625.0</ele><time>2026-04-25T07:05:20.999Z</time></trkpt><trkpt lat="43.73808812001291" lon="10.553883236131313"><ele>625.0</ele><time>2026-04-25T07:05:21.999Z</time></trkpt><trkpt lat="43.7379676145841" lon="10.553799281225166"><ele>625.0</ele><time>2026-04-25T07:05:22.999Z</time></trkpt><trkpt lat="43.73785567750653" lon="10.553693108471576"><ele>625.0</ele><time>2026-04-25T07:05:23.999Z</time></trkpt><trkpt lat="43.73775329063582" lon="10.553572798112695"><ele>625.0</ele><time>2026-04-25T07:05:24.999Z</time></trkpt><trkpt lat="43.737706245177115" lon="10.553415201615135"><ele>624.5</ele><time>2026-04-25T07:05:25.999Z</time></trkpt><trkpt lat="43.737668828102585" lon="10.553249161998872"><ele>624.0</ele><time>2026-04-25T07:05:26.999Z</time></trkpt><trkpt lat="43.737641091140986" lon="10.553059176322035"><ele>623.5</ele><time>2026-04-25T07:05:27.999Z</time></trkpt><trkpt lat="43.73762057958039" lon="10.552854091267562"><ele>623.0</ele><time>2026-04-25T07:05:28.999Z</time></trkpt><trkpt lat="43.73760227637528" lon="10.55263224895293"><ele>625.6666666666666</ele><time>2026-04-25T07:05:29.998Z</time></trkpt><trkpt lat="43.73757674195279" lon="10.552379754698425"><ele>628.3333333333334</ele><time>2026-04-25T07:05:30.998Z</time></trkpt><trkpt lat="43.737581827891965" lon="10.552087180620632"><ele>631.0</ele><time>2026-04-25T07:05:31.998Z</time></trkpt><trkpt lat="43.73756894485204" lon="10.551772305186725"><ele>632.3333333333334</ele><time>2026-04-25T07:05:32.998Z</time></trkpt><trkpt lat="43.73755510407276" lon="10.551459860004767"><ele>633.6666666666666</ele><time>2026-04-25T07:05:33.998Z</time></trkpt><trkpt lat="43.73753261376299" lon="10.55119530605742"><ele>635.0</ele><time>2026-04-25T07:05:34.998Z</time></trkpt><trkpt lat="43.737490003366716" lon="10.550961018967199"><ele>638.3333333333333</ele><time>2026-04-25T07:05:35.998Z</time></trkpt><trkpt lat="43.737430108283704" lon="10.55075299491015"><ele>641.6666666666666</ele><time>2026-04-25T07:05:36.998Z</time></trkpt><trkpt lat="43.737354752761505" lon="10.550559728412217"><ele>645.0</ele><time>2026-04-25T07:05:37.998Z</time></trkpt><trkpt lat="43.73726311367991" lon="10.55037563240469"><ele>648.0</ele><time>2026-04-25T07:05:38.998Z</time></trkpt><trkpt lat="43.73716281516352" lon="10.550201463441596"><ele>651.0</ele><time>2026-04-25T07:05:39.998Z</time></trkpt><trkpt lat="43.737064645505804" lon="10.550034207730482"><ele>654.0</ele><time>2026-04-25T07:05:40.998Z</time></trkpt><trkpt lat="43.73697234140858" lon="10.54987074758941"><ele>654.0</ele><time>2026-04-25T07:05:41.998Z</time></trkpt><trkpt lat="43.736894677335" lon="10.549722034901055"><ele>654.0</ele><time>2026-04-25T07:05:42.998Z</time></trkpt><trkpt lat="43.73683858929605" lon="10.54959798774543"><ele>654.0</ele><time>2026-04-25T07:05:43.998Z</time></trkpt><trkpt lat="43.73680416943071" lon="10.54950218728311"><ele>654.0</ele><time>2026-04-25T07:05:44.998Z</time></trkpt><trkpt lat="43.736778266726965" lon="10.549411468674231"><ele>654.0</ele><time>2026-04-25T07:05:45.998Z</time></trkpt><trkpt lat="43.73676155996969" lon="10.549324505260929"><ele>654.0</ele><time>2026-04-25T07:05:46.998Z</time></trkpt><trkpt lat="43.73673951931908" lon="10.549158159004973"><ele>654.0</ele><time>2026-04-25T07:05:49Z</time></trkpt><trkpt lat="43.736751213729434" lon="10.54906040167706"><ele>654.0</ele><time>2026-04-25T07:05:50Z</time></trkpt><trkpt lat="43.73678505278348" lon="10.548940442232572"><ele>654.0</ele><time>2026-04-25T07:05:51Z</time></trkpt><trkpt lat="43.73689619913257" lon="10.548867486115492"><ele>654.0</ele><time>2026-04-25T07:05:52Z</time></trkpt><trkpt lat="43.736987087077246" lon="10.548800026990435"><ele>654.0</ele><time>2026-04-25T07:05:53Z</time></trkpt><trkpt lat="43.737086763361205" lon="10.548738696006481"><ele>654.0</ele><time>2026-04-25T07:05:54Z</time></trkpt><trkpt lat="43.737200103716184" lon="10.548685757830736"><ele>654.0</ele><time>2026-04-25T07:05:55Z</time></trkpt><trkpt lat="43.73730995637396" lon="10.54866262817004"><ele>654.0</ele><time>2026-04-25T07:05:56Z</time></trkpt><trkpt lat="43.73742847952448" lon="10.548687981570877"><ele>654.0</ele><time>2026-04-25T07:05:57Z</time></trkpt><trkpt lat="43.73754757289688" lon="10.54873352305323"><ele>654.0</ele><time>2026-04-25T07:05:58Z</time></trkpt><trkpt lat="43.73766509906235" lon="10.548788463172441"><ele>654.0</ele><time>2026-04-25T07:05:59Z</time></trkpt><trkpt lat="43.737784054570895" lon="10.548838695318933"><ele>654.0</ele><time>2026-04-25T07:06:00Z</time></trkpt><trkpt lat="43.73789979704011" lon="10.548909712293046"><ele>655.5</ele><time>2026-04-25T07:06:01Z</time></trkpt><trkpt lat="43.738018515053106" lon="10.548990426237445"><ele>657.0</ele><time>2026-04-25T07:06:02Z</time></trkpt><trkpt lat="43.738137928441105" lon="10.549066140458967"><ele>658.5</ele><time>2026-04-25T07:06:03Z</time></trkpt><trkpt lat="43.73826611244077" lon="10.549114962119845"><ele>660.0</ele><time>2026-04-25T07:06:04Z</time></trkpt><trkpt lat="43.738398531917625" lon="10.549148328569517"><ele>660.0</ele><time>2026-04-25T07:06:05Z</time></trkpt><trkpt lat="43.738530914118996" lon="10.549172458313354"><ele>660.0</ele><time>2026-04-25T07:06:06Z</time></trkpt><trkpt lat="43.738664431572175" lon="10.549199164842088"><ele>660.0</ele><time>2026-04-25T07:06:07Z</time></trkpt><trkpt lat="43.73880256069969" lon="10.549231064678814"><ele>660.0</ele><time>2026-04-25T07:06:08Z</time></trkpt><trkpt lat="43.73895102225141" lon="10.549258315861263"><ele>663.0</ele><time>2026-04-25T07:06:09Z</time></trkpt><trkpt lat="43.739106602566764" lon="10.549261304420495"><ele>666.0</ele><time>2026-04-25T07:06:10Z</time></trkpt><trkpt lat="43.739264105158526" lon="10.549241767294662"><ele>669.0</ele><time>2026-04-25T07:06:11Z</time></trkpt><trkpt lat="43.7394221945474" lon="10.549204536858321"><ele>675.5</ele><time>2026-04-25T07:06:12Z</time></trkpt><trkpt lat="43.73956931253823" lon="10.549162641831424"><ele>682.0</ele><time>2026-04-25T07:06:13Z</time></trkpt><trkpt lat="43.73968785973921" lon="10.549117670577942"><ele>688.5</ele><time>2026-04-25T07:06:14Z</time></trkpt><trkpt lat="43.73978635469864" lon="10.549027859368687"><ele>695.0</ele><time>2026-04-25T07:06:15Z</time></trkpt><trkpt lat="43.73989384175815" lon="10.548900492577179"><ele>695.0</ele><time>2026-04-25T07:06:16Z</time></trkpt><trkpt lat="43.739999852091074" lon="10.548757413622777"><ele>695.0</ele><time>2026-04-25T07:06:17Z</time></trkpt><trkpt lat="43.740096425574905" lon="10.548603439443543"><ele>695.0</ele><time>2026-04-25T07:06:18Z</time></trkpt><trkpt lat="43.740199068471796" lon="10.54844763178889"><ele>695.0</ele><time>2026-04-25T07:06:19Z</time></trkpt><trkpt lat="43.74031220519355" lon="10.548302781126855"><ele>699.0</ele><time>2026-04-25T07:06:20Z</time></trkpt><trkpt lat="43.74042385261429" lon="10.548135739330469"><ele>703.0</ele><time>2026-04-25T07:06:21Z</time></trkpt><trkpt lat="43.7405343866425" lon="10.547969733458675"><ele>707.0</ele><time>2026-04-25T07:06:22Z</time></trkpt><trkpt lat="43.740625839899074" lon="10.54779789390624"><ele>701.0</ele><time>2026-04-25T07:06:23Z</time></trkpt><trkpt lat="43.74072978103581" lon="10.547650577640963"><ele>695.0</ele><time>2026-04-25T07:06:24Z</time></trkpt><trkpt lat="43.74085341177755" lon="10.547544496932586"><ele>689.0</ele><time>2026-04-25T07:06:25Z</time></trkpt><trkpt lat="43.74096664907012" lon="10.547455072609734"><ele>683.0</ele><time>2026-04-25T07:06:26Z</time></trkpt><trkpt lat="43.74105447827825" lon="10.547438765243763"><ele>681.75</ele><time>2026-04-25T07:06:27Z</time></trkpt><trkpt lat="43.741146158086295" lon="10.547455555440697"><ele>680.5</ele><time>2026-04-25T07:06:28Z</time></trkpt><trkpt lat="43.74122623870895" lon="10.54755049405559"><ele>679.25</ele><time>2026-04-25T07:06:29Z</time></trkpt><trkpt lat="43.741323647339314" lon="10.547668912310805"><ele>678.0</ele><time>2026-04-25T07:06:30Z</time></trkpt><trkpt lat="43.74143049069992" lon="10.547807272554506"><ele>686.6666666666666</ele><time>2026-04-25T07:06:31Z</time></trkpt><trkpt lat="43.74153508496022" lon="10.54798087997412"><ele>695.3333333333333</ele><time>2026-04-25T07:06:32Z</time></trkpt><trkpt lat="43.74163218465729" lon="10.5481976528099"><ele>704.0</ele><time>2026-04-25T07:06:32.999Z</time></trkpt><trkpt lat="43.741687664871236" lon="10.54844123637095"><ele>704.0</ele><time>2026-04-25T07:06:33.999Z</time></trkpt><trkpt lat="43.741707496396245" lon="10.548706793301813"><ele>704.0</ele><time>2026-04-25T07:06:34.999Z</time></trkpt><trkpt lat="43.74172245729915" lon="10.549005410243513"><ele>704.0</ele><time>2026-04-25T07:06:35.999Z</time></trkpt><trkpt lat="43.74175995504995" lon="10.549208647361635"><ele>700.25</ele><time>2026-04-25T07:06:36.999Z</time></trkpt><trkpt lat="43.74181744958914" lon="10.549343477597375"><ele>696.5</ele><time>2026-04-25T07:06:37.999Z</time></trkpt><trkpt lat="43.7419427551343" lon="10.549409533059569"><ele>692.75</ele><time>2026-04-25T07:06:38.999Z</time></trkpt><trkpt lat="43.74207494166853" lon="10.54951906354367"><ele>689.0</ele><time>2026-04-25T07:06:39.999Z</time></trkpt><trkpt lat="43.74223090672837" lon="10.549633164236992"><ele>701.0</ele><time>2026-04-25T07:06:40.999Z</time></trkpt><trkpt lat="43.74235338705567" lon="10.549848237485287"><ele>713.0</ele><time>2026-04-25T07:06:41.999Z</time></trkpt><trkpt lat="43.7424519784522" lon="10.550045174599992"><ele>725.0</ele><time>2026-04-25T07:06:42.999Z</time></trkpt><trkpt lat="43.7426673448524" lon="10.550378867587941"><ele>727.3333333333333</ele><time>2026-04-25T07:06:43.999Z</time></trkpt><trkpt lat="43.74279467139344" lon="10.550521751226938"><ele>729.6666666666666</ele><time>2026-04-25T07:06:44.999Z</time></trkpt><trkpt lat="43.74294512928463" lon="10.550605317458965"><ele>732.0</ele><time>2026-04-25T07:06:45.999Z</time></trkpt><trkpt lat="43.74306847675959" lon="10.550701676788679"><ele>732.0</ele><time>2026-04-25T07:06:46.999Z</time></trkpt><trkpt lat="43.74319613538229" lon="10.550796171911742"><ele>732.0</ele><time>2026-04-25T07:06:47.999Z</time></trkpt><trkpt lat="43.74332398853756" lon="10.550898822708044"><ele>732.0</ele><time>2026-04-25T07:06:48.999Z</time></trkpt><trkpt lat="43.74344195785706" lon="10.550993468447317"><ele>732.0</ele><time>2026-04-25T07:06:49.999Z</time></trkpt><trkpt lat="43.743574010866034" lon="10.551065754795182"><ele>730.25</ele><time>2026-04-25T07:06:50.999Z</time></trkpt><trkpt lat="43.74371781290191" lon="10.551108624499202"><ele>728.5</ele><time>2026-04-25T07:06:51.999Z</time></trkpt><trkpt lat="43.74386240795235" lon="10.551106632038925"><ele>726.75</ele><time>2026-04-25T07:06:52.999Z</time></trkpt><trkpt lat="43.74400024661992" lon="10.551122045071635"><ele>725.0</ele><time>2026-04-25T07:06:53.999Z</time></trkpt><trkpt lat="43.7441315467403" lon="10.551131446848087"><ele>725.0</ele><time>2026-04-25T07:06:54.999Z</time></trkpt><trkpt lat="43.74427205095409" lon="10.55111736212506"><ele>725.0</ele><time>2026-04-25T07:06:55.999Z</time></trkpt><trkpt lat="43.74440909738563" lon="10.551114952142274"><ele>725.0</ele><time>2026-04-25T07:06:56.999Z</time></trkpt><trkpt lat="43.74454606710935" lon="10.55111856826853"><ele>725.0</ele><time>2026-04-25T07:06:57.999Z</time></trkpt><trkpt lat="43.744681971944594" lon="10.55116941650208"><ele>726.75</ele><time>2026-04-25T07:06:58.999Z</time></trkpt><trkpt lat="43.74482442148966" lon="10.551185544195175"><ele>728.5</ele><time>2026-04-25T07:06:59.999Z</time></trkpt><trkpt lat="43.74496137768892" lon="10.551246983514435"><ele>730.25</ele><time>2026-04-25T07:07:00.999Z</time></trkpt><trkpt lat="43.74509820494088" lon="10.55128838517789"><ele>732.0</ele><time>2026-04-25T07:07:01.999Z</time></trkpt><trkpt lat="43.74523724722313" lon="10.551325267352533"><ele>742.0</ele><time>2026-04-25T07:07:02.999Z</time></trkpt><trkpt lat="43.7453747069525" lon="10.551360864965073"><ele>752.0</ele><time>2026-04-25T07:07:03.999Z</time></trkpt><trkpt lat="43.745504505622506" lon="10.551385312784081"><ele>762.0</ele><time>2026-04-25T07:07:04.999Z</time></trkpt><trkpt lat="43.745607645400604" lon="10.55142858867722"><ele>772.0</ele><time>2026-04-25T07:07:05.999Z</time></trkpt><trkpt lat="43.74569798228216" lon="10.551474312780025"><ele>772.0</ele><time>2026-04-25T07:07:06.999Z</time></trkpt><trkpt lat="43.745788437700426" lon="10.551508957086615"><ele>772.0</ele><time>2026-04-25T07:07:07.999Z</time></trkpt><trkpt lat="43.745895440064984" lon="10.551521096847635"><ele>772.0</ele><time>2026-04-25T07:07:08.999Z</time></trkpt><trkpt lat="43.74599819355444" lon="10.551568415851127"><ele>772.0</ele><time>2026-04-25T07:07:09.999Z</time></trkpt><trkpt lat="43.74610698235358" lon="10.55156985271899"><ele>772.0</ele><time>2026-04-25T07:07:10.999Z</time></trkpt><trkpt lat="43.746215007242995" lon="10.551550359117469"><ele>774.4000000000001</ele><time>2026-04-25T07:07:11.999Z</time></trkpt><trkpt lat="43.746322977683654" lon="10.551530187699571"><ele>776.8000000000001</ele><time>2026-04-25T07:07:12.999Z</time></trkpt><trkpt lat="43.74642432457162" lon="10.55150174726006"><ele>779.2</ele><time>2026-04-25T07:07:13.999Z</time></trkpt><trkpt lat="43.74650883119247" lon="10.551437464891288"><ele>781.6</ele><time>2026-04-25T07:07:14.999Z</time></trkpt><trkpt lat="43.74659153098253" lon="10.551305440517243"><ele>784.0</ele><time>2026-04-25T07:07:15.999Z</time></trkpt><trkpt lat="43.746667649387796" lon="10.551123005259733"><ele>790.0</ele><time>2026-04-25T07:07:16.999Z</time></trkpt><trkpt lat="43.746753036494106" lon="10.550921167116062"><ele>796.0</ele><time>2026-04-25T07:07:17.999Z</time></trkpt><trkpt lat="43.74685248004201" lon="10.550708403805885"><ele>802.0</ele><time>2026-04-25T07:07:18.999Z</time></trkpt><trkpt lat="43.746968429187426" lon="10.550489983927172"><ele>795.25</ele><time>2026-04-25T07:07:19.999Z</time></trkpt><trkpt lat="43.74705658461075" lon="10.550309288193521"><ele>788.5</ele><time>2026-04-25T07:07:20.999Z</time></trkpt><trkpt lat="43.74712318556386" lon="10.550164983496433"><ele>781.75</ele><time>2026-04-25T07:07:21.999Z</time></trkpt><trkpt lat="43.74720987887062" lon="10.550090446447594"><ele>775.0</ele><time>2026-04-25T07:07:22.999Z</time></trkpt><trkpt lat="43.747315639960064" lon="10.550042462407259"><ele>775.0</ele><time>2026-04-25T07:07:23.999Z</time></trkpt><trkpt lat="43.74744065754086" lon="10.549996302931818"><ele>775.0</ele><time>2026-04-25T07:07:24.999Z</time></trkpt><trkpt lat="43.7475810429015" lon="10.54993081147328"><ele>775.0</ele><time>2026-04-25T07:07:25.999Z</time></trkpt><trkpt lat="43.7477273068872" lon="10.549876784310374"><ele>775.0</ele><time>2026-04-25T07:07:26.999Z</time></trkpt><trkpt lat="43.74786108729789" lon="10.549855061531355"><ele>778.2</ele><time>2026-04-25T07:07:27.999Z</time></trkpt><trkpt lat="43.747968458044795" lon="10.549824378501716"><ele>781.4</ele><time>2026-04-25T07:07:28.999Z</time></trkpt><trkpt lat="43.748054142471304" lon="10.549806519943168"><ele>784.5999999999999</ele><time>2026-04-25T07:07:29.998Z</time></trkpt><trkpt lat="43.74815004633028" lon="10.549806530822675"><ele>787.8</ele><time>2026-04-25T07:07:30.998Z</time></trkpt><trkpt lat="43.74828318366739" lon="10.549841411281045"><ele>791.0</ele><time>2026-04-25T07:07:31.998Z</time></trkpt><trkpt lat="43.74844745179461" lon="10.54995002862058"><ele>788.0</ele><time>2026-04-25T07:07:32.998Z</time></trkpt><trkpt lat="43.748651150787" lon="10.550041083296938"><ele>785.0</ele><time>2026-04-25T07:07:33.998Z</time></trkpt><trkpt lat="43.74886089601673" lon="10.55012184497227"><ele>782.0</ele><time>2026-04-25T07:07:34.998Z</time></trkpt><trkpt lat="43.749036678623284" lon="10.550183945359887"><ele>782.0</ele><time>2026-04-25T07:07:35.998Z</time></trkpt><trkpt lat="43.749177055881674" lon="10.55023245557468"><ele>782.0</ele><time>2026-04-25T07:07:36.998Z</time></trkpt><trkpt lat="43.74928672481313" lon="10.55031404968615"><ele>782.0</ele><time>2026-04-25T07:07:37.998Z</time></trkpt><trkpt lat="43.74937246932916" lon="10.550451747148168"><ele>782.0</ele><time>2026-04-25T07:07:38.998Z</time></trkpt><trkpt lat="43.749513869399294" lon="10.550543462641068"><ele>788.3333333333334</ele><time>2026-04-25T07:07:39.998Z</time></trkpt><trkpt lat="43.74968138053028" lon="10.55068364977009"><ele>794.6666666666667</ele><time>2026-04-25T07:07:40.998Z</time></trkpt><trkpt lat="43.749849745861525" lon="10.550794007888731"><ele>801.0</ele><time>2026-04-25T07:07:41.998Z</time></trkpt><trkpt lat="43.74999641984539" lon="10.550851455489353"><ele>801.0</ele><time>2026-04-25T07:07:42.998Z</time></trkpt><trkpt lat="43.75011835512466" lon="10.55089920249494"><ele>801.0</ele><time>2026-04-25T07:07:43.998Z</time></trkpt><trkpt lat="43.750256579334405" lon="10.550910531143506"><ele>801.0</ele><time>2026-04-25T07:07:44.998Z</time></trkpt><trkpt lat="43.750430116036554" lon="10.550862632531453"><ele>801.0</ele><time>2026-04-25T07:07:45.998Z</time></trkpt><trkpt lat="43.750629003938506" lon="10.550770718996658"><ele>804.0</ele><time>2026-04-25T07:07:46.998Z</time></trkpt><trkpt lat="43.75086258695906" lon="10.55065745516799"><ele>807.0</ele><time>2026-04-25T07:07:47.998Z</time></trkpt><trkpt lat="43.75111621500825" lon="10.55052322469716"><ele>804.3333333333333</ele><time>2026-04-25T07:07:48.998Z</time></trkpt><trkpt lat="43.75129503931805" lon="10.550403077800032"><ele>801.6666666666666</ele><time>2026-04-25T07:07:49.998Z</time></trkpt><trkpt lat="43.751442972551295" lon="10.550253251382461"><ele>799.0</ele><time>2026-04-25T07:07:50.998Z</time></trkpt><trkpt lat="43.75157616683397" lon="10.550102760251221"><ele>799.0</ele><time>2026-04-25T07:07:51.998Z</time></trkpt><trkpt lat="43.751690388024805" lon="10.549941437006012"><ele>799.0</ele><time>2026-04-25T07:07:52.998Z</time></trkpt><trkpt lat="43.75180823794788" lon="10.549816754173435"><ele>799.0</ele><time>2026-04-25T07:07:53.998Z</time></trkpt><trkpt lat="43.75190624376667" lon="10.549684911319176"><ele>799.0</ele><time>2026-04-25T07:07:55Z</time></trkpt><trkpt lat="43.7520067246701" lon="10.549565170753683"><ele>801.5</ele><time>2026-04-25T07:07:56Z</time></trkpt><trkpt lat="43.752100666816894" lon="10.54944603143145"><ele>804.0</ele><time>2026-04-25T07:07:57Z</time></trkpt><trkpt lat="43.75218463791929" lon="10.549300340767507"><ele>806.5</ele><time>2026-04-25T07:07:58Z</time></trkpt><trkpt lat="43.75227128343481" lon="10.549160543296571"><ele>809.0</ele><time>2026-04-25T07:07:59Z</time></trkpt><trkpt lat="43.75236911502217" lon="10.54902674305046"><ele>809.0</ele><time>2026-04-25T07:08:00Z</time></trkpt><trkpt lat="43.75247146946813" lon="10.548901763758275"><ele>809.0</ele><time>2026-04-25T07:08:01Z</time></trkpt><trkpt lat="43.75257984810551" lon="10.548788531608643"><ele>809.0</ele><time>2026-04-25T07:08:02Z</time></trkpt><trkpt lat="43.752699206443076" lon="10.548693691761056"><ele>809.0</ele><time>2026-04-25T07:08:03Z</time></trkpt><trkpt lat="43.75281790889036" lon="10.548606361030647"><ele>806.5</ele><time>2026-04-25T07:08:04Z</time></trkpt><trkpt lat="43.75294074956315" lon="10.548513388649456"><ele>804.0</ele><time>2026-04-25T07:08:05Z</time></trkpt><trkpt lat="43.75306618146968" lon="10.54843125169586"><ele>801.5</ele><time>2026-04-25T07:08:06Z</time></trkpt><trkpt lat="43.75318782604886" lon="10.54834726960855"><ele>799.0</ele><time>2026-04-25T07:08:07Z</time></trkpt><trkpt lat="43.75332491688371" lon="10.548284192090442"><ele>799.0</ele><time>2026-04-25T07:08:08Z</time></trkpt><trkpt lat="43.75346393729792" lon="10.548278419041639"><ele>799.0</ele><time>2026-04-25T07:08:09Z</time></trkpt><trkpt lat="43.753602161978755" lon="10.548260754304756"><ele>799.0</ele><time>2026-04-25T07:08:10Z</time></trkpt><trkpt lat="43.75374273187732" lon="10.548278799298101"><ele>799.0</ele><time>2026-04-25T07:08:11Z</time></trkpt><trkpt lat="43.75388057119151" lon="10.54830923272732"><ele>800.25</ele><time>2026-04-25T07:08:12Z</time></trkpt><trkpt lat="43.75401788015866" lon="10.54835289025522"><ele>801.5</ele><time>2026-04-25T07:08:13Z</time></trkpt><trkpt lat="43.75421873109004" lon="10.548439131029753"><ele>802.75</ele><time>2026-04-25T07:08:15Z</time></trkpt><trkpt lat="43.75428112515124" lon="10.548426091690684"><ele>804.0</ele><time>2026-04-25T07:08:17Z</time></trkpt><trkpt lat="43.75434789797221" lon="10.548376333355817"><ele>804.0</ele><time>2026-04-25T07:08:20Z</time></trkpt><trkpt lat="43.75430526519278" lon="10.54824577436578"><ele>804.0</ele><time>2026-04-25T07:08:23Z</time></trkpt><trkpt lat="43.754307921074826" lon="10.548373067627676"><ele>804.0</ele><time>2026-04-25T07:08:45.999Z</time></trkpt><trkpt lat="43.75433978041499" lon="10.548449005961931"><ele>804.0</ele><time>2026-04-25T07:08:47.999Z</time></trkpt><trkpt lat="43.754391862194765" lon="10.548507090022492"><ele>804.0</ele><time>2026-04-25T07:09:03.999Z</time></trkpt><trkpt lat="43.75444345122372" lon="10.548456274963549"><ele>804.0</ele><time>2026-04-25T07:09:10.999Z</time></trkpt><trkpt lat="43.754463744720816" lon="10.548340188410364"><ele>804.0</ele><time>2026-04-25T07:10:12Z</time></trkpt><trkpt lat="43.75447596751666" lon="10.548237105922002"><ele>804.0</ele><time>2026-04-25T07:10:13Z</time></trkpt><trkpt lat="43.75446570200181" lon="10.548328506905424"><ele>804.0</ele><time>2026-04-25T07:10:25Z</time></trkpt><trkpt lat="43.75437768538822" lon="10.548373284915696"><ele>804.0</ele><time>2026-04-25T07:10:27Z</time></trkpt><trkpt lat="43.7543121917362" lon="10.548416859714909"><ele>804.0</ele><time>2026-04-25T07:10:28Z</time></trkpt><trkpt lat="43.75422565688408" lon="10.548368189692981"><ele>804.0</ele><time>2026-04-25T07:10:30Z</time></trkpt><trkpt lat="43.75428720583257" lon="10.548348169534867"><ele>804.0</ele><time>2026-04-25T07:10:37Z</time></trkpt><trkpt lat="43.7543266316075" lon="10.548419698696199"><ele>804.0</ele><time>2026-04-25T07:10:40Z</time></trkpt><trkpt lat="43.75439639202847" lon="10.548364500438455"><ele>804.0</ele><time>2026-04-25T07:10:44Z</time></trkpt><trkpt lat="43.754458223511065" lon="10.548315433470387"><ele>804.0</ele><time>2026-04-25T07:11:06.999Z</time></trkpt><trkpt lat="43.754523381140274" lon="10.548255126073007"><ele>804.0</ele><time>2026-04-25T07:11:10.999Z</time></trkpt><trkpt lat="43.75457948705916" lon="10.548201700173465"><ele>804.0</ele><time>2026-04-25T07:11:20.999Z</time></trkpt><trkpt lat="43.754521333686405" lon="10.548251639611781"><ele>804.0</ele><time>2026-04-25T07:12:13Z</time></trkpt><trkpt lat="43.754476722872276" lon="10.548313701111107"><ele>804.0</ele><time>2026-04-25T07:12:15Z</time></trkpt><trkpt lat="43.75440619046254" lon="10.548354670507775"><ele>804.0</ele><time>2026-04-25T07:12:17Z</time></trkpt><trkpt lat="43.75434649122968" lon="10.548392017458752"><ele>804.0</ele><time>2026-04-25T07:12:19Z</time></trkpt><trkpt lat="43.75426438490165" lon="10.548431768130245"><ele>804.0</ele><time>2026-04-25T07:12:23Z</time></trkpt><trkpt lat="43.75430620254711" lon="10.548587536788219"><ele>804.0</ele><time>2026-04-25T07:12:29Z</time></trkpt><trkpt lat="43.75431502647201" lon="10.548497063362223"><ele>804.0</ele><time>2026-04-25T07:12:38Z</time></trkpt><trkpt lat="43.754339154985026" lon="10.54840786044738"><ele>804.0</ele><time>2026-04-25T07:12:43Z</time></trkpt><trkpt lat="43.75430097636532" lon="10.548287493956966"><ele>804.0</ele><time>2026-04-25T07:13:07.999Z</time></trkpt><trkpt lat="43.75429256775272" lon="10.548152534436502"><ele>804.0</ele><time>2026-04-25T07:13:09.999Z</time></trkpt><trkpt lat="43.75427498939158" lon="10.548044755253342"><ele>804.0</ele><time>2026-04-25T07:13:10.999Z</time></trkpt><trkpt lat="43.75424105345583" lon="10.547924970081644"><ele>804.0</ele><time>2026-04-25T07:13:11.999Z</time></trkpt><trkpt lat="43.754191587554246" lon="10.547793040092605"><ele>804.0</ele><time>2026-04-25T07:13:12.999Z</time></trkpt><trkpt lat="43.754123897823774" lon="10.547665999228101"><ele>804.0</ele><time>2026-04-25T07:13:13.999Z</time></trkpt><trkpt lat="43.754084009249404" lon="10.547508372009087"><ele>804.0</ele><time>2026-04-25T07:13:14.999Z</time></trkpt><trkpt lat="43.75403453734748" lon="10.54734597386749"><ele>804.0</ele><time>2026-04-25T07:13:15.999Z</time></trkpt><trkpt lat="43.75399403353373" lon="10.547169352959466"><ele>805.0</ele><time>2026-04-25T07:13:16.999Z</time></trkpt><trkpt lat="43.75396114298052" lon="10.546989018655704"><ele>806.0</ele><time>2026-04-25T07:13:17.999Z</time></trkpt><trkpt lat="43.75392960128794" lon="10.546784164586946"><ele>807.0</ele><time>2026-04-25T07:13:18.999Z</time></trkpt><trkpt lat="43.753909426940076" lon="10.546555673115988"><ele>807.0</ele><time>2026-04-25T07:13:19.999Z</time></trkpt><trkpt lat="43.75390253866935" lon="10.546300104224201"><ele>807.0</ele><time>2026-04-25T07:13:20.999Z</time></trkpt><trkpt lat="43.753903085166996" lon="10.546008969580978"><ele>807.0</ele><time>2026-04-25T07:13:21.999Z</time></trkpt><trkpt lat="43.75390591527581" lon="10.545742598164724"><ele>806.6666666666667</ele><time>2026-04-25T07:13:22.999Z</time></trkpt><trkpt lat="43.75390713900154" lon="10.545508826308984"><ele>806.3333333333334</ele><time>2026-04-25T07:13:23.999Z</time></trkpt><trkpt lat="43.75390773965745" lon="10.545315415241644"><ele>806.0</ele><time>2026-04-25T07:13:24.999Z</time></trkpt><trkpt lat="43.753871425025004" lon="10.545114504615468"><ele>806.0</ele><time>2026-04-25T07:13:25.999Z</time></trkpt><trkpt lat="43.75383282777583" lon="10.544927268999475"><ele>806.0</ele><time>2026-04-25T07:13:26.999Z</time></trkpt><trkpt lat="43.75381903887932" lon="10.544737486668405"><ele>806.0</ele><time>2026-04-25T07:13:27.999Z</time></trkpt><trkpt lat="43.75379637474295" lon="10.544553176003443"><ele>806.0</ele><time>2026-04-25T07:13:28.999Z</time></trkpt><trkpt lat="43.75376480262595" lon="10.544370069627293"><ele>808.25</ele><time>2026-04-25T07:13:29.999Z</time></trkpt><trkpt lat="43.753726040139284" lon="10.544194261959948"><ele>810.5</ele><time>2026-04-25T07:13:30.999Z</time></trkpt><trkpt lat="43.75368868124649" lon="10.544030702833313"><ele>812.75</ele><time>2026-04-25T07:13:31.999Z</time></trkpt><trkpt lat="43.75364972399849" lon="10.543858429984631"><ele>815.0</ele><time>2026-04-25T07:13:32.999Z</time></trkpt><trkpt lat="43.75361066596807" lon="10.543693001544026"><ele>817.5</ele><time>2026-04-25T07:13:33.999Z</time></trkpt><trkpt lat="43.75356858960915" lon="10.543524915744467"><ele>820.0</ele><time>2026-04-25T07:13:34.999Z</time></trkpt><trkpt lat="43.75351615854559" lon="10.543358616060853"><ele>822.5</ele><time>2026-04-25T07:13:35.999Z</time></trkpt><trkpt lat="43.75345914557261" lon="10.543199236051581"><ele>825.0</ele><time>2026-04-25T07:13:36.999Z</time></trkpt><trkpt lat="43.75337057988887" lon="10.54306099520322"><ele>817.25</ele><time>2026-04-25T07:13:37.999Z</time></trkpt><trkpt lat="43.753300486509" lon="10.542907310750671"><ele>809.5</ele><time>2026-04-25T07:13:38.999Z</time></trkpt><trkpt lat="43.75321942766666" lon="10.542775081294309"><ele>801.75</ele><time>2026-04-25T07:13:39.999Z</time></trkpt><trkpt lat="43.75314370145919" lon="10.542651093779993"><ele>794.0</ele><time>2026-04-25T07:13:40.999Z</time></trkpt><trkpt lat="43.753089772770885" lon="10.542532177010168"><ele>794.0</ele><time>2026-04-25T07:13:41.999Z</time></trkpt><trkpt lat="43.75307637462079" lon="10.542397463601299"><ele>794.0</ele><time>2026-04-25T07:13:42.999Z</time></trkpt><trkpt lat="43.75307154850398" lon="10.54224359094657"><ele>794.0</ele><time>2026-04-25T07:13:43.999Z</time></trkpt><trkpt lat="43.75308389948339" lon="10.542083866977702"><ele>794.0</ele><time>2026-04-25T07:13:44.999Z</time></trkpt><trkpt lat="43.75310894153205" lon="10.541933429545445"><ele>794.0</ele><time>2026-04-25T07:13:45.998Z</time></trkpt><trkpt lat="43.75316675327" lon="10.541812694805214"><ele>793.0</ele><time>2026-04-25T07:13:46.998Z</time></trkpt><trkpt lat="43.753239679095444" lon="10.541687722241962"><ele>792.0</ele><time>2026-04-25T07:13:47.998Z</time></trkpt><trkpt lat="43.753295996415616" lon="10.541536493035816"><ele>791.0</ele><time>2026-04-25T07:13:48.998Z</time></trkpt><trkpt lat="43.7533663690363" lon="10.541396846492377"><ele>790.0</ele><time>2026-04-25T07:13:49.998Z</time></trkpt><trkpt lat="43.753431225929965" lon="10.541248279735278"><ele>786.0</ele><time>2026-04-25T07:13:50.998Z</time></trkpt><trkpt lat="43.753490892759665" lon="10.541099918163559"><ele>782.0</ele><time>2026-04-25T07:13:51.998Z</time></trkpt><trkpt lat="43.75353562445358" lon="10.540950119237209"><ele>778.0</ele><time>2026-04-25T07:13:52.998Z</time></trkpt><trkpt lat="43.7535645350038" lon="10.540814877829833"><ele>774.0</ele><time>2026-04-25T07:13:53.998Z</time></trkpt><trkpt lat="43.75358309548196" lon="10.540696233490541"><ele>770.0</ele><time>2026-04-25T07:13:54.998Z</time></trkpt><trkpt lat="43.753599156341295" lon="10.540586582040973"><ele>773.6666666666667</ele><time>2026-04-25T07:13:55.998Z</time></trkpt><trkpt lat="43.75362839968159" lon="10.540489598348374"><ele>777.3333333333334</ele><time>2026-04-25T07:13:56.998Z</time></trkpt><trkpt lat="43.753678008527515" lon="10.5404034670303"><ele>781.0</ele><time>2026-04-25T07:13:57.998Z</time></trkpt><trkpt lat="43.75373484670333" lon="10.540315756749456"><ele>784.6666666666667</ele><time>2026-04-25T07:13:58.998Z</time></trkpt><trkpt lat="43.75379193221177" lon="10.540218307922578"><ele>788.3333333333334</ele><time>2026-04-25T07:13:59.998Z</time></trkpt><trkpt lat="43.753846390776644" lon="10.540119200196406"><ele>792.0</ele><time>2026-04-25T07:14:00.998Z</time></trkpt><trkpt lat="43.75390108132813" lon="10.540018012147126"><ele>792.0</ele><time>2026-04-25T07:14:01.998Z</time></trkpt><trkpt lat="43.75395811631497" lon="10.539919585558577"><ele>792.0</ele><time>2026-04-25T07:14:02.998Z</time></trkpt><trkpt lat="43.75401527727096" lon="10.539814277552894"><ele>792.0</ele><time>2026-04-25T07:14:03.998Z</time></trkpt><trkpt lat="43.7540695415517" lon="10.53971210607038"><ele>792.0</ele><time>2026-04-25T07:14:04.998Z</time></trkpt><trkpt lat="43.7541295392724" lon="10.539608618148064"><ele>792.0</ele><time>2026-04-25T07:14:05.998Z</time></trkpt><trkpt lat="43.754197698588605" lon="10.539513016601845"><ele>788.25</ele><time>2026-04-25T07:14:06.998Z</time></trkpt><trkpt lat="43.75427998607088" lon="10.539439507003271"><ele>784.5</ele><time>2026-04-25T07:14:07.998Z</time></trkpt><trkpt lat="43.7543794879322" lon="10.539374349939587"><ele>780.75</ele><time>2026-04-25T07:14:08.998Z</time></trkpt><trkpt lat="43.75450067695091" lon="10.539363820223198"><ele>777.0</ele><time>2026-04-25T07:14:09.998Z</time></trkpt><trkpt lat="43.75462685433181" lon="10.539324218924197"><ele>777.0</ele><time>2026-04-25T07:14:11Z</time></trkpt><trkpt lat="43.75475917192201" lon="10.539302655989824"><ele>777.0</ele><time>2026-04-25T07:14:12Z</time></trkpt><trkpt lat="43.75489185820189" lon="10.539248776968083"><ele>777.0</ele><time>2026-04-25T07:14:13Z</time></trkpt><trkpt lat="43.755020514414824" lon="10.539181090743504"><ele>777.0</ele><time>2026-04-25T07:14:14Z</time></trkpt><trkpt lat="43.75514332798481" lon="10.539104638073027"><ele>779.75</ele><time>2026-04-25T07:14:15Z</time></trkpt><trkpt lat="43.755259427182835" lon="10.539007217803182"><ele>782.5</ele><time>2026-04-25T07:14:16Z</time></trkpt><trkpt lat="43.75537175964831" lon="10.53889729239287"><ele>785.25</ele><time>2026-04-25T07:14:17Z</time></trkpt><trkpt lat="43.75548840680729" lon="10.538801739973557"><ele>788.0</ele><time>2026-04-25T07:14:18Z</time></trkpt><trkpt lat="43.755598556436276" lon="10.538694717622905"><ele>781.5</ele><time>2026-04-25T07:14:19Z</time></trkpt><trkpt lat="43.75569523519414" lon="10.538561319857479"><ele>775.0</ele><time>2026-04-25T07:14:20Z</time></trkpt><trkpt lat="43.75578800598241" lon="10.538422350546917"><ele>768.5</ele><time>2026-04-25T07:14:21Z</time></trkpt><trkpt lat="43.755883800398244" lon="10.53828799265661"><ele>762.0</ele><time>2026-04-25T07:14:22Z</time></trkpt><trkpt lat="43.75598308453596" lon="10.538154227380751"><ele>765.3333333333333</ele><time>2026-04-25T07:14:23Z</time></trkpt><trkpt lat="43.75609674252893" lon="10.538045116165177"><ele>768.6666666666666</ele><time>2026-04-25T07:14:24Z</time></trkpt><trkpt lat="43.756364794393505" lon="10.537958251434645"><ele>772.0</ele><time>2026-04-25T07:14:26Z</time></trkpt><trkpt lat="43.756501066884866" lon="10.53793750926884"><ele>772.0</ele><time>2026-04-25T07:14:27Z</time></trkpt><trkpt lat="43.75662499515129" lon="10.537891662242703"><ele>772.0</ele><time>2026-04-25T07:14:28Z</time></trkpt><trkpt lat="43.75674185745591" lon="10.53782531349661"><ele>772.0</ele><time>2026-04-25T07:14:29Z</time></trkpt><trkpt lat="43.75684494549908" lon="10.537716846023065"><ele>772.0</ele><time>2026-04-25T07:14:30Z</time></trkpt><trkpt lat="43.756939611900314" lon="10.53758820320586"><ele>768.5</ele><time>2026-04-25T07:14:31Z</time></trkpt><trkpt lat="43.757028983579325" lon="10.537458899474212"><ele>765.0</ele><time>2026-04-25T07:14:32Z</time></trkpt><trkpt lat="43.75711215832605" lon="10.537316936813694"><ele>761.5</ele><time>2026-04-25T07:14:33Z</time></trkpt><trkpt lat="43.75719006361493" lon="10.537169052774416"><ele>758.0</ele><time>2026-04-25T07:14:34Z</time></trkpt><trkpt lat="43.75726391668645" lon="10.537017362230436"><ele>755.0</ele><time>2026-04-25T07:14:35Z</time></trkpt><trkpt lat="43.75733906845071" lon="10.53686418089001"><ele>752.0</ele><time>2026-04-25T07:14:36Z</time></trkpt><trkpt lat="43.75741691259428" lon="10.536715125963255"><ele>749.0</ele><time>2026-04-25T07:14:37Z</time></trkpt><trkpt lat="43.757492374550985" lon="10.536566510442253"><ele>746.0</ele><time>2026-04-25T07:14:38Z</time></trkpt><trkpt lat="43.757557772130774" lon="10.5364261889276"><ele>746.0</ele><time>2026-04-25T07:14:39Z</time></trkpt><trkpt lat="43.75760863559145" lon="10.536294378982276"><ele>746.0</ele><time>2026-04-25T07:14:40Z</time></trkpt><trkpt lat="43.75765226101348" lon="10.536152050934996"><ele>746.0</ele><time>2026-04-25T07:14:41Z</time></trkpt><trkpt lat="43.757681049273785" lon="10.536012467479793"><ele>746.0</ele><time>2026-04-25T07:14:42Z</time></trkpt><trkpt lat="43.75769858050624" lon="10.535876012942406"><ele>746.0</ele><time>2026-04-25T07:14:43Z</time></trkpt><trkpt lat="43.75770382749887" lon="10.535746403646181"><ele>743.5714285714286</ele><time>2026-04-25T07:14:44Z</time></trkpt><trkpt lat="43.75771971879957" lon="10.535631930336113"><ele>741.1428571428571</ele><time>2026-04-25T07:14:45Z</time></trkpt><trkpt lat="43.7577264595184" lon="10.535534926702706"><ele>738.7142857142858</ele><time>2026-04-25T07:14:46Z</time></trkpt><trkpt lat="43.75773438622847" lon="10.535448372474525"><ele>736.2857142857142</ele><time>2026-04-25T07:14:47Z</time></trkpt><trkpt lat="43.75774617046593" lon="10.535359581846503"><ele>733.8571428571428</ele><time>2026-04-25T07:14:48Z</time></trkpt><trkpt lat="43.75774816277438" lon="10.535265067793105"><ele>731.4285714285714</ele><time>2026-04-25T07:14:49Z</time></trkpt><trkpt lat="43.75777540651842" lon="10.535179127209254"><ele>729.0</ele><time>2026-04-25T07:14:50Z</time></trkpt><trkpt lat="43.75781294935877" lon="10.535097657395243"><ele>728.6666666666666</ele><time>2026-04-25T07:14:51Z</time></trkpt><trkpt lat="43.75786733587168" lon="10.535039114819742"><ele>728.3333333333334</ele><time>2026-04-25T07:14:51.999Z</time></trkpt><trkpt lat="43.75791410316777" lon="10.534969506817179"><ele>728.0</ele><time>2026-04-25T07:14:52.999Z</time></trkpt><trkpt lat="43.75795951136503" lon="10.534896426671752"><ele>727.6666666666667</ele><time>2026-04-25T07:14:53.999Z</time></trkpt><trkpt lat="43.75801857993167" lon="10.534777137949977"><ele>727.3333333333334</ele><time>2026-04-25T07:14:55.999Z</time></trkpt><trkpt lat="43.75804692890628" lon="10.534680774554555"><ele>727.0</ele><time>2026-04-25T07:14:58.999Z</time></trkpt><trkpt lat="43.758070439825474" lon="10.534595966860003"><ele>727.4000000000001</ele><time>2026-04-25T07:15:13.999Z</time></trkpt><trkpt lat="43.75806548171413" lon="10.534499646492998"><ele>727.8000000000001</ele><time>2026-04-25T07:15:14.999Z</time></trkpt><trkpt lat="43.75806821824012" lon="10.534400452720028"><ele>728.2</ele><time>2026-04-25T07:15:15.999Z</time></trkpt><trkpt lat="43.75807049549637" lon="10.534236538081249"><ele>728.6</ele><time>2026-04-25T07:15:16.999Z</time></trkpt><trkpt lat="43.75806898350373" lon="10.534031583190373"><ele>729.0</ele><time>2026-04-25T07:15:17.999Z</time></trkpt><trkpt lat="43.758056484594675" lon="10.533868509676363"><ele>729.0</ele><time>2026-04-25T07:15:18.999Z</time></trkpt><trkpt lat="43.75809739939824" lon="10.533725445173316"><ele>729.0</ele><time>2026-04-25T07:15:19.999Z</time></trkpt><trkpt lat="43.75815323438139" lon="10.533591956782"><ele>729.0</ele><time>2026-04-25T07:15:20.999Z</time></trkpt><trkpt lat="43.75824018924272" lon="10.533467389857933"><ele>729.0</ele><time>2026-04-25T07:15:21.999Z</time></trkpt><trkpt lat="43.75838018331219" lon="10.533343513995746"><ele>728.5</ele><time>2026-04-25T07:15:22.999Z</time></trkpt><trkpt lat="43.758581976796584" lon="10.533225803551556"><ele>728.0</ele><time>2026-04-25T07:15:23.999Z</time></trkpt><trkpt lat="43.75881602604019" lon="10.533093153902394"><ele>728.0</ele><time>2026-04-25T07:15:24.999Z</time></trkpt><trkpt lat="43.758996289105134" lon="10.532969921429153"><ele>728.0</ele><time>2026-04-25T07:15:25.999Z</time></trkpt><trkpt lat="43.75914503934911" lon="10.532857326907642"><ele>728.0</ele><time>2026-04-25T07:15:26.999Z</time></trkpt><trkpt lat="43.75926360030826" lon="10.532725579601701"><ele>727.0</ele><time>2026-04-25T07:15:27.999Z</time></trkpt><trkpt lat="43.759363011385965" lon="10.532586696744755"><ele>726.0</ele><time>2026-04-25T07:15:28.999Z</time></trkpt><trkpt lat="43.759444658657664" lon="10.532463879402979"><ele>725.0</ele><time>2026-04-25T07:15:29.999Z</time></trkpt><trkpt lat="43.75952694744771" lon="10.532361533105686"><ele>724.0</ele><time>2026-04-25T07:15:30.999Z</time></trkpt><trkpt lat="43.75958848973499" lon="10.53226880920588"><ele>725.1428571428571</ele><time>2026-04-25T07:15:31.999Z</time></trkpt><trkpt lat="43.75963730036637" lon="10.532209602708885"><ele>726.2857142857142</ele><time>2026-04-25T07:15:32.999Z</time></trkpt><trkpt lat="43.75969258149161" lon="10.532142560796462"><ele>727.4285714285714</ele><time>2026-04-25T07:15:33.999Z</time></trkpt><trkpt lat="43.75976891552952" lon="10.532114296033875"><ele>728.5714285714286</ele><time>2026-04-25T07:15:34.999Z</time></trkpt><trkpt lat="43.759844860355024" lon="10.532084362685314"><ele>729.7142857142858</ele><time>2026-04-25T07:15:35.999Z</time></trkpt><trkpt lat="43.759917183104584" lon="10.532044428832288"><ele>730.8571428571429</ele><time>2026-04-25T07:15:36.999Z</time></trkpt><trkpt lat="43.75998590024762" lon="10.532009587120655"><ele>732.0</ele><time>2026-04-25T07:15:37.999Z</time></trkpt><trkpt lat="43.760021007605374" lon="10.531876622065377"><ele>732.4000000000001</ele><time>2026-04-25T07:15:38.999Z</time></trkpt><trkpt lat="43.760052604843786" lon="10.531752947132944"><ele>732.8000000000001</ele><time>2026-04-25T07:15:39.999Z</time></trkpt><trkpt lat="43.760082838474645" lon="10.531625108581045"><ele>733.2</ele><time>2026-04-25T07:15:40.999Z</time></trkpt><trkpt lat="43.7601084648472" lon="10.531501400591845"><ele>733.6</ele><time>2026-04-25T07:15:41.999Z</time></trkpt><trkpt lat="43.76012712911419" lon="10.531374125640328"><ele>734.0</ele><time>2026-04-25T07:15:42.998Z</time></trkpt><trkpt lat="43.76014311558153" lon="10.53125041186026"><ele>734.5</ele><time>2026-04-25T07:15:43.998Z</time></trkpt><trkpt lat="43.760165889303984" lon="10.531123250779904"><ele>735.0</ele><time>2026-04-25T07:15:44.998Z</time></trkpt><trkpt lat="43.76019663231571" lon="10.531007990488698"><ele>735.5</ele><time>2026-04-25T07:15:45.998Z</time></trkpt><trkpt lat="43.76023593487715" lon="10.530904883925878"><ele>736.0</ele><time>2026-04-25T07:15:46.998Z</time></trkpt><trkpt lat="43.76027379616411" lon="10.530819237290837"><ele>736.5</ele><time>2026-04-25T07:15:47.998Z</time></trkpt><trkpt lat="43.760309695876174" lon="10.53074482264459"><ele>737.0</ele><time>2026-04-25T07:15:48.998Z</time></trkpt><trkpt lat="43.7603519140016" lon="10.530672047356644"><ele>737.5</ele><time>2026-04-25T07:15:49.998Z</time></trkpt><trkpt lat="43.760398668987804" lon="10.530588989708994"><ele>738.0</ele><time>2026-04-25T07:15:50.998Z</time></trkpt><trkpt lat="43.76043703978326" lon="10.530506213848415"><ele>738.5</ele><time>2026-04-25T07:15:51.998Z</time></trkpt><trkpt lat="43.760475383355924" lon="10.530362799523825"><ele>739.0</ele><time>2026-04-25T07:15:53.998Z</time></trkpt><trkpt lat="43.76050514238544" lon="10.530279939688132"><ele>739.5</ele><time>2026-04-25T07:16:00.998Z</time></trkpt><trkpt lat="43.760554134644536" lon="10.530124278444664"><ele>740.0</ele><time>2026-04-25T07:16:02.998Z</time></trkpt><trkpt lat="43.76059581576671" lon="10.53002072855545"><ele>740.0</ele><time>2026-04-25T07:16:03.998Z</time></trkpt><trkpt lat="43.760625470524374" lon="10.529923320558495"><ele>740.0</ele><time>2026-04-25T07:16:04.998Z</time></trkpt><trkpt lat="43.76066380765512" lon="10.529840448382592"><ele>740.0</ele><time>2026-04-25T07:16:05.998Z</time></trkpt><trkpt lat="43.76070392605061" lon="10.52976672572701"><ele>740.0</ele><time>2026-04-25T07:16:06.998Z</time></trkpt><trkpt lat="43.760755828262965" lon="10.52969023077817"><ele>740.0</ele><time>2026-04-25T07:16:07.998Z</time></trkpt><trkpt lat="43.76081664203815" lon="10.529608069812951"><ele>740.0</ele><time>2026-04-25T07:16:08.998Z</time></trkpt><trkpt lat="43.760884238078084" lon="10.529529992380722"><ele>738.8</ele><time>2026-04-25T07:16:09.998Z</time></trkpt><trkpt lat="43.760954887233545" lon="10.529459486093355"><ele>737.6</ele><time>2026-04-25T07:16:10.998Z</time></trkpt><trkpt lat="43.76103694105577" lon="10.52939019472116"><ele>736.4000000000001</ele><time>2026-04-25T07:16:11.998Z</time></trkpt><trkpt lat="43.76111485106181" lon="10.52930987781212"><ele>735.2</ele><time>2026-04-25T07:16:12.998Z</time></trkpt><trkpt lat="43.76118791208814" lon="10.529235114066648"><ele>734.0</ele><time>2026-04-25T07:16:13.998Z</time></trkpt><trkpt lat="43.76125373766823" lon="10.529171003042418"><ele>734.0</ele><time>2026-04-25T07:16:14.998Z</time></trkpt><trkpt lat="43.76132156248857" lon="10.529117087722089"><ele>734.0</ele><time>2026-04-25T07:16:15.998Z</time></trkpt><trkpt lat="43.76137999244836" lon="10.529052765948965"><ele>734.0</ele><time>2026-04-25T07:16:17Z</time></trkpt><trkpt lat="43.761454287212395" lon="10.529011188709385"><ele>734.0</ele><time>2026-04-25T07:16:18Z</time></trkpt><trkpt lat="43.761518142874095" lon="10.52894718560965"><ele>734.0</ele><time>2026-04-25T07:16:19Z</time></trkpt><trkpt lat="43.761599949528225" lon="10.528889711258069"><ele>734.0</ele><time>2026-04-25T07:16:20Z</time></trkpt><trkpt lat="43.76168326575834" lon="10.528849545514056"><ele>734.0</ele><time>2026-04-25T07:16:21Z</time></trkpt><trkpt lat="43.76177556811886" lon="10.52881694635887"><ele>734.0</ele><time>2026-04-25T07:16:22Z</time></trkpt><trkpt lat="43.76186706052175" lon="10.528774127372591"><ele>734.0</ele><time>2026-04-25T07:16:23Z</time></trkpt><trkpt lat="43.761965826834405" lon="10.528742534287044"><ele>734.0</ele><time>2026-04-25T07:16:24Z</time></trkpt><trkpt lat="43.76207472107937" lon="10.528764575721992"><ele>734.0</ele><time>2026-04-25T07:16:25Z</time></trkpt><trkpt lat="43.762185585719266" lon="10.52877190779454"><ele>731.5</ele><time>2026-04-25T07:16:26Z</time></trkpt><trkpt lat="43.762300126960305" lon="10.528778348636632"><ele>729.0</ele><time>2026-04-25T07:16:27Z</time></trkpt><trkpt lat="43.76241331887949" lon="10.528776175819742"><ele>726.5</ele><time>2026-04-25T07:16:28Z</time></trkpt><trkpt lat="43.762534577399386" lon="10.528791259177247"><ele>724.0</ele><time>2026-04-25T07:16:29Z</time></trkpt><trkpt lat="43.76265159523371" lon="10.528807725259526"><ele>725.75</ele><time>2026-04-25T07:16:30Z</time></trkpt><trkpt lat="43.76276779682666" lon="10.528816706724783"><ele>727.5</ele><time>2026-04-25T07:16:31Z</time></trkpt><trkpt lat="43.76288808059759" lon="10.528818695189024"><ele>729.25</ele><time>2026-04-25T07:16:32Z</time></trkpt><trkpt lat="43.76300622735363" lon="10.52881078334455"><ele>731.0</ele><time>2026-04-25T07:16:33Z</time></trkpt><trkpt lat="43.763126613790675" lon="10.528798899453934"><ele>731.0</ele><time>2026-04-25T07:16:34Z</time></trkpt><trkpt lat="43.763236411770244" lon="10.528811020296324"><ele>731.0</ele><time>2026-04-25T07:16:35Z</time></trkpt><trkpt lat="43.763347145968325" lon="10.528847769499764"><ele>731.0</ele><time>2026-04-25T07:16:36Z</time></trkpt><trkpt lat="43.763450045220075" lon="10.528921360329457"><ele>731.0</ele><time>2026-04-25T07:16:37Z</time></trkpt><trkpt lat="43.76355753347011" lon="10.528979599928483"><ele>732.4</ele><time>2026-04-25T07:16:38Z</time></trkpt><trkpt lat="43.763675420572966" lon="10.529025902158889"><ele>733.8</ele><time>2026-04-25T07:16:39Z</time></trkpt><trkpt lat="43.7637826835471" lon="10.529097429108258"><ele>735.1999999999999</ele><time>2026-04-25T07:16:40Z</time></trkpt><trkpt lat="43.76387501278057" lon="10.529152427690462"><ele>736.5999999999999</ele><time>2026-04-25T07:16:41Z</time></trkpt><trkpt lat="43.763948024493" lon="10.529190832975063"><ele>738.0</ele><time>2026-04-25T07:16:42Z</time></trkpt><trkpt lat="43.76402343752229" lon="10.529219914240386"><ele>738.0</ele><time>2026-04-25T07:16:43Z</time></trkpt><trkpt lat="43.76409316082995" lon="10.5292377416019"><ele>738.0</ele><time>2026-04-25T07:16:44Z</time></trkpt><trkpt lat="43.764154858596086" lon="10.529260786754584"><ele>738.0</ele><time>2026-04-25T07:16:45Z</time></trkpt><trkpt lat="43.764225083670695" lon="10.529269781553854"><ele>738.0</ele><time>2026-04-25T07:16:46Z</time></trkpt><trkpt lat="43.76430163438304" lon="10.529278174442643"><ele>738.0</ele><time>2026-04-25T07:16:47Z</time></trkpt><trkpt lat="43.76437908521266" lon="10.529287452928035"><ele>738.0</ele><time>2026-04-25T07:16:48Z</time></trkpt><trkpt lat="43.764456717883384" lon="10.529301281511792"><ele>738.0</ele><time>2026-04-25T07:16:49Z</time></trkpt><trkpt lat="43.76452727416932" lon="10.529338277421722"><ele>738.5</ele><time>2026-04-25T07:16:50Z</time></trkpt><trkpt lat="43.76460170473279" lon="10.529331472817246"><ele>739.0</ele><time>2026-04-25T07:16:51Z</time></trkpt><trkpt lat="43.764683013065095" lon="10.529354831336246"><ele>739.5</ele><time>2026-04-25T07:16:52Z</time></trkpt><trkpt lat="43.76477099339785" lon="10.529370225587867"><ele>740.0</ele><time>2026-04-25T07:16:53Z</time></trkpt><trkpt lat="43.764861669620274" lon="10.52938090398702"><ele>740.5</ele><time>2026-04-25T07:16:54Z</time></trkpt><trkpt lat="43.76495478656755" lon="10.529368906568413"><ele>741.0</ele><time>2026-04-25T07:16:55Z</time></trkpt><trkpt lat="43.765050743545764" lon="10.529348775532366"><ele>741.0</ele><time>2026-04-25T07:16:56Z</time></trkpt><trkpt lat="43.765147487562004" lon="10.529329270674118"><ele>741.0</ele><time>2026-04-25T07:16:57Z</time></trkpt><trkpt lat="43.76523711265509" lon="10.529311535504638"><ele>741.0</ele><time>2026-04-25T07:16:58Z</time></trkpt><trkpt lat="43.76531816086405" lon="10.529295700340068"><ele>741.0</ele><time>2026-04-25T07:16:58.999Z</time></trkpt><trkpt lat="43.76538970960017" lon="10.529277018546415"><ele>741.0</ele><time>2026-04-25T07:16:59.999Z</time></trkpt><trkpt lat="43.76544995259458" lon="10.529247303031338"><ele>741.0</ele><time>2026-04-25T07:17:00.999Z</time></trkpt><trkpt lat="43.765515775244154" lon="10.529175177358447"><ele>740.75</ele><time>2026-04-25T07:17:02.999Z</time></trkpt><trkpt lat="43.76556258543019" lon="10.529107375839315"><ele>740.5</ele><time>2026-04-25T07:17:13.999Z</time></trkpt><trkpt lat="43.765498245477005" lon="10.529156247112734"><ele>740.25</ele><time>2026-04-25T07:18:29Z</time></trkpt><trkpt lat="43.765626861846265" lon="10.529476708285586"><ele>740.0</ele><time>2026-04-25T07:18:36Z</time></trkpt><trkpt lat="43.76567020942595" lon="10.529564303211671"><ele>739.0</ele><time>2026-04-25T07:18:38Z</time></trkpt><trkpt lat="43.76572203903165" lon="10.529669113456197"><ele>738.0</ele><time>2026-04-25T07:18:40Z</time></trkpt><trkpt lat="43.76578410767566" lon="10.529809021421396"><ele>737.0</ele><time>2026-04-25T07:18:42Z</time></trkpt><trkpt lat="43.765818318382955" lon="10.529891506558524"><ele>736.0</ele><time>2026-04-25T07:18:43Z</time></trkpt><trkpt lat="43.76585307288676" lon="10.529978322009155"><ele>735.0</ele><time>2026-04-25T07:18:44Z</time></trkpt><trkpt lat="43.76589083792897" lon="10.530074098992678"><ele>734.0</ele><time>2026-04-25T07:18:45Z</time></trkpt><trkpt lat="43.765929264256776" lon="10.530167061548575"><ele>734.0</ele><time>2026-04-25T07:18:46Z</time></trkpt><trkpt lat="43.765970881358896" lon="10.530261952571621"><ele>734.0</ele><time>2026-04-25T07:18:47Z</time></trkpt><trkpt lat="43.76602509471457" lon="10.530341298894058"><ele>734.0</ele><time>2026-04-25T07:18:48Z</time></trkpt><trkpt lat="43.76606855704108" lon="10.530444916830117"><ele>734.0</ele><time>2026-04-25T07:18:49Z</time></trkpt><trkpt lat="43.76616376115709" lon="10.530609829009313"><ele>734.0</ele><time>2026-04-25T07:18:51Z</time></trkpt><trkpt lat="43.76621364265385" lon="10.530688254599838"><ele>733.7142857142857</ele><time>2026-04-25T07:18:52Z</time></trkpt><trkpt lat="43.76625960591504" lon="10.530756775506957"><ele>733.4285714285714</ele><time>2026-04-25T07:18:53Z</time></trkpt><trkpt lat="43.766313100334266" lon="10.530819323787163"><ele>733.1428571428571</ele><time>2026-04-25T07:18:54Z</time></trkpt><trkpt lat="43.76636739336585" lon="10.530891585812235"><ele>732.8571428571429</ele><time>2026-04-25T07:18:55Z</time></trkpt><trkpt lat="43.766431474569806" lon="10.530935496982119"><ele>732.5714285714287</ele><time>2026-04-25T07:18:56Z</time></trkpt><trkpt lat="43.766502492769824" lon="10.530963976424456"><ele>732.2857142857143</ele><time>2026-04-25T07:18:57Z</time></trkpt><trkpt lat="43.7665719142864" lon="10.530984337264616"><ele>732.0</ele><time>2026-04-25T07:18:58Z</time></trkpt><trkpt lat="43.766642555994785" lon="10.530998104158206"><ele>732.0</ele><time>2026-04-25T07:18:59Z</time></trkpt><trkpt lat="43.766715469377225" lon="10.53098823654137"><ele>732.0</ele><time>2026-04-25T07:19:00Z</time></trkpt><trkpt lat="43.76678212475881" lon="10.53099850416495"><ele>732.0</ele><time>2026-04-25T07:19:01Z</time></trkpt><trkpt lat="43.766849113563794" lon="10.531024900430573"><ele>732.0</ele><time>2026-04-25T07:19:02Z</time></trkpt><trkpt lat="43.76695607529119" lon="10.531024362856693"><ele>732.0</ele><time>2026-04-25T07:19:03.999Z</time></trkpt><trkpt lat="43.767082926755656" lon="10.5310232674034"><ele>732.0</ele><time>2026-04-25T07:19:05.999Z</time></trkpt><trkpt lat="43.767151365565034" lon="10.531022872141598"><ele>730.0</ele><time>2026-04-25T07:19:06.999Z</time></trkpt><trkpt lat="43.767217343215634" lon="10.53101596694429"><ele>728.0</ele><time>2026-04-25T07:19:07.999Z</time></trkpt><trkpt lat="43.76728179921126" lon="10.531000784941519"><ele>726.0</ele><time>2026-04-25T07:19:08.999Z</time></trkpt><trkpt lat="43.7674070817627" lon="10.530954679655492"><ele>724.0</ele><time>2026-04-25T07:19:10.999Z</time></trkpt><trkpt lat="43.767527236509174" lon="10.530941826307192"><ele>722.0</ele><time>2026-04-25T07:19:12.999Z</time></trkpt><trkpt lat="43.76765775566571" lon="10.530909646822385"><ele>719.8</ele><time>2026-04-25T07:19:14.999Z</time></trkpt><trkpt lat="43.76777626760313" lon="10.530865283846602"><ele>717.6</ele><time>2026-04-25T07:19:16.999Z</time></trkpt><trkpt lat="43.767860480542524" lon="10.530812960932497"><ele>715.4</ele><time>2026-04-25T07:19:17.999Z</time></trkpt><trkpt lat="43.76792853998296" lon="10.530784664119938"><ele>713.1999999999999</ele><time>2026-04-25T07:19:18.999Z</time></trkpt><trkpt lat="43.76802289554559" lon="10.53075223316282"><ele>711.0</ele><time>2026-04-25T07:19:20.999Z</time></trkpt><trkpt lat="43.76810073417493" lon="10.530751930194448"><ele>711.0</ele><time>2026-04-25T07:19:23.999Z</time></trkpt><trkpt lat="43.76818528512221" lon="10.530693225220881"><ele>711.0</ele><time>2026-04-25T07:19:46.999Z</time></trkpt><trkpt lat="43.76821950225257" lon="10.530412668410865"><ele>711.0</ele><time>2026-04-25T07:21:36.999Z</time></trkpt><trkpt lat="43.76817746215525" lon="10.530262278509573"><ele>711.0</ele><time>2026-04-25T07:21:37.999Z</time></trkpt><trkpt lat="43.76813739827349" lon="10.530164998862174"><ele>711.0</ele><time>2026-04-25T07:21:38.999Z</time></trkpt><trkpt lat="43.76818161406558" lon="10.5302732454364"><ele>711.0</ele><time>2026-04-25T07:22:08.998Z</time></trkpt><trkpt lat="43.768223933133655" lon="10.530384997343402"><ele>711.0</ele><time>2026-04-25T07:22:10.998Z</time></trkpt><trkpt lat="43.76824818389583" lon="10.530530832943212"><ele>711.0</ele><time>2026-04-25T07:22:12.998Z</time></trkpt><trkpt lat="43.768243457009646" lon="10.53062350451043"><ele>711.0</ele><time>2026-04-25T07:22:13.998Z</time></trkpt><trkpt lat="43.76820820018414" lon="10.530718545906065"><ele>711.0</ele><time>2026-04-25T07:22:15.998Z</time></trkpt><trkpt lat="43.76822267267318" lon="10.53055440126287"><ele>711.0</ele><time>2026-04-25T07:22:21.998Z</time></trkpt><trkpt lat="43.7682101937381" lon="10.530430134748139"><ele>711.0</ele><time>2026-04-25T07:22:22.998Z</time></trkpt><trkpt lat="43.76818934266019" lon="10.530286645323972"><ele>711.0</ele><time>2026-04-25T07:22:24.998Z</time></trkpt><trkpt lat="43.768161884822476" lon="10.530199024948505"><ele>711.0</ele><time>2026-04-25T07:22:25.998Z</time></trkpt><trkpt lat="43.76812933742463" lon="10.530110379699991"><ele>711.0</ele><time>2026-04-25T07:22:26.998Z</time></trkpt><trkpt lat="43.76809549341986" lon="10.530034380961443"><ele>711.0</ele><time>2026-04-25T07:22:27.998Z</time></trkpt><trkpt lat="43.76805836836529" lon="10.529963843457768"><ele>710.0</ele><time>2026-04-25T07:22:28.998Z</time></trkpt><trkpt lat="43.76798616872194" lon="10.52983020950532"><ele>709.0</ele><time>2026-04-25T07:22:30.998Z</time></trkpt><trkpt lat="43.7679309739484" lon="10.529695642483965"><ele>708.0</ele><time>2026-04-25T07:22:32.998Z</time></trkpt><trkpt lat="43.76786592280329" lon="10.529561396228196"><ele>707.0</ele><time>2026-04-25T07:22:35Z</time></trkpt><trkpt lat="43.76782239874519" lon="10.529488526753108"><ele>706.0</ele><time>2026-04-25T07:22:36Z</time></trkpt><trkpt lat="43.76778078193254" lon="10.529420361146522"><ele>704.8571428571428</ele><time>2026-04-25T07:22:37Z</time></trkpt><trkpt lat="43.767732646379095" lon="10.529351944008138"><ele>703.7142857142858</ele><time>2026-04-25T07:22:38Z</time></trkpt><trkpt lat="43.767682755376676" lon="10.529279351136374"><ele>702.5714285714286</ele><time>2026-04-25T07:22:39Z</time></trkpt><trkpt lat="43.76763874894392" lon="10.529206091591316"><ele>701.4285714285713</ele><time>2026-04-25T07:22:40Z</time></trkpt><trkpt lat="43.767606305955404" lon="10.529129884546787"><ele>700.2857142857142</ele><time>2026-04-25T07:22:41Z</time></trkpt><trkpt lat="43.7675872358982" lon="10.529002353740308"><ele>699.1428571428571</ele><time>2026-04-25T07:22:43Z</time></trkpt><trkpt lat="43.767610014547245" lon="10.528919265256258"><ele>698.0</ele><time>2026-04-25T07:22:45Z</time></trkpt><trkpt lat="43.767668046971814" lon="10.528834146984373"><ele>698.0</ele><time>2026-04-25T07:22:47Z</time></trkpt><trkpt lat="43.76773750981226" lon="10.528826200657734"><ele>698.0</ele><time>2026-04-25T07:22:49Z</time></trkpt><trkpt lat="43.7677983647639" lon="10.528791735918729"><ele>698.0</ele><time>2026-04-25T07:22:52Z</time></trkpt><trkpt lat="43.76788838333477" lon="10.528761762955563"><ele>698.0</ele><time>2026-04-25T07:22:55Z</time></trkpt><trkpt lat="43.76798374878316" lon="10.528711441858928"><ele>698.0</ele><time>2026-04-25T07:22:57Z</time></trkpt><trkpt lat="43.76807891424422" lon="10.52867289731437"><ele>698.0</ele><time>2026-04-25T07:22:59Z</time></trkpt><trkpt lat="43.76815957090115" lon="10.528650059500501"><ele>697.6666666666666</ele><time>2026-04-25T07:23:01Z</time></trkpt><trkpt lat="43.76823555933731" lon="10.52861384229475"><ele>697.3333333333333</ele><time>2026-04-25T07:23:03Z</time></trkpt><trkpt lat="43.768343941220046" lon="10.528558730361683"><ele>697.0</ele><time>2026-04-25T07:23:05Z</time></trkpt><trkpt lat="43.76840784700253" lon="10.528523824697658"><ele>696.6666666666666</ele><time>2026-04-25T07:23:06Z</time></trkpt><trkpt lat="43.768467948074736" lon="10.528481120174881"><ele>696.3333333333334</ele><time>2026-04-25T07:23:07Z</time></trkpt><trkpt lat="43.76856453876607" lon="10.528407275860825"><ele>696.0</ele><time>2026-04-25T07:23:09Z</time></trkpt><trkpt lat="43.768649744682946" lon="10.528361241272567"><ele>696.0</ele><time>2026-04-25T07:23:11Z</time></trkpt><trkpt lat="43.76871572352339" lon="10.528293724295702"><ele>696.0</ele><time>2026-04-25T07:23:12.999Z</time></trkpt><trkpt lat="43.76881908108379" lon="10.528232988765927"><ele>696.0</ele><time>2026-04-25T07:23:14.999Z</time></trkpt><trkpt lat="43.76887864550817" lon="10.528183845978425"><ele>696.0</ele><time>2026-04-25T07:23:15.999Z</time></trkpt><trkpt lat="43.76897241061209" lon="10.52806514013161"><ele>696.0</ele><time>2026-04-25T07:23:17.999Z</time></trkpt><trkpt lat="43.76904022794742" lon="10.527967140229217"><ele>695.8571428571429</ele><time>2026-04-25T07:23:19.999Z</time></trkpt><trkpt lat="43.76906440442225" lon="10.527876920915004"><ele>695.7142857142858</ele><time>2026-04-25T07:23:21.999Z</time></trkpt><trkpt lat="43.76906751469163" lon="10.527777023977759"><ele>695.5714285714287</ele><time>2026-04-25T07:23:25.999Z</time></trkpt><trkpt lat="43.7690866715154" lon="10.52767990186024"><ele>695.4285714285714</ele><time>2026-04-25T07:23:28.999Z</time></trkpt><trkpt lat="43.769051942806286" lon="10.527582341377295"><ele>695.2857142857143</ele><time>2026-04-25T07:23:30.999Z</time></trkpt><trkpt lat="43.76905538363071" lon="10.527463311317996"><ele>695.1428571428572</ele><time>2026-04-25T07:23:33.999Z</time></trkpt><trkpt lat="43.76903283299624" lon="10.527371739712528"><ele>695.0</ele><time>2026-04-25T07:23:35.999Z</time></trkpt><trkpt lat="43.76900294478708" lon="10.52727538747502"><ele>695.0000000000001</ele><time>2026-04-25T07:23:38.999Z</time></trkpt><trkpt lat="43.76896801674603" lon="10.527194693342773"><ele>695.0</ele><time>2026-04-25T07:23:40.999Z</time></trkpt><trkpt lat="43.76893822175727" lon="10.527094936005621"><ele>695.0</ele><time>2026-04-25T07:23:42.999Z</time></trkpt><trkpt lat="43.76889897253452" lon="10.526992951968884"><ele>695.0</ele><time>2026-04-25T07:23:44.999Z</time></trkpt><trkpt lat="43.76887981348772" lon="10.526899467378888"><ele>695.0</ele><time>2026-04-25T07:23:47.999Z</time></trkpt><trkpt lat="43.76884187447724" lon="10.526807462407401"><ele>695.0000000000001</ele><time>2026-04-25T07:23:50.999Z</time></trkpt><trkpt lat="43.768811710658056" lon="10.526717172180497"><ele>695.0</ele><time>2026-04-25T07:23:52.999Z</time></trkpt><trkpt lat="43.76877829220995" lon="10.52659053244031"><ele>693.7142857142858</ele><time>2026-04-25T07:23:54.999Z</time></trkpt><trkpt lat="43.76874650979119" lon="10.52650774329981"><ele>692.4285714285714</ele><time>2026-04-25T07:23:56.999Z</time></trkpt><trkpt lat="43.76871336945011" lon="10.526395370249636"><ele>691.1428571428571</ele><time>2026-04-25T07:23:58.999Z</time></trkpt><trkpt lat="43.76867805486464" lon="10.526308361340512"><ele>689.8571428571429</ele><time>2026-04-25T07:24:00.999Z</time></trkpt><trkpt lat="43.76864414629285" lon="10.526219658281386"><ele>688.5714285714286</ele><time>2026-04-25T07:24:02.999Z</time></trkpt><trkpt lat="43.76860883894287" lon="10.5261432967173"><ele>687.2857142857143</ele><time>2026-04-25T07:24:04.998Z</time></trkpt><trkpt lat="43.76857775872395" lon="10.5260430882118"><ele>686.0</ele><time>2026-04-25T07:24:06.998Z</time></trkpt><trkpt lat="43.76853503383808" lon="10.525933481184403"><ele>685.3333333333333</ele><time>2026-04-25T07:24:09.998Z</time></trkpt><trkpt lat="43.76850761485228" lon="10.525823527215831"><ele>684.6666666666666</ele><time>2026-04-25T07:24:11.998Z</time></trkpt><trkpt lat="43.768478734442134" lon="10.525719095896978"><ele>684.0</ele><time>2026-04-25T07:24:13.998Z</time></trkpt><trkpt lat="43.76845691678799" lon="10.5256249783645"><ele>683.3333333333334</ele><time>2026-04-25T07:24:15.998Z</time></trkpt><trkpt lat="43.768405569967484" lon="10.525509695778883"><ele>682.6666666666667</ele><time>2026-04-25T07:24:18.998Z</time></trkpt><trkpt lat="43.768376495345045" lon="10.525421982724692"><ele>682.0</ele><time>2026-04-25T07:24:20.998Z</time></trkpt><trkpt lat="43.7683432143401" lon="10.52533191127711"><ele>682.0</ele><time>2026-04-25T07:24:22.998Z</time></trkpt><trkpt lat="43.768299147817686" lon="10.525250843108465"><ele>682.0</ele><time>2026-04-25T07:24:24.998Z</time></trkpt><trkpt lat="43.76827050359194" lon="10.525171303506875"><ele>682.0</ele><time>2026-04-25T07:24:26.998Z</time></trkpt><trkpt lat="43.76822858023094" lon="10.525071757695258"><ele>682.0</ele><time>2026-04-25T07:24:29.998Z</time></trkpt><trkpt lat="43.76818711450596" lon="10.524982174112719"><ele>682.0</ele><time>2026-04-25T07:24:31.998Z</time></trkpt><trkpt lat="43.768133395216225" lon="10.524868103589357"><ele>682.0</ele><time>2026-04-25T07:24:33.998Z</time></trkpt><trkpt lat="43.768091185947846" lon="10.524767051554248"><ele>682.0</ele><time>2026-04-25T07:24:35.998Z</time></trkpt><trkpt lat="43.768044035712386" lon="10.524647133235185"><ele>682.0</ele><time>2026-04-25T07:24:38.998Z</time></trkpt><trkpt lat="43.76800586919184" lon="10.524545660380726"><ele>682.0</ele><time>2026-04-25T07:24:41Z</time></trkpt><trkpt lat="43.767966209146564" lon="10.524468866210203"><ele>682.0</ele><time>2026-04-25T07:24:42Z</time></trkpt><trkpt lat="43.7679354468457" lon="10.52438993289638"><ele>682.0</ele><time>2026-04-25T07:24:44Z</time></trkpt><trkpt lat="43.767882743653296" lon="10.524289821013891"><ele>682.0</ele><time>2026-04-25T07:24:46Z</time></trkpt><trkpt lat="43.7678385804019" lon="10.524227563096586"><ele>682.6666666666667</ele><time>2026-04-25T07:24:47Z</time></trkpt><trkpt lat="43.76780924982957" lon="10.52411569795294"><ele>683.3333333333334</ele><time>2026-04-25T07:24:48Z</time></trkpt><trkpt lat="43.76776697515969" lon="10.524045596383285"><ele>684.0</ele><time>2026-04-25T07:24:49Z</time></trkpt><trkpt lat="43.767743929552026" lon="10.52392906560993"><ele>684.6666666666666</ele><time>2026-04-25T07:24:51Z</time></trkpt><trkpt lat="43.76769466969572" lon="10.523789525341826"><ele>685.3333333333333</ele><time>2026-04-25T07:24:53Z</time></trkpt><trkpt lat="43.76768334507598" lon="10.523677944129497"><ele>686.0</ele><time>2026-04-25T07:24:55Z</time></trkpt><trkpt lat="43.76767998461162" lon="10.523589319967634"><ele>686.0</ele><time>2026-04-25T07:24:56Z</time></trkpt><trkpt lat="43.76763951173864" lon="10.52346655742081"><ele>686.0</ele><time>2026-04-25T07:24:58Z</time></trkpt><trkpt lat="43.76764216525202" lon="10.523377820775709"><ele>686.0</ele><time>2026-04-25T07:25:02Z</time></trkpt><trkpt lat="43.76762013023171" lon="10.52329475332921"><ele>686.0</ele><time>2026-04-25T07:25:07Z</time></trkpt><trkpt lat="43.76760492790982" lon="10.523201240322658"><ele>686.0</ele><time>2026-04-25T07:25:09.999Z</time></trkpt><trkpt lat="43.767576675249494" lon="10.523119838859257"><ele>686.0</ele><time>2026-04-25T07:25:36.999Z</time></trkpt><trkpt lat="43.76755704000626" lon="10.523011771212513"><ele>686.0</ele><time>2026-04-25T07:25:39.999Z</time></trkpt><trkpt lat="43.767562220747905" lon="10.522875608467697"><ele>684.4285714285714</ele><time>2026-04-25T07:25:42.999Z</time></trkpt><trkpt lat="43.76755620457115" lon="10.522781486604124"><ele>682.8571428571429</ele><time>2026-04-25T07:25:45.999Z</time></trkpt><trkpt lat="43.76754140253897" lon="10.522683370371999"><ele>681.2857142857142</ele><time>2026-04-25T07:25:48.999Z</time></trkpt><trkpt lat="43.767545850727345" lon="10.52257160752747"><ele>679.7142857142858</ele><time>2026-04-25T07:25:51.999Z</time></trkpt><trkpt lat="43.767534918983365" lon="10.522445817022803"><ele>678.1428571428571</ele><time>2026-04-25T07:25:55.999Z</time></trkpt><trkpt lat="43.76752200024958" lon="10.522358989058"><ele>676.5714285714286</ele><time>2026-04-25T07:25:58.999Z</time></trkpt><trkpt lat="43.76750419797034" lon="10.522261620093667"><ele>675.0</ele><time>2026-04-25T07:26:01.999Z</time></trkpt><trkpt lat="43.76749948837079" lon="10.522173341251312"><ele>673.1666666666666</ele><time>2026-04-25T07:26:03.998Z</time></trkpt><trkpt lat="43.76748575657699" lon="10.52204541606734"><ele>671.3333333333334</ele><time>2026-04-25T07:26:06.998Z</time></trkpt><trkpt lat="43.76745999357637" lon="10.521936168749061"><ele>669.5</ele><time>2026-04-25T07:26:09.998Z</time></trkpt><trkpt lat="43.76743971262116" lon="10.521833040902925"><ele>667.6666666666667</ele><time>2026-04-25T07:26:12.998Z</time></trkpt><trkpt lat="43.767415599144535" lon="10.521745928141492"><ele>665.8333333333334</ele><time>2026-04-25T07:26:15.998Z</time></trkpt><trkpt lat="43.76738521090401" lon="10.521629291287377"><ele>664.0</ele><time>2026-04-25T07:26:18.998Z</time></trkpt><trkpt lat="43.76735877745232" lon="10.521530010623037"><ele>664.0</ele><time>2026-04-25T07:26:20.998Z</time></trkpt><trkpt lat="43.76733461421366" lon="10.521439256779836"><ele>664.0</ele><time>2026-04-25T07:26:23.998Z</time></trkpt><trkpt lat="43.76728921735066" lon="10.5213496568225"><ele>664.0</ele><time>2026-04-25T07:26:27.998Z</time></trkpt><trkpt lat="43.76729070148808" lon="10.52125648727964"><ele>664.0</ele><time>2026-04-25T07:26:30.998Z</time></trkpt><trkpt lat="43.76741229394535" lon="10.521317368473854"><ele>664.0</ele><time>2026-04-25T07:30:18.998Z</time></trkpt><trkpt lat="43.767480825156674" lon="10.521341769595919"><ele>664.0</ele><time>2026-04-25T07:30:21.998Z</time></trkpt><trkpt lat="43.76753856043977" lon="10.52140148256779"><ele>664.0</ele><time>2026-04-25T07:30:24.998Z</time></trkpt><trkpt lat="43.76759895114339" lon="10.521432540504378"><ele>664.0</ele><time>2026-04-25T07:30:27.998Z</time></trkpt><trkpt lat="43.767668352190405" lon="10.521480324413142"><ele>664.0</ele><time>2026-04-25T07:30:30.998Z</time></trkpt><trkpt lat="43.76773834531162" lon="10.52151316610871"><ele>664.0</ele><time>2026-04-25T07:30:35.998Z</time></trkpt><trkpt lat="43.76779068217429" lon="10.521571525188325"><ele>664.0</ele><time>2026-04-25T07:30:39.998Z</time></trkpt><trkpt lat="43.76786423924782" lon="10.521631273937157"><ele>664.0</ele><time>2026-04-25T07:30:43.998Z</time></trkpt><trkpt lat="43.7679208539953" lon="10.521680401292745"><ele>664.0</ele><time>2026-04-25T07:30:47.998Z</time></trkpt><trkpt lat="43.767989105096035" lon="10.521743264933152"><ele>662.2857142857142</ele><time>2026-04-25T07:30:51.998Z</time></trkpt><trkpt lat="43.76804766474846" lon="10.521800313058975"><ele>660.5714285714287</ele><time>2026-04-25T07:30:54.998Z</time></trkpt><trkpt lat="43.768107538253425" lon="10.52186163602948"><ele>658.8571428571429</ele><time>2026-04-25T07:30:59Z</time></trkpt><trkpt lat="43.76815802138855" lon="10.521917478353878"><ele>657.1428571428571</ele><time>2026-04-25T07:31:08Z</time></trkpt><trkpt lat="43.76820976209185" lon="10.521980000618242"><ele>655.4285714285713</ele><time>2026-04-25T07:31:12Z</time></trkpt><trkpt lat="43.76826937059656" lon="10.522038621488736"><ele>653.7142857142858</ele><time>2026-04-25T07:31:16.999Z</time></trkpt><trkpt lat="43.76831291449625" lon="10.522118129918253"><ele>652.0</ele><time>2026-04-25T07:31:21.999Z</time></trkpt><trkpt lat="43.76836003304392" lon="10.522179001868906"><ele>652.0</ele><time>2026-04-25T07:31:26.999Z</time></trkpt><trkpt lat="43.768403545044464" lon="10.522246298481058"><ele>652.0</ele><time>2026-04-25T07:31:31.999Z</time></trkpt><trkpt lat="43.7684460323121" lon="10.522317016765006"><ele>652.0</ele><time>2026-04-25T07:31:35.999Z</time></trkpt><trkpt lat="43.76849622546378" lon="10.522400462733884"><ele>652.0</ele><time>2026-04-25T07:31:39.999Z</time></trkpt><trkpt lat="43.768542097468476" lon="10.522481723861588"><ele>652.0</ele><time>2026-04-25T07:31:42.999Z</time></trkpt><trkpt lat="43.76860350135285" lon="10.522533850503534"><ele>652.0</ele><time>2026-04-25T07:31:45.999Z</time></trkpt><trkpt lat="43.768650323229096" lon="10.522624227609986"><ele>652.0</ele><time>2026-04-25T07:31:48.999Z</time></trkpt><trkpt lat="43.76869655934267" lon="10.522690008647105"><ele>649.6666666666667</ele><time>2026-04-25T07:32:25.998Z</time></trkpt><trkpt lat="43.768746140049814" lon="10.522760589946131"><ele>647.3333333333334</ele><time>2026-04-25T07:32:29.998Z</time></trkpt><trkpt lat="43.7687935206534" lon="10.522828679340282"><ele>645.0</ele><time>2026-04-25T07:32:51.998Z</time></trkpt><trkpt lat="43.76884915867891" lon="10.522908771545513"><ele>642.6666666666666</ele><time>2026-04-25T07:32:56.998Z</time></trkpt><trkpt lat="43.76892913917567" lon="10.523023905303502"><ele>640.3333333333333</ele><time>2026-04-25T07:32:59.998Z</time></trkpt><trkpt lat="43.7690025558738" lon="10.52312959037606"><ele>638.0</ele><time>2026-04-25T07:33:01.998Z</time></trkpt><trkpt lat="43.769064619990836" lon="10.523219430369522"><ele>638.0</ele><time>2026-04-25T07:33:03.999Z</time></trkpt><trkpt lat="43.76913324425081" lon="10.523320134197554"><ele>638.0</ele><time>2026-04-25T07:33:05.999Z</time></trkpt><trkpt lat="43.76919458112514" lon="10.523410143923384"><ele>638.0</ele><time>2026-04-25T07:33:07.999Z</time></trkpt><trkpt lat="43.769256069498994" lon="10.523500376193178"><ele>638.0</ele><time>2026-04-25T07:33:09.999Z</time></trkpt><trkpt lat="43.769309806218715" lon="10.52357923289152"><ele>638.0</ele><time>2026-04-25T07:33:11.999Z</time></trkpt><trkpt lat="43.769364817307135" lon="10.523657942573662"><ele>638.0</ele><time>2026-04-25T07:33:14Z</time></trkpt><trkpt lat="43.769412174198926" lon="10.523725208133692"><ele>633.6666666666666</ele><time>2026-04-25T07:33:16Z</time></trkpt><trkpt lat="43.769458534355046" lon="10.5237910578787"><ele>629.3333333333333</ele><time>2026-04-25T07:33:19.999Z</time></trkpt><trkpt lat="43.769513932325246" lon="10.523873111814064"><ele>625.0</ele><time>2026-04-25T07:33:22.999Z</time></trkpt><trkpt lat="43.76957274558156" lon="10.523954762536075"><ele>620.6666666666666</ele><time>2026-04-25T07:33:26.999Z</time></trkpt><trkpt lat="43.7696042596226" lon="10.524046779856521"><ele>616.3333333333334</ele><time>2026-04-25T07:33:28.999Z</time></trkpt><trkpt lat="43.769649070508805" lon="10.524121913244679"><ele>612.0</ele><time>2026-04-25T07:33:30.999Z</time></trkpt><trkpt lat="43.769697133492734" lon="10.524214320182534"><ele>612.0</ele><time>2026-04-25T07:33:32.999Z</time></trkpt><trkpt lat="43.769724242767396" lon="10.52430279355209"><ele>612.0</ele><time>2026-04-25T07:33:35.998Z</time></trkpt><trkpt lat="43.76975477610546" lon="10.52438209530023"><ele>612.0</ele><time>2026-04-25T07:33:37.998Z</time></trkpt><trkpt lat="43.76977814986886" lon="10.524478915126132"><ele>612.0</ele><time>2026-04-25T07:33:40.998Z</time></trkpt><trkpt lat="43.76981197355743" lon="10.524607859089645"><ele>612.0</ele><time>2026-04-25T07:33:43.998Z</time></trkpt><trkpt lat="43.76983078407603" lon="10.524710890160543"><ele>612.0</ele><time>2026-04-25T07:33:46.998Z</time></trkpt><trkpt lat="43.769857938083966" lon="10.524799945136115"><ele>613.8333333333334</ele><time>2026-04-25T07:33:48.998Z</time></trkpt><trkpt lat="43.769890816435925" lon="10.524880025397268"><ele>615.6666666666666</ele><time>2026-04-25T07:33:50.998Z</time></trkpt><trkpt lat="43.76993584514313" lon="10.524994092573952"><ele>617.5</ele><time>2026-04-25T07:33:53.998Z</time></trkpt><trkpt lat="43.769990349286786" lon="10.525073260963858"><ele>619.3333333333333</ele><time>2026-04-25T07:33:55.998Z</time></trkpt><trkpt lat="43.770053039717546" lon="10.525145349422592"><ele>621.1666666666666</ele><time>2026-04-25T07:33:58.998Z</time></trkpt><trkpt lat="43.77013494993423" lon="10.525131609692895"><ele>623.0</ele><time>2026-04-25T07:34:02.998Z</time></trkpt><trkpt lat="43.77011601168599" lon="10.524911151920662"><ele>623.0</ele><time>2026-04-25T07:34:42.997Z</time></trkpt><trkpt lat="43.77007950191148" lon="10.524819778740987"><ele>623.0</ele><time>2026-04-25T07:34:45.997Z</time></trkpt><trkpt lat="43.77005123276103" lon="10.52470581239973"><ele>623.0</ele><time>2026-04-25T07:34:48.997Z</time></trkpt><trkpt lat="43.77004049099167" lon="10.524561666569646"><ele>623.0</ele><time>2026-04-25T07:34:51.997Z</time></trkpt><trkpt lat="43.77004373173036" lon="10.524446326580469"><ele>623.0</ele><time>2026-04-25T07:34:53.997Z</time></trkpt><trkpt lat="43.77004546478423" lon="10.524313535398425"><ele>623.0</ele><time>2026-04-25T07:34:55.997Z</time></trkpt><trkpt lat="43.770042320867454" lon="10.524190773932176"><ele>621.1666666666666</ele><time>2026-04-25T07:34:57.996Z</time></trkpt><trkpt lat="43.770057170826654" lon="10.524082513285407"><ele>619.3333333333333</ele><time>2026-04-25T07:35:00.996Z</time></trkpt><trkpt lat="43.7700621678958" lon="10.523986671842444"><ele>617.5</ele><time>2026-04-25T07:35:02.996Z</time></trkpt><trkpt lat="43.77007268464265" lon="10.523879665139102"><ele>615.6666666666666</ele><time>2026-04-25T07:35:05.996Z</time></trkpt><trkpt lat="43.77006898662452" lon="10.52376163781472"><ele>613.8333333333334</ele><time>2026-04-25T07:35:08.996Z</time></trkpt><trkpt lat="43.7700963087397" lon="10.523641076173057"><ele>612.0</ele><time>2026-04-25T07:35:11.998Z</time></trkpt><trkpt lat="43.77011344143188" lon="10.523545436768266"><ele>611.4285714285714</ele><time>2026-04-25T07:35:13.999Z</time></trkpt><trkpt lat="43.770120447721645" lon="10.52344003428539"><ele>610.8571428571429</ele><time>2026-04-25T07:35:15.999Z</time></trkpt><trkpt lat="43.77013127585209" lon="10.52331820699639"><ele>610.2857142857142</ele><time>2026-04-25T07:35:18.999Z</time></trkpt><trkpt lat="43.77013332358406" lon="10.523231021413887"><ele>609.7142857142858</ele><time>2026-04-25T07:35:25.999Z</time></trkpt><trkpt lat="43.77012425894797" lon="10.523142943770033"><ele>609.1428571428572</ele><time>2026-04-25T07:36:01.999Z</time></trkpt><trkpt lat="43.77012455377755" lon="10.52305440747047"><ele>608.5714285714286</ele><time>2026-04-25T07:36:11.999Z</time></trkpt><trkpt lat="43.770104250886504" lon="10.522940801474979"><ele>608.0</ele><time>2026-04-25T07:36:15.999Z</time></trkpt><trkpt lat="43.77007288269516" lon="10.522835687325712"><ele>606.0</ele><time>2026-04-25T07:36:18.999Z</time></trkpt><trkpt lat="43.77005618698263" lon="10.522750399690945"><ele>604.0</ele><time>2026-04-25T07:36:20.999Z</time></trkpt><trkpt lat="43.77002993148427" lon="10.522655912166023"><ele>602.0</ele><time>2026-04-25T07:36:23.999Z</time></trkpt><trkpt lat="43.76999952412542" lon="10.52256508271102"><ele>600.0</ele><time>2026-04-25T07:36:26.999Z</time></trkpt><trkpt lat="43.76996498617347" lon="10.522459927331504"><ele>598.0</ele><time>2026-04-25T07:36:31.998Z</time></trkpt><trkpt lat="43.76992631318679" lon="10.522357961221037"><ele>596.0</ele><time>2026-04-25T07:36:35.998Z</time></trkpt><trkpt lat="43.76989463735377" lon="10.522279596108799"><ele>594.0</ele><time>2026-04-25T07:36:39.998Z</time></trkpt><trkpt lat="43.76987772577216" lon="10.522187695176665"><ele>594.0</ele><time>2026-04-25T07:36:43.998Z</time></trkpt><trkpt lat="43.76983542760238" lon="10.522100190266762"><ele>594.0</ele><time>2026-04-25T07:36:48.998Z</time></trkpt><trkpt lat="43.76980075359943" lon="10.522015579182504"><ele>594.0</ele><time>2026-04-25T07:36:51.998Z</time></trkpt><trkpt lat="43.76978876260754" lon="10.521927380420692"><ele>594.0</ele><time>2026-04-25T07:36:55.998Z</time></trkpt><trkpt lat="43.76978505274553" lon="10.521837135014746"><ele>594.0</ele><time>2026-04-25T07:37:04.998Z</time></trkpt><trkpt lat="43.76976645640771" lon="10.521737287210248"><ele>594.0</ele><time>2026-04-25T07:40:01.999Z</time></trkpt><trkpt lat="43.76973567723905" lon="10.521644261114185"><ele>594.0</ele><time>2026-04-25T07:40:05.999Z</time></trkpt><trkpt lat="43.76970977239859" lon="10.521563777629297"><ele>591.4</ele><time>2026-04-25T07:40:09.999Z</time></trkpt><trkpt lat="43.769653441303355" lon="10.521429463783"><ele>588.8</ele><time>2026-04-25T07:41:13.998Z</time></trkpt><trkpt lat="43.76964417720838" lon="10.521280095320018"><ele>586.2</ele><time>2026-04-25T07:41:15.998Z</time></trkpt><trkpt lat="43.76962894504782" lon="10.521165066046544"><ele>583.6</ele><time>2026-04-25T07:41:17.998Z</time></trkpt><trkpt lat="43.7696272026782" lon="10.52106286208442"><ele>581.0</ele><time>2026-04-25T07:41:19.998Z</time></trkpt><trkpt lat="43.76961656634049" lon="10.520957803030674"><ele>579.0</ele><time>2026-04-25T07:41:22.997Z</time></trkpt><trkpt lat="43.76960760242694" lon="10.520870823120632"><ele>577.0</ele><time>2026-04-25T07:41:25.997Z</time></trkpt><trkpt lat="43.76959798493468" lon="10.520777501542074"><ele>575.0</ele><time>2026-04-25T07:41:27.999Z</time></trkpt><trkpt lat="43.769587407726995" lon="10.520661127681494"><ele>573.0</ele><time>2026-04-25T07:41:29.999Z</time></trkpt><trkpt lat="43.76957568624609" lon="10.520527111771985"><ele>571.0</ele><time>2026-04-25T07:41:31.999Z</time></trkpt><trkpt lat="43.769562447785816" lon="10.520416180031395"><ele>569.0</ele><time>2026-04-25T07:41:33.999Z</time></trkpt><trkpt lat="43.76956158024456" lon="10.520296233123473"><ele>567.5714285714287</ele><time>2026-04-25T07:41:35.999Z</time></trkpt><trkpt lat="43.76955167605314" lon="10.520205478359136"><ele>566.1428571428571</ele><time>2026-04-25T07:41:38.999Z</time></trkpt><trkpt lat="43.769553312497784" lon="10.520105578446598"><ele>564.7142857142858</ele><time>2026-04-25T07:41:41.999Z</time></trkpt><trkpt lat="43.76956089594302" lon="10.519956628057352"><ele>563.2857142857143</ele><time>2026-04-25T07:41:44.999Z</time></trkpt><trkpt lat="43.76955832978942" lon="10.519862534712965"><ele>561.8571428571429</ele><time>2026-04-25T07:41:46.999Z</time></trkpt><trkpt lat="43.76955950131229" lon="10.519773268664773"><ele>560.4285714285714</ele><time>2026-04-25T07:41:48.999Z</time></trkpt><trkpt lat="43.7695611823967" lon="10.519680144736602"><ele>559.0</ele><time>2026-04-25T07:41:50.999Z</time></trkpt><trkpt lat="43.7695588314596" lon="10.519559626663298"><ele>557.3333333333334</ele><time>2026-04-25T07:41:53.999Z</time></trkpt><trkpt lat="43.76955996391" lon="10.519435699234739"><ele>555.6666666666667</ele><time>2026-04-25T07:41:56.999Z</time></trkpt><trkpt lat="43.76955923511463" lon="10.51932122582838"><ele>554.0</ele><time>2026-04-25T07:41:59.999Z</time></trkpt><trkpt lat="43.769556253104156" lon="10.519217093581652"><ele>552.3333333333334</ele><time>2026-04-25T07:42:02.999Z</time></trkpt><trkpt lat="43.76954187018872" lon="10.519105945599305"><ele>550.6666666666666</ele><time>2026-04-25T07:42:06.999Z</time></trkpt><trkpt lat="43.769538026537184" lon="10.518999444831216"><ele>549.0</ele><time>2026-04-25T07:42:08.999Z</time></trkpt><trkpt lat="43.769531119748" lon="10.518866168100553"><ele>549.0</ele><time>2026-04-25T07:42:11.999Z</time></trkpt><trkpt lat="43.769528615187156" lon="10.518756283807324"><ele>549.0</ele><time>2026-04-25T07:42:14.999Z</time></trkpt><trkpt lat="43.769533715232654" lon="10.518636873076884"><ele>549.0</ele><time>2026-04-25T07:42:18.999Z</time></trkpt><trkpt lat="43.7695143117275" lon="10.518530921172552"><ele>549.0</ele><time>2026-04-25T07:42:21.999Z</time></trkpt><trkpt lat="43.76950117299161" lon="10.51843819103757"><ele>549.0</ele><time>2026-04-25T07:42:23.999Z</time></trkpt><trkpt lat="43.769474120452536" lon="10.518346300691894"><ele>549.0</ele><time>2026-04-25T07:42:27.998Z</time></trkpt><trkpt lat="43.76947192878689" lon="10.518228789780645"><ele>548.1666666666666</ele><time>2026-04-25T07:42:31.998Z</time></trkpt><trkpt lat="43.769446629728264" lon="10.518134372776945"><ele>547.3333333333334</ele><time>2026-04-25T07:42:34.998Z</time></trkpt><trkpt lat="43.76943459117537" lon="10.518021093558357"><ele>546.5</ele><time>2026-04-25T07:42:37.998Z</time></trkpt><trkpt lat="43.769445789667145" lon="10.517897944378516"><ele>545.6666666666667</ele><time>2026-04-25T07:42:41.998Z</time></trkpt><trkpt lat="43.7694330247646" lon="10.517775855200494"><ele>544.8333333333334</ele><time>2026-04-25T07:42:45.998Z</time></trkpt><trkpt lat="43.769434271119685" lon="10.517675332978994"><ele>544.0</ele><time>2026-04-25T07:42:57.998Z</time></trkpt><trkpt lat="43.769434774242704" lon="10.51758693427918"><ele>543.3333333333334</ele><time>2026-04-25T07:43:00.998Z</time></trkpt><trkpt lat="43.76943205518869" lon="10.517479579651233"><ele>542.6666666666667</ele><time>2026-04-25T07:43:03.998Z</time></trkpt><trkpt lat="43.76942325219155" lon="10.517372911121301"><ele>542.0</ele><time>2026-04-25T07:43:06.998Z</time></trkpt><trkpt lat="43.76943039683098" lon="10.517281696123487"><ele>541.3333333333334</ele><time>2026-04-25T07:43:08.998Z</time></trkpt><trkpt lat="43.769420691984465" lon="10.517160662722741"><ele>540.6666666666666</ele><time>2026-04-25T07:43:11.998Z</time></trkpt><trkpt lat="43.76941639470293" lon="10.517069693957929"><ele>540.0</ele><time>2026-04-25T07:43:13.998Z</time></trkpt><trkpt lat="43.769403994123294" lon="10.516956659341062"><ele>538.6666666666666</ele><time>2026-04-25T07:43:15.998Z</time></trkpt><trkpt lat="43.769374390580715" lon="10.516863052286268"><ele>537.3333333333334</ele><time>2026-04-25T07:43:17.998Z</time></trkpt><trkpt lat="43.76936875218379" lon="10.516747230921185"><ele>536.0</ele><time>2026-04-25T07:43:20.998Z</time></trkpt><trkpt lat="43.76934529061561" lon="10.516630545046"><ele>534.6666666666667</ele><time>2026-04-25T07:43:24.998Z</time></trkpt><trkpt lat="43.76931717947447" lon="10.51652828792943"><ele>533.3333333333334</ele><time>2026-04-25T07:43:27.998Z</time></trkpt><trkpt lat="43.76927306271919" lon="10.516464155746945"><ele>532.0</ele><time>2026-04-25T07:43:30.998Z</time></trkpt><trkpt lat="43.76923861546055" lon="10.516378338753494"><ele>533.3333333333334</ele><time>2026-04-25T07:43:33.999Z</time></trkpt><trkpt lat="43.76920220065045" lon="10.516279674598014"><ele>534.6666666666667</ele><time>2026-04-25T07:43:36.999Z</time></trkpt><trkpt lat="43.769185911780326" lon="10.51618674622597"><ele>536.0</ele><time>2026-04-25T07:43:38.999Z</time></trkpt><trkpt lat="43.769214113958796" lon="10.51607955882172"><ele>537.3333333333334</ele><time>2026-04-25T07:43:41.999Z</time></trkpt><trkpt lat="43.769284088226414" lon="10.51603135703482"><ele>538.6666666666666</ele><time>2026-04-25T07:43:44.999Z</time></trkpt><trkpt lat="43.76920575075327" lon="10.51608617079102"><ele>540.0</ele><time>2026-04-25T07:45:02.998Z</time></trkpt><trkpt lat="43.76919539818984" lon="10.515963580023064"><ele>540.0</ele><time>2026-04-25T07:45:06.998Z</time></trkpt><trkpt lat="43.76909534767652" lon="10.515773891723011"><ele>540.0</ele><time>2026-04-25T07:45:07.998Z</time></trkpt><trkpt lat="43.76880207677804" lon="10.515837137096037"><ele>540.0</ele><time>2026-04-25T07:45:08.998Z</time></trkpt><trkpt lat="43.76873211618266" lon="10.51579922105502"><ele>540.0</ele><time>2026-04-25T07:45:10.998Z</time></trkpt><trkpt lat="43.76867047333625" lon="10.515748820259981"><ele>540.0</ele><time>2026-04-25T07:45:12.999Z</time></trkpt><trkpt lat="43.76859771052201" lon="10.515705122119021"><ele>540.0</ele><time>2026-04-25T07:45:14.999Z</time></trkpt><trkpt lat="43.768525069134434" lon="10.5156588444699"><ele>540.0</ele><time>2026-04-25T07:45:16.999Z</time></trkpt><trkpt lat="43.76844592397601" lon="10.51563328931525"><ele>540.0</ele><time>2026-04-25T07:45:18.999Z</time></trkpt><trkpt lat="43.768365110758566" lon="10.515682647601807"><ele>540.3333333333334</ele><time>2026-04-25T07:45:20.999Z</time></trkpt><trkpt lat="43.76829126396435" lon="10.515768833786513"><ele>540.6666666666666</ele><time>2026-04-25T07:45:22.999Z</time></trkpt><trkpt lat="43.768237828072785" lon="10.515847776261424"><ele>541.0</ele><time>2026-04-25T07:45:24.999Z</time></trkpt><trkpt lat="43.76819297291146" lon="10.515945483449231"><ele>541.3333333333333</ele><time>2026-04-25T07:45:27.999Z</time></trkpt><trkpt lat="43.76812932384739" lon="10.515914989943985"><ele>541.6666666666666</ele><time>2026-04-25T07:45:30.999Z</time></trkpt><trkpt lat="43.76812485051693" lon="10.515801359949554"><ele>542.0</ele><time>2026-04-25T07:45:33.999Z</time></trkpt><trkpt lat="43.76813898167736" lon="10.515693446634737"><ele>542.0</ele><time>2026-04-25T07:45:35.999Z</time></trkpt><trkpt lat="43.7681460014754" lon="10.515563008840406"><ele>542.0</ele><time>2026-04-25T07:45:37.999Z</time></trkpt><trkpt lat="43.768114907258" lon="10.515390709432111"><ele>542.0</ele><time>2026-04-25T07:45:40Z</time></trkpt><trkpt lat="43.76809441217886" lon="10.515296059669943"><ele>542.0</ele><time>2026-04-25T07:45:41Z</time></trkpt><trkpt lat="43.76808236902566" lon="10.515208587418918"><ele>542.0</ele><time>2026-04-25T07:45:42Z</time></trkpt><trkpt lat="43.768036531042945" lon="10.515069189540327"><ele>540.4285714285714</ele><time>2026-04-25T07:45:44Z</time></trkpt><trkpt lat="43.76800787988472" lon="10.514975504938883"><ele>538.8571428571429</ele><time>2026-04-25T07:45:45Z</time></trkpt><trkpt lat="43.767968851319054" lon="10.51487707025693"><ele>537.2857142857143</ele><time>2026-04-25T07:45:46Z</time></trkpt><trkpt lat="43.76792242935858" lon="10.514787384088695"><ele>535.7142857142858</ele><time>2026-04-25T07:45:47Z</time></trkpt><trkpt lat="43.76788123221651" lon="10.51470386752258"><ele>534.1428571428572</ele><time>2026-04-25T07:45:48Z</time></trkpt><trkpt lat="43.76784586447589" lon="10.51462544978608"><ele>532.5714285714286</ele><time>2026-04-25T07:45:49Z</time></trkpt><trkpt lat="43.76781600294358" lon="10.514545541558714"><ele>531.0</ele><time>2026-04-25T07:45:50Z</time></trkpt><trkpt lat="43.767744048542184" lon="10.514391162973723"><ele>530.6</ele><time>2026-04-25T07:45:52Z</time></trkpt><trkpt lat="43.76772187569801" lon="10.514298983466524"><ele>530.2</ele><time>2026-04-25T07:45:53Z</time></trkpt><trkpt lat="43.767701032012674" lon="10.514135898616722"><ele>529.8</ele><time>2026-04-25T07:45:55Z</time></trkpt><trkpt lat="43.767639690320706" lon="10.51399591082001"><ele>529.4</ele><time>2026-04-25T07:45:57Z</time></trkpt><trkpt lat="43.7675865354892" lon="10.513890777191618"><ele>529.0</ele><time>2026-04-25T07:45:59Z</time></trkpt><trkpt lat="43.76754589447734" lon="10.513792915343796"><ele>526.5714285714286</ele><time>2026-04-25T07:46:15Z</time></trkpt><trkpt lat="43.767493901549166" lon="10.513711072734441"><ele>524.1428571428571</ele><time>2026-04-25T07:46:17Z</time></trkpt><trkpt lat="43.767443837529115" lon="10.513653200470037"><ele>521.7142857142857</ele><time>2026-04-25T07:46:19Z</time></trkpt><trkpt lat="43.767391729408956" lon="10.51358370216604"><ele>519.2857142857142</ele><time>2026-04-25T07:46:22Z</time></trkpt><trkpt lat="43.767338528268084" lon="10.513525289256373"><ele>516.8571428571428</ele><time>2026-04-25T07:46:25Z</time></trkpt><trkpt lat="43.76728320926005" lon="10.51346859356601"><ele>514.4285714285714</ele><time>2026-04-25T07:46:27Z</time></trkpt><trkpt lat="43.7672189680453" lon="10.513435108747805"><ele>512.0</ele><time>2026-04-25T07:46:29Z</time></trkpt><trkpt lat="43.7671249100952" lon="10.513402981132995"><ele>511.99999999999994</ele><time>2026-04-25T07:46:32Z</time></trkpt><trkpt lat="43.76704240591536" lon="10.51340298377573"><ele>512.0</ele><time>2026-04-25T07:46:35Z</time></trkpt><trkpt lat="43.766953901127465" lon="10.513420134272502"><ele>512.0</ele><time>2026-04-25T07:46:38Z</time></trkpt><trkpt lat="43.76687044004686" lon="10.513455863725357"><ele>512.0</ele><time>2026-04-25T07:46:41Z</time></trkpt><trkpt lat="43.766787430982205" lon="10.513504687118191"><ele>511.99999999999994</ele><time>2026-04-25T07:46:44Z</time></trkpt><trkpt lat="43.76672190079291" lon="10.51353835193293"><ele>512.0</ele><time>2026-04-25T07:46:46Z</time></trkpt><trkpt lat="43.7666408657259" lon="10.51359330127721"><ele>511.16666666666663</ele><time>2026-04-25T07:46:49Z</time></trkpt><trkpt lat="43.766581500761546" lon="10.513646958616343"><ele>510.3333333333333</ele><time>2026-04-25T07:46:51Z</time></trkpt><trkpt lat="43.76649496429737" lon="10.513714709773748"><ele>509.5</ele><time>2026-04-25T07:46:52.999Z</time></trkpt><trkpt lat="43.7664295002602" lon="10.51377294440087"><ele>508.66666666666663</ele><time>2026-04-25T07:46:55.999Z</time></trkpt><trkpt lat="43.766365262951254" lon="10.513769364424252"><ele>507.8333333333333</ele><time>2026-04-25T07:46:58.999Z</time></trkpt><trkpt lat="43.766326899648" lon="10.513653875016592"><ele>507.0</ele><time>2026-04-25T07:47:01.999Z</time></trkpt><trkpt lat="43.76636869211085" lon="10.51351917118149"><ele>507.0</ele><time>2026-04-25T07:47:04.999Z</time></trkpt><trkpt lat="43.76634712311686" lon="10.51334388089066"><ele>507.0</ele><time>2026-04-25T07:47:06.999Z</time></trkpt><trkpt lat="43.76631474283279" lon="10.513177159116605"><ele>507.0</ele><time>2026-04-25T07:47:08.999Z</time></trkpt><trkpt lat="43.76631185843435" lon="10.513005375393181"><ele>507.0</ele><time>2026-04-25T07:47:10.999Z</time></trkpt><trkpt lat="43.766298196954814" lon="10.51284535596183"><ele>506.3333333333333</ele><time>2026-04-25T07:47:12.999Z</time></trkpt><trkpt lat="43.76630013395596" lon="10.512694571994308"><ele>505.66666666666663</ele><time>2026-04-25T07:47:14.999Z</time></trkpt><trkpt lat="43.7662954529426" lon="10.512576821513456"><ele>505.0</ele><time>2026-04-25T07:47:16.999Z</time></trkpt><trkpt lat="43.76625701457583" lon="10.512505345398905"><ele>504.3333333333333</ele><time>2026-04-25T07:47:18.999Z</time></trkpt><trkpt lat="43.76619532777531" lon="10.512457972483594"><ele>503.66666666666663</ele><time>2026-04-25T07:47:20.999Z</time></trkpt><trkpt lat="43.76611363516203" lon="10.512415259998413"><ele>503.0</ele><time>2026-04-25T07:47:32.999Z</time></trkpt><trkpt lat="43.76601755327402" lon="10.512387282360711"><ele>502.99999999999994</ele><time>2026-04-25T07:47:39.999Z</time></trkpt><trkpt lat="43.76595274172761" lon="10.51237798956834"><ele>503.0</ele><time>2026-04-25T07:47:41.999Z</time></trkpt><trkpt lat="43.76586889376091" lon="10.512356080388706"><ele>503.0</ele><time>2026-04-25T07:47:45Z</time></trkpt><trkpt lat="43.76577331373068" lon="10.512298344991128"><ele>503.0</ele><time>2026-04-25T07:47:48Z</time></trkpt><trkpt lat="43.76570532923864" lon="10.512212393234758"><ele>502.99999999999994</ele><time>2026-04-25T07:47:50Z</time></trkpt><trkpt lat="43.765651265515416" lon="10.512108846562235"><ele>503.0</ele><time>2026-04-25T07:47:52Z</time></trkpt><trkpt lat="43.76559705668787" lon="10.511991438373894"><ele>500.66666666666663</ele><time>2026-04-25T07:47:55Z</time></trkpt><trkpt lat="43.765560709631394" lon="10.51191349671967"><ele>498.3333333333333</ele><time>2026-04-25T07:47:57Z</time></trkpt><trkpt lat="43.76553411402181" lon="10.511795884244194"><ele>496.0</ele><time>2026-04-25T07:47:59Z</time></trkpt><trkpt lat="43.76548172234024" lon="10.51170753152833"><ele>493.66666666666663</ele><time>2026-04-25T07:48:02Z</time></trkpt><trkpt lat="43.765420975966954" lon="10.511632403448708"><ele>491.3333333333333</ele><time>2026-04-25T07:48:04Z</time></trkpt><trkpt lat="43.765344495419214" lon="10.511570518079917"><ele>489.0</ele><time>2026-04-25T07:48:06Z</time></trkpt><trkpt lat="43.765275154202776" lon="10.511501731168698"><ele>489.0</ele><time>2026-04-25T07:48:08Z</time></trkpt><trkpt lat="43.76519819951364" lon="10.511467897481815"><ele>489.0</ele><time>2026-04-25T07:48:10Z</time></trkpt><trkpt lat="43.765125075771614" lon="10.511422172875221"><ele>489.0</ele><time>2026-04-25T07:48:12Z</time></trkpt><trkpt lat="43.765024827257804" lon="10.5113518267892"><ele>489.0</ele><time>2026-04-25T07:48:14Z</time></trkpt><trkpt lat="43.764931037888395" lon="10.511292920693664"><ele>489.0</ele><time>2026-04-25T07:48:16Z</time></trkpt><trkpt lat="43.764849157193645" lon="10.511245600567753"><ele>486.4</ele><time>2026-04-25T07:48:18Z</time></trkpt><trkpt lat="43.7647639295982" lon="10.511185535062562"><ele>483.79999999999995</ele><time>2026-04-25T07:48:20Z</time></trkpt><trkpt lat="43.76468228040259" lon="10.511146659131034"><ele>481.20000000000005</ele><time>2026-04-25T07:48:22Z</time></trkpt><trkpt lat="43.764601033322194" lon="10.511116292282635"><ele>478.6</ele><time>2026-04-25T07:48:24Z</time></trkpt><trkpt lat="43.76451242146969" lon="10.511074693331569"><ele>476.0</ele><time>2026-04-25T07:48:26Z</time></trkpt><trkpt lat="43.76442432545813" lon="10.51103288975424"><ele>477.49999999999994</ele><time>2026-04-25T07:48:28Z</time></trkpt><trkpt lat="43.764347969477285" lon="10.510977571788258"><ele>479.0</ele><time>2026-04-25T07:48:30Z</time></trkpt><trkpt lat="43.76427845151075" lon="10.510936631467482"><ele>480.5</ele><time>2026-04-25T07:48:31.999Z</time></trkpt><trkpt lat="43.764208111332586" lon="10.51088871508966"><ele>482.0</ele><time>2026-04-25T07:48:33.999Z</time></trkpt><trkpt lat="43.76414591403075" lon="10.510817289156254"><ele>483.49999999999994</ele><time>2026-04-25T07:48:35.999Z</time></trkpt><trkpt lat="43.76408575243491" lon="10.510742431194847"><ele>485.0</ele><time>2026-04-25T07:48:38.999Z</time></trkpt><trkpt lat="43.764070993328815" lon="10.510655656014045"><ele>484.99999999999994</ele><time>2026-04-25T07:48:41.999Z</time></trkpt><trkpt lat="43.76407167533661" lon="10.510554051196369"><ele>485.0</ele><time>2026-04-25T07:48:44.999Z</time></trkpt><trkpt lat="43.76412254739743" lon="10.51046188480791"><ele>485.0</ele><time>2026-04-25T07:48:47.999Z</time></trkpt><trkpt lat="43.7641345245238" lon="10.510351712569125"><ele>485.0</ele><time>2026-04-25T07:48:59.999Z</time></trkpt><trkpt lat="43.76411344202026" lon="10.510250761725379"><ele>484.99999999999994</ele><time>2026-04-25T07:49:02.999Z</time></trkpt><trkpt lat="43.764076358520185" lon="10.510158553923535"><ele>485.0</ele><time>2026-04-25T07:49:05.999Z</time></trkpt><trkpt lat="43.7640025259496" lon="10.510080010391249"><ele>482.6</ele><time>2026-04-25T07:49:08.999Z</time></trkpt><trkpt lat="43.76392323405286" lon="10.509989406104882"><ele>480.2</ele><time>2026-04-25T07:49:10.999Z</time></trkpt><trkpt lat="43.76384523521243" lon="10.509895142967899"><ele>477.79999999999995</ele><time>2026-04-25T07:49:12.999Z</time></trkpt><trkpt lat="43.76377542979486" lon="10.509809096348091"><ele>475.4</ele><time>2026-04-25T07:49:14.999Z</time></trkpt><trkpt lat="43.763724279598385" lon="10.509699618336981"><ele>473.0</ele><time>2026-04-25T07:49:16.999Z</time></trkpt><trkpt lat="43.76370815299644" lon="10.509579242733112"><ele>473.49999999999994</ele><time>2026-04-25T07:49:18.999Z</time></trkpt><trkpt lat="43.76367146775984" lon="10.509419998276764"><ele>474.0</ele><time>2026-04-25T07:49:20.999Z</time></trkpt><trkpt lat="43.76362743230654" lon="10.509334571514781"><ele>474.5</ele><time>2026-04-25T07:49:21.999Z</time></trkpt><trkpt lat="43.763568052297764" lon="10.509224024560767"><ele>475.0</ele><time>2026-04-25T07:49:23.999Z</time></trkpt><trkpt lat="43.76351453833556" lon="10.50917323022056"><ele>475.49999999999994</ele><time>2026-04-25T07:49:25.999Z</time></trkpt><trkpt lat="43.76343204350139" lon="10.50917213667665"><ele>476.0</ele><time>2026-04-25T07:49:27.999Z</time></trkpt><trkpt lat="43.76334113101365" lon="10.509191264339144"><ele>475.99999999999994</ele><time>2026-04-25T07:49:29.999Z</time></trkpt><trkpt lat="43.76327467473161" lon="10.509122927832644"><ele>476.0</ele><time>2026-04-25T07:49:32.999Z</time></trkpt><trkpt lat="43.76320750003721" lon="10.509059361664761"><ele>476.0</ele><time>2026-04-25T07:49:34.999Z</time></trkpt><trkpt lat="43.76313391405981" lon="10.50900109959185"><ele>476.0</ele><time>2026-04-25T07:49:36.998Z</time></trkpt><trkpt lat="43.76305125921743" lon="10.50892946837616"><ele>475.99999999999994</ele><time>2026-04-25T07:49:38.998Z</time></trkpt><trkpt lat="43.762971715450455" lon="10.508861347831187"><ele>476.0</ele><time>2026-04-25T07:49:41.998Z</time></trkpt><trkpt lat="43.76287845449061" lon="10.508802174645853"><ele>476.0</ele><time>2026-04-25T07:49:43.998Z</time></trkpt><trkpt lat="43.76279658530328" lon="10.508770804245456"><ele>476.0</ele><time>2026-04-25T07:49:45.998Z</time></trkpt><trkpt lat="43.762710847287856" lon="10.508723816659256"><ele>476.0</ele><time>2026-04-25T07:49:47.998Z</time></trkpt><trkpt lat="43.762615837220295" lon="10.508685313526824"><ele>476.0</ele><time>2026-04-25T07:49:50Z</time></trkpt><trkpt lat="43.76251141846982" lon="10.508648532393304"><ele>476.0</ele><time>2026-04-25T07:49:52Z</time></trkpt><trkpt lat="43.76242180456882" lon="10.508630479968478"><ele>477.20000000000005</ele><time>2026-04-25T07:49:54Z</time></trkpt><trkpt lat="43.76234657959085" lon="10.508559445349219"><ele>478.40000000000003</ele><time>2026-04-25T07:49:56Z</time></trkpt><trkpt lat="43.76230325928207" lon="10.508439291716925"><ele>479.6</ele><time>2026-04-25T07:49:58Z</time></trkpt><trkpt lat="43.76224801518219" lon="10.508331138636526"><ele>480.8</ele><time>2026-04-25T07:50:00Z</time></trkpt><trkpt lat="43.76218566114118" lon="10.508208497746047"><ele>482.0</ele><time>2026-04-25T07:50:02Z</time></trkpt><trkpt lat="43.76213128668396" lon="10.508108988158506"><ele>482.0</ele><time>2026-04-25T07:50:04.001Z</time></trkpt><trkpt lat="43.76206473298438" lon="10.508040950627095"><ele>482.00000000000006</ele><time>2026-04-25T07:50:06.001Z</time></trkpt><trkpt lat="43.76200655714712" lon="10.507989987851042"><ele>482.00000000000006</ele><time>2026-04-25T07:50:07Z</time></trkpt><trkpt lat="43.761925613496864" lon="10.507908354120127"><ele>482.0</ele><time>2026-04-25T07:50:08Z</time></trkpt><trkpt lat="43.76185353357404" lon="10.507836942683454"><ele>482.0</ele><time>2026-04-25T07:50:10Z</time></trkpt><trkpt lat="43.76172926387978" lon="10.507788204828937"><ele>483.20000000000005</ele><time>2026-04-25T07:50:12Z</time></trkpt><trkpt lat="43.761627194328874" lon="10.507769260224478"><ele>484.40000000000003</ele><time>2026-04-25T07:50:13Z</time></trkpt><trkpt lat="43.76155598432078" lon="10.50775333065439"><ele>485.59999999999997</ele><time>2026-04-25T07:50:14Z</time></trkpt><trkpt lat="43.7614980956871" lon="10.507693003860789"><ele>486.79999999999995</ele><time>2026-04-25T07:50:17Z</time></trkpt><trkpt lat="43.76140453287453" lon="10.507608104740989"><ele>488.0</ele><time>2026-04-25T07:50:19Z</time></trkpt><trkpt lat="43.7613207150597" lon="10.507521013500812"><ele>488.0</ele><time>2026-04-25T07:50:21Z</time></trkpt><trkpt lat="43.76126412388778" lon="10.507395060253579"><ele>487.99999999999994</ele><time>2026-04-25T07:50:23Z</time></trkpt><trkpt lat="43.761199079202726" lon="10.507263124021364"><ele>487.99999999999994</ele><time>2026-04-25T07:50:25Z</time></trkpt><trkpt lat="43.76111481253851" lon="10.507128144524962"><ele>488.0</ele><time>2026-04-25T07:50:27Z</time></trkpt><trkpt lat="43.761051679849054" lon="10.507052886168252"><ele>488.0</ele><time>2026-04-25T07:50:28Z</time></trkpt><trkpt lat="43.76099734286928" lon="10.506981793240639"><ele>489.16666666666663</ele><time>2026-04-25T07:50:29Z</time></trkpt><trkpt lat="43.76096814751002" lon="10.506881137441146"><ele>490.3333333333333</ele><time>2026-04-25T07:50:31Z</time></trkpt><trkpt lat="43.76099246182957" lon="10.506748411312206"><ele>491.5</ele><time>2026-04-25T07:50:34Z</time></trkpt><trkpt lat="43.761015060269784" lon="10.506662080114406"><ele>492.66666666666663</ele><time>2026-04-25T07:50:37Z</time></trkpt><trkpt lat="43.76106633969953" lon="10.506597656370964"><ele>493.8333333333333</ele><time>2026-04-25T07:50:41Z</time></trkpt><trkpt lat="43.76114409528559" lon="10.506595664675782"><ele>495.0</ele><time>2026-04-25T07:50:43Z</time></trkpt><trkpt lat="43.76120321586765" lon="10.506626908484598"><ele>495.0</ele><time>2026-04-25T07:50:44Z</time></trkpt><trkpt lat="43.76129295601158" lon="10.506625137589355"><ele>495.0</ele><time>2026-04-25T07:50:46Z</time></trkpt><trkpt lat="43.76140086322159" lon="10.506598954159644"><ele>495.0</ele><time>2026-04-25T07:50:48Z</time></trkpt><trkpt lat="43.76146953211417" lon="10.506592194264895"><ele>495.0</ele><time>2026-04-25T07:50:49Z</time></trkpt><trkpt lat="43.76153015908948" lon="10.506557243495722"><ele>495.0</ele><time>2026-04-25T07:50:50Z</time></trkpt><trkpt lat="43.76160722037225" lon="10.506530260212505"><ele>495.0</ele><time>2026-04-25T07:50:51Z</time></trkpt><trkpt lat="43.76167527992596" lon="10.506526417331918"><ele>495.0</ele><time>2026-04-25T07:50:52Z</time></trkpt><trkpt lat="43.761756053236326" lon="10.506528435370127"><ele>495.0</ele><time>2026-04-25T07:50:53Z</time></trkpt><trkpt lat="43.7618237435037" lon="10.506521864703343"><ele>495.0</ele><time>2026-04-25T07:50:54Z</time></trkpt><trkpt lat="43.76188903273275" lon="10.506526651566354"><ele>495.0</ele><time>2026-04-25T07:50:56Z</time></trkpt><trkpt lat="43.761983474888005" lon="10.506535227614235"><ele>495.0</ele><time>2026-04-25T07:50:58Z</time></trkpt><trkpt lat="43.76207158048628" lon="10.506545546341432"><ele>495.0</ele><time>2026-04-25T07:51:01Z</time></trkpt><trkpt lat="43.76217160460576" lon="10.50654346558536"><ele>494.6</ele><time>2026-04-25T07:51:03Z</time></trkpt><trkpt lat="43.76229688110624" lon="10.506487958217424"><ele>494.2</ele><time>2026-04-25T07:51:05Z</time></trkpt><trkpt lat="43.76235867465408" lon="10.506449941592699"><ele>493.79999999999995</ele><time>2026-04-25T07:51:06Z</time></trkpt><trkpt lat="43.76243379198888" lon="10.50640855985164"><ele>493.4</ele><time>2026-04-25T07:51:08Z</time></trkpt><trkpt lat="43.76251487040859" lon="10.506370088036189"><ele>493.0</ele><time>2026-04-25T07:51:10Z</time></trkpt><trkpt lat="43.76260985744335" lon="10.506314806488401"><ele>496.00000000000006</ele><time>2026-04-25T07:51:12Z</time></trkpt><trkpt lat="43.76268729210293" lon="10.506243912389065"><ele>499.0</ele><time>2026-04-25T07:51:14Z</time></trkpt><trkpt lat="43.76274173084959" lon="10.506196421245434"><ele>502.0</ele><time>2026-04-25T07:51:15Z</time></trkpt><trkpt lat="43.7627988827632" lon="10.506157719195173"><ele>505.0</ele><time>2026-04-25T07:51:16Z</time></trkpt><trkpt lat="43.76285643172473" lon="10.50606855644696"><ele>508.00000000000006</ele><time>2026-04-25T07:51:18Z</time></trkpt><trkpt lat="43.762935605730746" lon="10.505957773063315"><ele>511.0</ele><time>2026-04-25T07:51:20Z</time></trkpt><trkpt lat="43.763013191594965" lon="10.505951058252649"><ele>512.3333333333334</ele><time>2026-04-25T07:51:22.999Z</time></trkpt><trkpt lat="43.76306525777077" lon="10.506035258926547"><ele>513.6666666666667</ele><time>2026-04-25T07:51:25.999Z</time></trkpt><trkpt lat="43.76309573773732" lon="10.506128409769326"><ele>515.0</ele><time>2026-04-25T07:51:27.999Z</time></trkpt><trkpt lat="43.7631276696747" lon="10.506238277101712"><ele>516.3333333333334</ele><time>2026-04-25T07:51:29.999Z</time></trkpt><trkpt lat="43.76317566453023" lon="10.506359544714224"><ele>517.6666666666666</ele><time>2026-04-25T07:51:31.999Z</time></trkpt><trkpt lat="43.76323651596989" lon="10.506464733547656"><ele>519.0</ele><time>2026-04-25T07:51:33.999Z</time></trkpt><trkpt lat="43.76328841320277" lon="10.506593481633681"><ele>520.25</ele><time>2026-04-25T07:51:35.999Z</time></trkpt><trkpt lat="43.76338809104431" lon="10.506675492441081"><ele>521.5</ele><time>2026-04-25T07:51:37.999Z</time></trkpt><trkpt lat="43.763500910975154" lon="10.50672197958552"><ele>522.75</ele><time>2026-04-25T07:51:39.999Z</time></trkpt><trkpt lat="43.763610596241044" lon="10.50677719474808"><ele>524.0</ele><time>2026-04-25T07:51:41.999Z</time></trkpt><trkpt lat="43.76372026431029" lon="10.506816513892675"><ele>524.0</ele><time>2026-04-25T07:51:43.999Z</time></trkpt><trkpt lat="43.76383301509575" lon="10.506874740662198"><ele>524.0</ele><time>2026-04-25T07:51:45.999Z</time></trkpt><trkpt lat="43.76394093695063" lon="10.506965057006836"><ele>524.0</ele><time>2026-04-25T07:51:47.999Z</time></trkpt><trkpt lat="43.76400616067927" lon="10.506990227584307"><ele>524.0</ele><time>2026-04-25T07:51:48.999Z</time></trkpt><trkpt lat="43.76407614691203" lon="10.507022664394844"><ele>524.0</ele><time>2026-04-25T07:51:49.999Z</time></trkpt><trkpt lat="43.76415493132771" lon="10.507051970646888"><ele>524.6666666666666</ele><time>2026-04-25T07:51:50.999Z</time></trkpt><trkpt lat="43.76423157373837" lon="10.507077829641782"><ele>525.3333333333333</ele><time>2026-04-25T07:51:51.999Z</time></trkpt><trkpt lat="43.764329460658814" lon="10.50710217363191"><ele>526.0</ele><time>2026-04-25T07:51:52.999Z</time></trkpt><trkpt lat="43.76442817040876" lon="10.507113158190164"><ele>526.6666666666666</ele><time>2026-04-25T07:51:53.999Z</time></trkpt><trkpt lat="43.76449373069942" lon="10.507111774960798"><ele>527.3333333333334</ele><time>2026-04-25T07:51:54.999Z</time></trkpt><trkpt lat="43.76458535923793" lon="10.50708797880224"><ele>528.0</ele><time>2026-04-25T07:51:57.001Z</time></trkpt><trkpt lat="43.76468267672804" lon="10.507021257961526"><ele>528.0</ele><time>2026-04-25T07:51:59.001Z</time></trkpt><trkpt lat="43.764751105105" lon="10.50691137446393"><ele>528.0</ele><time>2026-04-25T07:52:01.001Z</time></trkpt><trkpt lat="43.764800624364774" lon="10.506856498730997"><ele>528.0</ele><time>2026-04-25T07:52:02.001Z</time></trkpt><trkpt lat="43.76491075453506" lon="10.506828312686059"><ele>528.0</ele><time>2026-04-25T07:52:04.001Z</time></trkpt><trkpt lat="43.764982123191416" lon="10.506851373910465"><ele>528.0</ele><time>2026-04-25T07:52:05.001Z</time></trkpt><trkpt lat="43.76506518571393" lon="10.50688604181668"><ele>528.0</ele><time>2026-04-25T07:52:06.001Z</time></trkpt><trkpt lat="43.76515646104796" lon="10.506896301470503"><ele>527.1999999999999</ele><time>2026-04-25T07:52:07.001Z</time></trkpt><trkpt lat="43.76525018529711" lon="10.506891797740492"><ele>526.4</ele><time>2026-04-25T07:52:08.001Z</time></trkpt><trkpt lat="43.76535784733877" lon="10.506871301200496"><ele>525.5999999999999</ele><time>2026-04-25T07:52:09.001Z</time></trkpt><trkpt lat="43.76547462321931" lon="10.506859156594087"><ele>524.8</ele><time>2026-04-25T07:52:10.001Z</time></trkpt><trkpt lat="43.765569811531805" lon="10.506835896261876"><ele>524.0</ele><time>2026-04-25T07:52:11.001Z</time></trkpt><trkpt lat="43.76567590295202" lon="10.506816091261449"><ele>524.0</ele><time>2026-04-25T07:52:13.001Z</time></trkpt><trkpt lat="43.76574856114115" lon="10.506773137330036"><ele>524.0</ele><time>2026-04-25T07:52:15.001Z</time></trkpt><trkpt lat="43.765833112737106" lon="10.506674630875647"><ele>524.0</ele><time>2026-04-25T07:52:17.001Z</time></trkpt><trkpt lat="43.76587748755863" lon="10.506548507948715"><ele>524.0</ele><time>2026-04-25T07:52:19.001Z</time></trkpt><trkpt lat="43.76584375891284" lon="10.50641802049742"><ele>524.0</ele><time>2026-04-25T07:52:38Z</time></trkpt><trkpt lat="43.765772600753124" lon="10.50629439825941"><ele>524.0</ele><time>2026-04-25T07:52:40Z</time></trkpt><trkpt lat="43.76572995858084" lon="10.506201800148164"><ele>524.0</ele><time>2026-04-25T07:52:41Z</time></trkpt><trkpt lat="43.765688204132246" lon="10.506095953418534"><ele>524.0</ele><time>2026-04-25T07:52:42Z</time></trkpt><trkpt lat="43.76566538030472" lon="10.505987351053703"><ele>524.0</ele><time>2026-04-25T07:52:43Z</time></trkpt><trkpt lat="43.765639804822094" lon="10.505884160213817"><ele>524.0</ele><time>2026-04-25T07:52:44Z</time></trkpt><trkpt lat="43.76561989284397" lon="10.505749347331669"><ele>524.0</ele><time>2026-04-25T07:52:46Z</time></trkpt><trkpt lat="43.76562208012008" lon="10.505609159630348"><ele>524.0</ele><time>2026-04-25T07:52:48Z</time></trkpt><trkpt lat="43.76567337510389" lon="10.505483013910151"><ele>524.0</ele><time>2026-04-25T07:52:50Z</time></trkpt><trkpt lat="43.76570455304263" lon="10.505322923272294"><ele>524.0</ele><time>2026-04-25T07:52:52Z</time></trkpt><trkpt lat="43.76571286871136" lon="10.50523364262785"><ele>524.0</ele><time>2026-04-25T07:52:53Z</time></trkpt><trkpt lat="43.765705818089266" lon="10.505144535733736"><ele>524.0</ele><time>2026-04-25T07:52:54Z</time></trkpt><trkpt lat="43.76568730970176" lon="10.50504135160242"><ele>524.0</ele><time>2026-04-25T07:52:55Z</time></trkpt><trkpt lat="43.76565895169617" lon="10.504933082596947"><ele>524.2</ele><time>2026-04-25T07:52:56Z</time></trkpt><trkpt lat="43.7656518060121" lon="10.504802098817866"><ele>524.4</ele><time>2026-04-25T07:52:57Z</time></trkpt><trkpt lat="43.76565490884293" lon="10.50466323108058"><ele>524.6</ele><time>2026-04-25T07:52:58Z</time></trkpt><trkpt lat="43.76567434728293" lon="10.504577356395075"><ele>524.8</ele><time>2026-04-25T07:52:59Z</time></trkpt><trkpt lat="43.76566548029027" lon="10.504440891413525"><ele>525.0</ele><time>2026-04-25T07:53:01Z</time></trkpt><trkpt lat="43.765608767958234" lon="10.504283062445303"><ele>525.5</ele><time>2026-04-25T07:53:03Z</time></trkpt><trkpt lat="43.76557135367514" lon="10.504192934589058"><ele>526.0</ele><time>2026-04-25T07:53:04Z</time></trkpt><trkpt lat="43.76553713856165" lon="10.504075018327613"><ele>526.5</ele><time>2026-04-25T07:53:06Z</time></trkpt><trkpt lat="43.765545135569226" lon="10.503983200797878"><ele>527.0</ele><time>2026-04-25T07:53:08Z</time></trkpt><trkpt lat="43.76559875583729" lon="10.503887508720153"><ele>527.5</ele><time>2026-04-25T07:53:10Z</time></trkpt><trkpt lat="43.76570430615824" lon="10.503808001592795"><ele>528.0</ele><time>2026-04-25T07:53:12Z</time></trkpt><trkpt lat="43.76575756178298" lon="10.503748763668538"><ele>527.4285714285714</ele><time>2026-04-25T07:53:13Z</time></trkpt><trkpt lat="43.76579687572221" lon="10.503669824130096"><ele>526.8571428571429</ele><time>2026-04-25T07:53:14Z</time></trkpt><trkpt lat="43.7658285480857" lon="10.503583837389142"><ele>526.2857142857143</ele><time>2026-04-25T07:53:15Z</time></trkpt><trkpt lat="43.7658564639061" lon="10.50349866854401"><ele>525.7142857142858</ele><time>2026-04-25T07:53:16Z</time></trkpt><trkpt lat="43.765895770945406" lon="10.503397683880985"><ele>525.1428571428572</ele><time>2026-04-25T07:53:17Z</time></trkpt><trkpt lat="43.7659544092117" lon="10.503316221140013"><ele>524.5714285714286</ele><time>2026-04-25T07:53:18Z</time></trkpt><trkpt lat="43.765999710941614" lon="10.503241532026793"><ele>524.0</ele><time>2026-04-25T07:53:19Z</time></trkpt><trkpt lat="43.766049944429376" lon="10.503155588109335"><ele>524.0</ele><time>2026-04-25T07:53:21Z</time></trkpt><trkpt lat="43.76616192265904" lon="10.50307165018236"><ele>524.0</ele><time>2026-04-25T07:53:24Z</time></trkpt><trkpt lat="43.76622700727493" lon="10.503021915710136"><ele>524.0</ele><time>2026-04-25T07:53:24.999Z</time></trkpt><trkpt lat="43.76627245572578" lon="10.502949291017911"><ele>524.0</ele><time>2026-04-25T07:54:19.001Z</time></trkpt><trkpt lat="43.76622502411464" lon="10.502880256753953"><ele>524.0</ele><time>2026-04-25T07:55:09Z</time></trkpt><trkpt lat="43.76615824695104" lon="10.502880659684335"><ele>524.0</ele><time>2026-04-25T07:55:11Z</time></trkpt><trkpt lat="43.766091226926015" lon="10.502874206121104"><ele>527.3333333333333</ele><time>2026-04-25T07:55:13Z</time></trkpt><trkpt lat="43.765972469143755" lon="10.502869205255301"><ele>530.6666666666666</ele><time>2026-04-25T07:55:15Z</time></trkpt><trkpt lat="43.765903608899485" lon="10.502932979567118"><ele>534.0</ele><time>2026-04-25T07:55:17Z</time></trkpt><trkpt lat="43.765842397230294" lon="10.50300787575319"><ele>537.3333333333334</ele><time>2026-04-25T07:55:19Z</time></trkpt><trkpt lat="43.76579534349398" lon="10.503096705910266"><ele>540.6666666666667</ele><time>2026-04-25T07:55:20.999Z</time></trkpt><trkpt lat="43.76574471868049" lon="10.503158717622226"><ele>544.0</ele><time>2026-04-25T07:55:22.999Z</time></trkpt><trkpt lat="43.76566256513393" lon="10.50321756484652"><ele>544.0</ele><time>2026-04-25T07:55:24.999Z</time></trkpt><trkpt lat="43.76556751683194" lon="10.503318566125849"><ele>544.0</ele><time>2026-04-25T07:55:26.999Z</time></trkpt><trkpt lat="43.76548566299445" lon="10.50337762721442"><ele>544.0</ele><time>2026-04-25T07:55:28.999Z</time></trkpt><trkpt lat="43.765373784076864" lon="10.503421984024156"><ele>544.0</ele><time>2026-04-25T07:55:30.999Z</time></trkpt><trkpt lat="43.765274295895715" lon="10.503445006109827"><ele>544.0</ele><time>2026-04-25T07:55:32.999Z</time></trkpt><trkpt lat="43.76515893974727" lon="10.503469272924317"><ele>549.75</ele><time>2026-04-25T07:55:34.999Z</time></trkpt><trkpt lat="43.76504837982659" lon="10.503492964475008"><ele>555.5</ele><time>2026-04-25T07:55:36.999Z</time></trkpt><trkpt lat="43.764943320599556" lon="10.503534374427828"><ele>561.25</ele><time>2026-04-25T07:55:38.999Z</time></trkpt><trkpt lat="43.76476696748809" lon="10.503431454685824"><ele>567.0</ele><time>2026-04-25T07:55:40.999Z</time></trkpt><trkpt lat="43.76473489037444" lon="10.503528734615035"><ele>567.0</ele><time>2026-04-25T07:55:42.999Z</time></trkpt><trkpt lat="43.76466877225976" lon="10.503599646713035"><ele>567.0</ele><time>2026-04-25T07:55:45.999Z</time></trkpt><trkpt lat="43.76459781265081" lon="10.503552522093527"><ele>567.0</ele><time>2026-04-25T07:56:01.999Z</time></trkpt><trkpt lat="43.76452877014217" lon="10.503507026104401"><ele>567.0</ele><time>2026-04-25T07:56:03.999Z</time></trkpt><trkpt lat="43.764449548046535" lon="10.503442283024027"><ele>567.0</ele><time>2026-04-25T07:56:05.999Z</time></trkpt><trkpt lat="43.764345505408265" lon="10.50338638689428"><ele>567.0</ele><time>2026-04-25T07:56:08.001Z</time></trkpt><trkpt lat="43.76425470256338" lon="10.50331765978837"><ele>567.3333333333334</ele><time>2026-04-25T07:56:10.001Z</time></trkpt><trkpt lat="43.76414518852389" lon="10.50324642489153"><ele>567.6666666666666</ele><time>2026-04-25T07:56:12.001Z</time></trkpt><trkpt lat="43.764079904579994" lon="10.503258099856344"><ele>568.0</ele><time>2026-04-25T07:56:13.001Z</time></trkpt><trkpt lat="43.764012530756986" lon="10.503259033147836"><ele>568.3333333333333</ele><time>2026-04-25T07:56:14.001Z</time></trkpt><trkpt lat="43.76393378950819" lon="10.503274199531527"><ele>568.6666666666666</ele><time>2026-04-25T07:56:15.001Z</time></trkpt><trkpt lat="43.763843458777934" lon="10.503273059396582"><ele>569.0</ele><time>2026-04-25T07:56:16.001Z</time></trkpt><trkpt lat="43.76376165955487" lon="10.503284108173455"><ele>569.0000000000001</ele><time>2026-04-25T07:56:17.001Z</time></trkpt><trkpt lat="43.763690770280874" lon="10.503288317458143"><ele>569.0</ele><time>2026-04-25T07:56:18.001Z</time></trkpt><trkpt lat="43.76362307242571" lon="10.50328354819419"><ele>569.0</ele><time>2026-04-25T07:56:19.001Z</time></trkpt><trkpt lat="43.76355300744947" lon="10.503264641121993"><ele>569.0</ele><time>2026-04-25T07:56:20.001Z</time></trkpt><trkpt lat="43.763482616189414" lon="10.50323691796766"><ele>569.0</ele><time>2026-04-25T07:56:21.001Z</time></trkpt><trkpt lat="43.7634102151536" lon="10.503203812477263"><ele>569.0000000000001</ele><time>2026-04-25T07:56:22.001Z</time></trkpt><trkpt lat="43.76333793927238" lon="10.503161562127413"><ele>569.0</ele><time>2026-04-25T07:56:23.001Z</time></trkpt><trkpt lat="43.763283902745755" lon="10.503110661512986"><ele>568.0</ele><time>2026-04-25T07:56:24.001Z</time></trkpt><trkpt lat="43.76320327484956" lon="10.503009328541458"><ele>567.0</ele><time>2026-04-25T07:56:26.001Z</time></trkpt><trkpt lat="43.76313515877675" lon="10.50289555824671"><ele>566.0</ele><time>2026-04-25T07:56:28Z</time></trkpt><trkpt lat="43.763061114346044" lon="10.502795612144613"><ele>565.0</ele><time>2026-04-25T07:56:30Z</time></trkpt><trkpt lat="43.762985132062916" lon="10.502698578206932"><ele>564.0</ele><time>2026-04-25T07:56:32Z</time></trkpt><trkpt lat="43.76290126641779" lon="10.502682968535424"><ele>564.0</ele><time>2026-04-25T07:56:35Z</time></trkpt><trkpt lat="43.762848322982535" lon="10.50278419879747"><ele>564.0</ele><time>2026-04-25T07:56:37Z</time></trkpt><trkpt lat="43.76281956626775" lon="10.502940200275017"><ele>564.0</ele><time>2026-04-25T07:56:39Z</time></trkpt><trkpt lat="43.76278317280799" lon="10.503080636301156"><ele>564.0</ele><time>2026-04-25T07:56:41Z</time></trkpt><trkpt lat="43.762738664408275" lon="10.503219813698488"><ele>564.0</ele><time>2026-04-25T07:56:43Z</time></trkpt><trkpt lat="43.76269012851224" lon="10.50330987889434"><ele>566.1666666666666</ele><time>2026-04-25T07:56:46Z</time></trkpt><trkpt lat="43.76262444504074" lon="10.503415871405181"><ele>568.3333333333334</ele><time>2026-04-25T07:56:48Z</time></trkpt><trkpt lat="43.76255007660989" lon="10.50352827841286"><ele>570.5</ele><time>2026-04-25T07:56:50Z</time></trkpt><trkpt lat="43.762482296471525" lon="10.503564515608762"><ele>572.6666666666667</ele><time>2026-04-25T07:56:52Z</time></trkpt><trkpt lat="43.76241022420692" lon="10.50354898698819"><ele>574.8333333333334</ele><time>2026-04-25T07:56:54Z</time></trkpt><trkpt lat="43.762350064692384" lon="10.503517063974025"><ele>577.0</ele><time>2026-04-25T07:56:56Z</time></trkpt><trkpt lat="43.76227207552599" lon="10.50350010507535"><ele>577.0</ele><time>2026-04-25T07:56:58Z</time></trkpt><trkpt lat="43.76219630448479" lon="10.503566471162056"><ele>577.0</ele><time>2026-04-25T07:57:00Z</time></trkpt><trkpt lat="43.76215395076035" lon="10.503634327002969"><ele>577.0</ele><time>2026-04-25T07:57:02Z</time></trkpt><trkpt lat="43.762098187309576" lon="10.503678912311868"><ele>577.0</ele><time>2026-04-25T07:57:04Z</time></trkpt><trkpt lat="43.76203521057826" lon="10.503743442651624"><ele>577.0</ele><time>2026-04-25T07:57:06Z</time></trkpt><trkpt lat="43.76197087981988" lon="10.503838349168857"><ele>577.0</ele><time>2026-04-25T07:57:09Z</time></trkpt><trkpt lat="43.76190447529203" lon="10.503919601395639"><ele>575.0</ele><time>2026-04-25T07:57:11Z</time></trkpt><trkpt lat="43.761841948344625" lon="10.50400053055773"><ele>573.0</ele><time>2026-04-25T07:57:13Z</time></trkpt><trkpt lat="43.761747811057035" lon="10.504095683709314"><ele>571.0</ele><time>2026-04-25T07:57:15Z</time></trkpt><trkpt lat="43.76163490009343" lon="10.504133643745055"><ele>569.0</ele><time>2026-04-25T07:57:16.999Z</time></trkpt><trkpt lat="43.76153368906307" lon="10.504175452550971"><ele>567.0</ele><time>2026-04-25T07:57:18.999Z</time></trkpt><trkpt lat="43.76143930073131" lon="10.504193352108285"><ele>567.0</ele><time>2026-04-25T07:57:20.999Z</time></trkpt><trkpt lat="43.76133863624731" lon="10.504219522218527"><ele>567.0</ele><time>2026-04-25T07:57:22.999Z</time></trkpt><trkpt lat="43.761255026741146" lon="10.504230855835027"><ele>567.0</ele><time>2026-04-25T07:57:24.999Z</time></trkpt><trkpt lat="43.761168420456244" lon="10.504227762710936"><ele>567.0</ele><time>2026-04-25T07:57:26.999Z</time></trkpt><trkpt lat="43.761044957686735" lon="10.50421519754417"><ele>567.0</ele><time>2026-04-25T07:57:28.999Z</time></trkpt><trkpt lat="43.76092808031202" lon="10.50418979400774"><ele>567.4</ele><time>2026-04-25T07:57:30.999Z</time></trkpt><trkpt lat="43.760837616731216" lon="10.504157713958376"><ele>567.8000000000001</ele><time>2026-04-25T07:57:32.999Z</time></trkpt><trkpt lat="43.760780965322304" lon="10.50411419071375"><ele>568.2</ele><time>2026-04-25T07:57:34.999Z</time></trkpt><trkpt lat="43.76069999015295" lon="10.504029048402225"><ele>568.6</ele><time>2026-04-25T07:57:36.999Z</time></trkpt><trkpt lat="43.760617857168995" lon="10.503935956004016"><ele>569.0</ele><time>2026-04-25T07:57:38.999Z</time></trkpt><trkpt lat="43.76054738582904" lon="10.503848082461667"><ele>569.0</ele><time>2026-04-25T07:57:40.999Z</time></trkpt><trkpt lat="43.760494486362745" lon="10.503773581641125"><ele>569.0</ele><time>2026-04-25T07:57:43.999Z</time></trkpt><trkpt lat="43.760443674490325" lon="10.503692408005955"><ele>569.0</ele><time>2026-04-25T07:57:45.999Z</time></trkpt><trkpt lat="43.76038729612748" lon="10.503598103354628"><ele>569.0</ele><time>2026-04-25T07:57:47.999Z</time></trkpt><trkpt lat="43.76031691216045" lon="10.503464861785426"><ele>569.0</ele><time>2026-04-25T07:57:49.999Z</time></trkpt><trkpt lat="43.76027497767833" lon="10.503375992347973"><ele>569.0</ele><time>2026-04-25T07:57:50.999Z</time></trkpt><trkpt lat="43.76023140487904" lon="10.503281738536456"><ele>569.3333333333333</ele><time>2026-04-25T07:57:51.999Z</time></trkpt><trkpt lat="43.76018755838458" lon="10.503186892697125"><ele>569.6666666666666</ele><time>2026-04-25T07:57:52.999Z</time></trkpt><trkpt lat="43.760143967398456" lon="10.50308864752376"><ele>570.0</ele><time>2026-04-25T07:57:53.999Z</time></trkpt><trkpt lat="43.760101464542736" lon="10.502992374549585"><ele>570.3333333333334</ele><time>2026-04-25T07:57:54.999Z</time></trkpt><trkpt lat="43.76006277902642" lon="10.502904487027346"><ele>570.6666666666667</ele><time>2026-04-25T07:57:55.999Z</time></trkpt><trkpt lat="43.76000647404074" lon="10.502783383894172"><ele>571.0</ele><time>2026-04-25T07:57:57.999Z</time></trkpt><trkpt lat="43.75994483988172" lon="10.502646822945898"><ele>574.0</ele><time>2026-04-25T07:57:59.999Z</time></trkpt><trkpt lat="43.75987485937855" lon="10.5024696427001"><ele>577.0</ele><time>2026-04-25T07:58:01.999Z</time></trkpt><trkpt lat="43.75985095209143" lon="10.502355270198152"><ele>580.0</ele><time>2026-04-25T07:58:02.999Z</time></trkpt><trkpt lat="43.75982464770871" lon="10.502257779807353"><ele>583.0</ele><time>2026-04-25T07:58:03.999Z</time></trkpt><trkpt lat="43.75976613185082" lon="10.50215599765835"><ele>586.0</ele><time>2026-04-25T07:58:05.999Z</time></trkpt><trkpt lat="43.759720107452175" lon="10.502071118374904"><ele>589.0</ele><time>2026-04-25T07:58:07.999Z</time></trkpt><trkpt lat="43.75964184603319" lon="10.502017367912563"><ele>592.0</ele><time>2026-04-25T07:58:09.999Z</time></trkpt><trkpt lat="43.75955371030981" lon="10.502001627361967"><ele>595.0</ele><time>2026-04-25T07:58:13Z</time></trkpt><trkpt lat="43.759474816051764" lon="10.501987609436648"><ele>598.0</ele><time>2026-04-25T07:58:15Z</time></trkpt><trkpt lat="43.75939150352632" lon="10.501942108399234"><ele>601.0</ele><time>2026-04-25T07:58:17Z</time></trkpt><trkpt lat="43.7592913615719" lon="10.501830359487359"><ele>601.0</ele><time>2026-04-25T07:58:19Z</time></trkpt><trkpt lat="43.75921145480709" lon="10.501761069598304"><ele>601.0</ele><time>2026-04-25T07:58:21Z</time></trkpt><trkpt lat="43.75909105980805" lon="10.50178357071952"><ele>601.0</ele><time>2026-04-25T07:58:23Z</time></trkpt><trkpt lat="43.75904370925347" lon="10.501882705919533"><ele>601.0</ele><time>2026-04-25T07:58:24Z</time></trkpt><trkpt lat="43.7590515509931" lon="10.502008803084436"><ele>601.0</ele><time>2026-04-25T07:58:25Z</time></trkpt><trkpt lat="43.75909756202079" lon="10.50211243979705"><ele>598.6</ele><time>2026-04-25T07:58:26Z</time></trkpt><trkpt lat="43.759136583289816" lon="10.502265443150636"><ele>596.2</ele><time>2026-04-25T07:58:28Z</time></trkpt><trkpt lat="43.759154428721665" lon="10.502396984646408"><ele>593.8</ele><time>2026-04-25T07:58:30Z</time></trkpt><trkpt lat="43.75915676667533" lon="10.502548044571268"><ele>591.4</ele><time>2026-04-25T07:58:32Z</time></trkpt><trkpt lat="43.759147180622854" lon="10.502637403867087"><ele>589.0</ele><time>2026-04-25T07:58:34Z</time></trkpt><trkpt lat="43.759129539349765" lon="10.502728165525555"><ele>589.0</ele><time>2026-04-25T07:58:37Z</time></trkpt><trkpt lat="43.759105683907286" lon="10.502838104808392"><ele>589.0</ele><time>2026-04-25T07:58:41Z</time></trkpt><trkpt lat="43.75908980634024" lon="10.502923021507508"><ele>589.0</ele><time>2026-04-25T07:58:43Z</time></trkpt><trkpt lat="43.75906001619934" lon="10.503040356510446"><ele>589.0</ele><time>2026-04-25T07:58:45Z</time></trkpt><trkpt lat="43.75902841877623" lon="10.503163927894851"><ele>589.0</ele><time>2026-04-25T07:58:47Z</time></trkpt><trkpt lat="43.759003720153295" lon="10.50327785611503"><ele>589.0</ele><time>2026-04-25T07:58:49Z</time></trkpt><trkpt lat="43.75896599804592" lon="10.503379245201005"><ele>587.5</ele><time>2026-04-25T07:58:51Z</time></trkpt><trkpt lat="43.758936355582456" lon="10.503484189439343"><ele>586.0</ele><time>2026-04-25T07:58:53Z</time></trkpt><trkpt lat="43.75889973833272" lon="10.50360854327217"><ele>584.5</ele><time>2026-04-25T07:58:56Z</time></trkpt><trkpt lat="43.75886552122386" lon="10.503714900608339"><ele>583.0</ele><time>2026-04-25T07:58:58Z</time></trkpt><trkpt lat="43.75883324201402" lon="10.503803992695559"><ele>581.5</ele><time>2026-04-25T07:59:00Z</time></trkpt><trkpt lat="43.7587940533951" lon="10.503902267039326"><ele>580.0</ele><time>2026-04-25T07:59:02Z</time></trkpt><trkpt lat="43.75874604364346" lon="10.503992673881227"><ele>578.1666666666667</ele><time>2026-04-25T07:59:04Z</time></trkpt><trkpt lat="43.758696697009775" lon="10.504059115435473"><ele>576.3333333333334</ele><time>2026-04-25T07:59:07Z</time></trkpt><trkpt lat="43.758641356093534" lon="10.504112192417189"><ele>574.5</ele><time>2026-04-25T07:59:15.999Z</time></trkpt><trkpt lat="43.758558409482156" lon="10.504168493892088"><ele>572.6666666666666</ele><time>2026-04-25T07:59:18.999Z</time></trkpt><trkpt lat="43.75846792628539" lon="10.50422619560368"><ele>570.8333333333333</ele><time>2026-04-25T07:59:21.999Z</time></trkpt><trkpt lat="43.758383038922396" lon="10.504274597636824"><ele>569.0</ele><time>2026-04-25T07:59:23.999Z</time></trkpt><trkpt lat="43.75830526076086" lon="10.504314880348392"><ele>572.8333333333333</ele><time>2026-04-25T07:59:25.999Z</time></trkpt><trkpt lat="43.75822711317145" lon="10.504367139008174"><ele>576.6666666666666</ele><time>2026-04-25T07:59:27.999Z</time></trkpt><trkpt lat="43.75814561132739" lon="10.504380597746085"><ele>580.5</ele><time>2026-04-25T07:59:29.999Z</time></trkpt><trkpt lat="43.75805595131882" lon="10.504387352048418"><ele>584.3333333333334</ele><time>2026-04-25T07:59:31.999Z</time></trkpt><trkpt lat="43.75798005110967" lon="10.504386388195654"><ele>588.1666666666667</ele><time>2026-04-25T07:59:33.999Z</time></trkpt><trkpt lat="43.75790709822167" lon="10.504384659824478"><ele>592.0</ele><time>2026-04-25T07:59:35.999Z</time></trkpt><trkpt lat="43.75783186357075" lon="10.504382879232729"><ele>592.0</ele><time>2026-04-25T07:59:37.999Z</time></trkpt><trkpt lat="43.75775569888885" lon="10.504381074768194"><ele>592.0</ele><time>2026-04-25T07:59:39.999Z</time></trkpt><trkpt lat="43.75766601179753" lon="10.504405679342144"><ele>592.0</ele><time>2026-04-25T07:59:41.999Z</time></trkpt><trkpt lat="43.75758406922989" lon="10.504389591712064"><ele>592.0</ele><time>2026-04-25T07:59:43.999Z</time></trkpt><trkpt lat="43.75752046945125" lon="10.504406966324733"><ele>592.0</ele><time>2026-04-25T07:59:45.999Z</time></trkpt><trkpt lat="43.757438542241275" lon="10.50439711151417"><ele>592.0</ele><time>2026-04-25T07:59:47.999Z</time></trkpt><trkpt lat="43.75736947401252" lon="10.504339931817057"><ele>593.6666666666667</ele><time>2026-04-25T07:59:49.999Z</time></trkpt><trkpt lat="43.7573062860761" lon="10.504289800257263"><ele>595.3333333333334</ele><time>2026-04-25T07:59:51.999Z</time></trkpt><trkpt lat="43.757223599642224" lon="10.504256696006632"><ele>597.0</ele><time>2026-04-25T07:59:54.999Z</time></trkpt><trkpt lat="43.75717090337958" lon="10.504311998474387"><ele>598.6666666666666</ele><time>2026-04-25T07:59:57.999Z</time></trkpt><trkpt lat="43.75710058745014" lon="10.504349915105447"><ele>600.3333333333333</ele><time>2026-04-25T08:00:00.999Z</time></trkpt><trkpt lat="43.757029989879996" lon="10.50441432365531"><ele>602.0</ele><time>2026-04-25T08:00:03.999Z</time></trkpt><trkpt lat="43.75696632524054" lon="10.5044774051787"><ele>602.0</ele><time>2026-04-25T08:00:06.999Z</time></trkpt><trkpt lat="43.756909322205914" lon="10.504561868610471"><ele>602.0</ele><time>2026-04-25T08:00:09.999Z</time></trkpt><trkpt lat="43.75685167224239" lon="10.504633036258275"><ele>602.0</ele><time>2026-04-25T08:00:11.998Z</time></trkpt><trkpt lat="43.75679399811" lon="10.50470939711291"><ele>602.0</ele><time>2026-04-25T08:00:13.998Z</time></trkpt><trkpt lat="43.75673368851626" lon="10.504790888792998"><ele>602.0</ele><time>2026-04-25T08:00:17.998Z</time></trkpt><trkpt lat="43.75668865342576" lon="10.504856208803082"><ele>602.0</ele><time>2026-04-25T08:00:21Z</time></trkpt><trkpt lat="43.756644745756894" lon="10.504919954397286"><ele>601.6666666666666</ele><time>2026-04-25T08:00:24Z</time></trkpt><trkpt lat="43.75659790739809" lon="10.504986556367985"><ele>601.3333333333333</ele><time>2026-04-25T08:00:27Z</time></trkpt><trkpt lat="43.75653862209912" lon="10.505065300944034"><ele>601.0</ele><time>2026-04-25T08:00:31Z</time></trkpt><trkpt lat="43.75648539168786" lon="10.505115380652498"><ele>600.6666666666666</ele><time>2026-04-25T08:00:34Z</time></trkpt><trkpt lat="43.7564224896455" lon="10.50519855506848"><ele>600.3333333333334</ele><time>2026-04-25T08:00:37Z</time></trkpt><trkpt lat="43.75634569529603" lon="10.505276508683783"><ele>600.0</ele><time>2026-04-25T08:00:40Z</time></trkpt><trkpt lat="43.75627996414017" lon="10.505359566682683"><ele>598.8333333333334</ele><time>2026-04-25T08:00:42Z</time></trkpt><trkpt lat="43.75622991252845" lon="10.505415492764795"><ele>597.6666666666666</ele><time>2026-04-25T08:00:43Z</time></trkpt><trkpt lat="43.75613196706934" lon="10.505519018490011"><ele>596.5</ele><time>2026-04-25T08:00:44Z</time></trkpt><trkpt lat="43.75605252595134" lon="10.505587054430354"><ele>595.3333333333333</ele><time>2026-04-25T08:00:45Z</time></trkpt><trkpt lat="43.75598317996214" lon="10.505636731060468"><ele>594.1666666666666</ele><time>2026-04-25T08:00:46Z</time></trkpt><trkpt lat="43.75591140622802" lon="10.505699014954367"><ele>593.0</ele><time>2026-04-25T08:00:47Z</time></trkpt><trkpt lat="43.755834096387844" lon="10.505767173367582"><ele>597.4</ele><time>2026-04-25T08:00:48Z</time></trkpt><trkpt lat="43.755774979081814" lon="10.50585838487456"><ele>601.8</ele><time>2026-04-25T08:00:49Z</time></trkpt><trkpt lat="43.755744807762056" lon="10.505964518698589"><ele>606.2</ele><time>2026-04-25T08:00:50Z</time></trkpt><trkpt lat="43.75575364285395" lon="10.50609382409445"><ele>610.6</ele><time>2026-04-25T08:00:51Z</time></trkpt><trkpt lat="43.75575663952601" lon="10.506212602187642"><ele>615.0</ele><time>2026-04-25T08:00:52Z</time></trkpt><trkpt lat="43.75575239625731" lon="10.506380550230572"><ele>615.0</ele><time>2026-04-25T08:00:53Z</time></trkpt><trkpt lat="43.755755290288235" lon="10.506506248294338"><ele>615.0</ele><time>2026-04-25T08:00:54Z</time></trkpt><trkpt lat="43.75576458786453" lon="10.506596939053487"><ele>615.0</ele><time>2026-04-25T08:00:56Z</time></trkpt><trkpt lat="43.75572341890504" lon="10.506524370073056"><ele>615.0</ele><time>2026-04-25T08:01:10Z</time></trkpt><trkpt lat="43.75554170395352" lon="10.506516573137093"><ele>615.0</ele><time>2026-04-25T08:01:11Z</time></trkpt><trkpt lat="43.7554766974786" lon="10.506486110612812"><ele>615.0</ele><time>2026-04-25T08:01:13Z</time></trkpt><trkpt lat="43.755390664538965" lon="10.506438902290368"><ele>615.0</ele><time>2026-04-25T08:01:15Z</time></trkpt><trkpt lat="43.75530695562091" lon="10.506400500868791"><ele>615.0</ele><time>2026-04-25T08:01:16Z</time></trkpt><trkpt lat="43.75522647565939" lon="10.506349242442898"><ele>615.0</ele><time>2026-04-25T08:01:16.999Z</time></trkpt><trkpt lat="43.75513616960731" lon="10.506301334766738"><ele>615.0</ele><time>2026-04-25T08:01:17.999Z</time></trkpt><trkpt lat="43.75504363381985" lon="10.506252946037682"><ele>617.4</ele><time>2026-04-25T08:01:18.999Z</time></trkpt><trkpt lat="43.75495286454587" lon="10.506196349412102"><ele>619.8</ele><time>2026-04-25T08:01:19.999Z</time></trkpt><trkpt lat="43.75484632547218" lon="10.506147762887961"><ele>622.2</ele><time>2026-04-25T08:01:20.999Z</time></trkpt><trkpt lat="43.7547387215037" lon="10.50609307826666"><ele>624.6</ele><time>2026-04-25T08:01:21.999Z</time></trkpt><trkpt lat="43.754644927448716" lon="10.506044786359512"><ele>627.0</ele><time>2026-04-25T08:01:22.999Z</time></trkpt><trkpt lat="43.754569390410566" lon="10.506010711929358"><ele>627.0</ele><time>2026-04-25T08:01:23.999Z</time></trkpt><trkpt lat="43.754471758378735" lon="10.505961979487331"><ele>627.0</ele><time>2026-04-25T08:01:24.999Z</time></trkpt><trkpt lat="43.75437441887042" lon="10.505927952310504"><ele>627.0</ele><time>2026-04-25T08:01:25.999Z</time></trkpt><trkpt lat="43.75427360813158" lon="10.505888353946647"><ele>627.0</ele><time>2026-04-25T08:01:26.999Z</time></trkpt><trkpt lat="43.754172930847794" lon="10.505847930461089"><ele>627.0</ele><time>2026-04-25T08:01:27.999Z</time></trkpt><trkpt lat="43.75406764144852" lon="10.50580136294025"><ele>624.2</ele><time>2026-04-25T08:01:28.999Z</time></trkpt><trkpt lat="43.75397578129164" lon="10.505749070938675"><ele>621.4000000000001</ele><time>2026-04-25T08:01:29.999Z</time></trkpt><trkpt lat="43.75388129827734" lon="10.50569693435553"><ele>618.5999999999999</ele><time>2026-04-25T08:01:30.999Z</time></trkpt><trkpt lat="43.75379318151833" lon="10.505658740772509"><ele>615.8</ele><time>2026-04-25T08:01:31.999Z</time></trkpt><trkpt lat="43.75370809155617" lon="10.505607221780084"><ele>613.0</ele><time>2026-04-25T08:01:32.999Z</time></trkpt><trkpt lat="43.75363029509511" lon="10.50556492341291"><ele>613.0</ele><time>2026-04-25T08:01:33.999Z</time></trkpt><trkpt lat="43.75355870384236" lon="10.505530108152687"><ele>613.0</ele><time>2026-04-25T08:01:34.999Z</time></trkpt><trkpt lat="43.753499980899655" lon="10.505495533101644"><ele>613.0</ele><time>2026-04-25T08:01:35.999Z</time></trkpt><trkpt lat="43.753433094390076" lon="10.505445573174448"><ele>613.0</ele><time>2026-04-25T08:01:37.999Z</time></trkpt><trkpt lat="43.75336224180733" lon="10.505406524690244"><ele>613.0</ele><time>2026-04-25T08:01:39.999Z</time></trkpt><trkpt lat="43.75327705780775" lon="10.505350729214046"><ele>613.0</ele><time>2026-04-25T08:01:41.999Z</time></trkpt><trkpt lat="43.75322333229576" lon="10.505303525586607"><ele>614.3333333333334</ele><time>2026-04-25T08:01:43.999Z</time></trkpt><trkpt lat="43.7531369384041" lon="10.505236120616452"><ele>615.6666666666667</ele><time>2026-04-25T08:01:46.999Z</time></trkpt><trkpt lat="43.753072299371155" lon="10.50518728414248"><ele>617.0</ele><time>2026-04-25T08:01:48.999Z</time></trkpt><trkpt lat="43.75299556083304" lon="10.50513828960349"><ele>618.3333333333334</ele><time>2026-04-25T08:01:50.999Z</time></trkpt><trkpt lat="43.752934276780806" lon="10.505114921044555"><ele>619.6666666666666</ele><time>2026-04-25T08:01:52.999Z</time></trkpt><trkpt lat="43.75286422380087" lon="10.505078307575506"><ele>621.0</ele><time>2026-04-25T08:01:54.999Z</time></trkpt><trkpt lat="43.752802807040474" lon="10.505039463589547"><ele>621.0</ele><time>2026-04-25T08:01:56.999Z</time></trkpt><trkpt lat="43.752726987181205" lon="10.504980448733003"><ele>621.0</ele><time>2026-04-25T08:01:59.999Z</time></trkpt><trkpt lat="43.752657791355965" lon="10.504925660537465"><ele>621.0</ele><time>2026-04-25T08:02:02.999Z</time></trkpt><trkpt lat="43.752597336869776" lon="10.504886298219251"><ele>621.0</ele><time>2026-04-25T08:02:04.999Z</time></trkpt><trkpt lat="43.75253383839799" lon="10.504850498557243"><ele>621.0</ele><time>2026-04-25T08:02:06.999Z</time></trkpt><trkpt lat="43.75246643309938" lon="10.504805931504789"><ele>621.0</ele><time>2026-04-25T08:02:08.999Z</time></trkpt><trkpt lat="43.7523731409985" lon="10.504741957372724"><ele>616.8333333333334</ele><time>2026-04-25T08:02:10.999Z</time></trkpt><trkpt lat="43.75228139238862" lon="10.50474976220402"><ele>612.6666666666666</ele><time>2026-04-25T08:02:12.998Z</time></trkpt><trkpt lat="43.75221515901774" lon="10.50478064314876"><ele>608.5</ele><time>2026-04-25T08:02:14.998Z</time></trkpt><trkpt lat="43.752144079274686" lon="10.504811288493185"><ele>604.3333333333333</ele><time>2026-04-25T08:02:17.998Z</time></trkpt><trkpt lat="43.75205408401794" lon="10.504829663391469"><ele>600.1666666666666</ele><time>2026-04-25T08:02:20.998Z</time></trkpt><trkpt lat="43.751985939712064" lon="10.504838559833502"><ele>596.0</ele><time>2026-04-25T08:02:22.998Z</time></trkpt><trkpt lat="43.75188564587159" lon="10.504871805515037"><ele>595.1666666666666</ele><time>2026-04-25T08:02:26Z</time></trkpt><trkpt lat="43.75181445395695" lon="10.50488541833602"><ele>594.3333333333333</ele><time>2026-04-25T08:02:28Z</time></trkpt><trkpt lat="43.75173320301224" lon="10.504875816547449"><ele>593.5</ele><time>2026-04-25T08:02:30Z</time></trkpt><trkpt lat="43.75164581123069" lon="10.504896292355875"><ele>592.6666666666666</ele><time>2026-04-25T08:02:32Z</time></trkpt><trkpt lat="43.75154348057713" lon="10.504904406327691"><ele>591.8333333333334</ele><time>2026-04-25T08:02:34Z</time></trkpt><trkpt lat="43.751444015357265" lon="10.504917787624844"><ele>591.0</ele><time>2026-04-25T08:02:36Z</time></trkpt><trkpt lat="43.751346471689544" lon="10.504936768427903"><ele>591.0</ele><time>2026-04-25T08:02:38Z</time></trkpt><trkpt lat="43.75125828230613" lon="10.504950741083153"><ele>591.0</ele><time>2026-04-25T08:02:40Z</time></trkpt><trkpt lat="43.751164220879325" lon="10.504960579049017"><ele>591.0</ele><time>2026-04-25T08:02:42Z</time></trkpt><trkpt lat="43.75105372472416" lon="10.504952190691371"><ele>591.0</ele><time>2026-04-25T08:02:44Z</time></trkpt><trkpt lat="43.75098016915974" lon="10.504956951556045"><ele>591.0</ele><time>2026-04-25T08:02:45Z</time></trkpt><trkpt lat="43.750903479819364" lon="10.504957612926408"><ele>591.0</ele><time>2026-04-25T08:02:46Z</time></trkpt><trkpt lat="43.7508345460613" lon="10.50495190832606"><ele>589.8333333333334</ele><time>2026-04-25T08:02:47Z</time></trkpt><trkpt lat="43.75076587172711" lon="10.504943765645553"><ele>588.6666666666666</ele><time>2026-04-25T08:02:48Z</time></trkpt><trkpt lat="43.750689047000364" lon="10.504931663862378"><ele>587.5</ele><time>2026-04-25T08:02:49Z</time></trkpt><trkpt lat="43.750608862709846" lon="10.50492209652215"><ele>586.3333333333333</ele><time>2026-04-25T08:02:50Z</time></trkpt><trkpt lat="43.75052050280448" lon="10.504908643069463"><ele>585.1666666666666</ele><time>2026-04-25T08:02:51Z</time></trkpt><trkpt lat="43.750426153961094" lon="10.504894135271552"><ele>584.0</ele><time>2026-04-25T08:02:52Z</time></trkpt><trkpt lat="43.75033120469891" lon="10.504877724089596"><ele>584.0</ele><time>2026-04-25T08:02:53Z</time></trkpt><trkpt lat="43.750253519293366" lon="10.50486543233708"><ele>584.0</ele><time>2026-04-25T08:02:54Z</time></trkpt><trkpt lat="43.75018031761236" lon="10.504851037857344"><ele>584.0</ele><time>2026-04-25T08:02:55Z</time></trkpt><trkpt lat="43.750110151263755" lon="10.504832039019176"><ele>584.0</ele><time>2026-04-25T08:02:56Z</time></trkpt><trkpt lat="43.75003747372618" lon="10.50482924771005"><ele>584.0</ele><time>2026-04-25T08:02:57Z</time></trkpt><trkpt lat="43.749970084872444" lon="10.504821098575746"><ele>584.0</ele><time>2026-04-25T08:02:58Z</time></trkpt><trkpt lat="43.74983605780486" lon="10.504794464910576"><ele>582.5</ele><time>2026-04-25T08:03:00Z</time></trkpt><trkpt lat="43.74976000957505" lon="10.504787610765229"><ele>581.0</ele><time>2026-04-25T08:03:01Z</time></trkpt><trkpt lat="43.74968522132572" lon="10.5047689138669"><ele>579.5</ele><time>2026-04-25T08:03:02Z</time></trkpt><trkpt lat="43.749595240026714" lon="10.504751264481207"><ele>578.0</ele><time>2026-04-25T08:03:04Z</time></trkpt><trkpt lat="43.749515362148635" lon="10.504724200531461"><ele>576.5</ele><time>2026-04-25T08:03:07Z</time></trkpt><trkpt lat="43.74944853955401" lon="10.50471190940502"><ele>575.0</ele><time>2026-04-25T08:03:09Z</time></trkpt><trkpt lat="43.74938620699698" lon="10.504670015688509"><ele>575.8333333333333</ele><time>2026-04-25T08:03:12Z</time></trkpt><trkpt lat="43.74931569283037" lon="10.504610072705837"><ele>576.6666666666666</ele><time>2026-04-25T08:03:15Z</time></trkpt><trkpt lat="43.74925896411895" lon="10.504551906419243"><ele>577.5</ele><time>2026-04-25T08:03:17Z</time></trkpt><trkpt lat="43.74920459751927" lon="10.504501037960782"><ele>578.3333333333334</ele><time>2026-04-25T08:03:18.999Z</time></trkpt><trkpt lat="43.74915507629762" lon="10.50441053421966"><ele>579.1666666666667</ele><time>2026-04-25T08:03:21.999Z</time></trkpt><trkpt lat="43.74909883893043" lon="10.504309291364857"><ele>580.0</ele><time>2026-04-25T08:03:24.999Z</time></trkpt><trkpt lat="43.74903953325169" lon="10.504212405133257"><ele>580.0</ele><time>2026-04-25T08:03:26.999Z</time></trkpt><trkpt lat="43.74898781713691" lon="10.50413018805835"><ele>580.0</ele><time>2026-04-25T08:03:28.999Z</time></trkpt><trkpt lat="43.748917310283396" lon="10.504099379502641"><ele>580.0</ele><time>2026-04-25T08:04:34Z</time></trkpt><trkpt lat="43.7488585346621" lon="10.504054830807286"><ele>580.0</ele><time>2026-04-25T08:04:36Z</time></trkpt><trkpt lat="43.748786626748846" lon="10.503986309021029"><ele>580.0</ele><time>2026-04-25T08:04:38Z</time></trkpt><trkpt lat="43.7487267426428" lon="10.50395527808361"><ele>580.0</ele><time>2026-04-25T08:04:40Z</time></trkpt><trkpt lat="43.74864800200079" lon="10.50389896311496"><ele>580.0</ele><time>2026-04-25T08:04:42Z</time></trkpt><trkpt lat="43.74857580559668" lon="10.503852208400719"><ele>580.0</ele><time>2026-04-25T08:04:43Z</time></trkpt><trkpt lat="43.7484984854369" lon="10.50380010866754"><ele>580.0</ele><time>2026-04-25T08:04:44Z</time></trkpt><trkpt lat="43.74844233893164" lon="10.50376012585308"><ele>580.0</ele><time>2026-04-25T08:04:45Z</time></trkpt><trkpt lat="43.74833194355968" lon="10.503696327146173"><ele>580.0</ele><time>2026-04-25T08:04:47Z</time></trkpt><trkpt lat="43.748243630778255" lon="10.5036380215077"><ele>580.0</ele><time>2026-04-25T08:04:49Z</time></trkpt><trkpt lat="43.748139559165296" lon="10.503572491265738"><ele>579.3333333333334</ele><time>2026-04-25T08:04:51Z</time></trkpt><trkpt lat="43.748046632484204" lon="10.50353593286595"><ele>578.6666666666667</ele><time>2026-04-25T08:04:53Z</time></trkpt><trkpt lat="43.74794295466535" lon="10.50347663668299"><ele>578.0</ele><time>2026-04-25T08:04:55Z</time></trkpt><trkpt lat="43.74787596271826" lon="10.50341759570114"><ele>577.3333333333334</ele><time>2026-04-25T08:04:57Z</time></trkpt><trkpt lat="43.74780686860064" lon="10.503363254891672"><ele>576.6666666666666</ele><time>2026-04-25T08:04:59Z</time></trkpt><trkpt lat="43.74773655037825" lon="10.503310281406021"><ele>576.0</ele><time>2026-04-25T08:05:01Z</time></trkpt><trkpt lat="43.7476593109599" lon="10.50322891666496"><ele>572.6666666666666</ele><time>2026-04-25T08:05:03Z</time></trkpt><trkpt lat="43.747570373117405" lon="10.503157071959684"><ele>569.3333333333334</ele><time>2026-04-25T08:05:05Z</time></trkpt><trkpt lat="43.74750856009012" lon="10.503058927166135"><ele>566.0</ele><time>2026-04-25T08:05:07Z</time></trkpt><trkpt lat="43.747437425665495" lon="10.502975342445302"><ele>562.6666666666667</ele><time>2026-04-25T08:05:09Z</time></trkpt><trkpt lat="43.74737842184785" lon="10.502886416581008"><ele>559.3333333333334</ele><time>2026-04-25T08:05:11Z</time></trkpt><trkpt lat="43.747340866914485" lon="10.502801969893605"><ele>556.0</ele><time>2026-04-25T08:05:13Z</time></trkpt><trkpt lat="43.74728737021293" lon="10.502700348188165"><ele>556.0</ele><time>2026-04-25T08:05:15Z</time></trkpt><trkpt lat="43.74725712421278" lon="10.50258498034908"><ele>556.0</ele><time>2026-04-25T08:05:17Z</time></trkpt><trkpt lat="43.74720998137165" lon="10.50247740473091"><ele>556.0</ele><time>2026-04-25T08:05:18.999Z</time></trkpt><trkpt lat="43.747190751298156" lon="10.502377046171732"><ele>556.0</ele><time>2026-04-25T08:05:20.999Z</time></trkpt><trkpt lat="43.74717204647841" lon="10.502269081410436"><ele>556.0</ele><time>2026-04-25T08:05:22.999Z</time></trkpt><trkpt lat="43.74714331158878" lon="10.502158901311699"><ele>556.0</ele><time>2026-04-25T08:05:24.999Z</time></trkpt><trkpt lat="43.747119267389984" lon="10.502048889124772"><ele>558.1666666666667</ele><time>2026-04-25T08:05:26.999Z</time></trkpt><trkpt lat="43.747096485290264" lon="10.501915667503749"><ele>560.3333333333334</ele><time>2026-04-25T08:05:28.999Z</time></trkpt><trkpt lat="43.74707432799623" lon="10.501816456251035"><ele>562.5</ele><time>2026-04-25T08:05:30.999Z</time></trkpt><trkpt lat="43.74706102019144" lon="10.501699691595473"><ele>564.6666666666666</ele><time>2026-04-25T08:05:32.999Z</time></trkpt><trkpt lat="43.74705219968659" lon="10.501588923391454"><ele>566.8333333333333</ele><time>2026-04-25T08:05:34.999Z</time></trkpt><trkpt lat="43.74704227764632" lon="10.501482395521698"><ele>569.0</ele><time>2026-04-25T08:05:36.999Z</time></trkpt><trkpt lat="43.74703539472889" lon="10.501376192063418"><ele>569.0000000000001</ele><time>2026-04-25T08:05:39.999Z</time></trkpt><trkpt lat="43.747024962977555" lon="10.501283902777054"><ele>569.0</ele><time>2026-04-25T08:05:41.999Z</time></trkpt><trkpt lat="43.747011873999284" lon="10.501197373520947"><ele>569.0</ele><time>2026-04-25T08:05:43.999Z</time></trkpt><trkpt lat="43.74700945720131" lon="10.501109603506844"><ele>569.0</ele><time>2026-04-25T08:05:45.999Z</time></trkpt><trkpt lat="43.74700556419096" lon="10.50100058802489"><ele>569.0</ele><time>2026-04-25T08:05:47.999Z</time></trkpt><trkpt lat="43.74698612071144" lon="10.50089678537697"><ele>569.0000000000001</ele><time>2026-04-25T08:05:50.999Z</time></trkpt><trkpt lat="43.74698370301047" lon="10.500796658509024"><ele>569.0</ele><time>2026-04-25T08:05:52.999Z</time></trkpt><trkpt lat="43.74698763285594" lon="10.500687391907853"><ele>569.3333333333333</ele><time>2026-04-25T08:05:54.999Z</time></trkpt><trkpt lat="43.74700555702562" lon="10.500568402197562"><ele>569.6666666666666</ele><time>2026-04-25T08:05:57.999Z</time></trkpt><trkpt lat="43.74700484059486" lon="10.500456523218782"><ele>570.0</ele><time>2026-04-25T08:05:59.999Z</time></trkpt><trkpt lat="43.74700918273242" lon="10.50036705203873"><ele>570.3333333333334</ele><time>2026-04-25T08:06:01.999Z</time></trkpt><trkpt lat="43.747023112383204" lon="10.500256033092061"><ele>570.6666666666667</ele><time>2026-04-25T08:06:05.999Z</time></trkpt><trkpt lat="43.747023605965545" lon="10.500141858712242"><ele>571.0</ele><time>2026-04-25T08:06:08.999Z</time></trkpt><trkpt lat="43.74703430825681" lon="10.500037396609978"><ele>568.8333333333334</ele><time>2026-04-25T08:06:11.999Z</time></trkpt><trkpt lat="43.74704236106462" lon="10.499917332478642"><ele>566.6666666666667</ele><time>2026-04-25T08:06:14.998Z</time></trkpt><trkpt lat="43.74705869825652" lon="10.499819438586638"><ele>564.5</ele><time>2026-04-25T08:06:17.998Z</time></trkpt><trkpt lat="43.74707219903692" lon="10.499724332163758"><ele>562.3333333333334</ele><time>2026-04-25T08:06:19.998Z</time></trkpt><trkpt lat="43.747089132745636" lon="10.49962003050434"><ele>560.1666666666666</ele><time>2026-04-25T08:06:21.998Z</time></trkpt><trkpt lat="43.74709513186488" lon="10.49951040898058"><ele>558.0</ele><time>2026-04-25T08:06:23.998Z</time></trkpt><trkpt lat="43.747099831104016" lon="10.499417649432882"><ele>555.5</ele><time>2026-04-25T08:06:25.998Z</time></trkpt><trkpt lat="43.747122954335666" lon="10.499314959647847"><ele>553.0</ele><time>2026-04-25T08:06:28.998Z</time></trkpt><trkpt lat="43.74714418580344" lon="10.499210541717208"><ele>550.5</ele><time>2026-04-25T08:06:30.998Z</time></trkpt><trkpt lat="43.747159663207626" lon="10.499103683875394"><ele>548.0</ele><time>2026-04-25T08:06:32.998Z</time></trkpt><trkpt lat="43.747180877267944" lon="10.498988269553314"><ele>545.5</ele><time>2026-04-25T08:06:34.998Z</time></trkpt><trkpt lat="43.74720667654684" lon="10.49887984035835"><ele>543.0</ele><time>2026-04-25T08:06:37Z</time></trkpt><trkpt lat="43.74723855500711" lon="10.498775445219719"><ele>539.0</ele><time>2026-04-25T08:06:39Z</time></trkpt><trkpt lat="43.7472685232819" lon="10.498681402946655"><ele>535.0</ele><time>2026-04-25T08:06:41Z</time></trkpt><trkpt lat="43.74731629498531" lon="10.498591633211868"><ele>531.0</ele><time>2026-04-25T08:06:44Z</time></trkpt><trkpt lat="43.747359123516404" lon="10.498510530191759"><ele>527.0</ele><time>2026-04-25T08:06:46Z</time></trkpt><trkpt lat="43.74739560746843" lon="10.498431584459714"><ele>523.0</ele><time>2026-04-25T08:06:48Z</time></trkpt><trkpt lat="43.747444618456356" lon="10.498321302716391"><ele>519.0</ele><time>2026-04-25T08:06:50Z</time></trkpt><trkpt lat="43.747485996995984" lon="10.498244209945904"><ele>519.0</ele><time>2026-04-25T08:06:52Z</time></trkpt><trkpt lat="43.747529770213454" lon="10.498161850847637"><ele>519.0</ele><time>2026-04-25T08:06:54Z</time></trkpt><trkpt lat="43.74758053550828" lon="10.49807982965918"><ele>519.0</ele><time>2026-04-25T08:06:56Z</time></trkpt><trkpt lat="43.74762513143953" lon="10.497987105746073"><ele>519.0</ele><time>2026-04-25T08:06:58Z</time></trkpt><trkpt lat="43.74767111367142" lon="10.497910530588001"><ele>519.0</ele><time>2026-04-25T08:07:00Z</time></trkpt><trkpt lat="43.7477256752227" lon="10.497837323436153"><ele>519.0</ele><time>2026-04-25T08:07:02Z</time></trkpt><trkpt lat="43.7477675648125" lon="10.497767901657056"><ele>519.0</ele><time>2026-04-25T08:07:04Z</time></trkpt><trkpt lat="43.74782364777334" lon="10.497720385682248"><ele>519.6666666666666</ele><time>2026-04-25T08:07:06Z</time></trkpt><trkpt lat="43.74789213300153" lon="10.497645019105247"><ele>520.3333333333334</ele><time>2026-04-25T08:07:08Z</time></trkpt><trkpt lat="43.747945529773546" lon="10.497572750956412"><ele>521.0</ele><time>2026-04-25T08:07:10Z</time></trkpt><trkpt lat="43.748004425901385" lon="10.497510144120291"><ele>521.6666666666667</ele><time>2026-04-25T08:07:12Z</time></trkpt><trkpt lat="43.748055382463434" lon="10.497455057584343"><ele>522.3333333333334</ele><time>2026-04-25T08:07:14Z</time></trkpt><trkpt lat="43.7481151445022" lon="10.497386708081647"><ele>523.0</ele><time>2026-04-25T08:07:16Z</time></trkpt><trkpt lat="43.74818695149542" lon="10.497302484121224"><ele>522.9999999999999</ele><time>2026-04-25T08:07:18Z</time></trkpt><trkpt lat="43.74825763582024" lon="10.497220542600143"><ele>523.0</ele><time>2026-04-25T08:07:21Z</time></trkpt><trkpt lat="43.74831311338552" lon="10.497156792440812"><ele>523.0</ele><time>2026-04-25T08:07:22.999Z</time></trkpt><trkpt lat="43.74836149953169" lon="10.497098527870568"><ele>523.0</ele><time>2026-04-25T08:07:24.999Z</time></trkpt><trkpt lat="43.74841956568179" lon="10.497053520051422"><ele>523.0</ele><time>2026-04-25T08:07:27.999Z</time></trkpt><trkpt lat="43.748477661702054" lon="10.49699045344325"><ele>522.9999999999999</ele><time>2026-04-25T08:07:30.999Z</time></trkpt><trkpt lat="43.74854082454402" lon="10.496935908714184"><ele>523.0</ele><time>2026-04-25T08:07:32.999Z</time></trkpt><trkpt lat="43.74862345495709" lon="10.496885932895088"><ele>519.0</ele><time>2026-04-25T08:07:35.999Z</time></trkpt><trkpt lat="43.74870315659335" lon="10.496861355727088"><ele>515.0</ele><time>2026-04-25T08:07:37.999Z</time></trkpt><trkpt lat="43.74877373320497" lon="10.496837210440203"><ele>511.0</ele><time>2026-04-25T08:07:39.999Z</time></trkpt><trkpt lat="43.74886336126345" lon="10.496807754543951"><ele>507.0</ele><time>2026-04-25T08:07:41.999Z</time></trkpt><trkpt lat="43.74893619095068" lon="10.49678596600743"><ele>503.00000000000006</ele><time>2026-04-25T08:07:43.999Z</time></trkpt><trkpt lat="43.74901923980142" lon="10.496772714325534"><ele>499.0</ele><time>2026-04-25T08:07:46.999Z</time></trkpt><trkpt lat="43.7491164641832" lon="10.496752710478889"><ele>499.00000000000006</ele><time>2026-04-25T08:07:49.999Z</time></trkpt><trkpt lat="43.74918848613474" lon="10.496737504652536"><ele>499.0</ele><time>2026-04-25T08:07:51.999Z</time></trkpt><trkpt lat="43.74927508741426" lon="10.49672442329878"><ele>499.0</ele><time>2026-04-25T08:07:53.999Z</time></trkpt><trkpt lat="43.749363821622396" lon="10.496737632530888"><ele>499.0</ele><time>2026-04-25T08:07:55.999Z</time></trkpt><trkpt lat="43.749461687692374" lon="10.496707521721772"><ele>499.00000000000006</ele><time>2026-04-25T08:07:57.999Z</time></trkpt><trkpt lat="43.7495239841497" lon="10.49667335962452"><ele>499.0</ele><time>2026-04-25T08:07:59.999Z</time></trkpt><trkpt lat="43.749611262699624" lon="10.496653182734505"><ele>500.00000000000006</ele><time>2026-04-25T08:08:01.999Z</time></trkpt><trkpt lat="43.74969375841919" lon="10.49663850626678"><ele>501.0</ele><time>2026-04-25T08:08:03.999Z</time></trkpt><trkpt lat="43.74976458103712" lon="10.496617064218633"><ele>502.0</ele><time>2026-04-25T08:08:06.999Z</time></trkpt><trkpt lat="43.74984806277928" lon="10.496621580190283"><ele>503.0</ele><time>2026-04-25T08:08:09.999Z</time></trkpt><trkpt lat="43.749925688057594" lon="10.496594829395583"><ele>504.00000000000006</ele><time>2026-04-25T08:08:12.999Z</time></trkpt><trkpt lat="43.749988573586826" lon="10.496587995180105"><ele>505.0</ele><time>2026-04-25T08:08:14.999Z</time></trkpt><trkpt lat="43.75007263169786" lon="10.496568925197073"><ele>505.00000000000006</ele><time>2026-04-25T08:08:17.998Z</time></trkpt><trkpt lat="43.75014504557931" lon="10.496553945269932"><ele>505.0</ele><time>2026-04-25T08:08:20.998Z</time></trkpt><trkpt lat="43.75021783196302" lon="10.496533710647592"><ele>505.0</ele><time>2026-04-25T08:08:22.998Z</time></trkpt><trkpt lat="43.75027974793276" lon="10.496481144785308"><ele>505.0</ele><time>2026-04-25T08:08:24.998Z</time></trkpt><trkpt lat="43.75033345740172" lon="10.496427668270984"><ele>505.00000000000006</ele><time>2026-04-25T08:08:26.998Z</time></trkpt><trkpt lat="43.750414677309124" lon="10.496366124478133"><ele>505.0</ele><time>2026-04-25T08:08:28.998Z</time></trkpt><trkpt lat="43.75047758975359" lon="10.496276671000617"><ele>503.57142857142856</ele><time>2026-04-25T08:08:30.998Z</time></trkpt><trkpt lat="43.75052265071954" lon="10.496194339310307"><ele>502.1428571428571</ele><time>2026-04-25T08:08:32.998Z</time></trkpt><trkpt lat="43.75056517923178" lon="10.496093736651954"><ele>500.71428571428567</ele><time>2026-04-25T08:08:36.998Z</time></trkpt><trkpt lat="43.750595181835735" lon="10.4959887742216"><ele>499.2857142857142</ele><time>2026-04-25T08:08:40.998Z</time></trkpt><trkpt lat="43.75061820400856" lon="10.495903073237551"><ele>497.85714285714283</ele><time>2026-04-25T08:08:44Z</time></trkpt><trkpt lat="43.75064569906297" lon="10.495823711823808"><ele>496.42857142857133</ele><time>2026-04-25T08:08:47Z</time></trkpt><trkpt lat="43.7506655340079" lon="10.495719556521104"><ele>494.99999999999994</ele><time>2026-04-25T08:08:51Z</time></trkpt><trkpt lat="43.75068502343341" lon="10.495627780658118"><ele>495.0</ele><time>2026-04-25T08:08:54Z</time></trkpt><trkpt lat="43.75071339012468" lon="10.495521772111662"><ele>495.0</ele><time>2026-04-25T08:08:57Z</time></trkpt><trkpt lat="43.75073212024606" lon="10.49542194753389"><ele>495.0</ele><time>2026-04-25T08:09:00Z</time></trkpt><trkpt lat="43.75076124023289" lon="10.495324952242756"><ele>495.0</ele><time>2026-04-25T08:09:03Z</time></trkpt><trkpt lat="43.750790143223206" lon="10.495221013223338"><ele>495.0</ele><time>2026-04-25T08:09:06Z</time></trkpt><trkpt lat="43.75080922866557" lon="10.495123848815256"><ele>495.0</ele><time>2026-04-25T08:09:09Z</time></trkpt><trkpt lat="43.75084052381945" lon="10.495023522222986"><ele>492.71428571428567</ele><time>2026-04-25T08:09:13Z</time></trkpt><trkpt lat="43.75087327765755" lon="10.494946072594592"><ele>490.42857142857144</ele><time>2026-04-25T08:09:17Z</time></trkpt><trkpt lat="43.750894101202604" lon="10.494860314332055"><ele>488.1428571428571</ele><time>2026-04-25T08:09:20Z</time></trkpt><trkpt lat="43.75092816760984" lon="10.494757377305339"><ele>485.85714285714283</ele><time>2026-04-25T08:09:23Z</time></trkpt><trkpt lat="43.75094182165858" lon="10.494668442931669"><ele>483.57142857142856</ele><time>2026-04-25T08:09:26Z</time></trkpt><trkpt lat="43.75097757552448" lon="10.494546362992942"><ele>481.2857142857143</ele><time>2026-04-25T08:09:28.999Z</time></trkpt><trkpt lat="43.750992942430784" lon="10.49445061831862"><ele>479.0</ele><time>2026-04-25T08:09:30.999Z</time></trkpt><trkpt lat="43.75100246826862" lon="10.494361700136029"><ele>476.3333333333333</ele><time>2026-04-25T08:09:32.999Z</time></trkpt><trkpt lat="43.751029107115" lon="10.494264035696652"><ele>473.66666666666663</ele><time>2026-04-25T08:09:34.999Z</time></trkpt><trkpt lat="43.75105941665029" lon="10.494146585148197"><ele>471.0</ele><time>2026-04-25T08:09:37.999Z</time></trkpt><trkpt lat="43.75107096338781" lon="10.49405419237248"><ele>468.33333333333337</ele><time>2026-04-25T08:09:39.999Z</time></trkpt><trkpt lat="43.75108663156902" lon="10.493947263538207"><ele>465.6666666666667</ele><time>2026-04-25T08:09:41.999Z</time></trkpt><trkpt lat="43.75110911544333" lon="10.493842939158085"><ele>463.0</ele><time>2026-04-25T08:09:43.999Z</time></trkpt><trkpt lat="43.75111536560534" lon="10.493749728149135"><ele>468.83333333333337</ele><time>2026-04-25T08:09:45.999Z</time></trkpt><trkpt lat="43.75113842763645" lon="10.49365091015995"><ele>474.6666666666667</ele><time>2026-04-25T08:09:48.999Z</time></trkpt><trkpt lat="43.75114267246231" lon="10.493533125897615"><ele>480.5</ele><time>2026-04-25T08:09:51.999Z</time></trkpt><trkpt lat="43.75116437455269" lon="10.493410877114858"><ele>486.33333333333337</ele><time>2026-04-25T08:09:54.999Z</time></trkpt><trkpt lat="43.75118199359586" lon="10.49330821649233"><ele>492.1666666666667</ele><time>2026-04-25T08:09:56.999Z</time></trkpt><trkpt lat="43.75116865992375" lon="10.49320139742281"><ele>498.0</ele><time>2026-04-25T08:09:58.999Z</time></trkpt><trkpt lat="43.751125113307424" lon="10.49312160638026"><ele>498.0</ele><time>2026-04-25T08:10:01.999Z</time></trkpt><trkpt lat="43.7510540385433" lon="10.4930352993432"><ele>498.0</ele><time>2026-04-25T08:10:04.999Z</time></trkpt><trkpt lat="43.75099911689495" lon="10.492976018617695"><ele>498.0</ele><time>2026-04-25T08:10:06.999Z</time></trkpt><trkpt lat="43.75094310823619" lon="10.492879896669457"><ele>498.0</ele><time>2026-04-25T08:10:10.999Z</time></trkpt><trkpt lat="43.75089022520552" lon="10.492814456128244"><ele>498.0</ele><time>2026-04-25T08:10:12.999Z</time></trkpt><trkpt lat="43.75081721826365" lon="10.492761430469912"><ele>498.0</ele><time>2026-04-25T08:10:14.999Z</time></trkpt><trkpt lat="43.75076970096258" lon="10.49270232011964"><ele>493.8333333333333</ele><time>2026-04-25T08:10:16.999Z</time></trkpt><trkpt lat="43.750721944179" lon="10.492639829286976"><ele>489.66666666666663</ele><time>2026-04-25T08:10:18.999Z</time></trkpt><trkpt lat="43.75067024523437" lon="10.492571158337716"><ele>485.5</ele><time>2026-04-25T08:10:21.998Z</time></trkpt><trkpt lat="43.75060690900869" lon="10.492483698944085"><ele>481.3333333333333</ele><time>2026-04-25T08:10:25.998Z</time></trkpt><trkpt lat="43.750547631192255" lon="10.492423056789626"><ele>477.16666666666663</ele><time>2026-04-25T08:10:29.998Z</time></trkpt><trkpt lat="43.75047941916071" lon="10.492349174904183"><ele>473.0</ele><time>2026-04-25T08:10:32.998Z</time></trkpt><trkpt lat="43.75042758132675" lon="10.492273194750139"><ele>472.99999999999994</ele><time>2026-04-25T08:10:35.998Z</time></trkpt><trkpt lat="43.75037962083879" lon="10.49218057504575"><ele>473.0</ele><time>2026-04-25T08:10:38.998Z</time></trkpt><trkpt lat="43.75031345759019" lon="10.492105627011505"><ele>473.0</ele><time>2026-04-25T08:10:42.998Z</time></trkpt><trkpt lat="43.75026545283525" lon="10.492000936024482"><ele>473.0</ele><time>2026-04-25T08:10:45.998Z</time></trkpt><trkpt lat="43.75021570572664" lon="10.491935265654956"><ele>472.99999999999994</ele><time>2026-04-25T08:10:48Z</time></trkpt><trkpt lat="43.75017747781378" lon="10.491845821789715"><ele>473.0</ele><time>2026-04-25T08:10:50Z</time></trkpt><trkpt lat="43.75014005733096" lon="10.491748327367429"><ele>469.3333333333333</ele><time>2026-04-25T08:10:52Z</time></trkpt><trkpt lat="43.750114185219516" lon="10.49165692932474"><ele>465.66666666666663</ele><time>2026-04-25T08:10:55Z</time></trkpt><trkpt lat="43.75004256769191" lon="10.491621261987405"><ele>462.0</ele><time>2026-04-25T08:10:58Z</time></trkpt><trkpt lat="43.75003044995641" lon="10.491724500369214"><ele>458.33333333333337</ele><time>2026-04-25T08:11:04Z</time></trkpt><trkpt lat="43.75008249632331" lon="10.491805030017476"><ele>454.6666666666667</ele><time>2026-04-25T08:11:07Z</time></trkpt><trkpt lat="43.7501310931894" lon="10.491883567950483"><ele>451.0</ele><time>2026-04-25T08:11:10Z</time></trkpt><trkpt lat="43.75017960509678" lon="10.491993315754485"><ele>454.6666666666667</ele><time>2026-04-25T08:11:14Z</time></trkpt><trkpt lat="43.750210060092314" lon="10.492085996948829"><ele>458.33333333333337</ele><time>2026-04-25T08:11:18Z</time></trkpt><trkpt lat="43.75023998101606" lon="10.492170177303224"><ele>462.0</ele><time>2026-04-25T08:11:21Z</time></trkpt><trkpt lat="43.750279920975615" lon="10.492242373252386"><ele>465.66666666666663</ele><time>2026-04-25T08:11:24Z</time></trkpt><trkpt lat="43.750323296185336" lon="10.4923434973437"><ele>469.3333333333333</ele><time>2026-04-25T08:11:27Z</time></trkpt><trkpt lat="43.7503747434846" lon="10.492453385760594"><ele>473.0</ele><time>2026-04-25T08:11:30Z</time></trkpt><trkpt lat="43.75040889535322" lon="10.492566026387998"><ele>473.0</ele><time>2026-04-25T08:11:32.999Z</time></trkpt><trkpt lat="43.750452538493114" lon="10.492695235874262"><ele>472.99999999999994</ele><time>2026-04-25T08:11:34.999Z</time></trkpt><trkpt lat="43.75048821055587" lon="10.492809679656073"><ele>472.99999999999994</ele><time>2026-04-25T08:11:36.999Z</time></trkpt><trkpt lat="43.750540321187394" lon="10.49294972837081"><ele>473.0</ele><time>2026-04-25T08:11:38.999Z</time></trkpt><trkpt lat="43.75059242624839" lon="10.493069453267568"><ele>473.0</ele><time>2026-04-25T08:11:40.999Z</time></trkpt><trkpt lat="43.75062475665492" lon="10.493180730254592"><ele>471.3333333333333</ele><time>2026-04-25T08:11:43.999Z</time></trkpt><trkpt lat="43.75064293274845" lon="10.493298612785127"><ele>469.66666666666663</ele><time>2026-04-25T08:11:46.999Z</time></trkpt><trkpt lat="43.750624324121965" lon="10.49340210964121"><ele>468.0</ele><time>2026-04-25T08:11:48.999Z</time></trkpt><trkpt lat="43.7506263038283" lon="10.493517091173688"><ele>466.33333333333337</ele><time>2026-04-25T08:11:50.999Z</time></trkpt><trkpt lat="43.75060764361387" lon="10.493631242354317"><ele>464.6666666666667</ele><time>2026-04-25T08:11:52.999Z</time></trkpt><trkpt lat="43.75060807422454" lon="10.49372017076296"><ele>463.0</ele><time>2026-04-25T08:11:54.999Z</time></trkpt><trkpt lat="43.75058173912165" lon="10.493808335800528"><ele>463.00000000000006</ele><time>2026-04-25T08:11:56.999Z</time></trkpt><trkpt lat="43.750542046566636" lon="10.493901435057534"><ele>463.0</ele><time>2026-04-25T08:11:58.999Z</time></trkpt><trkpt lat="43.75051115609649" lon="10.493991930865112"><ele>463.0</ele><time>2026-04-25T08:12:00.999Z</time></trkpt><trkpt lat="43.75046239911219" lon="10.494094257023312"><ele>463.0</ele><time>2026-04-25T08:12:02.999Z</time></trkpt><trkpt lat="43.75042208863798" lon="10.49419070875766"><ele>463.00000000000006</ele><time>2026-04-25T08:12:04.999Z</time></trkpt><trkpt lat="43.75037898490125" lon="10.494295758976126"><ele>463.0</ele><time>2026-04-25T08:12:06.999Z</time></trkpt><trkpt lat="43.75033425221672" lon="10.49440777698693"><ele>463.00000000000006</ele><time>2026-04-25T08:12:08.999Z</time></trkpt><trkpt lat="43.75028688179722" lon="10.494509052705991"><ele>463.0</ele><time>2026-04-25T08:12:10.999Z</time></trkpt><trkpt lat="43.750240061606235" lon="10.494613457759275"><ele>463.0</ele><time>2026-04-25T08:12:12.999Z</time></trkpt><trkpt lat="43.750191347374425" lon="10.49471555631464"><ele>463.0</ele><time>2026-04-25T08:12:14.999Z</time></trkpt><trkpt lat="43.750143010024175" lon="10.494814571892839"><ele>463.00000000000006</ele><time>2026-04-25T08:12:16.999Z</time></trkpt><trkpt lat="43.75010506196595" lon="10.494891232127141"><ele>463.0</ele><time>2026-04-25T08:12:18.999Z</time></trkpt><trkpt lat="43.750061350564174" lon="10.494982730353366"><ele>458.1666666666667</ele><time>2026-04-25T08:12:21.999Z</time></trkpt><trkpt lat="43.750032758587366" lon="10.495061436290984"><ele>453.33333333333337</ele><time>2026-04-25T08:12:24.999Z</time></trkpt><trkpt lat="43.749976836070914" lon="10.495144305427615"><ele>448.5</ele><time>2026-04-25T08:12:27.998Z</time></trkpt><trkpt lat="43.749897655715515" lon="10.495190795654075"><ele>443.66666666666663</ele><time>2026-04-25T08:12:31.998Z</time></trkpt><trkpt lat="43.74983019021211" lon="10.495257624953958"><ele>438.8333333333333</ele><time>2026-04-25T08:12:34.998Z</time></trkpt><trkpt lat="43.74974454755926" lon="10.495270306904928"><ele>434.0</ele><time>2026-04-25T08:12:37.998Z</time></trkpt><trkpt lat="43.749663812049974" lon="10.495262170509376"><ele>433.99999999999994</ele><time>2026-04-25T08:12:40.998Z</time></trkpt><trkpt lat="43.74958546940644" lon="10.495256762567134"><ele>434.0</ele><time>2026-04-25T08:12:42.998Z</time></trkpt><trkpt lat="43.74949570831671" lon="10.49522155165387"><ele>434.0</ele><time>2026-04-25T08:12:46.998Z</time></trkpt><trkpt lat="43.74941308579601" lon="10.495182414799084"><ele>434.0</ele><time>2026-04-25T08:12:49.998Z</time></trkpt><trkpt lat="43.749343990293326" lon="10.49515850118324"><ele>433.99999999999994</ele><time>2026-04-25T08:12:51.998Z</time></trkpt><trkpt lat="43.749269426765224" lon="10.495150170882424"><ele>434.0</ele><time>2026-04-25T08:12:54Z</time></trkpt><trkpt lat="43.74919688974746" lon="10.495145209987362"><ele>430.8333333333333</ele><time>2026-04-25T08:12:56Z</time></trkpt><trkpt lat="43.74912968032179" lon="10.495150059599181"><ele>427.66666666666663</ele><time>2026-04-25T08:12:58Z</time></trkpt><trkpt lat="43.74902874030736" lon="10.495155393628128"><ele>424.5</ele><time>2026-04-25T08:13:01Z</time></trkpt><trkpt lat="43.74893136660942" lon="10.495140622056926"><ele>421.33333333333337</ele><time>2026-04-25T08:13:03Z</time></trkpt><trkpt lat="43.748831172253844" lon="10.495136543903978"><ele>418.1666666666667</ele><time>2026-04-25T08:13:05Z</time></trkpt><trkpt lat="43.74875687225893" lon="10.49513495520397"><ele>415.0</ele><time>2026-04-25T08:13:07Z</time></trkpt><trkpt lat="43.7486632771405" lon="10.495115856884247"><ele>415.0</ele><time>2026-04-25T08:13:10Z</time></trkpt><trkpt lat="43.748599115196875" lon="10.495128227194076"><ele>415.0</ele><time>2026-04-25T08:13:12Z</time></trkpt><trkpt lat="43.74852002214041" lon="10.495148635146991"><ele>415.0</ele><time>2026-04-25T08:13:14Z</time></trkpt><trkpt lat="43.748439912797245" lon="10.495172251917761"><ele>415.0</ele><time>2026-04-25T08:13:17Z</time></trkpt><trkpt lat="43.748370449997914" lon="10.495186295891136"><ele>415.0</ele><time>2026-04-25T08:13:20Z</time></trkpt><trkpt lat="43.74830327515427" lon="10.49520110575467"><ele>415.0</ele><time>2026-04-25T08:13:22Z</time></trkpt><trkpt lat="43.74823967238252" lon="10.495210447896218"><ele>415.0</ele><time>2026-04-25T08:13:24Z</time></trkpt><trkpt lat="43.74817914629694" lon="10.495239578032045"><ele>413.83333333333337</ele><time>2026-04-25T08:13:26Z</time></trkpt><trkpt lat="43.74811021827112" lon="10.495253989878478"><ele>412.6666666666667</ele><time>2026-04-25T08:13:29Z</time></trkpt><trkpt lat="43.74801407329462" lon="10.495286867157905"><ele>411.5</ele><time>2026-04-25T08:13:32Z</time></trkpt><trkpt lat="43.74793566426114" lon="10.495306186855146"><ele>410.33333333333337</ele><time>2026-04-25T08:13:35.999Z</time></trkpt><trkpt lat="43.74787043315299" lon="10.495350135420008"><ele>409.1666666666667</ele><time>2026-04-25T08:13:38.999Z</time></trkpt><trkpt lat="43.7477956605229" lon="10.495383669313032"><ele>408.0</ele><time>2026-04-25T08:13:41.999Z</time></trkpt><trkpt lat="43.7477322734046" lon="10.495398667663665"><ele>411.4</ele><time>2026-04-25T08:13:43.999Z</time></trkpt><trkpt lat="43.747664578369275" lon="10.495414952375501"><ele>414.79999999999995</ele><time>2026-04-25T08:13:45.999Z</time></trkpt><trkpt lat="43.74755943776369" lon="10.49545144390593"><ele>418.2</ele><time>2026-04-25T08:13:47.999Z</time></trkpt><trkpt lat="43.74746416707126" lon="10.495498221455223"><ele>421.6</ele><time>2026-04-25T08:13:49.999Z</time></trkpt><trkpt lat="43.74738057048913" lon="10.495553546432298"><ele>425.0</ele><time>2026-04-25T08:13:51.999Z</time></trkpt><trkpt lat="43.74726624710119" lon="10.495593507830968"><ele>425.0</ele><time>2026-04-25T08:13:53.999Z</time></trkpt><trkpt lat="43.74716800885808" lon="10.495654198144955"><ele>425.0</ele><time>2026-04-25T08:13:55.999Z</time></trkpt><trkpt lat="43.74707098286792" lon="10.495721931457146"><ele>425.0</ele><time>2026-04-25T08:13:57.999Z</time></trkpt><trkpt lat="43.746965991939106" lon="10.495790943157925"><ele>425.0</ele><time>2026-04-25T08:13:59.999Z</time></trkpt><trkpt lat="43.746867119820536" lon="10.495840595969295"><ele>425.0</ele><time>2026-04-25T08:14:01.999Z</time></trkpt><trkpt lat="43.74674233106258" lon="10.495907198508364"><ele>420.2</ele><time>2026-04-25T08:14:03.999Z</time></trkpt><trkpt lat="43.74663939439564" lon="10.49596283768239"><ele>415.4</ele><time>2026-04-25T08:14:05.999Z</time></trkpt><trkpt lat="43.74654943821008" lon="10.496025673140535"><ele>410.6</ele><time>2026-04-25T08:14:07.999Z</time></trkpt><trkpt lat="43.746440991283094" lon="10.49607384895791"><ele>405.8</ele><time>2026-04-25T08:14:09.999Z</time></trkpt><trkpt lat="43.746378129118675" lon="10.496099829277698"><ele>401.0</ele><time>2026-04-25T08:14:10.999Z</time></trkpt><trkpt lat="43.74628591874911" lon="10.49616051441463"><ele>401.0</ele><time>2026-04-25T08:14:12.999Z</time></trkpt><trkpt lat="43.74622702798949" lon="10.496208717428358"><ele>401.0</ele><time>2026-04-25T08:14:14.999Z</time></trkpt><trkpt lat="43.74617208590689" lon="10.496267605416373"><ele>401.0</ele><time>2026-04-25T08:14:17.999Z</time></trkpt><trkpt lat="43.74611461741474" lon="10.496316098465696"><ele>401.0</ele><time>2026-04-25T08:14:19.999Z</time></trkpt><trkpt lat="43.74603869144606" lon="10.496334185553739"><ele>401.0</ele><time>2026-04-25T08:14:22.999Z</time></trkpt><trkpt lat="43.7459550826749" lon="10.496379906310041"><ele>401.0</ele><time>2026-04-25T08:14:25.999Z</time></trkpt><trkpt lat="43.74588497663286" lon="10.496389123037584"><ele>401.0</ele><time>2026-04-25T08:14:28.998Z</time></trkpt><trkpt lat="43.745806023948944" lon="10.496388385404842"><ele>401.16666666666663</ele><time>2026-04-25T08:14:30.998Z</time></trkpt><trkpt lat="43.74573764209593" lon="10.496417059503633"><ele>401.3333333333333</ele><time>2026-04-25T08:14:32.998Z</time></trkpt><trkpt lat="43.74565907682648" lon="10.49645640056538"><ele>401.5</ele><time>2026-04-25T08:14:34.998Z</time></trkpt><trkpt lat="43.74558068492462" lon="10.49645650497653"><ele>401.66666666666663</ele><time>2026-04-25T08:14:36.998Z</time></trkpt><trkpt lat="43.74549905652392" lon="10.496420009863243"><ele>401.8333333333333</ele><time>2026-04-25T08:14:38.998Z</time></trkpt><trkpt lat="43.74541135263011" lon="10.496352700731697"><ele>402.0</ele><time>2026-04-25T08:14:41.998Z</time></trkpt><trkpt lat="43.74535337776094" lon="10.496316372677967"><ele>402.0</ele><time>2026-04-25T08:14:43.998Z</time></trkpt><trkpt lat="43.745293427438725" lon="10.496278883184013"><ele>402.0</ele><time>2026-04-25T08:14:45.998Z</time></trkpt><trkpt lat="43.745213329921704" lon="10.496253496540525"><ele>402.0</ele><time>2026-04-25T08:15:51.999Z</time></trkpt><trkpt lat="43.74516426548037" lon="10.496164641579712"><ele>402.0</ele><time>2026-04-25T08:15:53.999Z</time></trkpt><trkpt lat="43.74512910195539" lon="10.496090837694082"><ele>402.0</ele><time>2026-04-25T08:15:54.999Z</time></trkpt><trkpt lat="43.745065007485834" lon="10.49599249090581"><ele>402.0</ele><time>2026-04-25T08:15:56.999Z</time></trkpt><trkpt lat="43.74500313169055" lon="10.495944844228175"><ele>398.1666666666667</ele><time>2026-04-25T08:15:58.999Z</time></trkpt><trkpt lat="43.74492154850335" lon="10.495885555192539"><ele>394.3333333333333</ele><time>2026-04-25T08:16:01.999Z</time></trkpt><trkpt lat="43.74484152242095" lon="10.495865806243147"><ele>390.5</ele><time>2026-04-25T08:16:03.999Z</time></trkpt><trkpt lat="43.74476238405051" lon="10.495859373965779"><ele>386.66666666666663</ele><time>2026-04-25T08:16:05.999Z</time></trkpt><trkpt lat="43.74467726075256" lon="10.495864674607319"><ele>382.8333333333333</ele><time>2026-04-25T08:16:08.999Z</time></trkpt><trkpt lat="43.74458171468699" lon="10.495876505851854"><ele>379.0</ele><time>2026-04-25T08:16:11.999Z</time></trkpt><trkpt lat="43.74451846471048" lon="10.495886102585255"><ele>379.0</ele><time>2026-04-25T08:16:13.999Z</time></trkpt><trkpt lat="43.744437044752594" lon="10.495945210640931"><ele>379.0</ele><time>2026-04-25T08:16:16.999Z</time></trkpt><trkpt lat="43.744370894367506" lon="10.49601525869764"><ele>379.0</ele><time>2026-04-25T08:16:19.999Z</time></trkpt><trkpt lat="43.7443463503506" lon="10.496124006382741"><ele>379.0</ele><time>2026-04-25T08:16:21.999Z</time></trkpt><trkpt lat="43.74436839666433" lon="10.4962193835984"><ele>379.0</ele><time>2026-04-25T08:16:23.999Z</time></trkpt><trkpt lat="43.74436893386944" lon="10.496326122618449"><ele>379.0</ele><time>2026-04-25T08:16:26.999Z</time></trkpt><trkpt lat="43.7443951842647" lon="10.496434675520508"><ele>380.0</ele><time>2026-04-25T08:16:29.999Z</time></trkpt><trkpt lat="43.744418766781315" lon="10.496518891040468"><ele>381.0</ele><time>2026-04-25T08:16:32.999Z</time></trkpt><trkpt lat="43.744446960612144" lon="10.49661211929861"><ele>382.0</ele><time>2026-04-25T08:16:35.998Z</time></trkpt><trkpt lat="43.74450674545818" lon="10.496714150192817"><ele>383.0</ele><time>2026-04-25T08:16:38.998Z</time></trkpt><trkpt lat="43.744575895960935" lon="10.49681039776964"><ele>384.00000000000006</ele><time>2026-04-25T08:16:41.998Z</time></trkpt><trkpt lat="43.74464710257304" lon="10.496854748646216"><ele>385.0</ele><time>2026-04-25T08:16:43.998Z</time></trkpt><trkpt lat="43.74471188271308" lon="10.496865326049665"><ele>385.00000000000006</ele><time>2026-04-25T08:16:45.998Z</time></trkpt><trkpt lat="43.74480495832284" lon="10.496894207793833"><ele>385.0</ele><time>2026-04-25T08:16:48.998Z</time></trkpt><trkpt lat="43.744875191913344" lon="10.49690137303255"><ele>385.0</ele><time>2026-04-25T08:16:50.998Z</time></trkpt><trkpt lat="43.74494550216713" lon="10.496915736850431"><ele>385.0</ele><time>2026-04-25T08:16:52.998Z</time></trkpt><trkpt lat="43.745002499970965" lon="10.497000747314592"><ele>385.00000000000006</ele><time>2026-04-25T08:16:54.998Z</time></trkpt><trkpt lat="43.74499423910372" lon="10.497098448256617"><ele>385.0</ele><time>2026-04-25T08:16:56.998Z</time></trkpt><trkpt lat="43.74492692206296" lon="10.49711795635901"><ele>385.00000000000006</ele><time>2026-04-25T08:16:58.998Z</time></trkpt><trkpt lat="43.74485483131616" lon="10.497117532753768"><ele>385.0</ele><time>2026-04-25T08:17:01.998Z</time></trkpt><trkpt lat="43.744778231746515" lon="10.497099385416588"><ele>385.0</ele><time>2026-04-25T08:17:03.998Z</time></trkpt><trkpt lat="43.744710575478805" lon="10.497080540275135"><ele>385.0</ele><time>2026-04-25T08:17:07Z</time></trkpt><trkpt lat="43.74461846994846" lon="10.497059602740636"><ele>385.00000000000006</ele><time>2026-04-25T08:17:09Z</time></trkpt><trkpt lat="43.7445358283475" lon="10.497033812415166"><ele>385.0</ele><time>2026-04-25T08:17:11Z</time></trkpt><trkpt lat="43.744462471794925" lon="10.496995295152997"><ele>385.00000000000006</ele><time>2026-04-25T08:17:14Z</time></trkpt><trkpt lat="43.74438056832368" lon="10.496943686697197"><ele>385.0</ele><time>2026-04-25T08:17:17Z</time></trkpt><trkpt lat="43.7443143375503" lon="10.49687677021751"><ele>385.0</ele><time>2026-04-25T08:17:20Z</time></trkpt><trkpt lat="43.744230290757486" lon="10.496810193903906"><ele>385.0</ele><time>2026-04-25T08:17:28Z</time></trkpt><trkpt lat="43.74418710291095" lon="10.496738523034377"><ele>385.00000000000006</ele><time>2026-04-25T08:17:30Z</time></trkpt><trkpt lat="43.744138464108694" lon="10.496665129537298"><ele>385.0</ele><time>2026-04-25T08:17:32Z</time></trkpt><trkpt lat="43.74406436501247" lon="10.496589133670087"><ele>381.33333333333337</ele><time>2026-04-25T08:17:35Z</time></trkpt><trkpt lat="43.74398523666642" lon="10.496549651507205"><ele>377.6666666666667</ele><time>2026-04-25T08:17:37Z</time></trkpt><trkpt lat="43.743910472434955" lon="10.49652944892443"><ele>374.0</ele><time>2026-04-25T08:17:39Z</time></trkpt><trkpt lat="43.7438257656027" lon="10.496514843562279"><ele>370.33333333333337</ele><time>2026-04-25T08:17:41Z</time></trkpt><trkpt lat="43.743754005756315" lon="10.496497018770235"><ele>366.6666666666667</ele><time>2026-04-25T08:17:43Z</time></trkpt><trkpt lat="43.743679295318714" lon="10.496474464170333"><ele>363.0</ele><time>2026-04-25T08:17:44.999Z</time></trkpt><trkpt lat="43.74359595816434" lon="10.496444510665889"><ele>362.3333333333333</ele><time>2026-04-25T08:17:46.999Z</time></trkpt><trkpt lat="43.743526044698974" lon="10.496399926469"><ele>361.6666666666667</ele><time>2026-04-25T08:17:48.999Z</time></trkpt><trkpt lat="43.743444714184186" lon="10.496329734101078"><ele>361.0</ele><time>2026-04-25T08:17:51.999Z</time></trkpt><trkpt lat="43.743371644160106" lon="10.49626767294848"><ele>360.33333333333337</ele><time>2026-04-25T08:17:54.999Z</time></trkpt><trkpt lat="43.74331651942172" lon="10.496221451111474"><ele>359.6666666666667</ele><time>2026-04-25T08:17:56.999Z</time></trkpt><trkpt lat="43.74325537964887" lon="10.496144205399952"><ele>359.0</ele><time>2026-04-25T08:17:58.999Z</time></trkpt><trkpt lat="43.74318665325048" lon="10.496081944592031"><ele>359.0</ele><time>2026-04-25T08:18:00.999Z</time></trkpt><trkpt lat="43.74309603388838" lon="10.496007123713932"><ele>359.0</ele><time>2026-04-25T08:18:02.999Z</time></trkpt><trkpt lat="43.74301092020288" lon="10.495925181962"><ele>359.0</ele><time>2026-04-25T08:18:04.999Z</time></trkpt><trkpt lat="43.74296533558056" lon="10.49585892781649"><ele>359.0</ele><time>2026-04-25T08:18:07.999Z</time></trkpt><trkpt lat="43.74291034855368" lon="10.49578628878608"><ele>359.0</ele><time>2026-04-25T08:18:09.999Z</time></trkpt><trkpt lat="43.74286719553829" lon="10.495719078066866"><ele>359.0</ele><time>2026-04-25T08:18:11.999Z</time></trkpt><trkpt lat="43.742815277425606" lon="10.495652762482505"><ele>359.0</ele><time>2026-04-25T08:18:13.999Z</time></trkpt><trkpt lat="43.74277208203799" lon="10.495584755737687"><ele>359.0</ele><time>2026-04-25T08:18:15.999Z</time></trkpt><trkpt lat="43.74273218585102" lon="10.495513148713323"><ele>359.0</ele><time>2026-04-25T08:18:17.999Z</time></trkpt><trkpt lat="43.74269342235064" lon="10.495405374130492"><ele>359.0</ele><time>2026-04-25T08:18:19.999Z</time></trkpt><trkpt lat="43.74266719455199" lon="10.49529739942048"><ele>359.0</ele><time>2026-04-25T08:18:20.999Z</time></trkpt><trkpt lat="43.74264368897211" lon="10.495201645975733"><ele>359.0</ele><time>2026-04-25T08:18:21.999Z</time></trkpt><trkpt lat="43.74261209004205" lon="10.495082310618313"><ele>355.2857142857143</ele><time>2026-04-25T08:18:23.999Z</time></trkpt><trkpt lat="43.74258140524779" lon="10.494999605491154"><ele>351.57142857142856</ele><time>2026-04-25T08:18:25.999Z</time></trkpt><trkpt lat="43.74254847872096" lon="10.494902393320645"><ele>347.8571428571429</ele><time>2026-04-25T08:18:27.999Z</time></trkpt><trkpt lat="43.742525867966386" lon="10.494807770260111"><ele>344.1428571428571</ele><time>2026-04-25T08:18:29.999Z</time></trkpt><trkpt lat="43.74248930212077" lon="10.494722925253614"><ele>340.4285714285714</ele><time>2026-04-25T08:18:31.999Z</time></trkpt><trkpt lat="43.74244965624349" lon="10.494645839738121"><ele>336.7142857142857</ele><time>2026-04-25T08:18:33.999Z</time></trkpt><trkpt lat="43.742429970677335" lon="10.494553667208121"><ele>333.0</ele><time>2026-04-25T08:18:36.999Z</time></trkpt><trkpt lat="43.74248475377336" lon="10.494504807651033"><ele>330.8333333333333</ele><time>2026-04-25T08:19:44Z</time></trkpt><trkpt lat="43.742557939421445" lon="10.494521633513985"><ele>328.6666666666667</ele><time>2026-04-25T08:19:46.999Z</time></trkpt><trkpt lat="43.742628274750466" lon="10.49453916610981"><ele>326.5</ele><time>2026-04-25T08:19:48.999Z</time></trkpt><trkpt lat="43.74270385275962" lon="10.494549690368439"><ele>324.33333333333337</ele><time>2026-04-25T08:19:50.999Z</time></trkpt><trkpt lat="43.74277463222299" lon="10.494551804094879"><ele>322.1666666666667</ele><time>2026-04-25T08:19:52.999Z</time></trkpt><trkpt lat="43.74284859731547" lon="10.494568470906465"><ele>320.0</ele><time>2026-04-25T08:19:54.999Z</time></trkpt><trkpt lat="43.74294068827684" lon="10.494570986532747"><ele>325.6666666666667</ele><time>2026-04-25T08:19:57.999Z</time></trkpt><trkpt lat="43.74301749184855" lon="10.494602109653393"><ele>331.33333333333337</ele><time>2026-04-25T08:20:00.999Z</time></trkpt><trkpt lat="43.74311013756477" lon="10.494609492767223"><ele>337.0</ele><time>2026-04-25T08:20:03.999Z</time></trkpt><trkpt lat="43.743185746495264" lon="10.49460608853351"><ele>342.6666666666667</ele><time>2026-04-25T08:20:06.999Z</time></trkpt><trkpt lat="43.74326426526349" lon="10.494611275588985"><ele>348.3333333333333</ele><time>2026-04-25T08:20:09.999Z</time></trkpt><trkpt lat="43.743333724350755" lon="10.494623526417902"><ele>354.0</ele><time>2026-04-25T08:20:11.999Z</time></trkpt><trkpt lat="43.743401047844735" lon="10.49464708696864"><ele>354.0</ele><time>2026-04-25T08:20:12.999Z</time></trkpt><trkpt lat="43.74347548680337" lon="10.49463854800316"><ele>354.0</ele><time>2026-04-25T08:20:16.999Z</time></trkpt><trkpt lat="43.743538757645275" lon="10.494656770523543"><ele>354.0</ele><time>2026-04-25T08:20:18.999Z</time></trkpt><trkpt lat="43.743604726565394" lon="10.494672343097639"><ele>354.0</ele><time>2026-04-25T08:20:20.999Z</time></trkpt><trkpt lat="43.74367990383672" lon="10.494703481310335"><ele>354.0</ele><time>2026-04-25T08:20:22.999Z</time></trkpt><trkpt lat="43.74375977441564" lon="10.494727389793288"><ele>354.0</ele><time>2026-04-25T08:20:24.999Z</time></trkpt><trkpt lat="43.74384278954234" lon="10.494756827098227"><ele>352.8333333333333</ele><time>2026-04-25T08:20:26.999Z</time></trkpt><trkpt lat="43.743917068730234" lon="10.49476663660964"><ele>351.6666666666667</ele><time>2026-04-25T08:20:28.999Z</time></trkpt><trkpt lat="43.74399155417154" lon="10.494786998312001"><ele>350.5</ele><time>2026-04-25T08:20:30.999Z</time></trkpt><trkpt lat="43.74407236257267" lon="10.494818987318242"><ele>349.33333333333337</ele><time>2026-04-25T08:20:32.999Z</time></trkpt><trkpt lat="43.74413923502862" lon="10.494806966115474"><ele>348.1666666666667</ele><time>2026-04-25T08:20:34.999Z</time></trkpt><trkpt lat="43.7442210107307" lon="10.49477294583509"><ele>347.0</ele><time>2026-04-25T08:20:36.999Z</time></trkpt><trkpt lat="43.74431208075398" lon="10.494711160296033"><ele>347.2857142857143</ele><time>2026-04-25T08:20:38.998Z</time></trkpt><trkpt lat="43.744391648987246" lon="10.494655339071285"><ele>347.57142857142856</ele><time>2026-04-25T08:20:40.998Z</time></trkpt><trkpt lat="43.74444441254708" lon="10.494597528354989"><ele>347.85714285714283</ele><time>2026-04-25T08:20:42.998Z</time></trkpt><trkpt lat="43.74452155995661" lon="10.494558009226436"><ele>348.1428571428571</ele><time>2026-04-25T08:20:44.998Z</time></trkpt><trkpt lat="43.74458446027487" lon="10.494512768748171"><ele>348.42857142857144</ele><time>2026-04-25T08:20:46.998Z</time></trkpt><trkpt lat="43.74464724446371" lon="10.494476619436236"><ele>348.71428571428567</ele><time>2026-04-25T08:20:48.998Z</time></trkpt><trkpt lat="43.7447125168021" lon="10.494450762635992"><ele>349.0</ele><time>2026-04-25T08:20:50.998Z</time></trkpt><trkpt lat="43.744775078858076" lon="10.494419117839378"><ele>343.66666666666663</ele><time>2026-04-25T08:20:52.998Z</time></trkpt><trkpt lat="43.74483624320417" lon="10.494397302096408"><ele>338.3333333333333</ele><time>2026-04-25T08:20:54.998Z</time></trkpt><trkpt lat="43.74491528900136" lon="10.494374089809938"><ele>333.0</ele><time>2026-04-25T08:20:56.998Z</time></trkpt><trkpt lat="43.744987771701524" lon="10.49434221337973"><ele>327.6666666666667</ele><time>2026-04-25T08:20:58.998Z</time></trkpt><trkpt lat="43.74507129878279" lon="10.49433545505658"><ele>322.33333333333337</ele><time>2026-04-25T08:21:00.998Z</time></trkpt><trkpt lat="43.74515254997004" lon="10.494323796976035"><ele>317.0</ele><time>2026-04-25T08:21:02.998Z</time></trkpt><trkpt lat="43.74522212898582" lon="10.494326734310869"><ele>317.0</ele><time>2026-04-25T08:21:04.998Z</time></trkpt><trkpt lat="43.74529108927834" lon="10.494324859515396"><ele>317.0</ele><time>2026-04-25T08:21:06.998Z</time></trkpt><trkpt lat="43.74535512935227" lon="10.494323217942071"><ele>317.0</ele><time>2026-04-25T08:21:08.998Z</time></trkpt><trkpt lat="43.745433240997166" lon="10.494344267011176"><ele>317.0</ele><time>2026-04-25T08:21:11.998Z</time></trkpt><trkpt lat="43.745499506296625" lon="10.494337086162647"><ele>317.0</ele><time>2026-04-25T08:21:13.998Z</time></trkpt><trkpt lat="43.7455873280114" lon="10.49430567843755"><ele>317.0</ele><time>2026-04-25T08:21:16Z</time></trkpt><trkpt lat="43.74565476555971" lon="10.494264254274103"><ele>317.0</ele><time>2026-04-25T08:21:18Z</time></trkpt><trkpt lat="43.745735167504094" lon="10.494179551775186"><ele>317.0</ele><time>2026-04-25T08:21:20Z</time></trkpt><trkpt lat="43.74581205684535" lon="10.494119568679853"><ele>317.0</ele><time>2026-04-25T08:21:22Z</time></trkpt><trkpt lat="43.74589521019124" lon="10.49405479631198"><ele>317.0</ele><time>2026-04-25T08:21:24Z</time></trkpt><trkpt lat="43.74598306518884" lon="10.49399065550527"><ele>317.0</ele><time>2026-04-25T08:21:26Z</time></trkpt><trkpt lat="43.746073197709826" lon="10.493913523793005"><ele>317.0</ele><time>2026-04-25T08:21:28Z</time></trkpt><trkpt lat="43.74615523620371" lon="10.493841534295282"><ele>314.33333333333337</ele><time>2026-04-25T08:21:30Z</time></trkpt><trkpt lat="43.746232118725395" lon="10.493780277178775"><ele>311.6666666666667</ele><time>2026-04-25T08:21:32Z</time></trkpt><trkpt lat="43.74630875916706" lon="10.49370535761191"><ele>309.0</ele><time>2026-04-25T08:21:34Z</time></trkpt><trkpt lat="43.74638240222892" lon="10.493630839883595"><ele>306.3333333333333</ele><time>2026-04-25T08:21:36Z</time></trkpt><trkpt lat="43.74644282475516" lon="10.493571997787537"><ele>303.66666666666663</ele><time>2026-04-25T08:21:38Z</time></trkpt><trkpt lat="43.746514405413265" lon="10.493495675921357"><ele>301.0</ele><time>2026-04-25T08:21:41Z</time></trkpt><trkpt lat="43.746578076145106" lon="10.493460710290265"><ele>301.0</ele><time>2026-04-25T08:22:23.999Z</time></trkpt><trkpt lat="43.746631202913434" lon="10.493408780328064"><ele>301.0</ele><time>2026-04-25T08:22:26.999Z</time></trkpt><trkpt lat="43.746691780887204" lon="10.49333450277655"><ele>301.0</ele><time>2026-04-25T08:22:29.999Z</time></trkpt><trkpt lat="43.746751049875876" lon="10.493273498276034"><ele>301.0</ele><time>2026-04-25T08:22:32.999Z</time></trkpt><trkpt lat="43.74680135329288" lon="10.493214967348242"><ele>301.0</ele><time>2026-04-25T08:22:34.999Z</time></trkpt><trkpt lat="43.74686272259541" lon="10.493164666894666"><ele>301.0</ele><time>2026-04-25T08:22:36.998Z</time></trkpt><trkpt lat="43.74691303474551" lon="10.493101042974633"><ele>301.0</ele><time>2026-04-25T08:22:38.998Z</time></trkpt><trkpt lat="43.74698210261552" lon="10.493038498576185"><ele>302.16666666666663</ele><time>2026-04-25T08:22:40.998Z</time></trkpt><trkpt lat="43.74706213428759" lon="10.49299223627941"><ele>303.3333333333333</ele><time>2026-04-25T08:22:42.998Z</time></trkpt><trkpt lat="43.74714841176536" lon="10.492948925640526"><ele>304.5</ele><time>2026-04-25T08:22:44.998Z</time></trkpt><trkpt lat="43.74720976220941" lon="10.492911319817402"><ele>305.6666666666667</ele><time>2026-04-25T08:22:46.998Z</time></trkpt><trkpt lat="43.74727140925226" lon="10.49283454904168"><ele>306.83333333333337</ele><time>2026-04-25T08:22:49.998Z</time></trkpt><trkpt lat="43.747333973842586" lon="10.492780263269845"><ele>308.0</ele><time>2026-04-25T08:22:52.998Z</time></trkpt><trkpt lat="43.74739151130834" lon="10.492707593196013"><ele>308.0</ele><time>2026-04-25T08:22:55.998Z</time></trkpt><trkpt lat="43.74743493154378" lon="10.492615764160758"><ele>308.0</ele><time>2026-04-25T08:22:58.998Z</time></trkpt><trkpt lat="43.74740954233923" lon="10.492489607442156"><ele>308.0</ele><time>2026-04-25T08:23:01.998Z</time></trkpt><trkpt lat="43.74736139300583" lon="10.49240584825705"><ele>308.0</ele><time>2026-04-25T08:23:03.998Z</time></trkpt><trkpt lat="43.74729996201067" lon="10.492352488341787"><ele>308.0</ele><time>2026-04-25T08:23:05.998Z</time></trkpt><trkpt lat="43.74723916995156" lon="10.492327975366122"><ele>308.0</ele><time>2026-04-25T08:23:07.998Z</time></trkpt><trkpt lat="43.7471668269203" lon="10.49229794969357"><ele>308.0</ele><time>2026-04-25T08:23:10.998Z</time></trkpt><trkpt lat="43.747102016365524" lon="10.492260564154993"><ele>308.0</ele><time>2026-04-25T08:23:12.998Z</time></trkpt><trkpt lat="43.74703507413918" lon="10.492220340845185"><ele>308.0</ele><time>2026-04-25T08:23:14.998Z</time></trkpt><trkpt lat="43.74697180516693" lon="10.492185602663536"><ele>308.0</ele><time>2026-04-25T08:23:16.998Z</time></trkpt><trkpt lat="43.74690559411288" lon="10.492156635507074"><ele>308.0</ele><time>2026-04-25T08:23:18.998Z</time></trkpt><trkpt lat="43.746844886108704" lon="10.49212095087328"><ele>308.0</ele><time>2026-04-25T08:23:20.998Z</time></trkpt><trkpt lat="43.74678829997473" lon="10.49207697496529"><ele>308.0</ele><time>2026-04-25T08:23:23Z</time></trkpt><trkpt lat="43.74672481377738" lon="10.492021195170755"><ele>307.0</ele><time>2026-04-25T08:23:26Z</time></trkpt><trkpt lat="43.74665197075684" lon="10.49195704249522"><ele>306.0</ele><time>2026-04-25T08:23:29Z</time></trkpt><trkpt lat="43.74656962658577" lon="10.49190599080534"><ele>305.0</ele><time>2026-04-25T08:23:32Z</time></trkpt><trkpt lat="43.74650464269567" lon="10.491857914612925"><ele>304.0</ele><time>2026-04-25T08:23:34Z</time></trkpt><trkpt lat="43.74643402324973" lon="10.491805274888138"><ele>303.0</ele><time>2026-04-25T08:23:36Z</time></trkpt><trkpt lat="43.74635788546246" lon="10.491752852723764"><ele>302.0</ele><time>2026-04-25T08:23:39Z</time></trkpt><trkpt lat="43.746291713717106" lon="10.491696144840951"><ele>302.0</ele><time>2026-04-25T08:23:41Z</time></trkpt><trkpt lat="43.746234104083435" lon="10.491642921460976"><ele>302.0</ele><time>2026-04-25T08:23:43Z</time></trkpt><trkpt lat="43.74618486229945" lon="10.491580738035113"><ele>302.0</ele><time>2026-04-25T08:23:45Z</time></trkpt><trkpt lat="43.74613520367136" lon="10.49152003963392"><ele>302.0</ele><time>2026-04-25T08:23:46.999Z</time></trkpt><trkpt lat="43.74607558434482" lon="10.491457642402077"><ele>302.0</ele><time>2026-04-25T08:23:48.999Z</time></trkpt><trkpt lat="43.74599882280669" lon="10.49136225165257"><ele>302.0</ele><time>2026-04-25T08:23:50.999Z</time></trkpt><trkpt lat="43.745910109204814" lon="10.491247154213093"><ele>300.6666666666667</ele><time>2026-04-25T08:23:52.999Z</time></trkpt><trkpt lat="43.74584000094486" lon="10.491154412449186"><ele>299.33333333333337</ele><time>2026-04-25T08:23:54.999Z</time></trkpt><trkpt lat="43.74578978164075" lon="10.491096658332104"><ele>298.0</ele><time>2026-04-25T08:23:56.999Z</time></trkpt><trkpt lat="43.74573768945969" lon="10.49102548047305"><ele>296.6666666666667</ele><time>2026-04-25T08:23:58.999Z</time></trkpt><trkpt lat="43.745682514554" lon="10.490946913771598"><ele>295.3333333333333</ele><time>2026-04-25T08:24:00.999Z</time></trkpt><trkpt lat="43.74559976183613" lon="10.49083574797002"><ele>294.0</ele><time>2026-04-25T08:24:02.999Z</time></trkpt><trkpt lat="43.74551220645771" lon="10.490720232136859"><ele>294.0</ele><time>2026-04-25T08:24:04.999Z</time></trkpt><trkpt lat="43.74543990529287" lon="10.490610152253858"><ele>294.0</ele><time>2026-04-25T08:24:06.999Z</time></trkpt><trkpt lat="43.74539121401281" lon="10.490543171656336"><ele>294.0</ele><time>2026-04-25T08:24:07.999Z</time></trkpt><trkpt lat="43.74534227737729" lon="10.490481763482082"><ele>294.0</ele><time>2026-04-25T08:24:08.999Z</time></trkpt><trkpt lat="43.74527563232362" lon="10.490401677487894"><ele>294.0</ele><time>2026-04-25T08:24:10.999Z</time></trkpt><trkpt lat="43.74522375528476" lon="10.490327129792831"><ele>294.0</ele><time>2026-04-25T08:24:12.999Z</time></trkpt><trkpt lat="43.745174604043854" lon="10.49026632022382"><ele>292.3333333333333</ele><time>2026-04-25T08:24:14.999Z</time></trkpt><trkpt lat="43.74511707949731" lon="10.490192779549194"><ele>290.6666666666667</ele><time>2026-04-25T08:24:17.999Z</time></trkpt><trkpt lat="43.745053511788726" lon="10.490112079565689"><ele>289.0</ele><time>2026-04-25T08:24:20.999Z</time></trkpt><trkpt lat="43.744985607546624" lon="10.490046082125815"><ele>287.33333333333337</ele><time>2026-04-25T08:24:23.999Z</time></trkpt><trkpt lat="43.744905861870436" lon="10.49004584086188"><ele>285.6666666666667</ele><time>2026-04-25T08:24:26.999Z</time></trkpt><trkpt lat="43.74483058572851" lon="10.490023641146355"><ele>284.0</ele><time>2026-04-25T08:25:09.998Z</time></trkpt><trkpt lat="43.74474970806306" lon="10.489984481267491"><ele>284.0</ele><time>2026-04-25T08:25:12.998Z</time></trkpt><trkpt lat="43.74469178603325" lon="10.48994936108697"><ele>284.0</ele><time>2026-04-25T08:25:15.998Z</time></trkpt><trkpt lat="43.744619608222386" lon="10.489917075408444"><ele>284.0</ele><time>2026-04-25T08:25:18.998Z</time></trkpt><trkpt lat="43.74455578111438" lon="10.489881892684853"><ele>284.0</ele><time>2026-04-25T08:25:21.998Z</time></trkpt><trkpt lat="43.744483168921484" lon="10.489824394454866"><ele>284.0</ele><time>2026-04-25T08:25:25.998Z</time></trkpt><trkpt lat="43.744417363583146" lon="10.489773366480012"><ele>284.0</ele><time>2026-04-25T08:25:29Z</time></trkpt><trkpt lat="43.7443635238437" lon="10.489716673835725"><ele>284.0</ele><time>2026-04-25T08:25:32Z</time></trkpt><trkpt lat="43.74430886593949" lon="10.489644214657087"><ele>282.2857142857143</ele><time>2026-04-25T08:25:35Z</time></trkpt><trkpt lat="43.74425052120527" lon="10.4895777644691"><ele>280.57142857142856</ele><time>2026-04-25T08:25:38Z</time></trkpt><trkpt lat="43.744204553861884" lon="10.489501855686816"><ele>278.85714285714283</ele><time>2026-04-25T08:25:41Z</time></trkpt><trkpt lat="43.74415499428965" lon="10.489421493234625"><ele>277.1428571428571</ele><time>2026-04-25T08:25:45Z</time></trkpt><trkpt lat="43.74412219893585" lon="10.489321843239162"><ele>275.42857142857144</ele><time>2026-04-25T08:25:48Z</time></trkpt><trkpt lat="43.74410228384535" lon="10.48923581499875"><ele>273.71428571428567</ele><time>2026-04-25T08:25:49.999Z</time></trkpt><trkpt lat="43.744077955293704" lon="10.4891346085466"><ele>272.0</ele><time>2026-04-25T08:25:51.999Z</time></trkpt><trkpt lat="43.744045529889675" lon="10.489030668070187"><ele>272.0</ele><time>2026-04-25T08:25:53.999Z</time></trkpt><trkpt lat="43.74402847252462" lon="10.488927113784305"><ele>272.0</ele><time>2026-04-25T08:25:56.999Z</time></trkpt><trkpt lat="43.744000510664556" lon="10.488822739399563"><ele>272.0</ele><time>2026-04-25T08:26:00.999Z</time></trkpt><trkpt lat="43.74397753640233" lon="10.488722941134231"><ele>272.0</ele><time>2026-04-25T08:26:03.999Z</time></trkpt><trkpt lat="43.743941049194824" lon="10.488620306706633"><ele>272.0</ele><time>2026-04-25T08:26:06.999Z</time></trkpt><trkpt lat="43.74389111605244" lon="10.488520375393623"><ele>272.0</ele><time>2026-04-25T08:26:09.999Z</time></trkpt><trkpt lat="43.74386043617303" lon="10.488443214520734"><ele>273.2857142857143</ele><time>2026-04-25T08:26:11.999Z</time></trkpt><trkpt lat="43.74382612183282" lon="10.488361376328886"><ele>274.57142857142856</ele><time>2026-04-25T08:26:13.999Z</time></trkpt><trkpt lat="43.743790790951245" lon="10.48828523531973"><ele>275.8571428571429</ele><time>2026-04-25T08:26:16.999Z</time></trkpt><trkpt lat="43.74375657969648" lon="10.488189130325953"><ele>277.1428571428571</ele><time>2026-04-25T08:26:19.999Z</time></trkpt><trkpt lat="43.74372397071601" lon="10.48811300115236"><ele>278.42857142857144</ele><time>2026-04-25T08:26:22.999Z</time></trkpt><trkpt lat="43.74368543141856" lon="10.488027196511712"><ele>279.7142857142857</ele><time>2026-04-25T08:26:25.999Z</time></trkpt><trkpt lat="43.74365535872815" lon="10.487932283553754"><ele>281.0</ele><time>2026-04-25T08:26:28.999Z</time></trkpt><trkpt lat="43.74362205672593" lon="10.487836401339461"><ele>283.1666666666667</ele><time>2026-04-25T08:26:31.999Z</time></trkpt><trkpt lat="43.743585439872426" lon="10.487722330572057"><ele>285.33333333333337</ele><time>2026-04-25T08:26:34.999Z</time></trkpt><trkpt lat="43.743539824132796" lon="10.487631718699554"><ele>287.5</ele><time>2026-04-25T08:26:37.999Z</time></trkpt><trkpt lat="43.74350844536233" lon="10.48754682672894"><ele>289.6666666666667</ele><time>2026-04-25T08:26:39.999Z</time></trkpt><trkpt lat="43.74346887233025" lon="10.487471032332179"><ele>291.8333333333333</ele><time>2026-04-25T08:26:42.999Z</time></trkpt><trkpt lat="43.74342973029664" lon="10.487377722432477"><ele>294.0</ele><time>2026-04-25T08:26:45.999Z</time></trkpt><trkpt lat="43.74338512402217" lon="10.48729442536265"><ele>288.85714285714283</ele><time>2026-04-25T08:26:48.998Z</time></trkpt><trkpt lat="43.7433486552051" lon="10.487204720292555"><ele>283.7142857142857</ele><time>2026-04-25T08:26:51.998Z</time></trkpt><trkpt lat="43.74331300218001" lon="10.487115637756794"><ele>278.57142857142856</ele><time>2026-04-25T08:26:54.998Z</time></trkpt><trkpt lat="43.74329161899888" lon="10.487022530912668"><ele>273.42857142857144</ele><time>2026-04-25T08:26:58.998Z</time></trkpt><trkpt lat="43.743272245805905" lon="10.486923960450858"><ele>268.2857142857143</ele><time>2026-04-25T08:27:02.998Z</time></trkpt><trkpt lat="43.74323740720202" lon="10.486836454494586"><ele>263.1428571428571</ele><time>2026-04-25T08:27:05.998Z</time></trkpt><trkpt lat="43.74321088514532" lon="10.486756447180401"><ele>258.0</ele><time>2026-04-25T08:27:08.998Z</time></trkpt><trkpt lat="43.7431865021191" lon="10.486673540159522"><ele>257.99999999999994</ele><time>2026-04-25T08:27:10.998Z</time></trkpt><trkpt lat="43.743167387175404" lon="10.486587635236202"><ele>258.0</ele><time>2026-04-25T08:27:12.998Z</time></trkpt><trkpt lat="43.743134482127935" lon="10.486496317369465"><ele>258.0</ele><time>2026-04-25T08:27:15.998Z</time></trkpt><trkpt lat="43.74311375130453" lon="10.486407177492337"><ele>258.0</ele><time>2026-04-25T08:27:17.998Z</time></trkpt><trkpt lat="43.74308425154247" lon="10.48631583782007"><ele>258.0</ele><time>2026-04-25T08:27:19.998Z</time></trkpt><trkpt lat="43.74305046361545" lon="10.486216993942342"><ele>257.99999999999994</ele><time>2026-04-25T08:27:22.998Z</time></trkpt><trkpt lat="43.74301701710972" lon="10.486120497011823"><ele>258.0</ele><time>2026-04-25T08:27:25.998Z</time></trkpt><trkpt lat="43.7429860568805" lon="10.486019094909551"><ele>260.8333333333333</ele><time>2026-04-25T08:27:28.998Z</time></trkpt><trkpt lat="43.742941245834274" lon="10.485931531861288"><ele>263.6666666666667</ele><time>2026-04-25T08:27:32Z</time></trkpt><trkpt lat="43.742904967223" lon="10.485827850397673"><ele>266.5</ele><time>2026-04-25T08:27:34.999Z</time></trkpt><trkpt lat="43.74286514351701" lon="10.485737385466411"><ele>269.33333333333337</ele><time>2026-04-25T08:27:37.999Z</time></trkpt><trkpt lat="43.74280674014558" lon="10.48566615951651"><ele>272.1666666666667</ele><time>2026-04-25T08:27:43.999Z</time></trkpt><trkpt lat="43.742761535556916" lon="10.485591287665422"><ele>275.0</ele><time>2026-04-25T08:27:46.999Z</time></trkpt><trkpt lat="43.74271742700112" lon="10.485513876793174"><ele>272.0</ele><time>2026-04-25T08:27:49.999Z</time></trkpt><trkpt lat="43.74266002074324" lon="10.485447484703558"><ele>269.0</ele><time>2026-04-25T08:27:52.999Z</time></trkpt><trkpt lat="43.74259521460108" lon="10.485406211409003"><ele>266.0</ele><time>2026-04-25T08:27:54.999Z</time></trkpt><trkpt lat="43.742527451362534" lon="10.485385088914484"><ele>263.0</ele><time>2026-04-25T08:27:56.999Z</time></trkpt><trkpt lat="43.74244428125406" lon="10.485369693825355"><ele>260.0</ele><time>2026-04-25T08:27:59.999Z</time></trkpt><trkpt lat="43.74236758221409" lon="10.485404117047876"><ele>257.0</ele><time>2026-04-25T08:28:03.999Z</time></trkpt><trkpt lat="43.74229526267849" lon="10.485430895749408"><ele>257.0</ele><time>2026-04-25T08:28:06.999Z</time></trkpt><trkpt lat="43.7422058438059" lon="10.48544681468758"><ele>257.0</ele><time>2026-04-25T08:28:10.999Z</time></trkpt><trkpt lat="43.74213285817797" lon="10.485467293034226"><ele>257.0</ele><time>2026-04-25T08:28:13.999Z</time></trkpt><trkpt lat="43.74204503877357" lon="10.485478166167384"><ele>257.0</ele><time>2026-04-25T08:28:15.999Z</time></trkpt><trkpt lat="43.74196894183687" lon="10.485436192836714"><ele>257.0</ele><time>2026-04-25T08:28:19.999Z</time></trkpt><trkpt lat="43.74189605499159" lon="10.485410208182293"><ele>257.0</ele><time>2026-04-25T08:28:22.999Z</time></trkpt><trkpt lat="43.741838442442464" lon="10.485358332492561"><ele>253.83333333333334</ele><time>2026-04-25T08:28:25.999Z</time></trkpt><trkpt lat="43.74176884123258" lon="10.485317507417404"><ele>250.66666666666669</ele><time>2026-04-25T08:28:29.999Z</time></trkpt><trkpt lat="43.74170064103235" lon="10.485273881018786"><ele>247.5</ele><time>2026-04-25T08:28:32.999Z</time></trkpt><trkpt lat="43.74163827988098" lon="10.48522254995167"><ele>244.33333333333331</ele><time>2026-04-25T08:28:35.999Z</time></trkpt><trkpt lat="43.74157355765357" lon="10.48518244383246"><ele>241.16666666666666</ele><time>2026-04-25T08:28:38.999Z</time></trkpt><trkpt lat="43.74149896206219" lon="10.485159934139194"><ele>238.0</ele><time>2026-04-25T08:28:41.999Z</time></trkpt><trkpt lat="43.74142735541094" lon="10.485102714267164"><ele>237.99999999999997</ele><time>2026-04-25T08:28:44.999Z</time></trkpt><trkpt lat="43.741357639360004" lon="10.485063456405655"><ele>238.0</ele><time>2026-04-25T08:28:47.999Z</time></trkpt><trkpt lat="43.741288439178405" lon="10.48501817693891"><ele>238.0</ele><time>2026-04-25T08:28:50.999Z</time></trkpt><trkpt lat="43.74121251168935" lon="10.484997640139014"><ele>238.0</ele><time>2026-04-25T08:28:54.998Z</time></trkpt><trkpt lat="43.74114738886549" lon="10.484975171822063"><ele>237.99999999999997</ele><time>2026-04-25T08:28:57.998Z</time></trkpt><trkpt lat="43.7410804557372" lon="10.484923307562294"><ele>238.0</ele><time>2026-04-25T08:29:00.998Z</time></trkpt><trkpt lat="43.74101035193359" lon="10.484880771297265"><ele>237.0</ele><time>2026-04-25T08:29:03.998Z</time></trkpt><trkpt lat="43.74095754897544" lon="10.48482143484727"><ele>236.0</ele><time>2026-04-25T08:29:07.998Z</time></trkpt><trkpt lat="43.7409025174144" lon="10.484778526409311"><ele>235.0</ele><time>2026-04-25T08:29:09.998Z</time></trkpt><trkpt lat="43.740844124038844" lon="10.484726277136007"><ele>234.0</ele><time>2026-04-25T08:29:12.998Z</time></trkpt><trkpt lat="43.74078909534372" lon="10.484664085349355"><ele>233.0</ele><time>2026-04-25T08:29:16.998Z</time></trkpt><trkpt lat="43.740722318675736" lon="10.484596086525158"><ele>232.0</ele><time>2026-04-25T08:30:05.999Z</time></trkpt><trkpt lat="43.74069973353673" lon="10.4844951470396"><ele>231.0</ele><time>2026-04-25T08:30:08.999Z</time></trkpt><trkpt lat="43.74067333920066" lon="10.48439995475827"><ele>231.0</ele><time>2026-04-25T08:30:11.999Z</time></trkpt><trkpt lat="43.740624591509004" lon="10.484281573470833"><ele>231.0</ele><time>2026-04-25T08:30:14.999Z</time></trkpt><trkpt lat="43.74061308297525" lon="10.484192069547474"><ele>231.0</ele><time>2026-04-25T08:30:16.999Z</time></trkpt><trkpt lat="43.74061233638568" lon="10.484085315868953"><ele>231.0</ele><time>2026-04-25T08:30:19.999Z</time></trkpt><trkpt lat="43.74060608745025" lon="10.48399840758754"><ele>231.0</ele><time>2026-04-25T08:30:21.999Z</time></trkpt><trkpt lat="43.740598069835" lon="10.483874392418318"><ele>231.0</ele><time>2026-04-25T08:30:24.999Z</time></trkpt><trkpt lat="43.74058838179137" lon="10.483771661345155"><ele>231.5</ele><time>2026-04-25T08:30:26.999Z</time></trkpt><trkpt lat="43.740566009898885" lon="10.483648221300843"><ele>232.0</ele><time>2026-04-25T08:30:28.999Z</time></trkpt><trkpt lat="43.74055537241519" lon="10.483560706126582"><ele>232.5</ele><time>2026-04-25T08:30:30.999Z</time></trkpt><trkpt lat="43.740536873046466" lon="10.483451105363919"><ele>233.0</ele><time>2026-04-25T08:30:34.999Z</time></trkpt><trkpt lat="43.74052654428432" lon="10.48333938427348"><ele>233.5</ele><time>2026-04-25T08:30:37.999Z</time></trkpt><trkpt lat="43.74052450127034" lon="10.483224975864276"><ele>234.0</ele><time>2026-04-25T08:30:40.999Z</time></trkpt><trkpt lat="43.740513199617205" lon="10.483113086402321"><ele>234.0</ele><time>2026-04-25T08:30:43.999Z</time></trkpt><trkpt lat="43.74049593547441" lon="10.483002712503124"><ele>234.0</ele><time>2026-04-25T08:30:46.999Z</time></trkpt><trkpt lat="43.74049332096271" lon="10.482913729678044"><ele>234.0</ele><time>2026-04-25T08:30:48.999Z</time></trkpt><trkpt lat="43.740489928761214" lon="10.482798060566045"><ele>234.0</ele><time>2026-04-25T08:30:51.999Z</time></trkpt><trkpt lat="43.74048684525474" lon="10.48268927840432"><ele>234.0</ele><time>2026-04-25T08:30:55.998Z</time></trkpt><trkpt lat="43.740477555360286" lon="10.482592688699722"><ele>234.0</ele><time>2026-04-25T08:30:57.998Z</time></trkpt><trkpt lat="43.74046654058108" lon="10.482490902624114"><ele>233.83333333333334</ele><time>2026-04-25T08:31:00.998Z</time></trkpt><trkpt lat="43.740461747602254" lon="10.482394593468262"><ele>233.66666666666669</ele><time>2026-04-25T08:31:03.998Z</time></trkpt><trkpt lat="43.74044696649688" lon="10.482262016304649"><ele>233.5</ele><time>2026-04-25T08:31:06.998Z</time></trkpt><trkpt lat="43.740441320722134" lon="10.482167868997049"><ele>233.33333333333334</ele><time>2026-04-25T08:31:08.998Z</time></trkpt><trkpt lat="43.74043564068185" lon="10.482067790204457"><ele>233.16666666666669</ele><time>2026-04-25T08:31:11.998Z</time></trkpt><trkpt lat="43.74043459990761" lon="10.481960027053887"><ele>233.0</ele><time>2026-04-25T08:31:14.998Z</time></trkpt><trkpt lat="43.74042807676757" lon="10.481871304935536"><ele>233.00000000000003</ele><time>2026-04-25T08:31:16.998Z</time></trkpt><trkpt lat="43.74042131425719" lon="10.481772407888426"><ele>233.0</ele><time>2026-04-25T08:31:18.998Z</time></trkpt><trkpt lat="43.740418209750516" lon="10.481662797242727"><ele>233.0</ele><time>2026-04-25T08:31:20.998Z</time></trkpt><trkpt lat="43.74040685674778" lon="10.481571992447119"><ele>233.0</ele><time>2026-04-25T08:31:23.998Z</time></trkpt><trkpt lat="43.74039882765233" lon="10.481447847105294"><ele>233.00000000000003</ele><time>2026-04-25T08:31:27.998Z</time></trkpt><trkpt lat="43.74038902808495" lon="10.481334328642431"><ele>233.0</ele><time>2026-04-25T08:31:29.998Z</time></trkpt><trkpt lat="43.74037722618969" lon="10.481248708328586"><ele>231.83333333333334</ele><time>2026-04-25T08:31:31.998Z</time></trkpt><trkpt lat="43.740374178044064" lon="10.481146088148877"><ele>230.66666666666669</ele><time>2026-04-25T08:31:34.998Z</time></trkpt><trkpt lat="43.74036171119328" lon="10.481052927220793"><ele>229.5</ele><time>2026-04-25T08:31:37.998Z</time></trkpt><trkpt lat="43.740342200232895" lon="10.480934089573342"><ele>228.33333333333331</ele><time>2026-04-25T08:31:40.998Z</time></trkpt><trkpt lat="43.74032318259656" lon="10.48082165297621"><ele>227.16666666666666</ele><time>2026-04-25T08:31:42.998Z</time></trkpt><trkpt lat="43.74030769809668" lon="10.480718229639175"><ele>226.0</ele><time>2026-04-25T08:31:44.999Z</time></trkpt><trkpt lat="43.74028165293558" lon="10.480611854806"><ele>225.99999999999997</ele><time>2026-04-25T08:31:46.999Z</time></trkpt><trkpt lat="43.74026334962266" lon="10.480509919409279"><ele>226.0</ele><time>2026-04-25T08:31:48.999Z</time></trkpt><trkpt lat="43.74024916073024" lon="10.480396808266475"><ele>226.0</ele><time>2026-04-25T08:31:50.999Z</time></trkpt><trkpt lat="43.74023453646006" lon="10.480311642900615"><ele>226.0</ele><time>2026-04-25T08:31:52.999Z</time></trkpt><trkpt lat="43.740209082197765" lon="10.48019559334355"><ele>225.99999999999997</ele><time>2026-04-25T08:31:54.999Z</time></trkpt><trkpt lat="43.740171774866866" lon="10.480054725289568"><ele>226.0</ele><time>2026-04-25T08:31:56.999Z</time></trkpt><trkpt lat="43.740150517399165" lon="10.479939693445004"><ele>218.83333333333331</ele><time>2026-04-25T08:31:58.999Z</time></trkpt><trkpt lat="43.74013066294288" lon="10.47983276300376"><ele>211.66666666666666</ele><time>2026-04-25T08:32:00.999Z</time></trkpt><trkpt lat="43.74010352799178" lon="10.479710716654221"><ele>204.5</ele><time>2026-04-25T08:32:02.999Z</time></trkpt><trkpt lat="43.74008875053175" lon="10.479614744489226"><ele>197.33333333333331</ele><time>2026-04-25T08:32:04.999Z</time></trkpt><trkpt lat="43.7400715764362" lon="10.47951392066305"><ele>190.16666666666666</ele><time>2026-04-25T08:32:07.999Z</time></trkpt><trkpt lat="43.74004897650858" lon="10.479401791733896"><ele>183.0</ele><time>2026-04-25T08:32:10.999Z</time></trkpt><trkpt lat="43.740047611188736" lon="10.479294140690524"><ele>182.66666666666666</ele><time>2026-04-25T08:32:13.999Z</time></trkpt><trkpt lat="43.74003767862008" lon="10.479197003088744"><ele>182.33333333333334</ele><time>2026-04-25T08:32:17.999Z</time></trkpt><trkpt lat="43.74002636150666" lon="10.47909997704473"><ele>182.0</ele><time>2026-04-25T08:32:20.999Z</time></trkpt><trkpt lat="43.74000818190017" lon="10.478983456779085"><ele>181.66666666666669</ele><time>2026-04-25T08:32:24.999Z</time></trkpt><trkpt lat="43.74001852429698" lon="10.47887056734169"><ele>181.33333333333334</ele><time>2026-04-25T08:32:27.999Z</time></trkpt><trkpt lat="43.74006323814392" lon="10.478762680079928"><ele>181.0</ele><time>2026-04-25T08:32:30.999Z</time></trkpt><trkpt lat="43.74013747959593" lon="10.478707491962748"><ele>182.83333333333334</ele><time>2026-04-25T08:32:33.999Z</time></trkpt><trkpt lat="43.74021542156481" lon="10.478712296635077"><ele>184.66666666666669</ele><time>2026-04-25T08:32:36.999Z</time></trkpt><trkpt lat="43.74028671650249" lon="10.478726497710763"><ele>186.5</ele><time>2026-04-25T08:32:39.999Z</time></trkpt><trkpt lat="43.74036427257155" lon="10.478739542225668"><ele>188.33333333333334</ele><time>2026-04-25T08:32:41.999Z</time></trkpt><trkpt lat="43.74043350330775" lon="10.47875407764803"><ele>190.16666666666666</ele><time>2026-04-25T08:32:44.999Z</time></trkpt><trkpt lat="43.74057208717046" lon="10.478800041909984"><ele>192.0</ele><time>2026-04-25T08:32:47.999Z</time></trkpt><trkpt lat="43.74067064044596" lon="10.478821037679594"><ele>191.99999999999997</ele><time>2026-04-25T08:32:49.999Z</time></trkpt><trkpt lat="43.740736832118685" lon="10.478841204781585"><ele>192.0</ele><time>2026-04-25T08:32:51.999Z</time></trkpt><trkpt lat="43.740807058240456" lon="10.478875670259667"><ele>192.0</ele><time>2026-04-25T08:32:53.999Z</time></trkpt><trkpt lat="43.740879350308376" lon="10.478911030253728"><ele>192.0</ele><time>2026-04-25T08:32:55.998Z</time></trkpt><trkpt lat="43.74094657779815" lon="10.478940960715992"><ele>192.0</ele><time>2026-04-25T08:32:57.998Z</time></trkpt><trkpt lat="43.741015072115644" lon="10.478976775164554"><ele>191.99999999999997</ele><time>2026-04-25T08:32:59.998Z</time></trkpt><trkpt lat="43.74108596484242" lon="10.479009658684124"><ele>192.0</ele><time>2026-04-25T08:33:01.998Z</time></trkpt><trkpt lat="43.74115315691341" lon="10.47905334748237"><ele>189.33333333333334</ele><time>2026-04-25T08:33:03.998Z</time></trkpt><trkpt lat="43.74124038212523" lon="10.479112963583658"><ele>186.66666666666666</ele><time>2026-04-25T08:33:06.998Z</time></trkpt><trkpt lat="43.74130564607225" lon="10.479153558609877"><ele>184.0</ele><time>2026-04-25T08:33:08.998Z</time></trkpt><trkpt lat="43.74137937064493" lon="10.479180541507091"><ele>181.33333333333331</ele><time>2026-04-25T08:33:10.998Z</time></trkpt><trkpt lat="43.741453057042044" lon="10.479212669530568"><ele>178.66666666666666</ele><time>2026-04-25T08:33:12.998Z</time></trkpt><trkpt lat="43.74155051259494" lon="10.479276635135733"><ele>176.0</ele><time>2026-04-25T08:33:14.998Z</time></trkpt><trkpt lat="43.741651585231196" lon="10.47934354424683"><ele>176.0</ele><time>2026-04-25T08:33:16.998Z</time></trkpt><trkpt lat="43.74173786083637" lon="10.479401170036523"><ele>176.0</ele><time>2026-04-25T08:33:18.998Z</time></trkpt><trkpt lat="43.741821779380196" lon="10.479448719544436"><ele>176.0</ele><time>2026-04-25T08:33:20.998Z</time></trkpt><trkpt lat="43.74189946611003" lon="10.4794897305448"><ele>176.0</ele><time>2026-04-25T08:33:22.998Z</time></trkpt><trkpt lat="43.74198581338626" lon="10.479515761706246"><ele>176.0</ele><time>2026-04-25T08:33:24.998Z</time></trkpt><trkpt lat="43.74208048561301" lon="10.479582200211158"><ele>177.0</ele><time>2026-04-25T08:33:26.998Z</time></trkpt><trkpt lat="43.74217625578732" lon="10.479641024419239"><ele>178.0</ele><time>2026-04-25T08:33:28.998Z</time></trkpt><trkpt lat="43.742252086559546" lon="10.479671878867027"><ele>179.0</ele><time>2026-04-25T08:33:30.998Z</time></trkpt><trkpt lat="43.74231441322039" lon="10.479716079568862"><ele>180.0</ele><time>2026-04-25T08:33:32.998Z</time></trkpt><trkpt lat="43.74238222160692" lon="10.47976964461348"><ele>181.0</ele><time>2026-04-25T08:33:34.998Z</time></trkpt><trkpt lat="43.74244361819569" lon="10.479815050197852"><ele>182.0</ele><time>2026-04-25T08:33:36.998Z</time></trkpt><trkpt lat="43.742506452317855" lon="10.479871963876356"><ele>182.0</ele><time>2026-04-25T08:33:38.998Z</time></trkpt><trkpt lat="43.74256673497193" lon="10.479931787633786"><ele>182.0</ele><time>2026-04-25T08:33:40.998Z</time></trkpt><trkpt lat="43.74262850843304" lon="10.479982814550695"><ele>182.0</ele><time>2026-04-25T08:33:42.998Z</time></trkpt><trkpt lat="43.7426910892881" lon="10.480038025222022"><ele>182.0</ele><time>2026-04-25T08:33:44.998Z</time></trkpt><trkpt lat="43.7427539851502" lon="10.480089520436596"><ele>182.0</ele><time>2026-04-25T08:33:46.998Z</time></trkpt><trkpt lat="43.74280774354733" lon="10.48016743982973"><ele>182.0</ele><time>2026-04-25T08:33:48.999Z</time></trkpt><trkpt lat="43.74285885012479" lon="10.480240941290509"><ele>182.0</ele><time>2026-04-25T08:33:50.999Z</time></trkpt><trkpt lat="43.74292418271557" lon="10.480316084300952"><ele>183.33333333333331</ele><time>2026-04-25T08:33:53.999Z</time></trkpt><trkpt lat="43.74299285164618" lon="10.480275699832601"><ele>184.66666666666666</ele><time>2026-04-25T08:33:55.999Z</time></trkpt><trkpt lat="43.743019984096904" lon="10.480179564675293"><ele>186.0</ele><time>2026-04-25T08:33:57.999Z</time></trkpt><trkpt lat="43.74303618880588" lon="10.480065842913083"><ele>187.33333333333334</ele><time>2026-04-25T08:34:00.999Z</time></trkpt><trkpt lat="43.74304999879029" lon="10.479966079016767"><ele>188.66666666666669</ele><time>2026-04-25T08:34:03.999Z</time></trkpt><trkpt lat="43.74305329198554" lon="10.479850869965091"><ele>190.0</ele><time>2026-04-25T08:34:06.999Z</time></trkpt><trkpt lat="43.74303447369483" lon="10.479764098275997"><ele>190.0</ele><time>2026-04-25T08:34:08.999Z</time></trkpt><trkpt lat="43.74301264854034" lon="10.479662953165853"><ele>190.0</ele><time>2026-04-25T08:34:10.999Z</time></trkpt><trkpt lat="43.74299801841661" lon="10.479567113256389"><ele>190.0</ele><time>2026-04-25T08:34:12.999Z</time></trkpt><trkpt lat="43.74299108624717" lon="10.479468979510425"><ele>190.0</ele><time>2026-04-25T08:34:14.999Z</time></trkpt><trkpt lat="43.742995084583214" lon="10.479350680944195"><ele>190.0</ele><time>2026-04-25T08:34:16.999Z</time></trkpt><trkpt lat="43.7430132102808" lon="10.479241963497632"><ele>190.0</ele><time>2026-04-25T08:34:18.999Z</time></trkpt><trkpt lat="43.743024093633544" lon="10.47913330622661"><ele>188.16666666666669</ele><time>2026-04-25T08:34:21.999Z</time></trkpt><trkpt lat="43.743043143801785" lon="10.479042921271281"><ele>186.33333333333334</ele><time>2026-04-25T08:34:23.999Z</time></trkpt><trkpt lat="43.74306384972198" lon="10.478938308542354"><ele>184.5</ele><time>2026-04-25T08:34:25.999Z</time></trkpt><trkpt lat="43.74307999222083" lon="10.478821908313243"><ele>182.66666666666666</ele><time>2026-04-25T08:34:27.999Z</time></trkpt><trkpt lat="43.7430984222639" lon="10.478707923236922"><ele>180.83333333333331</ele><time>2026-04-25T08:34:29.999Z</time></trkpt><trkpt lat="43.74310998818714" lon="10.478596760150293"><ele>179.0</ele><time>2026-04-25T08:34:31.999Z</time></trkpt><trkpt lat="43.74311285707141" lon="10.478495637626814"><ele>177.2857142857143</ele><time>2026-04-25T08:34:33.999Z</time></trkpt><trkpt lat="43.74311163336475" lon="10.47840657612845"><ele>175.57142857142858</ele><time>2026-04-25T08:34:36.999Z</time></trkpt><trkpt lat="43.74311919245982" lon="10.478318347584251"><ele>173.85714285714286</ele><time>2026-04-25T08:34:38.999Z</time></trkpt><trkpt lat="43.74312142011588" lon="10.47822187268046"><ele>172.14285714285717</ele><time>2026-04-25T08:34:40.999Z</time></trkpt><trkpt lat="43.74312687436061" lon="10.478130884432511"><ele>170.42857142857144</ele><time>2026-04-25T08:34:42.999Z</time></trkpt><trkpt lat="43.74312724973213" lon="10.478033837171326"><ele>168.71428571428572</ele><time>2026-04-25T08:34:44.999Z</time></trkpt><trkpt lat="43.74313209129937" lon="10.477919985101702"><ele>167.0</ele><time>2026-04-25T08:34:47.999Z</time></trkpt><trkpt lat="43.74313923717195" lon="10.477789666617436"><ele>165.33333333333331</ele><time>2026-04-25T08:34:50.999Z</time></trkpt><trkpt lat="43.743160249925474" lon="10.477685707439438"><ele>163.66666666666666</ele><time>2026-04-25T08:34:52.999Z</time></trkpt><trkpt lat="43.74317478124508" lon="10.477565932130762"><ele>162.0</ele><time>2026-04-25T08:34:55.999Z</time></trkpt><trkpt lat="43.74317892912158" lon="10.477456038517921"><ele>160.33333333333334</ele><time>2026-04-25T08:34:58.998Z</time></trkpt><trkpt lat="43.74319036738902" lon="10.477336171539728"><ele>158.66666666666669</ele><time>2026-04-25T08:35:01.998Z</time></trkpt><trkpt lat="43.74320717934932" lon="10.477234255258914"><ele>157.0</ele><time>2026-04-25T08:35:03.998Z</time></trkpt><trkpt lat="43.74323063652911" lon="10.477137582577054"><ele>155.57142857142856</ele><time>2026-04-25T08:35:05.998Z</time></trkpt><trkpt lat="43.74324227697841" lon="10.47704438805487"><ele>154.14285714285714</ele><time>2026-04-25T08:35:07.998Z</time></trkpt><trkpt lat="43.74324265743893" lon="10.476955352934327"><ele>152.71428571428572</ele><time>2026-04-25T08:35:10.998Z</time></trkpt><trkpt lat="43.74327269087124" lon="10.476858066589168"><ele>151.28571428571428</ele><time>2026-04-25T08:35:13.998Z</time></trkpt><trkpt lat="43.74327708207235" lon="10.476767667834164"><ele>149.85714285714286</ele><time>2026-04-25T08:35:15.998Z</time></trkpt><trkpt lat="43.743291611549694" lon="10.476663975736697"><ele>148.42857142857142</ele><time>2026-04-25T08:35:17.998Z</time></trkpt><trkpt lat="43.74331460547359" lon="10.476567751029988"><ele>147.0</ele><time>2026-04-25T08:35:19.998Z</time></trkpt><trkpt lat="43.74332529802206" lon="10.47645850481381"><ele>147.0</ele><time>2026-04-25T08:35:21.998Z</time></trkpt><trkpt lat="43.7433492314314" lon="10.476362679197937"><ele>147.0</ele><time>2026-04-25T08:35:23.998Z</time></trkpt><trkpt lat="43.743371722530455" lon="10.476238682999844"><ele>147.0</ele><time>2026-04-25T08:35:25.998Z</time></trkpt><trkpt lat="43.743392550483605" lon="10.476129105355865"><ele>147.0</ele><time>2026-04-25T08:35:27.998Z</time></trkpt><trkpt lat="43.74343262300621" lon="10.47599560301816"><ele>147.0</ele><time>2026-04-25T08:35:29.998Z</time></trkpt><trkpt lat="43.743449934174194" lon="10.475897984829679"><ele>147.0</ele><time>2026-04-25T08:35:30.998Z</time></trkpt><trkpt lat="43.74347951057511" lon="10.47579811822923"><ele>148.16666666666666</ele><time>2026-04-25T08:35:31.998Z</time></trkpt><trkpt lat="43.743504183591526" lon="10.47571620384849"><ele>149.33333333333334</ele><time>2026-04-25T08:35:32.998Z</time></trkpt><trkpt lat="43.74353338949891" lon="10.47558803931053"><ele>150.5</ele><time>2026-04-25T08:35:34.998Z</time></trkpt><trkpt lat="43.7435834231109" lon="10.475485769148873"><ele>151.66666666666669</ele><time>2026-04-25T08:35:36.998Z</time></trkpt><trkpt lat="43.74362159271795" lon="10.47537360158738"><ele>152.83333333333334</ele><time>2026-04-25T08:35:38.998Z</time></trkpt><trkpt lat="43.74365695712916" lon="10.475259965409288"><ele>154.0</ele><time>2026-04-25T08:35:40.998Z</time></trkpt><trkpt lat="43.74368803511038" lon="10.475168903524658"><ele>154.0</ele><time>2026-04-25T08:35:42.998Z</time></trkpt><trkpt lat="43.743734628280656" lon="10.47501554401209"><ele>154.0</ele><time>2026-04-25T08:35:44.998Z</time></trkpt><trkpt lat="43.74377296864835" lon="10.474937424246324"><ele>154.0</ele><time>2026-04-25T08:35:45.998Z</time></trkpt><trkpt lat="43.74382253675979" lon="10.474854673864169"><ele>154.0</ele><time>2026-04-25T08:35:46.998Z</time></trkpt><trkpt lat="43.74387771332452" lon="10.474772565355616"><ele>154.0</ele><time>2026-04-25T08:35:47.998Z</time></trkpt><trkpt lat="43.743927769616555" lon="10.474712857777886"><ele>154.0</ele><time>2026-04-25T08:35:48.998Z</time></trkpt><trkpt lat="43.74399235263607" lon="10.474631485115385"><ele>154.0</ele><time>2026-04-25T08:35:50.998Z</time></trkpt><trkpt lat="43.74406603159551" lon="10.474517691547106"><ele>154.0</ele><time>2026-04-25T08:35:53.998Z</time></trkpt><trkpt lat="43.74407326011199" lon="10.474413289472883"><ele>154.0</ele><time>2026-04-25T08:35:55.999Z</time></trkpt><trkpt lat="43.74400992274689" lon="10.47440004768005"><ele>154.0</ele><time>2026-04-25T08:36:00.999Z</time></trkpt><trkpt lat="43.74394961730171" lon="10.474480365009773"><ele>154.0</ele><time>2026-04-25T08:37:04.999Z</time></trkpt><trkpt lat="43.743926598830825" lon="10.47456970636162"><ele>154.0</ele><time>2026-04-25T08:37:06.999Z</time></trkpt><trkpt lat="43.74381804966381" lon="10.474723969363286"><ele>154.0</ele><time>2026-04-25T08:37:08.999Z</time></trkpt><trkpt lat="43.74373201093722" lon="10.474834767478818"><ele>154.0</ele><time>2026-04-25T08:37:09.999Z</time></trkpt><trkpt lat="43.74368619384629" lon="10.474910992702894"><ele>154.0</ele><time>2026-04-25T08:37:10.999Z</time></trkpt><trkpt lat="43.74361404339853" lon="10.475033512846819"><ele>154.0</ele><time>2026-04-25T08:37:12.998Z</time></trkpt><trkpt lat="43.74356027515615" lon="10.475102751256292"><ele>154.0</ele><time>2026-04-25T08:37:13.998Z</time></trkpt><trkpt lat="43.74350539123304" lon="10.475189069847357"><ele>150.33333333333334</ele><time>2026-04-25T08:37:14.998Z</time></trkpt><trkpt lat="43.743449020895746" lon="10.47528488184998"><ele>146.66666666666669</ele><time>2026-04-25T08:37:15.998Z</time></trkpt><trkpt lat="43.74339662683356" lon="10.47537537758573"><ele>143.0</ele><time>2026-04-25T08:37:16.998Z</time></trkpt><trkpt lat="43.74335024399069" lon="10.475456072841338"><ele>139.33333333333334</ele><time>2026-04-25T08:37:17.998Z</time></trkpt><trkpt lat="43.74330033520324" lon="10.475559629030007"><ele>135.66666666666666</ele><time>2026-04-25T08:37:19.998Z</time></trkpt><trkpt lat="43.7432645950022" lon="10.475643098373798"><ele>132.0</ele><time>2026-04-25T08:37:21.998Z</time></trkpt><trkpt lat="43.74323761810836" lon="10.475738832116644"><ele>132.0</ele><time>2026-04-25T08:37:30.998Z</time></trkpt><trkpt lat="43.74317904502212" lon="10.47585604176271"><ele>132.0</ele><time>2026-04-25T08:37:32.998Z</time></trkpt><trkpt lat="43.74314299285015" lon="10.475937855081197"><ele>132.0</ele><time>2026-04-25T08:37:33.998Z</time></trkpt><trkpt lat="43.743080233786664" lon="10.476066297561463"><ele>132.0</ele><time>2026-04-25T08:37:35.998Z</time></trkpt><trkpt lat="43.74303889656635" lon="10.476171982036703"><ele>132.0</ele><time>2026-04-25T08:37:37.998Z</time></trkpt><trkpt lat="43.74299642463915" lon="10.476265738005702"><ele>134.5</ele><time>2026-04-25T08:37:40.998Z</time></trkpt><trkpt lat="43.7429546088594" lon="10.476364475603383"><ele>137.0</ele><time>2026-04-25T08:37:43.998Z</time></trkpt><trkpt lat="43.742914913713896" lon="10.476449360062524"><ele>139.5</ele><time>2026-04-25T08:37:45.998Z</time></trkpt><trkpt lat="43.742872501455224" lon="10.476560516509085"><ele>142.0</ele><time>2026-04-25T08:37:48.998Z</time></trkpt><trkpt lat="43.7428391034122" lon="10.476649140217715"><ele>144.5</ele><time>2026-04-25T08:37:50.998Z</time></trkpt><trkpt lat="43.7427971230837" lon="10.476776553230904"><ele>147.0</ele><time>2026-04-25T08:37:52.998Z</time></trkpt><trkpt lat="43.742757141018565" lon="10.476883100127845"><ele>141.66666666666666</ele><time>2026-04-25T08:37:54.998Z</time></trkpt><trkpt lat="43.742707286518446" lon="10.476975679794663"><ele>136.33333333333334</ele><time>2026-04-25T08:37:56.998Z</time></trkpt><trkpt lat="43.742665722278474" lon="10.477105334954901"><ele>131.0</ele><time>2026-04-25T08:37:58.998Z</time></trkpt><trkpt lat="43.74263728059492" lon="10.477219083994273"><ele>125.66666666666667</ele><time>2026-04-25T08:38:00.999Z</time></trkpt><trkpt lat="43.74261157235144" lon="10.477323947952756"><ele>120.33333333333334</ele><time>2026-04-25T08:38:02.999Z</time></trkpt><trkpt lat="43.742583392251426" lon="10.477426625804302"><ele>115.0</ele><time>2026-04-25T08:38:05Z</time></trkpt><trkpt lat="43.742541781667605" lon="10.477550668096944"><ele>115.00000000000001</ele><time>2026-04-25T08:38:06.999Z</time></trkpt><trkpt lat="43.74251650322808" lon="10.4776625478403"><ele>115.0</ele><time>2026-04-25T08:38:08.999Z</time></trkpt><trkpt lat="43.74248192816024" lon="10.477779945648162"><ele>115.0</ele><time>2026-04-25T08:38:11Z</time></trkpt><trkpt lat="43.742439575384644" lon="10.47786091013555"><ele>115.0</ele><time>2026-04-25T08:38:12.999Z</time></trkpt><trkpt lat="43.74242849028181" lon="10.477952174022041"><ele>115.00000000000001</ele><time>2026-04-25T08:38:14.999Z</time></trkpt><trkpt lat="43.74242100935958" lon="10.478053166461205"><ele>115.0</ele><time>2026-04-25T08:38:17.999Z</time></trkpt><trkpt lat="43.74243408047167" lon="10.478177349283067"><ele>117.00000000000001</ele><time>2026-04-25T08:38:20.999Z</time></trkpt><trkpt lat="43.742446942722324" lon="10.478273465483323"><ele>119.0</ele><time>2026-04-25T08:38:22.999Z</time></trkpt><trkpt lat="43.74243389952726" lon="10.478363691630506"><ele>121.0</ele><time>2026-04-25T08:38:24.999Z</time></trkpt><trkpt lat="43.7423627469577" lon="10.478425684317664"><ele>123.0</ele><time>2026-04-25T08:38:27.999Z</time></trkpt><trkpt lat="43.74229061743302" lon="10.478390785748246"><ele>125.00000000000001</ele><time>2026-04-25T08:38:30.999Z</time></trkpt><trkpt lat="43.74221997216126" lon="10.478319503020225"><ele>127.0</ele><time>2026-04-25T08:38:33.999Z</time></trkpt><trkpt lat="43.742158361126165" lon="10.478228663372647"><ele>127.00000000000001</ele><time>2026-04-25T08:38:36.999Z</time></trkpt><trkpt lat="43.74210687882822" lon="10.478135507528973"><ele>127.0</ele><time>2026-04-25T08:38:39.999Z</time></trkpt><trkpt lat="43.742066131844844" lon="10.478057113316456"><ele>127.0</ele><time>2026-04-25T08:38:43.999Z</time></trkpt><trkpt lat="43.74204010093243" lon="10.477965529198194"><ele>127.0</ele><time>2026-04-25T08:38:47.999Z</time></trkpt><trkpt lat="43.741996961818835" lon="10.477860948393568"><ele>127.00000000000001</ele><time>2026-04-25T08:38:51.999Z</time></trkpt><trkpt lat="43.74194690216702" lon="10.47778318339771"><ele>127.0</ele><time>2026-04-25T08:38:54.999Z</time></trkpt><trkpt lat="43.74188372503501" lon="10.477708657209025"><ele>124.83333333333334</ele><time>2026-04-25T08:38:57.999Z</time></trkpt><trkpt lat="43.74181423187877" lon="10.477635405424362"><ele>122.66666666666667</ele><time>2026-04-25T08:39:01.999Z</time></trkpt><trkpt lat="43.741746135326935" lon="10.47755470515015"><ele>120.5</ele><time>2026-04-25T08:39:04.999Z</time></trkpt><trkpt lat="43.741696952422764" lon="10.477491922305333"><ele>118.33333333333334</ele><time>2026-04-25T08:39:06.998Z</time></trkpt><trkpt lat="43.74162425050099" lon="10.477420896792616"><ele>116.16666666666667</ele><time>2026-04-25T08:39:08.998Z</time></trkpt><trkpt lat="43.74155161254566" lon="10.477355094124903"><ele>114.0</ele><time>2026-04-25T08:39:11.998Z</time></trkpt><trkpt lat="43.7415032512708" lon="10.477288557441494"><ele>114.0</ele><time>2026-04-25T08:39:13.998Z</time></trkpt><trkpt lat="43.741451454266716" lon="10.477172265107317"><ele>114.0</ele><time>2026-04-25T08:39:15.998Z</time></trkpt><trkpt lat="43.74139250761216" lon="10.477048207767838"><ele>114.0</ele><time>2026-04-25T08:39:17.998Z</time></trkpt><trkpt lat="43.74132633454506" lon="10.476927009863854"><ele>114.0</ele><time>2026-04-25T08:39:19.998Z</time></trkpt><trkpt lat="43.741251958354596" lon="10.476842549388264"><ele>114.0</ele><time>2026-04-25T08:39:21.998Z</time></trkpt><trkpt lat="43.74116597628487" lon="10.476748707965827"><ele>112.33333333333333</ele><time>2026-04-25T08:39:23.998Z</time></trkpt><trkpt lat="43.74110749300948" lon="10.47670002967473"><ele>110.66666666666666</ele><time>2026-04-25T08:39:24.998Z</time></trkpt><trkpt lat="43.741033059502676" lon="10.47665492109879"><ele>109.0</ele><time>2026-04-25T08:39:25.998Z</time></trkpt><trkpt lat="43.74097738566011" lon="10.476608744312843"><ele>107.33333333333333</ele><time>2026-04-25T08:39:26.998Z</time></trkpt><trkpt lat="43.74086830114386" lon="10.47655559555822"><ele>105.66666666666666</ele><time>2026-04-25T08:39:28.998Z</time></trkpt><trkpt lat="43.740760160637144" lon="10.47649799526631"><ele>104.0</ele><time>2026-04-25T08:39:30.998Z</time></trkpt><trkpt lat="43.74066055872775" lon="10.476437353876246"><ele>104.0</ele><time>2026-04-25T08:39:32.998Z</time></trkpt><trkpt lat="43.74057012708044" lon="10.476397101727205"><ele>104.0</ele><time>2026-04-25T08:39:34.998Z</time></trkpt><trkpt lat="43.74046117634398" lon="10.476322345452381"><ele>104.0</ele><time>2026-04-25T08:39:36.998Z</time></trkpt><trkpt lat="43.740359197594444" lon="10.47624921986634"><ele>104.0</ele><time>2026-04-25T08:39:38.998Z</time></trkpt><trkpt lat="43.74028602795832" lon="10.476186844238502"><ele>104.0</ele><time>2026-04-25T08:39:40.998Z</time></trkpt><trkpt lat="43.74021368816903" lon="10.476131243365131"><ele>100.66666666666666</ele><time>2026-04-25T08:39:43.998Z</time></trkpt><trkpt lat="43.74014789089977" lon="10.476075746049661"><ele>97.33333333333333</ele><time>2026-04-25T08:39:46.998Z</time></trkpt><trkpt lat="43.74006922481002" lon="10.476036496099285"><ele>94.0</ele><time>2026-04-25T08:39:49.998Z</time></trkpt><trkpt lat="43.739991181119755" lon="10.475988861588311"><ele>90.66666666666666</ele><time>2026-04-25T08:39:53.999Z</time></trkpt><trkpt lat="43.73993148051494" lon="10.475950282278644"><ele>87.33333333333333</ele><time>2026-04-25T08:39:55.999Z</time></trkpt><trkpt lat="43.73986474954482" lon="10.475893827543832"><ele>84.0</ele><time>2026-04-25T08:39:57.999Z</time></trkpt><trkpt lat="43.73979323366339" lon="10.475859181272575"><ele>84.0</ele><time>2026-04-25T08:39:59.999Z</time></trkpt><trkpt lat="43.73970787454737" lon="10.475819825434934"><ele>84.0</ele><time>2026-04-25T08:40:01.999Z</time></trkpt><trkpt lat="43.73963392165901" lon="10.47577899144237"><ele>84.0</ele><time>2026-04-25T08:40:03.999Z</time></trkpt><trkpt lat="43.73955547361748" lon="10.47573992148931"><ele>84.0</ele><time>2026-04-25T08:40:06Z</time></trkpt><trkpt lat="43.73947951534243" lon="10.475697064220917"><ele>84.0</ele><time>2026-04-25T08:40:08Z</time></trkpt><trkpt lat="43.73942108999652" lon="10.475661412206577"><ele>84.0</ele><time>2026-04-25T08:40:09Z</time></trkpt><trkpt lat="43.73934522102788" lon="10.47563909912783"><ele>83.66666666666667</ele><time>2026-04-25T08:40:11Z</time></trkpt><trkpt lat="43.739280441530525" lon="10.47560926764366"><ele>83.33333333333333</ele><time>2026-04-25T08:40:14Z</time></trkpt><trkpt lat="43.73920169361858" lon="10.475565439433298"><ele>83.0</ele><time>2026-04-25T08:40:18Z</time></trkpt><trkpt lat="43.739104923295415" lon="10.475551228996562"><ele>82.66666666666666</ele><time>2026-04-25T08:40:21Z</time></trkpt><trkpt lat="43.739036311546315" lon="10.475546812863357"><ele>82.33333333333333</ele><time>2026-04-25T08:40:23Z</time></trkpt><trkpt lat="43.73896527523274" lon="10.475537013642443"><ele>82.0</ele><time>2026-04-25T08:40:25Z</time></trkpt><trkpt lat="43.73888476396831" lon="10.475529832391251"><ele>82.0</ele><time>2026-04-25T08:40:27Z</time></trkpt><trkpt lat="43.738796354987144" lon="10.475521944322907"><ele>82.0</ele><time>2026-04-25T08:40:29Z</time></trkpt><trkpt lat="43.73870048412986" lon="10.475521528816449"><ele>82.0</ele><time>2026-04-25T08:40:31Z</time></trkpt><trkpt lat="43.73863225087257" lon="10.47552566781926"><ele>82.0</ele><time>2026-04-25T08:40:33Z</time></trkpt><trkpt lat="43.7385745221055" lon="10.475589117245995"><ele>82.0</ele><time>2026-04-25T08:40:36Z</time></trkpt><trkpt lat="43.738532931028935" lon="10.475693490774926"><ele>82.0</ele><time>2026-04-25T08:40:40Z</time></trkpt><trkpt lat="43.73850271586609" lon="10.475786886054587"><ele>80.57142857142857</ele><time>2026-04-25T08:40:43Z</time></trkpt><trkpt lat="43.738467451282396" lon="10.475875735432686"><ele>79.14285714285714</ele><time>2026-04-25T08:40:47Z</time></trkpt><trkpt lat="43.73843965872444" lon="10.475980021762568"><ele>77.71428571428572</ele><time>2026-04-25T08:40:50Z</time></trkpt><trkpt lat="43.73840293289249" lon="10.476093357593072"><ele>76.28571428571428</ele><time>2026-04-25T08:40:53Z</time></trkpt><trkpt lat="43.738372024330744" lon="10.476172965331914"><ele>74.85714285714286</ele><time>2026-04-25T08:40:55Z</time></trkpt><trkpt lat="43.73832757513718" lon="10.476246498467516"><ele>73.42857142857143</ele><time>2026-04-25T08:40:57Z</time></trkpt><trkpt lat="43.738287125766405" lon="10.47632377231444"><ele>72.0</ele><time>2026-04-25T08:41:00Z</time></trkpt><trkpt lat="43.73824202717119" lon="10.476422374877155"><ele>72.0</ele><time>2026-04-25T08:41:03Z</time></trkpt><trkpt lat="43.738212703492955" lon="10.476515845620359"><ele>72.0</ele><time>2026-04-25T08:41:05Z</time></trkpt><trkpt lat="43.738146166925716" lon="10.476606396145776"><ele>72.0</ele><time>2026-04-25T08:41:08Z</time></trkpt><trkpt lat="43.738068087445654" lon="10.476645641754525"><ele>72.0</ele><time>2026-04-25T08:41:11Z</time></trkpt><trkpt lat="43.73800811533556" lon="10.47670751535786"><ele>72.0</ele><time>2026-04-25T08:41:12.999Z</time></trkpt><trkpt lat="43.73795036845999" lon="10.476799131329386"><ele>72.0</ele><time>2026-04-25T08:41:14.999Z</time></trkpt><trkpt lat="43.737958833755094" lon="10.476925828986458"><ele>72.0</ele><time>2026-04-25T08:41:16.999Z</time></trkpt><trkpt lat="43.73796563476883" lon="10.477034876450952"><ele>72.0</ele><time>2026-04-25T08:41:18.999Z</time></trkpt><trkpt lat="43.73796119927012" lon="10.477144739967718"><ele>72.0</ele><time>2026-04-25T08:41:21.999Z</time></trkpt><trkpt lat="43.7379580393669" lon="10.477257424871501"><ele>72.0</ele><time>2026-04-25T08:41:23.999Z</time></trkpt><trkpt lat="43.737956711020544" lon="10.47739361132565"><ele>72.0</ele><time>2026-04-25T08:41:25.999Z</time></trkpt><trkpt lat="43.737952706652884" lon="10.477483975557083"><ele>72.0</ele><time>2026-04-25T08:41:26.999Z</time></trkpt><trkpt lat="43.73794985703745" lon="10.477579202381685"><ele>73.5</ele><time>2026-04-25T08:41:27.999Z</time></trkpt><trkpt lat="43.7379517848272" lon="10.477679539537377"><ele>75.0</ele><time>2026-04-25T08:41:28.999Z</time></trkpt><trkpt lat="43.73794764970565" lon="10.477780552364658"><ele>76.5</ele><time>2026-04-25T08:41:29.999Z</time></trkpt><trkpt lat="43.73795073438553" lon="10.477885107008333"><ele>78.0</ele><time>2026-04-25T08:41:30.999Z</time></trkpt><trkpt lat="43.73794914494891" lon="10.4780499972095"><ele>79.5</ele><time>2026-04-25T08:41:32.999Z</time></trkpt><trkpt lat="43.73795440898508" lon="10.478176597871455"><ele>81.0</ele><time>2026-04-25T08:41:34.999Z</time></trkpt><trkpt lat="43.73794934652682" lon="10.478279583814206"><ele>81.25</ele><time>2026-04-25T08:41:36.999Z</time></trkpt><trkpt lat="43.73795494032116" lon="10.47847224865774"><ele>81.5</ele><time>2026-04-25T08:41:38.999Z</time></trkpt><trkpt lat="43.737961797783875" lon="10.47862511198618"><ele>81.75</ele><time>2026-04-25T08:41:39.999Z</time></trkpt><trkpt lat="43.73796427533531" lon="10.478785630363118"><ele>82.0</ele><time>2026-04-25T08:41:40.999Z</time></trkpt><trkpt lat="43.73796661791364" lon="10.478956687964999"><ele>82.16666666666666</ele><time>2026-04-25T08:41:41.999Z</time></trkpt><trkpt lat="43.73796914283424" lon="10.479085316220404"><ele>82.33333333333333</ele><time>2026-04-25T08:41:42.999Z</time></trkpt><trkpt lat="43.737965011727766" lon="10.479189769837776"><ele>82.5</ele><time>2026-04-25T08:41:43.999Z</time></trkpt><trkpt lat="43.737956086924314" lon="10.479294631729767"><ele>82.66666666666667</ele><time>2026-04-25T08:41:44.999Z</time></trkpt><trkpt lat="43.737957591722214" lon="10.479422208659432"><ele>82.83333333333334</ele><time>2026-04-25T08:41:45.999Z</time></trkpt><trkpt lat="43.73795291937158" lon="10.479573402710713"><ele>83.0</ele><time>2026-04-25T08:41:46.999Z</time></trkpt><trkpt lat="43.73794305496996" lon="10.479736138368429"><ele>82.80000000000001</ele><time>2026-04-25T08:41:47.999Z</time></trkpt><trkpt lat="43.73794594179627" lon="10.479902366936974"><ele>82.6</ele><time>2026-04-25T08:41:48.999Z</time></trkpt><trkpt lat="43.737941933380995" lon="10.480048899987516"><ele>82.4</ele><time>2026-04-25T08:41:49.999Z</time></trkpt><trkpt lat="43.73793867496994" lon="10.480176921377304"><ele>82.19999999999999</ele><time>2026-04-25T08:41:50.999Z</time></trkpt><trkpt lat="43.73793700938301" lon="10.480318782364154"><ele>82.0</ele><time>2026-04-25T08:41:51.999Z</time></trkpt><trkpt lat="43.73792357628066" lon="10.480461888309012"><ele>82.0</ele><time>2026-04-25T08:41:52.999Z</time></trkpt><trkpt lat="43.7379085566751" lon="10.480602272619874"><ele>82.0</ele><time>2026-04-25T08:41:53.999Z</time></trkpt><trkpt lat="43.73789024326154" lon="10.480732213082824"><ele>82.0</ele><time>2026-04-25T08:41:54.999Z</time></trkpt><trkpt lat="43.73788091305621" lon="10.480859855998414"><ele>82.0</ele><time>2026-04-25T08:41:55.999Z</time></trkpt><trkpt lat="43.737866196684884" lon="10.48100265405696"><ele>82.0</ele><time>2026-04-25T08:41:56.999Z</time></trkpt><trkpt lat="43.73783928414632" lon="10.481157633063313"><ele>82.0</ele><time>2026-04-25T08:41:57.999Z</time></trkpt><trkpt lat="43.73780780686965" lon="10.481294215975955"><ele>82.0</ele><time>2026-04-25T08:41:58.999Z</time></trkpt><trkpt lat="43.73778000405165" lon="10.481414548983595"><ele>82.0</ele><time>2026-04-25T08:41:59.999Z</time></trkpt><trkpt lat="43.737760541437325" lon="10.481514659572737"><ele>82.0</ele><time>2026-04-25T08:42:00.999Z</time></trkpt><trkpt lat="43.73774748529084" lon="10.481699818501992"><ele>82.0</ele><time>2026-04-25T08:42:02.999Z</time></trkpt><trkpt lat="43.73775749739484" lon="10.48179149804725"><ele>82.0</ele><time>2026-04-25T08:42:03.999Z</time></trkpt><trkpt lat="43.73775886143341" lon="10.48189834762352"><ele>82.0</ele><time>2026-04-25T08:42:05.999Z</time></trkpt><trkpt lat="43.73775303519226" lon="10.482021067667267"><ele>82.0</ele><time>2026-04-25T08:42:07.999Z</time></trkpt><trkpt lat="43.73771111735989" lon="10.482202592719657"><ele>82.0</ele><time>2026-04-25T08:42:09.999Z</time></trkpt><trkpt lat="43.73768284584317" lon="10.482306339205726"><ele>82.0</ele><time>2026-04-25T08:42:10.999Z</time></trkpt><trkpt lat="43.7376462167902" lon="10.482413990696916"><ele>77.66666666666666</ele><time>2026-04-25T08:42:12Z</time></trkpt><trkpt lat="43.7376107211362" lon="10.482521379018365"><ele>73.33333333333333</ele><time>2026-04-25T08:42:13Z</time></trkpt><trkpt lat="43.737569667061415" lon="10.48261300894649"><ele>69.0</ele><time>2026-04-25T08:42:14Z</time></trkpt><trkpt lat="43.73751744833996" lon="10.482680870342868"><ele>64.66666666666667</ele><time>2026-04-25T08:42:15Z</time></trkpt><trkpt lat="43.73746015517189" lon="10.482764828089394"><ele>60.333333333333336</ele><time>2026-04-25T08:42:16Z</time></trkpt><trkpt lat="43.73741606029286" lon="10.482876367692754"><ele>56.0</ele><time>2026-04-25T08:42:17Z</time></trkpt><trkpt lat="43.737351250088935" lon="10.482982249879502"><ele>56.0</ele><time>2026-04-25T08:42:18Z</time></trkpt><trkpt lat="43.73732404091063" lon="10.483122196917227"><ele>55.99999999999999</ele><time>2026-04-25T08:42:19Z</time></trkpt><trkpt lat="43.73729221060183" lon="10.483256581640843"><ele>55.99999999999999</ele><time>2026-04-25T08:42:20Z</time></trkpt><trkpt lat="43.73726840268165" lon="10.483366554766388"><ele>56.0</ele><time>2026-04-25T08:42:21Z</time></trkpt><trkpt lat="43.737246412979545" lon="10.483455713543375"><ele>56.0</ele><time>2026-04-25T08:42:22Z</time></trkpt><trkpt lat="43.73717247574889" lon="10.48355120005739"><ele>56.0</ele><time>2026-04-25T08:42:24Z</time></trkpt><trkpt lat="43.737070316469456" lon="10.483683822684105"><ele>56.0</ele><time>2026-04-25T08:42:26Z</time></trkpt><trkpt lat="43.736991662482396" lon="10.483773447257548"><ele>56.0</ele><time>2026-04-25T08:42:27Z</time></trkpt><trkpt lat="43.7368921527518" lon="10.4838905068571"><ele>56.0</ele><time>2026-04-25T08:42:28Z</time></trkpt><trkpt lat="43.73680667781517" lon="10.483985054263664"><ele>49.0</ele><time>2026-04-25T08:42:29Z</time></trkpt><trkpt lat="43.73673270256221" lon="10.48405682137836"><ele>49.0</ele><time>2026-04-25T08:42:30Z</time></trkpt><trkpt lat="43.73666172072494" lon="10.484116918114404"><ele>49.0</ele><time>2026-04-25T08:42:31Z</time></trkpt><trkpt lat="43.73657438587635" lon="10.484189490552602"><ele>49.0</ele><time>2026-04-25T08:42:33Z</time></trkpt><trkpt lat="43.7365135594916" lon="10.484271213019511"><ele>49.0</ele><time>2026-04-25T08:42:37Z</time></trkpt></trkseg></trk></gpx>